<?xml version='1.0' encoding='UTF-8'?><gpx version="1.1" creator="JPX - https://github.com/jenetics/jpx" xmlns="http://www.topografix.com/GPX/1/1"><trk><trkseg><trkpt lat="44.9139889" lon="7.2776749"><ele>917.0</ele><time>2026-04-07T11:48:38.72Z</time></trkpt><trkpt lat="44.914055" lon="7.2776322"><ele>917.0</ele><time>2026-04-07T11:48:40.72Z</time></trkpt><trkpt lat="44.9141096" lon="7.2774831"><ele>917.0</ele><time>2026-04-07T11:48:42.72Z</time></trkpt><trkpt lat="44.9140964" lon="7.2773414"><ele>917.0</ele><time>2026-04-07T11:48:44.72Z</time></trkpt><trkpt lat="44.9140087" lon="7.2772465"><ele>917.0</ele><time>2026-04-07T11:48:46.72Z</time></trkpt><trkpt lat="44.9138825" lon="7.2772007"><ele>916.3333333333334</ele><time>2026-04-07T11:48:48.72Z</time></trkpt><trkpt lat="44.9138154" lon="7.2771829"><ele>915.6666666666667</ele><time>2026-04-07T11:48:49.72Z</time></trkpt><trkpt lat="44.9137485" lon="7.27715"><ele>915.0</ele><time>2026-04-07T11:48:50.72Z</time></trkpt><trkpt lat="44.9136807" lon="7.2770909"><ele>914.3333333333333</ele><time>2026-04-07T11:48:51.72Z</time></trkpt><trkpt lat="44.9136086" lon="7.2770095"><ele>913.6666666666666</ele><time>2026-04-07T11:48:52.72Z</time></trkpt><trkpt lat="44.9135395" lon="7.2769107"><ele>913.0</ele><time>2026-04-07T11:48:53.72Z</time></trkpt><trkpt lat="44.9134678" lon="7.2768012"><ele>916.0</ele><time>2026-04-07T11:48:54.72Z</time></trkpt><trkpt lat="44.9133835" lon="7.2766893"><ele>919.0</ele><time>2026-04-07T11:48:55.72Z</time></trkpt><trkpt lat="44.9132936" lon="7.2765672"><ele>922.0</ele><time>2026-04-07T11:48:56.72Z</time></trkpt><trkpt lat="44.9132107" lon="7.27644"><ele>925.0</ele><time>2026-04-07T11:48:57.72Z</time></trkpt><trkpt lat="44.9131378" lon="7.2763152"><ele>925.0</ele><time>2026-04-07T11:48:58.72Z</time></trkpt><trkpt lat="44.9130766" lon="7.2761899"><ele>925.0</ele><time>2026-04-07T11:48:59.72Z</time></trkpt><trkpt lat="44.9130275" lon="7.2760544"><ele>925.0</ele><time>2026-04-07T11:49:00.72Z</time></trkpt><trkpt lat="44.9129831" lon="7.2759109"><ele>925.0</ele><time>2026-04-07T11:49:01.72Z</time></trkpt><trkpt lat="44.9129462" lon="7.2757714"><ele>925.0</ele><time>2026-04-07T11:49:02.719Z</time></trkpt><trkpt lat="44.9129138" lon="7.2756278"><ele>923.8333333333333</ele><time>2026-04-07T11:49:03.72Z</time></trkpt><trkpt lat="44.9128812" lon="7.2754993"><ele>922.6666666666666</ele><time>2026-04-07T11:49:04.72Z</time></trkpt><trkpt lat="44.9128463" lon="7.2753729"><ele>921.5</ele><time>2026-04-07T11:49:05.72Z</time></trkpt><trkpt lat="44.9128156" lon="7.2752484"><ele>920.3333333333333</ele><time>2026-04-07T11:49:06.72Z</time></trkpt><trkpt lat="44.9127907" lon="7.2751447"><ele>919.1666666666666</ele><time>2026-04-07T11:49:07.72Z</time></trkpt><trkpt lat="44.912766" lon="7.2750602"><ele>918.0</ele><time>2026-04-07T11:49:08.72Z</time></trkpt><trkpt lat="44.9127008" lon="7.2749451"><ele>918.0</ele><time>2026-04-07T11:49:10.72Z</time></trkpt><trkpt lat="44.9126106" lon="7.274905"><ele>918.0</ele><time>2026-04-07T11:49:12.72Z</time></trkpt><trkpt lat="44.9125441" lon="7.2748226"><ele>918.0</ele><time>2026-04-07T11:49:14.72Z</time></trkpt><trkpt lat="44.912492" lon="7.2746652"><ele>918.0</ele><time>2026-04-07T11:49:16.72Z</time></trkpt><trkpt lat="44.9124796" lon="7.2745732"><ele>918.0</ele><time>2026-04-07T11:49:17.72Z</time></trkpt><trkpt lat="44.9124755" lon="7.274483"><ele>918.0</ele><time>2026-04-07T11:49:18.72Z</time></trkpt><trkpt lat="44.9124732" lon="7.2743177"><ele>921.5</ele><time>2026-04-07T11:49:20.72Z</time></trkpt><trkpt lat="44.9124686" lon="7.2742245"><ele>925.0</ele><time>2026-04-07T11:49:21.72Z</time></trkpt><trkpt lat="44.9124657" lon="7.2741222"><ele>928.5</ele><time>2026-04-07T11:49:22.72Z</time></trkpt><trkpt lat="44.9124674" lon="7.2740136"><ele>932.0</ele><time>2026-04-07T11:49:23.72Z</time></trkpt><trkpt lat="44.9124775" lon="7.2739013"><ele>935.5</ele><time>2026-04-07T11:49:24.72Z</time></trkpt><trkpt lat="44.9124836" lon="7.2737857"><ele>939.0</ele><time>2026-04-07T11:49:25.72Z</time></trkpt><trkpt lat="44.9124893" lon="7.2736683"><ele>939.0</ele><time>2026-04-07T11:49:26.72Z</time></trkpt><trkpt lat="44.9124924" lon="7.2735535"><ele>939.0</ele><time>2026-04-07T11:49:27.72Z</time></trkpt><trkpt lat="44.9124983" lon="7.2734421"><ele>939.0</ele><time>2026-04-07T11:49:28.72Z</time></trkpt><trkpt lat="44.9125037" lon="7.2733318"><ele>939.0</ele><time>2026-04-07T11:49:29.72Z</time></trkpt><trkpt lat="44.9125113" lon="7.2732193"><ele>939.0</ele><time>2026-04-07T11:49:30.72Z</time></trkpt><trkpt lat="44.9125155" lon="7.273105"><ele>939.0</ele><time>2026-04-07T11:49:31.72Z</time></trkpt><trkpt lat="44.9125261" lon="7.272986"><ele>938.5</ele><time>2026-04-07T11:49:32.72Z</time></trkpt><trkpt lat="44.9125286" lon="7.2728707"><ele>938.0</ele><time>2026-04-07T11:49:33.72Z</time></trkpt><trkpt lat="44.9125291" lon="7.2727595"><ele>937.5</ele><time>2026-04-07T11:49:34.72Z</time></trkpt><trkpt lat="44.9125252" lon="7.2726533"><ele>937.0</ele><time>2026-04-07T11:49:35.72Z</time></trkpt><trkpt lat="44.9125275" lon="7.2725462"><ele>936.5</ele><time>2026-04-07T11:49:36.72Z</time></trkpt><trkpt lat="44.9125268" lon="7.2724426"><ele>936.0</ele><time>2026-04-07T11:49:37.72Z</time></trkpt><trkpt lat="44.9125272" lon="7.2723362"><ele>934.6666666666666</ele><time>2026-04-07T11:49:38.72Z</time></trkpt><trkpt lat="44.9125281" lon="7.2722367"><ele>933.3333333333333</ele><time>2026-04-07T11:49:39.72Z</time></trkpt><trkpt lat="44.9125309" lon="7.2721476"><ele>932.0</ele><time>2026-04-07T11:49:40.72Z</time></trkpt><trkpt lat="44.9125387" lon="7.2720219"><ele>930.6666666666666</ele><time>2026-04-07T11:49:42.72Z</time></trkpt><trkpt lat="44.9125587" lon="7.2719038"><ele>929.3333333333333</ele><time>2026-04-07T11:49:46.719Z</time></trkpt><trkpt lat="44.9125601" lon="7.2718125"><ele>928.0</ele><time>2026-04-07T11:49:48.72Z</time></trkpt><trkpt lat="44.9125444" lon="7.271701"><ele>928.0</ele><time>2026-04-07T11:49:51.72Z</time></trkpt><trkpt lat="44.9124564" lon="7.2716759"><ele>928.0</ele><time>2026-04-07T11:49:54.72Z</time></trkpt><trkpt lat="44.9123652" lon="7.2717184"><ele>928.0</ele><time>2026-04-07T11:49:56.72Z</time></trkpt><trkpt lat="44.9122439" lon="7.2717766"><ele>928.0</ele><time>2026-04-07T11:49:58.72Z</time></trkpt><trkpt lat="44.9121717" lon="7.2718001"><ele>928.0</ele><time>2026-04-07T11:49:59.72Z</time></trkpt><trkpt lat="44.9120998" lon="7.2718158"><ele>927.9999999999999</ele><time>2026-04-07T11:50:00.72Z</time></trkpt><trkpt lat="44.9120281" lon="7.2718306"><ele>928.0</ele><time>2026-04-07T11:50:01.72Z</time></trkpt><trkpt lat="44.9119482" lon="7.2718526"><ele>928.0</ele><time>2026-04-07T11:50:02.72Z</time></trkpt><trkpt lat="44.9118721" lon="7.2718721"><ele>928.0</ele><time>2026-04-07T11:50:03.72Z</time></trkpt><trkpt lat="44.9117939" lon="7.2718871"><ele>927.9999999999999</ele><time>2026-04-07T11:50:04.72Z</time></trkpt><trkpt lat="44.9117204" lon="7.2719098"><ele>928.0</ele><time>2026-04-07T11:50:05.72Z</time></trkpt><trkpt lat="44.911652" lon="7.2719385"><ele>927.5714285714287</ele><time>2026-04-07T11:50:06.72Z</time></trkpt><trkpt lat="44.9115888" lon="7.27197"><ele>927.1428571428571</ele><time>2026-04-07T11:50:07.72Z</time></trkpt><trkpt lat="44.9115295" lon="7.2720004"><ele>926.7142857142858</ele><time>2026-04-07T11:50:08.719Z</time></trkpt><trkpt lat="44.9114208" lon="7.2720369"><ele>926.2857142857143</ele><time>2026-04-07T11:50:10.72Z</time></trkpt><trkpt lat="44.9113569" lon="7.2720545"><ele>925.8571428571429</ele><time>2026-04-07T11:50:11.72Z</time></trkpt><trkpt lat="44.9112879" lon="7.2720752"><ele>925.4285714285714</ele><time>2026-04-07T11:50:12.72Z</time></trkpt><trkpt lat="44.9112188" lon="7.2720951"><ele>925.0</ele><time>2026-04-07T11:50:13.72Z</time></trkpt><trkpt lat="44.9111539" lon="7.2721214"><ele>925.0</ele><time>2026-04-07T11:50:14.72Z</time></trkpt><trkpt lat="44.9110941" lon="7.2721526"><ele>925.0</ele><time>2026-04-07T11:50:15.72Z</time></trkpt><trkpt lat="44.9109914" lon="7.2722252"><ele>925.0</ele><time>2026-04-07T11:50:17.72Z</time></trkpt><trkpt lat="44.9108995" lon="7.2722803"><ele>925.0</ele><time>2026-04-07T11:50:19.72Z</time></trkpt><trkpt lat="44.9107974" lon="7.2723291"><ele>925.0</ele><time>2026-04-07T11:50:21.719Z</time></trkpt><trkpt lat="44.9107139" lon="7.2723885"><ele>926.8</ele><time>2026-04-07T11:50:23.72Z</time></trkpt><trkpt lat="44.9106125" lon="7.2724166"><ele>928.6</ele><time>2026-04-07T11:50:25.719Z</time></trkpt><trkpt lat="44.9104853" lon="7.272407"><ele>930.4000000000001</ele><time>2026-04-07T11:50:27.72Z</time></trkpt><trkpt lat="44.9104091" lon="7.2724007"><ele>932.2</ele><time>2026-04-07T11:50:28.72Z</time></trkpt><trkpt lat="44.9103278" lon="7.272398"><ele>934.0</ele><time>2026-04-07T11:50:29.72Z</time></trkpt><trkpt lat="44.9102627" lon="7.2724041"><ele>933.9999999999999</ele><time>2026-04-07T11:50:30.72Z</time></trkpt><trkpt lat="44.9101928" lon="7.2724047"><ele>934.0</ele><time>2026-04-07T11:50:31.72Z</time></trkpt><trkpt lat="44.9100806" lon="7.2724056"><ele>934.0</ele><time>2026-04-07T11:50:33.72Z</time></trkpt><trkpt lat="44.9100171" lon="7.2723888"><ele>934.0</ele><time>2026-04-07T11:50:34.72Z</time></trkpt><trkpt lat="44.9099541" lon="7.2723752"><ele>933.9999999999999</ele><time>2026-04-07T11:50:35.72Z</time></trkpt><trkpt lat="44.9098409" lon="7.2723391"><ele>934.0</ele><time>2026-04-07T11:50:37.72Z</time></trkpt><trkpt lat="44.9097448" lon="7.2722988"><ele>929.6666666666666</ele><time>2026-04-07T11:50:39.72Z</time></trkpt><trkpt lat="44.90967" lon="7.2722378"><ele>925.3333333333333</ele><time>2026-04-07T11:50:41.72Z</time></trkpt><trkpt lat="44.9096466" lon="7.2721336"><ele>921.0</ele><time>2026-04-07T11:50:43.72Z</time></trkpt><trkpt lat="44.9096389" lon="7.2720127"><ele>916.6666666666667</ele><time>2026-04-07T11:50:45.72Z</time></trkpt><trkpt lat="44.9096538" lon="7.2719173"><ele>912.3333333333334</ele><time>2026-04-07T11:50:47.72Z</time></trkpt><trkpt lat="44.9097085" lon="7.2718498"><ele>908.0</ele><time>2026-04-07T11:50:50.72Z</time></trkpt><trkpt lat="44.9097918" lon="7.2718456"><ele>908.0</ele><time>2026-04-07T11:50:53.72Z</time></trkpt><trkpt lat="44.9098867" lon="7.2718771"><ele>908.0</ele><time>2026-04-07T11:50:55.72Z</time></trkpt><trkpt lat="44.9099968" lon="7.2718908"><ele>908.0</ele><time>2026-04-07T11:50:57.72Z</time></trkpt><trkpt lat="44.9101012" lon="7.2718502"><ele>908.0</ele><time>2026-04-07T11:50:59.72Z</time></trkpt><trkpt lat="44.9101927" lon="7.2717603"><ele>908.0</ele><time>2026-04-07T11:51:01.72Z</time></trkpt><trkpt lat="44.9102442" lon="7.2716931"><ele>909.1428571428572</ele><time>2026-04-07T11:51:02.72Z</time></trkpt><trkpt lat="44.9103001" lon="7.2716205"><ele>910.2857142857144</ele><time>2026-04-07T11:51:03.72Z</time></trkpt><trkpt lat="44.9103487" lon="7.2715549"><ele>911.4285714285714</ele><time>2026-04-07T11:51:04.72Z</time></trkpt><trkpt lat="44.9103976" lon="7.2714953"><ele>912.5714285714287</ele><time>2026-04-07T11:51:05.72Z</time></trkpt><trkpt lat="44.9104485" lon="7.2714326"><ele>913.7142857142858</ele><time>2026-04-07T11:51:06.72Z</time></trkpt><trkpt lat="44.9104985" lon="7.2713679"><ele>914.8571428571429</ele><time>2026-04-07T11:51:07.72Z</time></trkpt><trkpt lat="44.9105516" lon="7.2713133"><ele>916.0</ele><time>2026-04-07T11:51:08.72Z</time></trkpt><trkpt lat="44.910665" lon="7.2712038"><ele>913.0</ele><time>2026-04-07T11:51:10.72Z</time></trkpt><trkpt lat="44.9107294" lon="7.2711502"><ele>909.9999999999999</ele><time>2026-04-07T11:51:11.72Z</time></trkpt><trkpt lat="44.9107842" lon="7.2711006"><ele>906.9999999999999</ele><time>2026-04-07T11:51:12.72Z</time></trkpt><trkpt lat="44.910889" lon="7.2710097"><ele>904.0</ele><time>2026-04-07T11:51:14.72Z</time></trkpt><trkpt lat="44.9109644" lon="7.2709198"><ele>901.0</ele><time>2026-04-07T11:51:16.72Z</time></trkpt><trkpt lat="44.9110411" lon="7.2708115"><ele>901.0</ele><time>2026-04-07T11:51:18.72Z</time></trkpt><trkpt lat="44.9110784" lon="7.2706886"><ele>900.9999999999999</ele><time>2026-04-07T11:51:20.72Z</time></trkpt><trkpt lat="44.9110873" lon="7.2705625"><ele>900.9999999999999</ele><time>2026-04-07T11:51:22.72Z</time></trkpt><trkpt lat="44.9110652" lon="7.2704471"><ele>901.0</ele><time>2026-04-07T11:51:24.72Z</time></trkpt><trkpt lat="44.9110184" lon="7.2703283"><ele>901.0</ele><time>2026-04-07T11:51:26.72Z</time></trkpt><trkpt lat="44.9109585" lon="7.2701797"><ele>895.75</ele><time>2026-04-07T11:51:28.72Z</time></trkpt><trkpt lat="44.9109074" lon="7.2700228"><ele>890.5</ele><time>2026-04-07T11:51:30.719Z</time></trkpt><trkpt lat="44.910851" lon="7.2698715"><ele>885.25</ele><time>2026-04-07T11:51:32.72Z</time></trkpt><trkpt lat="44.9107978" lon="7.2697344"><ele>880.0</ele><time>2026-04-07T11:51:34.72Z</time></trkpt><trkpt lat="44.9107373" lon="7.2696123"><ele>878.0</ele><time>2026-04-07T11:51:36.72Z</time></trkpt><trkpt lat="44.9106534" lon="7.2694853"><ele>876.0</ele><time>2026-04-07T11:51:38.72Z</time></trkpt><trkpt lat="44.9105645" lon="7.2693777"><ele>874.0</ele><time>2026-04-07T11:51:40.72Z</time></trkpt><trkpt lat="44.910475" lon="7.2692904"><ele>872.0</ele><time>2026-04-07T11:51:42.72Z</time></trkpt><trkpt lat="44.9103925" lon="7.2692019"><ele>872.0000000000001</ele><time>2026-04-07T11:51:44.72Z</time></trkpt><trkpt lat="44.9103238" lon="7.2690989"><ele>872.0</ele><time>2026-04-07T11:51:46.72Z</time></trkpt><trkpt lat="44.9102794" lon="7.2689977"><ele>872.0</ele><time>2026-04-07T11:51:48.72Z</time></trkpt><trkpt lat="44.9102337" lon="7.2689085"><ele>872.0</ele><time>2026-04-07T11:51:50.72Z</time></trkpt><trkpt lat="44.9101611" lon="7.2688747"><ele>872.0000000000001</ele><time>2026-04-07T11:51:52.72Z</time></trkpt><trkpt lat="44.9100985" lon="7.2689187"><ele>872.0</ele><time>2026-04-07T11:51:54.72Z</time></trkpt><trkpt lat="44.9100711" lon="7.2690285"><ele>871.5000000000001</ele><time>2026-04-07T11:51:56.72Z</time></trkpt><trkpt lat="44.9100491" lon="7.2691845"><ele>871.0</ele><time>2026-04-07T11:51:58.72Z</time></trkpt><trkpt lat="44.9100257" lon="7.2693317"><ele>870.5</ele><time>2026-04-07T11:52:00.72Z</time></trkpt><trkpt lat="44.9099987" lon="7.2694198"><ele>870.0</ele><time>2026-04-07T11:52:02.72Z</time></trkpt><trkpt lat="44.9099449" lon="7.2693721"><ele>869.5000000000001</ele><time>2026-04-07T11:52:07.72Z</time></trkpt><trkpt lat="44.9099216" lon="7.2692887"><ele>869.0</ele><time>2026-04-07T11:52:09.719Z</time></trkpt><trkpt lat="44.9098938" lon="7.2691826"><ele>869.0000000000001</ele><time>2026-04-07T11:52:11.72Z</time></trkpt><trkpt lat="44.9098659" lon="7.2690524"><ele>869.0</ele><time>2026-04-07T11:52:13.72Z</time></trkpt><trkpt lat="44.909839" lon="7.2688959"><ele>869.0</ele><time>2026-04-07T11:52:15.72Z</time></trkpt><trkpt lat="44.9098387" lon="7.2688035"><ele>869.0</ele><time>2026-04-07T11:52:16.72Z</time></trkpt><trkpt lat="44.9098342" lon="7.2687066"><ele>869.0000000000001</ele><time>2026-04-07T11:52:17.72Z</time></trkpt><trkpt lat="44.9098234" lon="7.2686179"><ele>869.0</ele><time>2026-04-07T11:52:18.72Z</time></trkpt><trkpt lat="44.9098068" lon="7.2685309"><ele>868.4285714285714</ele><time>2026-04-07T11:52:19.72Z</time></trkpt><trkpt lat="44.9097758" lon="7.2684419"><ele>867.8571428571428</ele><time>2026-04-07T11:52:20.719Z</time></trkpt><trkpt lat="44.9097375" lon="7.2683551"><ele>867.2857142857142</ele><time>2026-04-07T11:52:21.72Z</time></trkpt><trkpt lat="44.9096891" lon="7.2682669"><ele>866.7142857142858</ele><time>2026-04-07T11:52:22.72Z</time></trkpt><trkpt lat="44.9096432" lon="7.2681854"><ele>866.1428571428571</ele><time>2026-04-07T11:52:23.72Z</time></trkpt><trkpt lat="44.909591" lon="7.2681176"><ele>865.5714285714286</ele><time>2026-04-07T11:52:24.72Z</time></trkpt><trkpt lat="44.9095346" lon="7.2680612"><ele>865.0</ele><time>2026-04-07T11:52:25.72Z</time></trkpt><trkpt lat="44.9094811" lon="7.2680044"><ele>864.4999999999999</ele><time>2026-04-07T11:52:26.72Z</time></trkpt><trkpt lat="44.9094289" lon="7.2679474"><ele>864.0</ele><time>2026-04-07T11:52:27.719Z</time></trkpt><trkpt lat="44.9093599" lon="7.2678407"><ele>863.5</ele><time>2026-04-07T11:52:29.719Z</time></trkpt><trkpt lat="44.909335" lon="7.2677281"><ele>863.0</ele><time>2026-04-07T11:52:31.72Z</time></trkpt><trkpt lat="44.909343" lon="7.2676041"><ele>862.4999999999999</ele><time>2026-04-07T11:52:33.72Z</time></trkpt><trkpt lat="44.9093732" lon="7.2674583"><ele>862.0</ele><time>2026-04-07T11:52:35.72Z</time></trkpt><trkpt lat="44.9094186" lon="7.2672996"><ele>860.2857142857143</ele><time>2026-04-07T11:52:37.72Z</time></trkpt><trkpt lat="44.9094507" lon="7.2672202"><ele>858.5714285714286</ele><time>2026-04-07T11:52:38.72Z</time></trkpt><trkpt lat="44.9094888" lon="7.2671445"><ele>856.8571428571429</ele><time>2026-04-07T11:52:39.72Z</time></trkpt><trkpt lat="44.9095334" lon="7.2670641"><ele>855.1428571428571</ele><time>2026-04-07T11:52:40.72Z</time></trkpt><trkpt lat="44.9095811" lon="7.2669681"><ele>853.4285714285713</ele><time>2026-04-07T11:52:41.72Z</time></trkpt><trkpt lat="44.9096201" lon="7.2668793"><ele>851.7142857142857</ele><time>2026-04-07T11:52:42.72Z</time></trkpt><trkpt lat="44.9096547" lon="7.2667959"><ele>850.0</ele><time>2026-04-07T11:52:43.72Z</time></trkpt><trkpt lat="44.9097099" lon="7.266659"><ele>850.0</ele><time>2026-04-07T11:52:45.72Z</time></trkpt><trkpt lat="44.909751" lon="7.2665833"><ele>850.0</ele><time>2026-04-07T11:52:47.72Z</time></trkpt><trkpt lat="44.9098243" lon="7.2664919"><ele>850.0</ele><time>2026-04-07T11:52:50.72Z</time></trkpt><trkpt lat="44.9098968" lon="7.2663863"><ele>850.0</ele><time>2026-04-07T11:52:52.719Z</time></trkpt><trkpt lat="44.9099315" lon="7.2662349"><ele>850.0</ele><time>2026-04-07T11:52:54.72Z</time></trkpt><trkpt lat="44.909944" lon="7.266079"><ele>846.4999999999999</ele><time>2026-04-07T11:52:56.72Z</time></trkpt><trkpt lat="44.9099594" lon="7.2659606"><ele>843.0</ele><time>2026-04-07T11:52:58.72Z</time></trkpt><trkpt lat="44.9100161" lon="7.2658894"><ele>839.5</ele><time>2026-04-07T11:53:00.72Z</time></trkpt><trkpt lat="44.9100942" lon="7.2658592"><ele>836.0</ele><time>2026-04-07T11:53:02.72Z</time></trkpt><trkpt lat="44.9101667" lon="7.2658357"><ele>832.4999999999999</ele><time>2026-04-07T11:53:04.72Z</time></trkpt><trkpt lat="44.9102585" lon="7.2658168"><ele>829.0</ele><time>2026-04-07T11:53:06.72Z</time></trkpt><trkpt lat="44.9103721" lon="7.2657972"><ele>828.0</ele><time>2026-04-07T11:53:08.72Z</time></trkpt><trkpt lat="44.910435" lon="7.2657915"><ele>827.0</ele><time>2026-04-07T11:53:09.72Z</time></trkpt><trkpt lat="44.9105449" lon="7.2657943"><ele>826.0</ele><time>2026-04-07T11:53:11.72Z</time></trkpt><trkpt lat="44.9106483" lon="7.2658016"><ele>825.0</ele><time>2026-04-07T11:53:13.72Z</time></trkpt><trkpt lat="44.9107369" lon="7.2658155"><ele>824.0</ele><time>2026-04-07T11:53:15.72Z</time></trkpt><trkpt lat="44.9108488" lon="7.2658271"><ele>819.25</ele><time>2026-04-07T11:53:17.72Z</time></trkpt><trkpt lat="44.9109501" lon="7.2658697"><ele>814.5</ele><time>2026-04-07T11:53:19.72Z</time></trkpt><trkpt lat="44.9110608" lon="7.2659406"><ele>809.75</ele><time>2026-04-07T11:53:21.719Z</time></trkpt><trkpt lat="44.9111727" lon="7.2660217"><ele>805.0</ele><time>2026-04-07T11:53:23.72Z</time></trkpt><trkpt lat="44.9112716" lon="7.2661087"><ele>805.0</ele><time>2026-04-07T11:53:25.72Z</time></trkpt><trkpt lat="44.9113519" lon="7.266219"><ele>805.0</ele><time>2026-04-07T11:53:27.72Z</time></trkpt><trkpt lat="44.9114118" lon="7.2663232"><ele>805.0</ele><time>2026-04-07T11:53:29.72Z</time></trkpt><trkpt lat="44.9114666" lon="7.266434"><ele>805.0</ele><time>2026-04-07T11:53:31.72Z</time></trkpt><trkpt lat="44.9115384" lon="7.2665343"><ele>805.0</ele><time>2026-04-07T11:53:33.72Z</time></trkpt><trkpt lat="44.9116241" lon="7.2666317"><ele>804.6666666666666</ele><time>2026-04-07T11:53:35.72Z</time></trkpt><trkpt lat="44.9117189" lon="7.2666834"><ele>804.3333333333333</ele><time>2026-04-07T11:53:37.72Z</time></trkpt><trkpt lat="44.9118059" lon="7.2667074"><ele>804.0</ele><time>2026-04-07T11:53:39.72Z</time></trkpt><trkpt lat="44.9118874" lon="7.2667281"><ele>803.6666666666667</ele><time>2026-04-07T11:53:41.72Z</time></trkpt><trkpt lat="44.9119647" lon="7.2666965"><ele>803.3333333333334</ele><time>2026-04-07T11:53:43.72Z</time></trkpt><trkpt lat="44.9120116" lon="7.2666065"><ele>803.0</ele><time>2026-04-07T11:53:45.72Z</time></trkpt><trkpt lat="44.9119739" lon="7.2664654"><ele>799.4</ele><time>2026-04-07T11:53:48.72Z</time></trkpt><trkpt lat="44.9119328" lon="7.2663299"><ele>795.8</ele><time>2026-04-07T11:53:50.72Z</time></trkpt><trkpt lat="44.9119385" lon="7.2661782"><ele>792.2</ele><time>2026-04-07T11:53:52.72Z</time></trkpt><trkpt lat="44.9119864" lon="7.2660302"><ele>788.6</ele><time>2026-04-07T11:53:54.72Z</time></trkpt><trkpt lat="44.9120212" lon="7.2658919"><ele>785.0</ele><time>2026-04-07T11:53:56.72Z</time></trkpt><trkpt lat="44.9120053" lon="7.2657537"><ele>785.0000000000001</ele><time>2026-04-07T11:53:58.72Z</time></trkpt><trkpt lat="44.9119591" lon="7.2656622"><ele>785.0</ele><time>2026-04-07T11:54:00.72Z</time></trkpt><trkpt lat="44.911853" lon="7.2656468"><ele>785.0</ele><time>2026-04-07T11:54:02.72Z</time></trkpt><trkpt lat="44.9117614" lon="7.2656479"><ele>785.0</ele><time>2026-04-07T11:54:04.72Z</time></trkpt><trkpt lat="44.9117069" lon="7.2655965"><ele>785.0000000000001</ele><time>2026-04-07T11:54:06.72Z</time></trkpt><trkpt lat="44.9116777" lon="7.2655107"><ele>785.0</ele><time>2026-04-07T11:54:08.72Z</time></trkpt><trkpt lat="44.9117173" lon="7.2654181"><ele>785.1666666666667</ele><time>2026-04-07T11:54:11.72Z</time></trkpt><trkpt lat="44.9117604" lon="7.265327"><ele>785.3333333333334</ele><time>2026-04-07T11:54:13.72Z</time></trkpt><trkpt lat="44.911748" lon="7.2652345"><ele>785.5</ele><time>2026-04-07T11:54:15.72Z</time></trkpt><trkpt lat="44.9116885" lon="7.2651864"><ele>785.6666666666667</ele><time>2026-04-07T11:54:18.72Z</time></trkpt><trkpt lat="44.9116174" lon="7.2650898"><ele>785.8333333333334</ele><time>2026-04-07T11:54:21.72Z</time></trkpt><trkpt lat="44.9115561" lon="7.264961"><ele>786.0</ele><time>2026-04-07T11:54:23.72Z</time></trkpt><trkpt lat="44.911476" lon="7.2648453"><ele>781.0</ele><time>2026-04-07T11:54:25.72Z</time></trkpt><trkpt lat="44.9113803" lon="7.2647425"><ele>776.0</ele><time>2026-04-07T11:54:27.72Z</time></trkpt><trkpt lat="44.911279" lon="7.2646804"><ele>771.0</ele><time>2026-04-07T11:54:29.72Z</time></trkpt><trkpt lat="44.9111705" lon="7.2646353"><ele>766.0</ele><time>2026-04-07T11:54:31.72Z</time></trkpt><trkpt lat="44.9110383" lon="7.2646274"><ele>766.0</ele><time>2026-04-07T11:54:33.72Z</time></trkpt><trkpt lat="44.9109661" lon="7.264625"><ele>766.0</ele><time>2026-04-07T11:54:34.72Z</time></trkpt><trkpt lat="44.9108954" lon="7.2646173"><ele>766.0</ele><time>2026-04-07T11:54:35.72Z</time></trkpt><trkpt lat="44.9108286" lon="7.2646112"><ele>766.0</ele><time>2026-04-07T11:54:36.72Z</time></trkpt><trkpt lat="44.9107613" lon="7.2645969"><ele>766.0</ele><time>2026-04-07T11:54:37.72Z</time></trkpt><trkpt lat="44.910691" lon="7.2645829"><ele>766.0</ele><time>2026-04-07T11:54:38.72Z</time></trkpt><trkpt lat="44.910619" lon="7.2645639"><ele>766.0</ele><time>2026-04-07T11:54:39.72Z</time></trkpt><trkpt lat="44.9105469" lon="7.264526"><ele>766.5714285714286</ele><time>2026-04-07T11:54:40.72Z</time></trkpt><trkpt lat="44.9104773" lon="7.2644917"><ele>767.1428571428571</ele><time>2026-04-07T11:54:41.72Z</time></trkpt><trkpt lat="44.9104073" lon="7.2644573"><ele>767.7142857142858</ele><time>2026-04-07T11:54:42.72Z</time></trkpt><trkpt lat="44.9103395" lon="7.2644276"><ele>768.2857142857142</ele><time>2026-04-07T11:54:43.72Z</time></trkpt><trkpt lat="44.9102763" lon="7.2643983"><ele>768.8571428571429</ele><time>2026-04-07T11:54:44.72Z</time></trkpt><trkpt lat="44.9102171" lon="7.2643663"><ele>769.4285714285714</ele><time>2026-04-07T11:54:45.72Z</time></trkpt><trkpt lat="44.9101592" lon="7.2643211"><ele>770.0</ele><time>2026-04-07T11:54:46.72Z</time></trkpt><trkpt lat="44.9101041" lon="7.2642558"><ele>770.8333333333334</ele><time>2026-04-07T11:54:47.72Z</time></trkpt><trkpt lat="44.9100573" lon="7.2641686"><ele>771.6666666666667</ele><time>2026-04-07T11:54:48.72Z</time></trkpt><trkpt lat="44.9100248" lon="7.2640668"><ele>772.5</ele><time>2026-04-07T11:54:49.72Z</time></trkpt><trkpt lat="44.909997" lon="7.2639716"><ele>773.3333333333333</ele><time>2026-04-07T11:54:50.72Z</time></trkpt><trkpt lat="44.9099564" lon="7.2638934"><ele>774.1666666666666</ele><time>2026-04-07T11:54:51.72Z</time></trkpt><trkpt lat="44.9098576" lon="7.2638345"><ele>775.0</ele><time>2026-04-07T11:54:53.72Z</time></trkpt><trkpt lat="44.9097734" lon="7.2638227"><ele>769.0</ele><time>2026-04-07T11:54:55.72Z</time></trkpt><trkpt lat="44.9097597" lon="7.2637009"><ele>763.0</ele><time>2026-04-07T11:54:58.72Z</time></trkpt><trkpt lat="44.9098376" lon="7.2636559"><ele>757.0</ele><time>2026-04-07T11:55:01.72Z</time></trkpt><trkpt lat="44.9099209" lon="7.2636673"><ele>751.0</ele><time>2026-04-07T11:55:03.72Z</time></trkpt><trkpt lat="44.9100208" lon="7.2637144"><ele>745.0</ele><time>2026-04-07T11:55:05.72Z</time></trkpt><trkpt lat="44.9101139" lon="7.2637778"><ele>744.3333333333334</ele><time>2026-04-07T11:55:07.72Z</time></trkpt><trkpt lat="44.9102109" lon="7.2638403"><ele>743.6666666666667</ele><time>2026-04-07T11:55:09.72Z</time></trkpt><trkpt lat="44.9103033" lon="7.2638881"><ele>743.0</ele><time>2026-04-07T11:55:11.72Z</time></trkpt><trkpt lat="44.9103813" lon="7.2638584"><ele>742.3333333333334</ele><time>2026-04-07T11:55:13.72Z</time></trkpt><trkpt lat="44.910404" lon="7.2637579"><ele>741.6666666666666</ele><time>2026-04-07T11:55:15.72Z</time></trkpt><trkpt lat="44.910364" lon="7.2636782"><ele>741.0</ele><time>2026-04-07T11:55:17.72Z</time></trkpt><trkpt lat="44.9102948" lon="7.2636079"><ele>741.0</ele><time>2026-04-07T11:55:19.72Z</time></trkpt><trkpt lat="44.9102214" lon="7.2635189"><ele>741.0</ele><time>2026-04-07T11:55:21.72Z</time></trkpt><trkpt lat="44.910135" lon="7.2634269"><ele>741.0</ele><time>2026-04-07T11:55:23.72Z</time></trkpt><trkpt lat="44.9100368" lon="7.2633551"><ele>741.0</ele><time>2026-04-07T11:55:25.719Z</time></trkpt><trkpt lat="44.9099614" lon="7.2632362"><ele>741.0</ele><time>2026-04-07T11:55:27.72Z</time></trkpt><trkpt lat="44.9099046" lon="7.2631088"><ele>737.6666666666666</ele><time>2026-04-07T11:55:29.72Z</time></trkpt><trkpt lat="44.9098506" lon="7.2630244"><ele>734.3333333333334</ele><time>2026-04-07T11:55:31.72Z</time></trkpt><trkpt lat="44.9097949" lon="7.2629502"><ele>731.0</ele><time>2026-04-07T11:55:33.72Z</time></trkpt><trkpt lat="44.9097508" lon="7.2628811"><ele>727.6666666666667</ele><time>2026-04-07T11:55:35.72Z</time></trkpt><trkpt lat="44.9097291" lon="7.2627964"><ele>724.3333333333334</ele><time>2026-04-07T11:55:37.72Z</time></trkpt><trkpt lat="44.9097493" lon="7.2626868"><ele>721.0</ele><time>2026-04-07T11:55:44.72Z</time></trkpt><trkpt lat="44.9098162" lon="7.2626147"><ele>721.0</ele><time>2026-04-07T11:55:46.719Z</time></trkpt><trkpt lat="44.9098699" lon="7.2625659"><ele>721.0</ele><time>2026-04-07T11:55:48.72Z</time></trkpt><trkpt lat="44.9099377" lon="7.262488"><ele>721.0</ele><time>2026-04-07T11:55:51.72Z</time></trkpt><trkpt lat="44.9098866" lon="7.2624296"><ele>721.0</ele><time>2026-04-07T11:55:54.72Z</time></trkpt><trkpt lat="44.9098063" lon="7.262397"><ele>721.0</ele><time>2026-04-07T11:55:57.72Z</time></trkpt><trkpt lat="44.9097404" lon="7.2623619"><ele>721.0</ele><time>2026-04-07T11:55:59.72Z</time></trkpt><trkpt lat="44.9096471" lon="7.2623141"><ele>721.0</ele><time>2026-04-07T11:56:01.72Z</time></trkpt><trkpt lat="44.909546" lon="7.2622683"><ele>721.0</ele><time>2026-04-07T11:56:03.72Z</time></trkpt><trkpt lat="44.9094536" lon="7.2622965"><ele>721.0</ele><time>2026-04-07T11:56:05.72Z</time></trkpt><trkpt lat="44.9093517" lon="7.2624328"><ele>721.0</ele><time>2026-04-07T11:56:07.72Z</time></trkpt><trkpt lat="44.9092887" lon="7.2625096"><ele>721.0</ele><time>2026-04-07T11:56:08.72Z</time></trkpt><trkpt lat="44.9092103" lon="7.2625611"><ele>721.5</ele><time>2026-04-07T11:56:09.72Z</time></trkpt><trkpt lat="44.9091246" lon="7.2626113"><ele>722.0</ele><time>2026-04-07T11:56:10.72Z</time></trkpt><trkpt lat="44.9090464" lon="7.2626624"><ele>722.5</ele><time>2026-04-07T11:56:11.72Z</time></trkpt><trkpt lat="44.9089781" lon="7.2627294"><ele>723.0</ele><time>2026-04-07T11:56:12.72Z</time></trkpt><trkpt lat="44.9089102" lon="7.2628062"><ele>723.5</ele><time>2026-04-07T11:56:13.72Z</time></trkpt><trkpt lat="44.9088511" lon="7.2628774"><ele>724.0</ele><time>2026-04-07T11:56:14.72Z</time></trkpt><trkpt lat="44.9087927" lon="7.2629417"><ele>724.0</ele><time>2026-04-07T11:56:15.72Z</time></trkpt><trkpt lat="44.9087309" lon="7.2629972"><ele>724.0</ele><time>2026-04-07T11:56:16.72Z</time></trkpt><trkpt lat="44.9086451" lon="7.2630913"><ele>724.0</ele><time>2026-04-07T11:56:18.72Z</time></trkpt><trkpt lat="44.9085768" lon="7.263128"><ele>724.0</ele><time>2026-04-07T11:56:20.72Z</time></trkpt><trkpt lat="44.9085458" lon="7.2630305"><ele>724.0</ele><time>2026-04-07T11:56:22.72Z</time></trkpt><trkpt lat="44.9085394" lon="7.2628355"><ele>724.0</ele><time>2026-04-07T11:56:24.72Z</time></trkpt><trkpt lat="44.908526" lon="7.2627374"><ele>724.0</ele><time>2026-04-07T11:56:25.72Z</time></trkpt><trkpt lat="44.9084985" lon="7.2626417"><ele>724.0</ele><time>2026-04-07T11:56:26.72Z</time></trkpt><trkpt lat="44.9084619" lon="7.2625542"><ele>724.0</ele><time>2026-04-07T11:56:27.72Z</time></trkpt><trkpt lat="44.9084167" lon="7.262474"><ele>724.0</ele><time>2026-04-07T11:56:28.72Z</time></trkpt><trkpt lat="44.9083784" lon="7.2624001"><ele>724.0</ele><time>2026-04-07T11:56:29.72Z</time></trkpt><trkpt lat="44.9083268" lon="7.2622425"><ele>725.3333333333334</ele><time>2026-04-07T11:56:31.72Z</time></trkpt><trkpt lat="44.9082982" lon="7.2620997"><ele>726.6666666666667</ele><time>2026-04-07T11:56:33.72Z</time></trkpt><trkpt lat="44.9082723" lon="7.2619783"><ele>728.0</ele><time>2026-04-07T11:56:36.72Z</time></trkpt><trkpt lat="44.9082356" lon="7.2618761"><ele>729.3333333333334</ele><time>2026-04-07T11:56:38.72Z</time></trkpt><trkpt lat="44.9081918" lon="7.2617765"><ele>730.6666666666666</ele><time>2026-04-07T11:56:40.72Z</time></trkpt><trkpt lat="44.9081415" lon="7.2616809"><ele>732.0</ele><time>2026-04-07T11:56:42.72Z</time></trkpt><trkpt lat="44.9080791" lon="7.2615699"><ele>731.3333333333334</ele><time>2026-04-07T11:56:44.72Z</time></trkpt><trkpt lat="44.9080322" lon="7.2614249"><ele>730.6666666666666</ele><time>2026-04-07T11:56:46.72Z</time></trkpt><trkpt lat="44.9080166" lon="7.2613321"><ele>730.0</ele><time>2026-04-07T11:56:47.72Z</time></trkpt><trkpt lat="44.9080058" lon="7.2612323"><ele>729.3333333333333</ele><time>2026-04-07T11:56:48.72Z</time></trkpt><trkpt lat="44.9080106" lon="7.2611262"><ele>728.6666666666666</ele><time>2026-04-07T11:56:49.72Z</time></trkpt><trkpt lat="44.9080237" lon="7.2610199"><ele>728.0</ele><time>2026-04-07T11:56:50.72Z</time></trkpt><trkpt lat="44.9080352" lon="7.2609224"><ele>728.0</ele><time>2026-04-07T11:56:51.72Z</time></trkpt><trkpt lat="44.9080533" lon="7.2608211"><ele>728.0</ele><time>2026-04-07T11:56:52.72Z</time></trkpt><trkpt lat="44.908079" lon="7.2607112"><ele>728.0</ele><time>2026-04-07T11:56:53.72Z</time></trkpt><trkpt lat="44.9081023" lon="7.2606042"><ele>728.0</ele><time>2026-04-07T11:56:54.72Z</time></trkpt><trkpt lat="44.9081211" lon="7.2605028"><ele>728.0</ele><time>2026-04-07T11:56:55.72Z</time></trkpt><trkpt lat="44.9081334" lon="7.2604113"><ele>728.0</ele><time>2026-04-07T11:56:56.72Z</time></trkpt><trkpt lat="44.9081421" lon="7.2602529"><ele>727.2</ele><time>2026-04-07T11:56:58.72Z</time></trkpt><trkpt lat="44.9081177" lon="7.260097"><ele>726.4</ele><time>2026-04-07T11:57:00.72Z</time></trkpt><trkpt lat="44.9080688" lon="7.2599537"><ele>725.6</ele><time>2026-04-07T11:57:02.72Z</time></trkpt><trkpt lat="44.9080074" lon="7.2598402"><ele>724.8000000000001</ele><time>2026-04-07T11:57:04.72Z</time></trkpt><trkpt lat="44.9079339" lon="7.2597828"><ele>724.0</ele><time>2026-04-07T11:57:06.72Z</time></trkpt><trkpt lat="44.9078391" lon="7.2597832"><ele>726.5</ele><time>2026-04-07T11:57:08.72Z</time></trkpt><trkpt lat="44.9077595" lon="7.259777"><ele>729.0</ele><time>2026-04-07T11:57:10.719Z</time></trkpt><trkpt lat="44.9076901" lon="7.2597663"><ele>731.5</ele><time>2026-04-07T11:57:12.72Z</time></trkpt><trkpt lat="44.907612" lon="7.259761"><ele>734.0</ele><time>2026-04-07T11:57:14.72Z</time></trkpt><trkpt lat="44.9075342" lon="7.2597129"><ele>736.5</ele><time>2026-04-07T11:57:16.72Z</time></trkpt><trkpt lat="44.9074372" lon="7.2595885"><ele>739.0</ele><time>2026-04-07T11:57:18.72Z</time></trkpt><trkpt lat="44.90738" lon="7.2594952"><ele>739.0</ele><time>2026-04-07T11:57:19.72Z</time></trkpt><trkpt lat="44.9073215" lon="7.2593916"><ele>739.0</ele><time>2026-04-07T11:57:20.72Z</time></trkpt><trkpt lat="44.9072625" lon="7.2592882"><ele>739.0</ele><time>2026-04-07T11:57:21.72Z</time></trkpt><trkpt lat="44.9072087" lon="7.2591976"><ele>739.0</ele><time>2026-04-07T11:57:22.72Z</time></trkpt><trkpt lat="44.9071604" lon="7.2591169"><ele>739.0</ele><time>2026-04-07T11:57:23.72Z</time></trkpt><trkpt lat="44.9071269" lon="7.2590348"><ele>739.0</ele><time>2026-04-07T11:57:24.72Z</time></trkpt><trkpt lat="44.9071001" lon="7.2589459"><ele>735.7142857142858</ele><time>2026-04-07T11:57:25.72Z</time></trkpt><trkpt lat="44.9070748" lon="7.2588531"><ele>732.4285714285714</ele><time>2026-04-07T11:57:26.72Z</time></trkpt><trkpt lat="44.9070451" lon="7.2587624"><ele>729.1428571428571</ele><time>2026-04-07T11:57:27.72Z</time></trkpt><trkpt lat="44.9070121" lon="7.2586667"><ele>725.8571428571429</ele><time>2026-04-07T11:57:28.72Z</time></trkpt><trkpt lat="44.9069717" lon="7.2585807"><ele>722.5714285714286</ele><time>2026-04-07T11:57:29.72Z</time></trkpt><trkpt lat="44.9069186" lon="7.2585059"><ele>719.2857142857143</ele><time>2026-04-07T11:57:30.72Z</time></trkpt><trkpt lat="44.9068577" lon="7.2584328"><ele>716.0</ele><time>2026-04-07T11:57:31.72Z</time></trkpt><trkpt lat="44.9068004" lon="7.2583658"><ele>721.5714285714287</ele><time>2026-04-07T11:57:32.72Z</time></trkpt><trkpt lat="44.9067433" lon="7.2583097"><ele>727.1428571428571</ele><time>2026-04-07T11:57:33.72Z</time></trkpt><trkpt lat="44.9066858" lon="7.2582575"><ele>732.7142857142858</ele><time>2026-04-07T11:57:34.72Z</time></trkpt><trkpt lat="44.9066267" lon="7.2582121"><ele>738.2857142857143</ele><time>2026-04-07T11:57:35.72Z</time></trkpt><trkpt lat="44.9065535" lon="7.2581796"><ele>743.8571428571429</ele><time>2026-04-07T11:57:36.72Z</time></trkpt><trkpt lat="44.9064726" lon="7.2581717"><ele>749.4285714285714</ele><time>2026-04-07T11:57:37.72Z</time></trkpt><trkpt lat="44.9063942" lon="7.2581653"><ele>755.0</ele><time>2026-04-07T11:57:38.72Z</time></trkpt><trkpt lat="44.906328" lon="7.2581512"><ele>755.0</ele><time>2026-04-07T11:57:39.72Z</time></trkpt><trkpt lat="44.9062644" lon="7.2581337"><ele>755.0</ele><time>2026-04-07T11:57:40.72Z</time></trkpt><trkpt lat="44.9061977" lon="7.2581228"><ele>755.0</ele><time>2026-04-07T11:57:41.72Z</time></trkpt><trkpt lat="44.9060717" lon="7.25813"><ele>755.0</ele><time>2026-04-07T11:57:43.72Z</time></trkpt><trkpt lat="44.9060048" lon="7.2581554"><ele>755.0</ele><time>2026-04-07T11:57:44.72Z</time></trkpt><trkpt lat="44.9059408" lon="7.2581835"><ele>755.0</ele><time>2026-04-07T11:57:45.72Z</time></trkpt><trkpt lat="44.9058692" lon="7.2581912"><ele>753.3333333333333</ele><time>2026-04-07T11:57:46.72Z</time></trkpt><trkpt lat="44.9058031" lon="7.2581886"><ele>751.6666666666666</ele><time>2026-04-07T11:57:47.72Z</time></trkpt><trkpt lat="44.9056882" lon="7.2581532"><ele>750.0</ele><time>2026-04-07T11:57:49.72Z</time></trkpt><trkpt lat="44.9056297" lon="7.2581125"><ele>748.3333333333334</ele><time>2026-04-07T11:57:50.719Z</time></trkpt><trkpt lat="44.9055702" lon="7.2580677"><ele>746.6666666666667</ele><time>2026-04-07T11:57:51.72Z</time></trkpt><trkpt lat="44.9055078" lon="7.2580054"><ele>745.0</ele><time>2026-04-07T11:57:52.72Z</time></trkpt><trkpt lat="44.9054352" lon="7.2579308"><ele>745.0</ele><time>2026-04-07T11:57:53.72Z</time></trkpt><trkpt lat="44.9053563" lon="7.2578654"><ele>745.0</ele><time>2026-04-07T11:57:54.72Z</time></trkpt><trkpt lat="44.9052776" lon="7.2578122"><ele>745.0</ele><time>2026-04-07T11:57:55.72Z</time></trkpt><trkpt lat="44.9052002" lon="7.2577722"><ele>745.0</ele><time>2026-04-07T11:57:56.72Z</time></trkpt><trkpt lat="44.9051269" lon="7.2577434"><ele>745.0</ele><time>2026-04-07T11:57:57.719Z</time></trkpt><trkpt lat="44.9050543" lon="7.2577298"><ele>745.0</ele><time>2026-04-07T11:57:58.72Z</time></trkpt><trkpt lat="44.9049796" lon="7.2577297"><ele>748.5</ele><time>2026-04-07T11:57:59.72Z</time></trkpt><trkpt lat="44.9049055" lon="7.2577323"><ele>752.0</ele><time>2026-04-07T11:58:00.72Z</time></trkpt><trkpt lat="44.9048329" lon="7.2577449"><ele>755.5</ele><time>2026-04-07T11:58:01.72Z</time></trkpt><trkpt lat="44.9047543" lon="7.2577681"><ele>759.0</ele><time>2026-04-07T11:58:02.72Z</time></trkpt><trkpt lat="44.9046744" lon="7.2577964"><ele>762.5</ele><time>2026-04-07T11:58:03.72Z</time></trkpt><trkpt lat="44.9046099" lon="7.2578215"><ele>766.0</ele><time>2026-04-07T11:58:04.72Z</time></trkpt><trkpt lat="44.904522" lon="7.2578493"><ele>766.0</ele><time>2026-04-07T11:58:06.72Z</time></trkpt><trkpt lat="44.9044524" lon="7.2578543"><ele>766.0</ele><time>2026-04-07T11:58:08.72Z</time></trkpt><trkpt lat="44.9043924" lon="7.257826"><ele>766.0</ele><time>2026-04-07T11:58:22.72Z</time></trkpt><trkpt lat="44.9043163" lon="7.2578788"><ele>766.0</ele><time>2026-04-07T11:58:24.72Z</time></trkpt><trkpt lat="44.9042261" lon="7.2579974"><ele>766.0</ele><time>2026-04-07T11:58:26.72Z</time></trkpt><trkpt lat="44.904168" lon="7.2580747"><ele>766.0</ele><time>2026-04-07T11:58:27.72Z</time></trkpt><trkpt lat="44.9041108" lon="7.2581517"><ele>771.4</ele><time>2026-04-07T11:58:28.72Z</time></trkpt><trkpt lat="44.9040581" lon="7.2582202"><ele>776.8</ele><time>2026-04-07T11:58:29.72Z</time></trkpt><trkpt lat="44.9040071" lon="7.2582829"><ele>782.1999999999999</ele><time>2026-04-07T11:58:30.719Z</time></trkpt><trkpt lat="44.903919" lon="7.2583927"><ele>787.5999999999999</ele><time>2026-04-07T11:58:32.72Z</time></trkpt><trkpt lat="44.9038249" lon="7.2584621"><ele>793.0</ele><time>2026-04-07T11:58:34.72Z</time></trkpt><trkpt lat="44.9036904" lon="7.2585"><ele>793.0000000000001</ele><time>2026-04-07T11:58:36.72Z</time></trkpt><trkpt lat="44.9036134" lon="7.2585099"><ele>793.0</ele><time>2026-04-07T11:58:37.72Z</time></trkpt><trkpt lat="44.9035392" lon="7.2585216"><ele>793.0</ele><time>2026-04-07T11:58:38.72Z</time></trkpt><trkpt lat="44.9034674" lon="7.2585238"><ele>793.0</ele><time>2026-04-07T11:58:39.72Z</time></trkpt><trkpt lat="44.9033965" lon="7.2585206"><ele>793.0</ele><time>2026-04-07T11:58:40.72Z</time></trkpt><trkpt lat="44.9033263" lon="7.2585044"><ele>793.0000000000001</ele><time>2026-04-07T11:58:41.72Z</time></trkpt><trkpt lat="44.9032613" lon="7.2584772"><ele>793.0</ele><time>2026-04-07T11:58:42.72Z</time></trkpt><trkpt lat="44.9032004" lon="7.2584426"><ele>790.1666666666666</ele><time>2026-04-07T11:58:43.72Z</time></trkpt><trkpt lat="44.9031367" lon="7.2584072"><ele>787.3333333333333</ele><time>2026-04-07T11:58:44.719Z</time></trkpt><trkpt lat="44.9030719" lon="7.2583684"><ele>784.5</ele><time>2026-04-07T11:58:45.72Z</time></trkpt><trkpt lat="44.903011" lon="7.258336"><ele>781.6666666666667</ele><time>2026-04-07T11:58:46.72Z</time></trkpt><trkpt lat="44.9029253" lon="7.2582971"><ele>778.8333333333334</ele><time>2026-04-07T11:58:48.72Z</time></trkpt><trkpt lat="44.9028264" lon="7.2583194"><ele>776.0</ele><time>2026-04-07T11:58:50.72Z</time></trkpt><trkpt lat="44.9027734" lon="7.258369"><ele>776.0000000000001</ele><time>2026-04-07T11:58:51.72Z</time></trkpt><trkpt lat="44.9027139" lon="7.2584429"><ele>776.0</ele><time>2026-04-07T11:58:52.72Z</time></trkpt><trkpt lat="44.9026614" lon="7.2585377"><ele>776.0</ele><time>2026-04-07T11:58:53.72Z</time></trkpt><trkpt lat="44.9026125" lon="7.2586426"><ele>776.0</ele><time>2026-04-07T11:58:54.72Z</time></trkpt><trkpt lat="44.9025763" lon="7.2587485"><ele>776.0000000000001</ele><time>2026-04-07T11:58:55.72Z</time></trkpt><trkpt lat="44.9025499" lon="7.2588634"><ele>776.0</ele><time>2026-04-07T11:58:56.72Z</time></trkpt><trkpt lat="44.9025348" lon="7.2589799"><ele>778.4</ele><time>2026-04-07T11:58:57.72Z</time></trkpt><trkpt lat="44.9025249" lon="7.2590992"><ele>780.8</ele><time>2026-04-07T11:58:58.72Z</time></trkpt><trkpt lat="44.9025187" lon="7.2592097"><ele>783.1999999999999</ele><time>2026-04-07T11:58:59.72Z</time></trkpt><trkpt lat="44.9024899" lon="7.2593592"><ele>785.5999999999999</ele><time>2026-04-07T11:59:01.72Z</time></trkpt><trkpt lat="44.9023933" lon="7.2594019"><ele>788.0</ele><time>2026-04-07T11:59:04.72Z</time></trkpt><trkpt lat="44.9022749" lon="7.2593826"><ele>788.0</ele><time>2026-04-07T11:59:06.72Z</time></trkpt><trkpt lat="44.9021688" lon="7.2593494"><ele>788.0</ele><time>2026-04-07T11:59:08.72Z</time></trkpt><trkpt lat="44.9020946" lon="7.2593204"><ele>788.0</ele><time>2026-04-07T11:59:10.72Z</time></trkpt><trkpt lat="44.902032" lon="7.2592354"><ele>788.0</ele><time>2026-04-07T11:59:12.72Z</time></trkpt><trkpt lat="44.9019418" lon="7.2591147"><ele>788.0</ele><time>2026-04-07T11:59:14.72Z</time></trkpt><trkpt lat="44.9018911" lon="7.2590474"><ele>788.0000000000001</ele><time>2026-04-07T11:59:15.72Z</time></trkpt><trkpt lat="44.9018456" lon="7.2589847"><ele>788.0</ele><time>2026-04-07T11:59:16.72Z</time></trkpt><trkpt lat="44.9017937" lon="7.2588818"><ele>788.0</ele><time>2026-04-07T11:59:18.72Z</time></trkpt><trkpt lat="44.9017714" lon="7.2587664"><ele>788.0</ele><time>2026-04-07T11:59:21.72Z</time></trkpt><trkpt lat="44.9017401" lon="7.2586541"><ele>788.0000000000001</ele><time>2026-04-07T11:59:23.72Z</time></trkpt><trkpt lat="44.9016986" lon="7.2585329"><ele>788.0</ele><time>2026-04-07T11:59:25.72Z</time></trkpt><trkpt lat="44.9015713" lon="7.2584613"><ele>785.0000000000001</ele><time>2026-04-07T11:59:27.72Z</time></trkpt><trkpt lat="44.9014835" lon="7.2584372"><ele>782.0</ele><time>2026-04-07T11:59:28.72Z</time></trkpt><trkpt lat="44.9013955" lon="7.2584107"><ele>779.0</ele><time>2026-04-07T11:59:29.72Z</time></trkpt><trkpt lat="44.9013096" lon="7.2583845"><ele>776.0</ele><time>2026-04-07T11:59:30.72Z</time></trkpt><trkpt lat="44.9012337" lon="7.2583487"><ele>773.0000000000001</ele><time>2026-04-07T11:59:31.72Z</time></trkpt><trkpt lat="44.901166" lon="7.2583099"><ele>770.0</ele><time>2026-04-07T11:59:32.72Z</time></trkpt><trkpt lat="44.9011079" lon="7.2582677"><ele>770.0000000000001</ele><time>2026-04-07T11:59:33.72Z</time></trkpt><trkpt lat="44.9010485" lon="7.2582284"><ele>770.0</ele><time>2026-04-07T11:59:34.72Z</time></trkpt><trkpt lat="44.9009862" lon="7.2581954"><ele>770.0</ele><time>2026-04-07T11:59:35.72Z</time></trkpt><trkpt lat="44.9009188" lon="7.2581583"><ele>770.0</ele><time>2026-04-07T11:59:36.72Z</time></trkpt><trkpt lat="44.9008506" lon="7.258121"><ele>770.0000000000001</ele><time>2026-04-07T11:59:37.72Z</time></trkpt><trkpt lat="44.9007901" lon="7.258083"><ele>770.0</ele><time>2026-04-07T11:59:38.72Z</time></trkpt><trkpt lat="44.9007031" lon="7.2579583"><ele>769.8333333333334</ele><time>2026-04-07T11:59:40.72Z</time></trkpt><trkpt lat="44.9006732" lon="7.2578719"><ele>769.6666666666667</ele><time>2026-04-07T11:59:41.72Z</time></trkpt><trkpt lat="44.9006246" lon="7.2577152"><ele>769.5</ele><time>2026-04-07T11:59:43.72Z</time></trkpt><trkpt lat="44.9005461" lon="7.257621"><ele>769.3333333333333</ele><time>2026-04-07T11:59:45.72Z</time></trkpt><trkpt lat="44.9004715" lon="7.2575905"><ele>769.1666666666666</ele><time>2026-04-07T11:59:47.72Z</time></trkpt><trkpt lat="44.9004029" lon="7.2575818"><ele>769.0</ele><time>2026-04-07T11:59:49.72Z</time></trkpt><trkpt lat="44.9003418" lon="7.2575291"><ele>768.9999999999999</ele><time>2026-04-07T11:59:51.72Z</time></trkpt><trkpt lat="44.900293" lon="7.2574485"><ele>769.0</ele><time>2026-04-07T11:59:53.72Z</time></trkpt><trkpt lat="44.9002451" lon="7.2573355"><ele>769.0</ele><time>2026-04-07T11:59:55.72Z</time></trkpt><trkpt lat="44.9001612" lon="7.2572266"><ele>769.0</ele><time>2026-04-07T11:59:57.72Z</time></trkpt><trkpt lat="44.9001089" lon="7.2571721"><ele>768.9999999999999</ele><time>2026-04-07T11:59:58.72Z</time></trkpt><trkpt lat="44.9000509" lon="7.2571188"><ele>769.0</ele><time>2026-04-07T11:59:59.72Z</time></trkpt><trkpt lat="44.8999877" lon="7.2570622"><ele>771.0</ele><time>2026-04-07T12:00:00.72Z</time></trkpt><trkpt lat="44.8999248" lon="7.2570048"><ele>773.0</ele><time>2026-04-07T12:00:01.72Z</time></trkpt><trkpt lat="44.8998696" lon="7.2569361"><ele>775.0</ele><time>2026-04-07T12:00:02.72Z</time></trkpt><trkpt lat="44.8998173" lon="7.2568659"><ele>777.0</ele><time>2026-04-07T12:00:03.72Z</time></trkpt><trkpt lat="44.8997643" lon="7.2568019"><ele>779.0</ele><time>2026-04-07T12:00:04.72Z</time></trkpt><trkpt lat="44.8997071" lon="7.2567383"><ele>781.0</ele><time>2026-04-07T12:00:05.72Z</time></trkpt><trkpt lat="44.8996476" lon="7.2566731"><ele>783.0</ele><time>2026-04-07T12:00:06.72Z</time></trkpt><trkpt lat="44.8995844" lon="7.2566027"><ele>783.0</ele><time>2026-04-07T12:00:07.72Z</time></trkpt><trkpt lat="44.8995126" lon="7.2565341"><ele>783.0</ele><time>2026-04-07T12:00:08.72Z</time></trkpt><trkpt lat="44.8994376" lon="7.2564761"><ele>783.0</ele><time>2026-04-07T12:00:09.72Z</time></trkpt><trkpt lat="44.8993619" lon="7.2564171"><ele>783.0</ele><time>2026-04-07T12:00:10.72Z</time></trkpt><trkpt lat="44.8992915" lon="7.2563575"><ele>783.0</ele><time>2026-04-07T12:00:11.72Z</time></trkpt><trkpt lat="44.8992266" lon="7.2562848"><ele>783.0</ele><time>2026-04-07T12:00:12.72Z</time></trkpt><trkpt lat="44.8991635" lon="7.2561995"><ele>786.1666666666666</ele><time>2026-04-07T12:00:13.72Z</time></trkpt><trkpt lat="44.8990965" lon="7.2561123"><ele>789.3333333333333</ele><time>2026-04-07T12:00:14.72Z</time></trkpt><trkpt lat="44.8990439" lon="7.2560377"><ele>792.5</ele><time>2026-04-07T12:00:15.72Z</time></trkpt><trkpt lat="44.8989717" lon="7.2559404"><ele>795.6666666666666</ele><time>2026-04-07T12:00:17.72Z</time></trkpt><trkpt lat="44.8989037" lon="7.2559714"><ele>798.8333333333333</ele><time>2026-04-07T12:00:39.72Z</time></trkpt><trkpt lat="44.8989341" lon="7.2560663"><ele>802.0</ele><time>2026-04-07T12:00:41.72Z</time></trkpt><trkpt lat="44.8989958" lon="7.2561691"><ele>801.9999999999999</ele><time>2026-04-07T12:00:43.72Z</time></trkpt><trkpt lat="44.8990761" lon="7.2562755"><ele>802.0</ele><time>2026-04-07T12:00:45.72Z</time></trkpt><trkpt lat="44.8991241" lon="7.2563386"><ele>802.0</ele><time>2026-04-07T12:00:46.72Z</time></trkpt><trkpt lat="44.8991771" lon="7.2564196"><ele>802.0</ele><time>2026-04-07T12:00:47.72Z</time></trkpt><trkpt lat="44.8992239" lon="7.2565121"><ele>801.9999999999999</ele><time>2026-04-07T12:00:48.72Z</time></trkpt><trkpt lat="44.8992745" lon="7.2566066"><ele>802.0</ele><time>2026-04-07T12:00:49.72Z</time></trkpt><trkpt lat="44.8993268" lon="7.2566997"><ele>798.8333333333333</ele><time>2026-04-07T12:00:50.72Z</time></trkpt><trkpt lat="44.8993768" lon="7.256791"><ele>795.6666666666666</ele><time>2026-04-07T12:00:51.72Z</time></trkpt><trkpt lat="44.8994215" lon="7.2568809"><ele>792.5</ele><time>2026-04-07T12:00:52.72Z</time></trkpt><trkpt lat="44.8994673" lon="7.2569702"><ele>789.3333333333333</ele><time>2026-04-07T12:00:53.72Z</time></trkpt><trkpt lat="44.8995071" lon="7.2570562"><ele>786.1666666666666</ele><time>2026-04-07T12:00:54.72Z</time></trkpt><trkpt lat="44.8995468" lon="7.257133"><ele>783.0</ele><time>2026-04-07T12:00:55.72Z</time></trkpt><trkpt lat="44.8996247" lon="7.2572613"><ele>789.75</ele><time>2026-04-07T12:00:57.72Z</time></trkpt><trkpt lat="44.8996925" lon="7.2573914"><ele>796.5</ele><time>2026-04-07T12:00:59.72Z</time></trkpt><trkpt lat="44.8997558" lon="7.2575358"><ele>803.25</ele><time>2026-04-07T12:01:01.72Z</time></trkpt><trkpt lat="44.8998081" lon="7.257687"><ele>810.0</ele><time>2026-04-07T12:01:03.72Z</time></trkpt><trkpt lat="44.8998535" lon="7.2578483"><ele>810.0</ele><time>2026-04-07T12:01:05.72Z</time></trkpt><trkpt lat="44.8998741" lon="7.2579349"><ele>810.0</ele><time>2026-04-07T12:01:06.72Z</time></trkpt><trkpt lat="44.8998914" lon="7.2580273"><ele>810.0</ele><time>2026-04-07T12:01:07.72Z</time></trkpt><trkpt lat="44.8999104" lon="7.2581159"><ele>810.0</ele><time>2026-04-07T12:01:08.72Z</time></trkpt><trkpt lat="44.8999568" lon="7.2582638"><ele>810.0</ele><time>2026-04-07T12:01:10.72Z</time></trkpt><trkpt lat="44.8999885" lon="7.2583879"><ele>810.0</ele><time>2026-04-07T12:01:12.72Z</time></trkpt><trkpt lat="44.9000378" lon="7.25851"><ele>808.1666666666666</ele><time>2026-04-07T12:01:14.72Z</time></trkpt><trkpt lat="44.9001253" lon="7.2586464"><ele>806.3333333333333</ele><time>2026-04-07T12:01:16.72Z</time></trkpt><trkpt lat="44.9001822" lon="7.2587027"><ele>804.5</ele><time>2026-04-07T12:01:17.72Z</time></trkpt><trkpt lat="44.90024" lon="7.2587511"><ele>802.6666666666666</ele><time>2026-04-07T12:01:18.72Z</time></trkpt><trkpt lat="44.9003229" lon="7.2588244"><ele>800.8333333333333</ele><time>2026-04-07T12:01:20.72Z</time></trkpt><trkpt lat="44.90033" lon="7.2589435"><ele>799.0</ele><time>2026-04-07T12:01:23.72Z</time></trkpt><trkpt lat="44.9002711" lon="7.2590579"><ele>803.8000000000001</ele><time>2026-04-07T12:01:25.72Z</time></trkpt><trkpt lat="44.9002279" lon="7.2592021"><ele>808.6</ele><time>2026-04-07T12:01:27.72Z</time></trkpt><trkpt lat="44.9002073" lon="7.2593247"><ele>813.4</ele><time>2026-04-07T12:01:29.72Z</time></trkpt><trkpt lat="44.9002265" lon="7.2594904"><ele>818.2</ele><time>2026-04-07T12:01:31.72Z</time></trkpt><trkpt lat="44.9002465" lon="7.2595972"><ele>823.0</ele><time>2026-04-07T12:01:32.72Z</time></trkpt><trkpt lat="44.9002674" lon="7.2597186"><ele>826.8</ele><time>2026-04-07T12:01:33.72Z</time></trkpt><trkpt lat="44.9002869" lon="7.2598571"><ele>830.5999999999999</ele><time>2026-04-07T12:01:34.72Z</time></trkpt><trkpt lat="44.9003134" lon="7.2600166"><ele>834.4000000000001</ele><time>2026-04-07T12:01:35.72Z</time></trkpt><trkpt lat="44.9003381" lon="7.2601801"><ele>838.2</ele><time>2026-04-07T12:01:36.72Z</time></trkpt><trkpt lat="44.900357" lon="7.2603268"><ele>842.0</ele><time>2026-04-07T12:01:37.72Z</time></trkpt><trkpt lat="44.9003675" lon="7.2604661"><ele>842.0000000000001</ele><time>2026-04-07T12:01:38.72Z</time></trkpt><trkpt lat="44.9003705" lon="7.2605983"><ele>842.0</ele><time>2026-04-07T12:01:39.72Z</time></trkpt><trkpt lat="44.9003718" lon="7.2607254"><ele>842.0</ele><time>2026-04-07T12:01:40.72Z</time></trkpt><trkpt lat="44.9003785" lon="7.2608492"><ele>842.0</ele><time>2026-04-07T12:01:41.72Z</time></trkpt><trkpt lat="44.9003952" lon="7.2609643"><ele>842.0000000000001</ele><time>2026-04-07T12:01:42.72Z</time></trkpt><trkpt lat="44.9004076" lon="7.2610679"><ele>842.0</ele><time>2026-04-07T12:01:43.72Z</time></trkpt><trkpt lat="44.9004303" lon="7.2611584"><ele>844.8333333333334</ele><time>2026-04-07T12:01:44.72Z</time></trkpt><trkpt lat="44.9004939" lon="7.2612741"><ele>847.6666666666667</ele><time>2026-04-07T12:01:46.72Z</time></trkpt><trkpt lat="44.9005651" lon="7.2613621"><ele>850.5</ele><time>2026-04-07T12:01:48.72Z</time></trkpt><trkpt lat="44.9006404" lon="7.261491"><ele>853.3333333333333</ele><time>2026-04-07T12:01:50.72Z</time></trkpt><trkpt lat="44.9006774" lon="7.2615704"><ele>856.1666666666666</ele><time>2026-04-07T12:01:51.72Z</time></trkpt><trkpt lat="44.900702" lon="7.261655"><ele>859.0</ele><time>2026-04-07T12:01:52.72Z</time></trkpt><trkpt lat="44.9006991" lon="7.2618188"><ele>858.9999999999999</ele><time>2026-04-07T12:01:54.72Z</time></trkpt><trkpt lat="44.9007008" lon="7.2619334"><ele>859.0</ele><time>2026-04-07T12:01:56.72Z</time></trkpt><trkpt lat="44.9007446" lon="7.26184"><ele>859.0</ele><time>2026-04-07T12:02:00.72Z</time></trkpt><trkpt lat="44.9007629" lon="7.2617179"><ele>859.0</ele><time>2026-04-07T12:02:02.72Z</time></trkpt><trkpt lat="44.900773" lon="7.2615826"><ele>858.9999999999999</ele><time>2026-04-07T12:02:04.72Z</time></trkpt><trkpt lat="44.9007597" lon="7.2614522"><ele>859.0</ele><time>2026-04-07T12:02:06.72Z</time></trkpt><trkpt lat="44.9007634" lon="7.261319"><ele>858.9999999999999</ele><time>2026-04-07T12:02:07.72Z</time></trkpt><trkpt lat="44.9007653" lon="7.2612135"><ele>859.0</ele><time>2026-04-07T12:02:08.72Z</time></trkpt><trkpt lat="44.9007678" lon="7.2611078"><ele>859.0</ele><time>2026-04-07T12:02:09.72Z</time></trkpt><trkpt lat="44.9007763" lon="7.2610157"><ele>859.0</ele><time>2026-04-07T12:02:10.72Z</time></trkpt><trkpt lat="44.9008053" lon="7.2608627"><ele>858.9999999999999</ele><time>2026-04-07T12:02:12.72Z</time></trkpt><trkpt lat="44.9008429" lon="7.2607718"><ele>859.0</ele><time>2026-04-07T12:02:14.72Z</time></trkpt><trkpt lat="44.9009461" lon="7.2607803"><ele>854.0</ele><time>2026-04-07T12:02:17.72Z</time></trkpt><trkpt lat="44.9010201" lon="7.2609038"><ele>849.0</ele><time>2026-04-07T12:02:19.72Z</time></trkpt><trkpt lat="44.9010313" lon="7.2610559"><ele>844.0</ele><time>2026-04-07T12:02:21.72Z</time></trkpt><trkpt lat="44.9009847" lon="7.2612235"><ele>839.0</ele><time>2026-04-07T12:02:23.72Z</time></trkpt><trkpt lat="44.9009677" lon="7.2613825"><ele>841.8000000000001</ele><time>2026-04-07T12:02:25.72Z</time></trkpt><trkpt lat="44.9009808" lon="7.2615223"><ele>844.6</ele><time>2026-04-07T12:02:27.72Z</time></trkpt><trkpt lat="44.9010217" lon="7.2616945"><ele>847.4</ele><time>2026-04-07T12:02:29.72Z</time></trkpt><trkpt lat="44.9010526" lon="7.2618039"><ele>850.2</ele><time>2026-04-07T12:02:30.72Z</time></trkpt><trkpt lat="44.9010836" lon="7.2619259"><ele>853.0</ele><time>2026-04-07T12:02:31.72Z</time></trkpt><trkpt lat="44.9011064" lon="7.2620524"><ele>852.9999999999999</ele><time>2026-04-07T12:02:32.719Z</time></trkpt><trkpt lat="44.9011294" lon="7.2621919"><ele>853.0</ele><time>2026-04-07T12:02:33.72Z</time></trkpt><trkpt lat="44.9011451" lon="7.2623252"><ele>853.0</ele><time>2026-04-07T12:02:34.72Z</time></trkpt><trkpt lat="44.9011626" lon="7.2624508"><ele>853.0</ele><time>2026-04-07T12:02:35.72Z</time></trkpt><trkpt lat="44.9011823" lon="7.2625594"><ele>852.9999999999999</ele><time>2026-04-07T12:02:36.72Z</time></trkpt><trkpt lat="44.9012065" lon="7.2626615"><ele>853.0</ele><time>2026-04-07T12:02:37.72Z</time></trkpt><trkpt lat="44.901228" lon="7.2627548"><ele>855.0</ele><time>2026-04-07T12:02:38.72Z</time></trkpt><trkpt lat="44.9012514" lon="7.2629162"><ele>857.0</ele><time>2026-04-07T12:02:40.72Z</time></trkpt><trkpt lat="44.9012363" lon="7.2630546"><ele>859.0</ele><time>2026-04-07T12:02:42.719Z</time></trkpt><trkpt lat="44.901253" lon="7.2632154"><ele>861.0</ele><time>2026-04-07T12:02:44.72Z</time></trkpt><trkpt lat="44.9012793" lon="7.2633092"><ele>863.0</ele><time>2026-04-07T12:02:45.72Z</time></trkpt><trkpt lat="44.9013085" lon="7.2634014"><ele>865.0000000000001</ele><time>2026-04-07T12:02:46.72Z</time></trkpt><trkpt lat="44.9013324" lon="7.2634871"><ele>867.0</ele><time>2026-04-07T12:02:47.72Z</time></trkpt><trkpt lat="44.9013626" lon="7.2636413"><ele>869.0</ele><time>2026-04-07T12:02:49.72Z</time></trkpt><trkpt lat="44.901355" lon="7.2638104"><ele>871.0</ele><time>2026-04-07T12:02:51.72Z</time></trkpt><trkpt lat="44.9013402" lon="7.2639076"><ele>873.0000000000001</ele><time>2026-04-07T12:02:52.72Z</time></trkpt><trkpt lat="44.9013279" lon="7.264002"><ele>875.0</ele><time>2026-04-07T12:02:53.72Z</time></trkpt><trkpt lat="44.9013158" lon="7.2641717"><ele>877.8333333333334</ele><time>2026-04-07T12:02:55.72Z</time></trkpt><trkpt lat="44.9013336" lon="7.2642612"><ele>880.6666666666667</ele><time>2026-04-07T12:02:56.72Z</time></trkpt><trkpt lat="44.9013719" lon="7.2643552"><ele>883.5</ele><time>2026-04-07T12:02:57.72Z</time></trkpt><trkpt lat="44.9014271" lon="7.2644493"><ele>886.3333333333333</ele><time>2026-04-07T12:02:58.72Z</time></trkpt><trkpt lat="44.9014864" lon="7.2645419"><ele>889.1666666666666</ele><time>2026-04-07T12:02:59.72Z</time></trkpt><trkpt lat="44.901541" lon="7.2646367"><ele>892.0</ele><time>2026-04-07T12:03:00.72Z</time></trkpt><trkpt lat="44.9015843" lon="7.264736"><ele>893.9999999999999</ele><time>2026-04-07T12:03:01.72Z</time></trkpt><trkpt lat="44.9016115" lon="7.2648393"><ele>896.0</ele><time>2026-04-07T12:03:02.72Z</time></trkpt><trkpt lat="44.9016258" lon="7.2649402"><ele>898.0</ele><time>2026-04-07T12:03:03.72Z</time></trkpt><trkpt lat="44.9016221" lon="7.2650709"><ele>900.0</ele><time>2026-04-07T12:03:05.72Z</time></trkpt><trkpt lat="44.9016535" lon="7.2651754"><ele>901.9999999999999</ele><time>2026-04-07T12:03:27.72Z</time></trkpt><trkpt lat="44.9017203" lon="7.2652566"><ele>904.0</ele><time>2026-04-07T12:03:29.72Z</time></trkpt><trkpt lat="44.9018112" lon="7.2653796"><ele>906.9999999999999</ele><time>2026-04-07T12:03:31.72Z</time></trkpt><trkpt lat="44.9018573" lon="7.2654436"><ele>910.0</ele><time>2026-04-07T12:03:32.72Z</time></trkpt><trkpt lat="44.9019297" lon="7.2655762"><ele>913.0</ele><time>2026-04-07T12:03:34.72Z</time></trkpt><trkpt lat="44.9019842" lon="7.2656992"><ele>916.0</ele><time>2026-04-07T12:03:36.72Z</time></trkpt><trkpt lat="44.9020059" lon="7.2658007"><ele>918.9999999999999</ele><time>2026-04-07T12:03:38.72Z</time></trkpt><trkpt lat="44.9019633" lon="7.2659098"><ele>922.0</ele><time>2026-04-07T12:03:40.72Z</time></trkpt><trkpt lat="44.9019175" lon="7.2659714"><ele>923.1428571428572</ele><time>2026-04-07T12:03:41.72Z</time></trkpt><trkpt lat="44.9018697" lon="7.2660352"><ele>924.2857142857144</ele><time>2026-04-07T12:03:42.72Z</time></trkpt><trkpt lat="44.9018229" lon="7.2661078"><ele>925.4285714285714</ele><time>2026-04-07T12:03:43.719Z</time></trkpt><trkpt lat="44.9017771" lon="7.2661774"><ele>926.5714285714287</ele><time>2026-04-07T12:03:44.72Z</time></trkpt><trkpt lat="44.9017331" lon="7.2662459"><ele>927.7142857142858</ele><time>2026-04-07T12:03:45.72Z</time></trkpt><trkpt lat="44.9016961" lon="7.2663181"><ele>928.8571428571429</ele><time>2026-04-07T12:03:46.72Z</time></trkpt><trkpt lat="44.9016687" lon="7.2664031"><ele>930.0</ele><time>2026-04-07T12:03:47.72Z</time></trkpt><trkpt lat="44.9016499" lon="7.2664968"><ele>927.3333333333334</ele><time>2026-04-07T12:03:48.72Z</time></trkpt><trkpt lat="44.9016385" lon="7.2665931"><ele>924.6666666666667</ele><time>2026-04-07T12:03:49.72Z</time></trkpt><trkpt lat="44.9016328" lon="7.2666946"><ele>922.0</ele><time>2026-04-07T12:03:50.719Z</time></trkpt><trkpt lat="44.9016338" lon="7.2667972"><ele>919.3333333333334</ele><time>2026-04-07T12:03:51.72Z</time></trkpt><trkpt lat="44.9016405" lon="7.266897"><ele>916.6666666666667</ele><time>2026-04-07T12:03:52.72Z</time></trkpt><trkpt lat="44.9016557" lon="7.2669932"><ele>914.0</ele><time>2026-04-07T12:03:53.72Z</time></trkpt><trkpt lat="44.9016711" lon="7.2671532"><ele>915.8000000000001</ele><time>2026-04-07T12:03:55.72Z</time></trkpt><trkpt lat="44.9016429" lon="7.2672822"><ele>917.6000000000001</ele><time>2026-04-07T12:03:57.72Z</time></trkpt><trkpt lat="44.9015733" lon="7.2673676"><ele>919.4</ele><time>2026-04-07T12:03:59.72Z</time></trkpt><trkpt lat="44.9014622" lon="7.267426"><ele>921.2</ele><time>2026-04-07T12:04:01.72Z</time></trkpt><trkpt lat="44.9013891" lon="7.267436"><ele>923.0</ele><time>2026-04-07T12:04:02.72Z</time></trkpt><trkpt lat="44.9013143" lon="7.2674359"><ele>923.0</ele><time>2026-04-07T12:04:03.72Z</time></trkpt><trkpt lat="44.9012416" lon="7.2674255"><ele>923.0</ele><time>2026-04-07T12:04:04.72Z</time></trkpt><trkpt lat="44.9011736" lon="7.2674044"><ele>923.0</ele><time>2026-04-07T12:04:05.72Z</time></trkpt><trkpt lat="44.9011089" lon="7.2673774"><ele>923.0</ele><time>2026-04-07T12:04:06.72Z</time></trkpt><trkpt lat="44.9010492" lon="7.2673487"><ele>923.0</ele><time>2026-04-07T12:04:07.72Z</time></trkpt><trkpt lat="44.9009834" lon="7.2673282"><ele>923.0</ele><time>2026-04-07T12:04:08.72Z</time></trkpt><trkpt lat="44.9009122" lon="7.2673198"><ele>923.0</ele><time>2026-04-07T12:04:09.72Z</time></trkpt><trkpt lat="44.900843" lon="7.2673349"><ele>922.0000000000001</ele><time>2026-04-07T12:04:10.72Z</time></trkpt><trkpt lat="44.9007641" lon="7.2673577"><ele>921.0</ele><time>2026-04-07T12:04:11.72Z</time></trkpt><trkpt lat="44.9006822" lon="7.2673923"><ele>920.0</ele><time>2026-04-07T12:04:12.72Z</time></trkpt><trkpt lat="44.9005974" lon="7.2674363"><ele>919.0</ele><time>2026-04-07T12:04:13.72Z</time></trkpt><trkpt lat="44.9005172" lon="7.2674948"><ele>918.0000000000001</ele><time>2026-04-07T12:04:14.72Z</time></trkpt><trkpt lat="44.9004435" lon="7.2675439"><ele>917.0</ele><time>2026-04-07T12:04:15.72Z</time></trkpt><trkpt lat="44.9003843" lon="7.2675879"><ele>917.0000000000001</ele><time>2026-04-07T12:04:16.72Z</time></trkpt><trkpt lat="44.9002862" lon="7.2676447"><ele>917.0</ele><time>2026-04-07T12:04:18.72Z</time></trkpt><trkpt lat="44.9002037" lon="7.2677031"><ele>917.0</ele><time>2026-04-07T12:04:20.72Z</time></trkpt><trkpt lat="44.9001387" lon="7.267788"><ele>917.0</ele><time>2026-04-07T12:04:22.72Z</time></trkpt><trkpt lat="44.9001011" lon="7.2678615"><ele>917.0000000000001</ele><time>2026-04-07T12:04:23.72Z</time></trkpt><trkpt lat="44.9000643" lon="7.2679424"><ele>917.0</ele><time>2026-04-07T12:04:24.72Z</time></trkpt><trkpt lat="44.9000317" lon="7.2680257"><ele>917.4000000000001</ele><time>2026-04-07T12:04:25.72Z</time></trkpt><trkpt lat="44.899985" lon="7.2681731"><ele>917.8000000000001</ele><time>2026-04-07T12:04:27.72Z</time></trkpt><trkpt lat="44.8999599" lon="7.2682933"><ele>918.2</ele><time>2026-04-07T12:04:29.72Z</time></trkpt><trkpt lat="44.8999473" lon="7.2683932"><ele>918.6</ele><time>2026-04-07T12:04:31.72Z</time></trkpt><trkpt lat="44.8999794" lon="7.2685023"><ele>919.0</ele><time>2026-04-07T12:04:33.72Z</time></trkpt><trkpt lat="44.9000582" lon="7.2686511"><ele>920.9999999999999</ele><time>2026-04-07T12:04:35.72Z</time></trkpt><trkpt lat="44.9001067" lon="7.2687314"><ele>923.0</ele><time>2026-04-07T12:04:36.72Z</time></trkpt><trkpt lat="44.9001527" lon="7.2688175"><ele>925.0</ele><time>2026-04-07T12:04:37.72Z</time></trkpt><trkpt lat="44.900194" lon="7.2689104"><ele>927.0</ele><time>2026-04-07T12:04:38.72Z</time></trkpt><trkpt lat="44.9002338" lon="7.2690167"><ele>928.9999999999999</ele><time>2026-04-07T12:04:39.72Z</time></trkpt><trkpt lat="44.9002707" lon="7.2691264"><ele>931.0</ele><time>2026-04-07T12:04:40.72Z</time></trkpt><trkpt lat="44.9002991" lon="7.2692469"><ele>931.9999999999999</ele><time>2026-04-07T12:04:41.72Z</time></trkpt><trkpt lat="44.9003132" lon="7.2693785"><ele>933.0</ele><time>2026-04-07T12:04:42.72Z</time></trkpt><trkpt lat="44.9003187" lon="7.2695161"><ele>934.0</ele><time>2026-04-07T12:04:43.72Z</time></trkpt><trkpt lat="44.9003199" lon="7.2696445"><ele>935.0</ele><time>2026-04-07T12:04:44.72Z</time></trkpt><trkpt lat="44.9003178" lon="7.2697587"><ele>935.9999999999999</ele><time>2026-04-07T12:04:45.719Z</time></trkpt><trkpt lat="44.9003102" lon="7.269864"><ele>937.0</ele><time>2026-04-07T12:04:46.72Z</time></trkpt><trkpt lat="44.9003013" lon="7.2699751"><ele>937.6666666666666</ele><time>2026-04-07T12:04:47.72Z</time></trkpt><trkpt lat="44.9002866" lon="7.2700953"><ele>938.3333333333333</ele><time>2026-04-07T12:04:48.72Z</time></trkpt><trkpt lat="44.9002819" lon="7.2702031"><ele>939.0</ele><time>2026-04-07T12:04:49.72Z</time></trkpt><trkpt lat="44.9002877" lon="7.2703017"><ele>939.6666666666667</ele><time>2026-04-07T12:04:50.72Z</time></trkpt><trkpt lat="44.9003027" lon="7.2703967"><ele>940.3333333333334</ele><time>2026-04-07T12:04:51.72Z</time></trkpt><trkpt lat="44.9003265" lon="7.2704925"><ele>941.0</ele><time>2026-04-07T12:04:52.72Z</time></trkpt><trkpt lat="44.9003593" lon="7.2705925"><ele>940.6666666666667</ele><time>2026-04-07T12:04:53.72Z</time></trkpt><trkpt lat="44.9003989" lon="7.2706932"><ele>940.3333333333334</ele><time>2026-04-07T12:04:54.72Z</time></trkpt><trkpt lat="44.900438" lon="7.2707889"><ele>940.0</ele><time>2026-04-07T12:04:55.72Z</time></trkpt><trkpt lat="44.9004728" lon="7.270889"><ele>939.6666666666667</ele><time>2026-04-07T12:04:56.72Z</time></trkpt><trkpt lat="44.9005028" lon="7.2709956"><ele>939.3333333333334</ele><time>2026-04-07T12:04:57.72Z</time></trkpt><trkpt lat="44.9005289" lon="7.2710996"><ele>939.0</ele><time>2026-04-07T12:04:58.72Z</time></trkpt><trkpt lat="44.9005598" lon="7.2712004"><ele>939.0</ele><time>2026-04-07T12:04:59.72Z</time></trkpt><trkpt lat="44.9005862" lon="7.2712994"><ele>939.0</ele><time>2026-04-07T12:05:00.72Z</time></trkpt><trkpt lat="44.9006142" lon="7.2713962"><ele>939.0</ele><time>2026-04-07T12:05:01.72Z</time></trkpt><trkpt lat="44.9006488" lon="7.2714919"><ele>939.0</ele><time>2026-04-07T12:05:02.72Z</time></trkpt><trkpt lat="44.9006802" lon="7.271572"><ele>939.0</ele><time>2026-04-07T12:05:03.72Z</time></trkpt><trkpt lat="44.9007423" lon="7.2717261"><ele>939.0</ele><time>2026-04-07T12:05:05.72Z</time></trkpt><trkpt lat="44.9007694" lon="7.271822"><ele>939.1666666666666</ele><time>2026-04-07T12:05:06.719Z</time></trkpt><trkpt lat="44.9007907" lon="7.2719304"><ele>939.3333333333333</ele><time>2026-04-07T12:05:07.719Z</time></trkpt><trkpt lat="44.9008068" lon="7.2720349"><ele>939.5</ele><time>2026-04-07T12:05:08.72Z</time></trkpt><trkpt lat="44.9008253" lon="7.272142"><ele>939.6666666666666</ele><time>2026-04-07T12:05:09.72Z</time></trkpt><trkpt lat="44.9008409" lon="7.2722458"><ele>939.8333333333333</ele><time>2026-04-07T12:05:10.72Z</time></trkpt><trkpt lat="44.9008571" lon="7.2723528"><ele>940.0</ele><time>2026-04-07T12:05:11.72Z</time></trkpt><trkpt lat="44.9008766" lon="7.272457"><ele>939.1666666666666</ele><time>2026-04-07T12:05:12.72Z</time></trkpt><trkpt lat="44.9009035" lon="7.2725629"><ele>938.3333333333333</ele><time>2026-04-07T12:05:13.72Z</time></trkpt><trkpt lat="44.900937" lon="7.272659"><ele>937.5</ele><time>2026-04-07T12:05:14.72Z</time></trkpt><trkpt lat="44.9009647" lon="7.2727487"><ele>936.6666666666667</ele><time>2026-04-07T12:05:15.72Z</time></trkpt><trkpt lat="44.9009956" lon="7.2728333"><ele>935.8333333333334</ele><time>2026-04-07T12:05:16.72Z</time></trkpt><trkpt lat="44.90106" lon="7.2729809"><ele>935.0</ele><time>2026-04-07T12:05:18.72Z</time></trkpt><trkpt lat="44.9011315" lon="7.2731103"><ele>934.2</ele><time>2026-04-07T12:05:20.719Z</time></trkpt><trkpt lat="44.9012241" lon="7.2732012"><ele>933.4</ele><time>2026-04-07T12:05:22.72Z</time></trkpt><trkpt lat="44.9013482" lon="7.2732346"><ele>932.5999999999999</ele><time>2026-04-07T12:05:24.72Z</time></trkpt><trkpt lat="44.9014199" lon="7.2732327"><ele>931.8</ele><time>2026-04-07T12:05:25.72Z</time></trkpt><trkpt lat="44.901498" lon="7.2732266"><ele>931.0</ele><time>2026-04-07T12:05:26.72Z</time></trkpt><trkpt lat="44.9015791" lon="7.2732211"><ele>931.0</ele><time>2026-04-07T12:05:27.72Z</time></trkpt><trkpt lat="44.9016657" lon="7.2732188"><ele>930.9999999999999</ele><time>2026-04-07T12:05:28.72Z</time></trkpt><trkpt lat="44.9017669" lon="7.2732124"><ele>930.9999999999999</ele><time>2026-04-07T12:05:29.719Z</time></trkpt><trkpt lat="44.9018698" lon="7.2732002"><ele>931.0</ele><time>2026-04-07T12:05:30.72Z</time></trkpt><trkpt lat="44.9019752" lon="7.2731876"><ele>931.0</ele><time>2026-04-07T12:05:31.72Z</time></trkpt><trkpt lat="44.9020741" lon="7.2731674"><ele>931.6666666666666</ele><time>2026-04-07T12:05:32.72Z</time></trkpt><trkpt lat="44.902158" lon="7.2731516"><ele>932.3333333333333</ele><time>2026-04-07T12:05:33.72Z</time></trkpt><trkpt lat="44.9022264" lon="7.273148"><ele>933.0</ele><time>2026-04-07T12:05:34.72Z</time></trkpt><trkpt lat="44.9023347" lon="7.2731537"><ele>933.6666666666667</ele><time>2026-04-07T12:05:36.72Z</time></trkpt><trkpt lat="44.9024425" lon="7.2731878"><ele>934.3333333333334</ele><time>2026-04-07T12:05:38.72Z</time></trkpt><trkpt lat="44.9025056" lon="7.2732223"><ele>935.0</ele><time>2026-04-07T12:05:39.72Z</time></trkpt><trkpt lat="44.9025611" lon="7.2732655"><ele>938.1666666666667</ele><time>2026-04-07T12:05:40.72Z</time></trkpt><trkpt lat="44.9026407" lon="7.2733514"><ele>941.3333333333334</ele><time>2026-04-07T12:05:42.72Z</time></trkpt><trkpt lat="44.9026924" lon="7.2734361"><ele>944.5</ele><time>2026-04-07T12:05:45.719Z</time></trkpt><trkpt lat="44.9027021" lon="7.2735242"><ele>947.6666666666667</ele><time>2026-04-07T12:05:47.72Z</time></trkpt><trkpt lat="44.9026922" lon="7.2736482"><ele>950.8333333333334</ele><time>2026-04-07T12:05:49.72Z</time></trkpt><trkpt lat="44.9026421" lon="7.2737915"><ele>954.0</ele><time>2026-04-07T12:05:51.72Z</time></trkpt><trkpt lat="44.9026059" lon="7.2738737"><ele>949.0</ele><time>2026-04-07T12:05:52.719Z</time></trkpt><trkpt lat="44.902571" lon="7.273958"><ele>944.0</ele><time>2026-04-07T12:05:53.72Z</time></trkpt><trkpt lat="44.9025466" lon="7.2740446"><ele>939.0</ele><time>2026-04-07T12:05:54.72Z</time></trkpt><trkpt lat="44.9024979" lon="7.2742125"><ele>934.0</ele><time>2026-04-07T12:05:56.72Z</time></trkpt><trkpt lat="44.902472" lon="7.2743022"><ele>929.0</ele><time>2026-04-07T12:05:57.72Z</time></trkpt><trkpt lat="44.9024303" lon="7.2744567"><ele>924.0</ele><time>2026-04-07T12:05:59.72Z</time></trkpt><trkpt lat="44.9024115" lon="7.2745898"><ele>924.0</ele><time>2026-04-07T12:06:01.72Z</time></trkpt><trkpt lat="44.9023661" lon="7.2747071"><ele>924.0000000000001</ele><time>2026-04-07T12:06:03.72Z</time></trkpt><trkpt lat="44.9023137" lon="7.2748448"><ele>924.0000000000001</ele><time>2026-04-07T12:06:05.72Z</time></trkpt><trkpt lat="44.9022798" lon="7.2749935"><ele>924.0</ele><time>2026-04-07T12:06:07.72Z</time></trkpt><trkpt lat="44.9022685" lon="7.2751325"><ele>924.0</ele><time>2026-04-07T12:06:09.72Z</time></trkpt><trkpt lat="44.9022693" lon="7.2752597"><ele>925.0</ele><time>2026-04-07T12:06:11.72Z</time></trkpt><trkpt lat="44.902258" lon="7.2753612"><ele>926.0</ele><time>2026-04-07T12:06:13.72Z</time></trkpt><trkpt lat="44.9022105" lon="7.2754564"><ele>927.0</ele><time>2026-04-07T12:06:15.72Z</time></trkpt><trkpt lat="44.9021657" lon="7.2755565"><ele>928.0</ele><time>2026-04-07T12:06:17.72Z</time></trkpt><trkpt lat="44.9021023" lon="7.2756613"><ele>929.0</ele><time>2026-04-07T12:06:19.72Z</time></trkpt><trkpt lat="44.9020344" lon="7.2757597"><ele>930.0</ele><time>2026-04-07T12:06:21.719Z</time></trkpt><trkpt lat="44.9020021" lon="7.2758542"><ele>930.0</ele><time>2026-04-07T12:06:23.72Z</time></trkpt><trkpt lat="44.9020039" lon="7.275968"><ele>930.0</ele><time>2026-04-07T12:06:25.72Z</time></trkpt><trkpt lat="44.902037" lon="7.2760982"><ele>930.0</ele><time>2026-04-07T12:06:27.72Z</time></trkpt><trkpt lat="44.9020758" lon="7.2761812"><ele>930.0</ele><time>2026-04-07T12:06:28.719Z</time></trkpt><trkpt lat="44.9021176" lon="7.2762495"><ele>930.0</ele><time>2026-04-07T12:06:29.72Z</time></trkpt><trkpt lat="44.9022163" lon="7.276356"><ele>930.0</ele><time>2026-04-07T12:06:31.72Z</time></trkpt><trkpt lat="44.9022774" lon="7.276401"><ele>928.5</ele><time>2026-04-07T12:06:32.719Z</time></trkpt><trkpt lat="44.9023466" lon="7.2764369"><ele>927.0</ele><time>2026-04-07T12:06:33.72Z</time></trkpt><trkpt lat="44.9024165" lon="7.2764617"><ele>925.5</ele><time>2026-04-07T12:06:34.72Z</time></trkpt><trkpt lat="44.9024898" lon="7.2764763"><ele>924.0</ele><time>2026-04-07T12:06:35.72Z</time></trkpt><trkpt lat="44.9025732" lon="7.2764824"><ele>922.5</ele><time>2026-04-07T12:06:36.72Z</time></trkpt><trkpt lat="44.9026551" lon="7.2764931"><ele>921.0</ele><time>2026-04-07T12:06:37.72Z</time></trkpt><trkpt lat="44.9027386" lon="7.2764981"><ele>924.3333333333334</ele><time>2026-04-07T12:06:38.72Z</time></trkpt><trkpt lat="44.9028123" lon="7.2764988"><ele>927.6666666666667</ele><time>2026-04-07T12:06:39.72Z</time></trkpt><trkpt lat="44.9028801" lon="7.2764937"><ele>931.0</ele><time>2026-04-07T12:06:40.72Z</time></trkpt><trkpt lat="44.9029627" lon="7.2765106"><ele>934.3333333333334</ele><time>2026-04-07T12:06:42.72Z</time></trkpt><trkpt lat="44.9029728" lon="7.2766139"><ele>937.6666666666667</ele><time>2026-04-07T12:06:45.72Z</time></trkpt><trkpt lat="44.9029497" lon="7.2767064"><ele>941.0</ele><time>2026-04-07T12:06:47.72Z</time></trkpt><trkpt lat="44.9029649" lon="7.2768459"><ele>941.0</ele><time>2026-04-07T12:06:49.72Z</time></trkpt><trkpt lat="44.9030225" lon="7.2769822"><ele>940.9999999999999</ele><time>2026-04-07T12:06:51.72Z</time></trkpt><trkpt lat="44.9031056" lon="7.2771184"><ele>940.9999999999999</ele><time>2026-04-07T12:06:53.72Z</time></trkpt><trkpt lat="44.9031533" lon="7.2771861"><ele>941.0</ele><time>2026-04-07T12:06:54.72Z</time></trkpt><trkpt lat="44.9032008" lon="7.2772559"><ele>941.0</ele><time>2026-04-07T12:06:55.72Z</time></trkpt><trkpt lat="44.9032688" lon="7.2773979"><ele>941.0</ele><time>2026-04-07T12:06:57.72Z</time></trkpt><trkpt lat="44.9033056" lon="7.2775742"><ele>940.9999999999999</ele><time>2026-04-07T12:06:59.72Z</time></trkpt><trkpt lat="44.9033153" lon="7.2776816"><ele>940.9999999999999</ele><time>2026-04-07T12:07:00.72Z</time></trkpt><trkpt lat="44.9033228" lon="7.2777958"><ele>941.0</ele><time>2026-04-07T12:07:01.72Z</time></trkpt><trkpt lat="44.9033251" lon="7.2779175"><ele>941.0</ele><time>2026-04-07T12:07:02.72Z</time></trkpt><trkpt lat="44.9033291" lon="7.2780352"><ele>941.4285714285713</ele><time>2026-04-07T12:07:03.72Z</time></trkpt><trkpt lat="44.903331" lon="7.2781398"><ele>941.8571428571429</ele><time>2026-04-07T12:07:04.72Z</time></trkpt><trkpt lat="44.9033286" lon="7.2782323"><ele>942.2857142857142</ele><time>2026-04-07T12:07:05.72Z</time></trkpt><trkpt lat="44.9033335" lon="7.2783246"><ele>942.7142857142857</ele><time>2026-04-07T12:07:06.72Z</time></trkpt><trkpt lat="44.9033526" lon="7.278422"><ele>943.1428571428571</ele><time>2026-04-07T12:07:07.72Z</time></trkpt><trkpt lat="44.9033776" lon="7.2785132"><ele>943.5714285714286</ele><time>2026-04-07T12:07:08.72Z</time></trkpt><trkpt lat="44.903414" lon="7.278604"><ele>944.0</ele><time>2026-04-07T12:07:09.72Z</time></trkpt><trkpt lat="44.9034546" lon="7.278699"><ele>946.5000000000001</ele><time>2026-04-07T12:07:10.719Z</time></trkpt><trkpt lat="44.9034957" lon="7.2787977"><ele>949.0</ele><time>2026-04-07T12:07:11.72Z</time></trkpt><trkpt lat="44.9035376" lon="7.2788991"><ele>951.5</ele><time>2026-04-07T12:07:12.72Z</time></trkpt><trkpt lat="44.9035819" lon="7.2790077"><ele>954.0</ele><time>2026-04-07T12:07:13.72Z</time></trkpt><trkpt lat="44.9036307" lon="7.2791284"><ele>956.5000000000001</ele><time>2026-04-07T12:07:14.72Z</time></trkpt><trkpt lat="44.9036797" lon="7.2792451"><ele>959.0</ele><time>2026-04-07T12:07:15.72Z</time></trkpt><trkpt lat="44.903723" lon="7.2793514"><ele>959.0</ele><time>2026-04-07T12:07:16.72Z</time></trkpt><trkpt lat="44.9037629" lon="7.2794494"><ele>959.0000000000001</ele><time>2026-04-07T12:07:17.72Z</time></trkpt><trkpt lat="44.9038187" lon="7.2795921"><ele>959.0000000000001</ele><time>2026-04-07T12:07:19.72Z</time></trkpt><trkpt lat="44.9038785" lon="7.279731"><ele>959.0</ele><time>2026-04-07T12:07:21.72Z</time></trkpt><trkpt lat="44.9039103" lon="7.279812"><ele>959.0</ele><time>2026-04-07T12:07:22.72Z</time></trkpt><trkpt lat="44.9039629" lon="7.2799523"><ele>958.4000000000001</ele><time>2026-04-07T12:07:24.72Z</time></trkpt><trkpt lat="44.9039826" lon="7.2800387"><ele>957.8000000000001</ele><time>2026-04-07T12:07:26.72Z</time></trkpt><trkpt lat="44.9039251" lon="7.2801823"><ele>957.1999999999999</ele><time>2026-04-07T12:07:50.72Z</time></trkpt><trkpt lat="44.9038677" lon="7.280297"><ele>956.5999999999999</ele><time>2026-04-07T12:07:52.72Z</time></trkpt><trkpt lat="44.9038079" lon="7.2804247"><ele>956.0</ele><time>2026-04-07T12:07:54.72Z</time></trkpt><trkpt lat="44.9037561" lon="7.2805085"><ele>956.0</ele><time>2026-04-07T12:07:56.72Z</time></trkpt><trkpt lat="44.903695" lon="7.280546"><ele>955.9999999999999</ele><time>2026-04-07T12:07:58.72Z</time></trkpt><trkpt lat="44.9036031" lon="7.2805729"><ele>955.9999999999999</ele><time>2026-04-07T12:08:00.72Z</time></trkpt><trkpt lat="44.9034982" lon="7.2806036"><ele>956.0</ele><time>2026-04-07T12:08:02.72Z</time></trkpt><trkpt lat="44.9033965" lon="7.280667"><ele>956.0</ele><time>2026-04-07T12:08:04.72Z</time></trkpt><trkpt lat="44.9033111" lon="7.2807751"><ele>953.8</ele><time>2026-04-07T12:08:06.72Z</time></trkpt><trkpt lat="44.903264" lon="7.2808644"><ele>951.5999999999999</ele><time>2026-04-07T12:08:08.72Z</time></trkpt><trkpt lat="44.9032192" lon="7.2809477"><ele>949.4</ele><time>2026-04-07T12:08:10.72Z</time></trkpt><trkpt lat="44.9031581" lon="7.2810468"><ele>947.2</ele><time>2026-04-07T12:08:12.72Z</time></trkpt><trkpt lat="44.9030876" lon="7.2811651"><ele>945.0</ele><time>2026-04-07T12:08:14.72Z</time></trkpt><trkpt lat="44.9030155" lon="7.2812782"><ele>945.0</ele><time>2026-04-07T12:08:16.72Z</time></trkpt><trkpt lat="44.902938" lon="7.2813878"><ele>945.0</ele><time>2026-04-07T12:08:18.72Z</time></trkpt><trkpt lat="44.9028657" lon="7.2814975"><ele>945.0</ele><time>2026-04-07T12:08:20.72Z</time></trkpt><trkpt lat="44.9028104" lon="7.2815924"><ele>945.0</ele><time>2026-04-07T12:08:22.72Z</time></trkpt><trkpt lat="44.9027727" lon="7.2816918"><ele>945.0</ele><time>2026-04-07T12:08:24.72Z</time></trkpt><trkpt lat="44.902775" lon="7.2818313"><ele>944.4</ele><time>2026-04-07T12:08:26.72Z</time></trkpt><trkpt lat="44.9028083" lon="7.2819754"><ele>943.8</ele><time>2026-04-07T12:08:28.719Z</time></trkpt><trkpt lat="44.9028703" lon="7.282096"><ele>943.2</ele><time>2026-04-07T12:08:30.72Z</time></trkpt><trkpt lat="44.9029037" lon="7.2821844"><ele>942.6</ele><time>2026-04-07T12:08:32.72Z</time></trkpt><trkpt lat="44.902841" lon="7.2822524"><ele>942.0</ele><time>2026-04-07T12:08:39.72Z</time></trkpt><trkpt lat="44.9027264" lon="7.2822589"><ele>939.8333333333334</ele><time>2026-04-07T12:08:41.72Z</time></trkpt><trkpt lat="44.9026568" lon="7.2822679"><ele>937.6666666666667</ele><time>2026-04-07T12:08:42.72Z</time></trkpt><trkpt lat="44.9025808" lon="7.2822725"><ele>935.5</ele><time>2026-04-07T12:08:43.72Z</time></trkpt><trkpt lat="44.9025168" lon="7.2822786"><ele>933.3333333333334</ele><time>2026-04-07T12:08:44.72Z</time></trkpt><trkpt lat="44.9023926" lon="7.2822838"><ele>931.1666666666667</ele><time>2026-04-07T12:08:46.72Z</time></trkpt><trkpt lat="44.9023266" lon="7.2822725"><ele>929.0</ele><time>2026-04-07T12:08:47.72Z</time></trkpt><trkpt lat="44.9022558" lon="7.2822573"><ele>929.0</ele><time>2026-04-07T12:08:48.72Z</time></trkpt><trkpt lat="44.9021452" lon="7.2822194"><ele>929.0000000000001</ele><time>2026-04-07T12:08:50.72Z</time></trkpt><trkpt lat="44.9020815" lon="7.2821723"><ele>929.0000000000001</ele><time>2026-04-07T12:08:52.72Z</time></trkpt><trkpt lat="44.9020256" lon="7.2821077"><ele>929.0</ele><time>2026-04-07T12:08:54.72Z</time></trkpt><trkpt lat="44.9019566" lon="7.2820141"><ele>929.0</ele><time>2026-04-07T12:08:56.72Z</time></trkpt><trkpt lat="44.9018711" lon="7.2819304"><ele>929.0</ele><time>2026-04-07T12:08:58.72Z</time></trkpt><trkpt lat="44.9017794" lon="7.2818722"><ele>929.0000000000001</ele><time>2026-04-07T12:09:00.72Z</time></trkpt><trkpt lat="44.9016737" lon="7.281841"><ele>929.0000000000001</ele><time>2026-04-07T12:09:02.72Z</time></trkpt><trkpt lat="44.9015604" lon="7.2818365"><ele>929.0</ele><time>2026-04-07T12:09:04.72Z</time></trkpt><trkpt lat="44.9014605" lon="7.281867"><ele>929.0</ele><time>2026-04-07T12:09:06.72Z</time></trkpt><trkpt lat="44.9013743" lon="7.2818962"><ele>926.0</ele><time>2026-04-07T12:09:08.72Z</time></trkpt><trkpt lat="44.9012637" lon="7.2819214"><ele>923.0000000000001</ele><time>2026-04-07T12:09:10.72Z</time></trkpt><trkpt lat="44.901143" lon="7.2819427"><ele>920.0000000000001</ele><time>2026-04-07T12:09:12.72Z</time></trkpt><trkpt lat="44.9010794" lon="7.2819531"><ele>917.0</ele><time>2026-04-07T12:09:13.72Z</time></trkpt><trkpt lat="44.9009619" lon="7.2819645"><ele>914.0</ele><time>2026-04-07T12:09:15.72Z</time></trkpt><trkpt lat="44.900844" lon="7.281967"><ele>910.5</ele><time>2026-04-07T12:09:17.72Z</time></trkpt><trkpt lat="44.900724" lon="7.2820046"><ele>907.0</ele><time>2026-04-07T12:09:19.72Z</time></trkpt><trkpt lat="44.9006087" lon="7.2820612"><ele>903.5</ele><time>2026-04-07T12:09:21.72Z</time></trkpt><trkpt lat="44.900501" lon="7.2821091"><ele>900.0</ele><time>2026-04-07T12:09:23.719Z</time></trkpt><trkpt lat="44.9004138" lon="7.2821513"><ele>900.0</ele><time>2026-04-07T12:09:25.719Z</time></trkpt><trkpt lat="44.9003274" lon="7.2821909"><ele>900.0</ele><time>2026-04-07T12:09:27.72Z</time></trkpt><trkpt lat="44.9002598" lon="7.2821954"><ele>900.0</ele><time>2026-04-07T12:09:29.72Z</time></trkpt><trkpt lat="44.9001954" lon="7.2821734"><ele>900.0</ele><time>2026-04-07T12:09:31.719Z</time></trkpt><trkpt lat="44.9001293" lon="7.2821023"><ele>900.0</ele><time>2026-04-07T12:09:33.72Z</time></trkpt><trkpt lat="44.9000671" lon="7.2820087"><ele>900.0</ele><time>2026-04-07T12:09:35.72Z</time></trkpt><trkpt lat="44.9000147" lon="7.2819189"><ele>898.0</ele><time>2026-04-07T12:09:37.72Z</time></trkpt><trkpt lat="44.8999704" lon="7.2818172"><ele>896.0</ele><time>2026-04-07T12:09:39.72Z</time></trkpt><trkpt lat="44.8999238" lon="7.2816851"><ele>894.0</ele><time>2026-04-07T12:09:41.72Z</time></trkpt><trkpt lat="44.8999003" lon="7.2816021"><ele>892.0</ele><time>2026-04-07T12:09:42.72Z</time></trkpt><trkpt lat="44.8998927" lon="7.2814347"><ele>890.0</ele><time>2026-04-07T12:09:44.72Z</time></trkpt><trkpt lat="44.8999119" lon="7.2813499"><ele>888.0</ele><time>2026-04-07T12:09:45.72Z</time></trkpt><trkpt lat="44.8999604" lon="7.2812107"><ele>888.0</ele><time>2026-04-07T12:09:47.72Z</time></trkpt><trkpt lat="44.8999924" lon="7.2811332"><ele>888.0</ele><time>2026-04-07T12:09:48.72Z</time></trkpt><trkpt lat="44.9000242" lon="7.2810527"><ele>888.0</ele><time>2026-04-07T12:09:49.72Z</time></trkpt><trkpt lat="44.9000577" lon="7.2809643"><ele>888.0</ele><time>2026-04-07T12:09:50.719Z</time></trkpt><trkpt lat="44.9000825" lon="7.2808704"><ele>888.0</ele><time>2026-04-07T12:09:51.72Z</time></trkpt><trkpt lat="44.9001061" lon="7.2807754"><ele>888.0</ele><time>2026-04-07T12:09:52.72Z</time></trkpt><trkpt lat="44.9001306" lon="7.2806805"><ele>888.0</ele><time>2026-04-07T12:09:53.72Z</time></trkpt><trkpt lat="44.9001537" lon="7.2805893"><ele>888.0</ele><time>2026-04-07T12:09:54.72Z</time></trkpt><trkpt lat="44.9001714" lon="7.2804963"><ele>888.0</ele><time>2026-04-07T12:09:55.72Z</time></trkpt><trkpt lat="44.9001881" lon="7.2804038"><ele>888.0</ele><time>2026-04-07T12:09:56.72Z</time></trkpt><trkpt lat="44.900205" lon="7.2803118"><ele>888.0</ele><time>2026-04-07T12:09:57.72Z</time></trkpt><trkpt lat="44.9002177" lon="7.2802204"><ele>888.0</ele><time>2026-04-07T12:09:58.72Z</time></trkpt><trkpt lat="44.9002459" lon="7.2800584"><ele>888.0</ele><time>2026-04-07T12:10:00.72Z</time></trkpt><trkpt lat="44.9002789" lon="7.2798938"><ele>885.5</ele><time>2026-04-07T12:10:02.72Z</time></trkpt><trkpt lat="44.9003039" lon="7.2797164"><ele>883.0</ele><time>2026-04-07T12:10:04.72Z</time></trkpt><trkpt lat="44.9003302" lon="7.2795515"><ele>880.5</ele><time>2026-04-07T12:10:06.72Z</time></trkpt><trkpt lat="44.9003747" lon="7.2793955"><ele>878.0</ele><time>2026-04-07T12:10:08.72Z</time></trkpt><trkpt lat="44.9004266" lon="7.279258"><ele>878.0000000000001</ele><time>2026-04-07T12:10:10.72Z</time></trkpt><trkpt lat="44.9004816" lon="7.2791388"><ele>878.0</ele><time>2026-04-07T12:10:12.72Z</time></trkpt><trkpt lat="44.9005317" lon="7.2790429"><ele>878.0</ele><time>2026-04-07T12:10:14.72Z</time></trkpt><trkpt lat="44.9005902" lon="7.2789819"><ele>878.0</ele><time>2026-04-07T12:10:16.72Z</time></trkpt><trkpt lat="44.9006499" lon="7.2789033"><ele>878.0000000000001</ele><time>2026-04-07T12:10:18.72Z</time></trkpt><trkpt lat="44.9006325" lon="7.2788139"><ele>878.0</ele><time>2026-04-07T12:10:21.72Z</time></trkpt><trkpt lat="44.9004927" lon="7.2787947"><ele>875.6666666666667</ele><time>2026-04-07T12:10:23.72Z</time></trkpt><trkpt lat="44.9004059" lon="7.2787966"><ele>873.3333333333334</ele><time>2026-04-07T12:10:24.72Z</time></trkpt><trkpt lat="44.9003167" lon="7.2788032"><ele>871.0</ele><time>2026-04-07T12:10:25.719Z</time></trkpt><trkpt lat="44.9002293" lon="7.2788082"><ele>868.6666666666667</ele><time>2026-04-07T12:10:26.72Z</time></trkpt><trkpt lat="44.9001443" lon="7.2788252"><ele>866.3333333333334</ele><time>2026-04-07T12:10:27.719Z</time></trkpt><trkpt lat="44.9000714" lon="7.2788501"><ele>864.0</ele><time>2026-04-07T12:10:28.72Z</time></trkpt><trkpt lat="44.9000083" lon="7.2788785"><ele>863.2</ele><time>2026-04-07T12:10:29.72Z</time></trkpt><trkpt lat="44.8999134" lon="7.278978"><ele>862.4000000000001</ele><time>2026-04-07T12:10:31.72Z</time></trkpt><trkpt lat="44.8998303" lon="7.279101"><ele>861.6</ele><time>2026-04-07T12:10:33.72Z</time></trkpt><trkpt lat="44.8997773" lon="7.2792439"><ele>860.8</ele><time>2026-04-07T12:10:35.72Z</time></trkpt><trkpt lat="44.8997234" lon="7.2793532"><ele>860.0</ele><time>2026-04-07T12:10:37.72Z</time></trkpt><trkpt lat="44.8996198" lon="7.2794165"><ele>860.0000000000001</ele><time>2026-04-07T12:10:39.72Z</time></trkpt><trkpt lat="44.8995501" lon="7.2794392"><ele>860.0</ele><time>2026-04-07T12:10:40.72Z</time></trkpt><trkpt lat="44.8994744" lon="7.2794606"><ele>860.0</ele><time>2026-04-07T12:10:41.72Z</time></trkpt><trkpt lat="44.899396" lon="7.2794732"><ele>860.0</ele><time>2026-04-07T12:10:42.72Z</time></trkpt><trkpt lat="44.8993152" lon="7.2794815"><ele>860.0000000000001</ele><time>2026-04-07T12:10:43.72Z</time></trkpt><trkpt lat="44.8992325" lon="7.2794875"><ele>860.0</ele><time>2026-04-07T12:10:44.72Z</time></trkpt><trkpt lat="44.8991446" lon="7.2794789"><ele>857.1666666666667</ele><time>2026-04-07T12:10:45.72Z</time></trkpt><trkpt lat="44.8990557" lon="7.2794631"><ele>854.3333333333334</ele><time>2026-04-07T12:10:46.72Z</time></trkpt><trkpt lat="44.8989704" lon="7.2794432"><ele>851.5</ele><time>2026-04-07T12:10:47.72Z</time></trkpt><trkpt lat="44.8988884" lon="7.2794243"><ele>848.6666666666667</ele><time>2026-04-07T12:10:48.719Z</time></trkpt><trkpt lat="44.8988067" lon="7.2793909"><ele>845.8333333333334</ele><time>2026-04-07T12:10:49.72Z</time></trkpt><trkpt lat="44.8987303" lon="7.2793497"><ele>843.0</ele><time>2026-04-07T12:10:50.72Z</time></trkpt><trkpt lat="44.8986593" lon="7.279314"><ele>843.0</ele><time>2026-04-07T12:10:51.72Z</time></trkpt><trkpt lat="44.8985947" lon="7.2792794"><ele>843.0</ele><time>2026-04-07T12:10:52.72Z</time></trkpt><trkpt lat="44.8985345" lon="7.279251"><ele>843.0</ele><time>2026-04-07T12:10:53.72Z</time></trkpt><trkpt lat="44.8984323" lon="7.279222"><ele>843.0</ele><time>2026-04-07T12:10:55.72Z</time></trkpt><trkpt lat="44.898346" lon="7.2792598"><ele>843.0</ele><time>2026-04-07T12:10:57.72Z</time></trkpt><trkpt lat="44.898292" lon="7.2793585"><ele>843.0</ele><time>2026-04-07T12:10:59.72Z</time></trkpt><trkpt lat="44.8982785" lon="7.2795119"><ele>841.8333333333334</ele><time>2026-04-07T12:11:01.719Z</time></trkpt><trkpt lat="44.8982805" lon="7.2796039"><ele>840.6666666666667</ele><time>2026-04-07T12:11:02.719Z</time></trkpt><trkpt lat="44.898288" lon="7.2796992"><ele>839.5</ele><time>2026-04-07T12:11:03.72Z</time></trkpt><trkpt lat="44.8983018" lon="7.2797865"><ele>838.3333333333334</ele><time>2026-04-07T12:11:04.72Z</time></trkpt><trkpt lat="44.8983278" lon="7.279932"><ele>837.1666666666667</ele><time>2026-04-07T12:11:06.72Z</time></trkpt><trkpt lat="44.8983126" lon="7.2800591"><ele>836.0</ele><time>2026-04-07T12:11:08.72Z</time></trkpt><trkpt lat="44.8982481" lon="7.2801675"><ele>836.0</ele><time>2026-04-07T12:11:10.72Z</time></trkpt><trkpt lat="44.8981989" lon="7.2802344"><ele>836.0</ele><time>2026-04-07T12:11:11.72Z</time></trkpt><trkpt lat="44.8981444" lon="7.2803127"><ele>836.0</ele><time>2026-04-07T12:11:12.72Z</time></trkpt><trkpt lat="44.898084" lon="7.2803901"><ele>836.0</ele><time>2026-04-07T12:11:13.72Z</time></trkpt><trkpt lat="44.8980316" lon="7.2804549"><ele>836.0</ele><time>2026-04-07T12:11:14.72Z</time></trkpt><trkpt lat="44.8979793" lon="7.2805102"><ele>836.0</ele><time>2026-04-07T12:11:15.72Z</time></trkpt><trkpt lat="44.8979231" lon="7.2805615"><ele>836.0</ele><time>2026-04-07T12:11:16.72Z</time></trkpt><trkpt lat="44.8978594" lon="7.280612"><ele>836.6666666666667</ele><time>2026-04-07T12:11:17.72Z</time></trkpt><trkpt lat="44.8977963" lon="7.2806628"><ele>837.3333333333334</ele><time>2026-04-07T12:11:18.72Z</time></trkpt><trkpt lat="44.8977349" lon="7.2807131"><ele>838.0</ele><time>2026-04-07T12:11:19.72Z</time></trkpt><trkpt lat="44.8976754" lon="7.2807633"><ele>838.6666666666667</ele><time>2026-04-07T12:11:20.72Z</time></trkpt><trkpt lat="44.8976167" lon="7.280808"><ele>839.3333333333334</ele><time>2026-04-07T12:11:21.72Z</time></trkpt><trkpt lat="44.8975583" lon="7.2808449"><ele>840.0</ele><time>2026-04-07T12:11:22.72Z</time></trkpt><trkpt lat="44.8974404" lon="7.2808922"><ele>836.6666666666666</ele><time>2026-04-07T12:11:24.72Z</time></trkpt><trkpt lat="44.8973753" lon="7.280907"><ele>833.3333333333333</ele><time>2026-04-07T12:11:25.72Z</time></trkpt><trkpt lat="44.8972603" lon="7.280921"><ele>830.0</ele><time>2026-04-07T12:11:27.72Z</time></trkpt><trkpt lat="44.8971755" lon="7.2809057"><ele>826.6666666666666</ele><time>2026-04-07T12:11:29.72Z</time></trkpt><trkpt lat="44.8971287" lon="7.2808331"><ele>823.3333333333333</ele><time>2026-04-07T12:11:32.72Z</time></trkpt><trkpt lat="44.8971747" lon="7.2807033"><ele>820.0</ele><time>2026-04-07T12:11:35.72Z</time></trkpt><trkpt lat="44.8972087" lon="7.280565"><ele>817.6</ele><time>2026-04-07T12:11:37.72Z</time></trkpt><trkpt lat="44.897261" lon="7.2804266"><ele>815.2</ele><time>2026-04-07T12:11:39.72Z</time></trkpt><trkpt lat="44.8973152" lon="7.280278"><ele>812.8</ele><time>2026-04-07T12:11:41.72Z</time></trkpt><trkpt lat="44.8973664" lon="7.2801412"><ele>810.4</ele><time>2026-04-07T12:11:43.72Z</time></trkpt><trkpt lat="44.897413" lon="7.2800058"><ele>808.0</ele><time>2026-04-07T12:11:45.72Z</time></trkpt><trkpt lat="44.8974517" lon="7.2798901"><ele>807.9999999999999</ele><time>2026-04-07T12:11:47.72Z</time></trkpt><trkpt lat="44.8974828" lon="7.279797"><ele>808.0</ele><time>2026-04-07T12:11:49.72Z</time></trkpt><trkpt lat="44.8974341" lon="7.2796964"><ele>808.0</ele><time>2026-04-07T12:11:52.72Z</time></trkpt><trkpt lat="44.8973222" lon="7.2796939"><ele>808.0</ele><time>2026-04-07T12:11:54.72Z</time></trkpt><trkpt lat="44.8972432" lon="7.2797035"><ele>807.9999999999999</ele><time>2026-04-07T12:11:55.72Z</time></trkpt><trkpt lat="44.8971568" lon="7.2797128"><ele>808.0</ele><time>2026-04-07T12:11:56.72Z</time></trkpt><trkpt lat="44.8970648" lon="7.2797273"><ele>808.0</ele><time>2026-04-07T12:11:57.72Z</time></trkpt><trkpt lat="44.8969832" lon="7.2797455"><ele>808.0</ele><time>2026-04-07T12:11:58.72Z</time></trkpt><trkpt lat="44.8969124" lon="7.2797785"><ele>808.0</ele><time>2026-04-07T12:11:59.72Z</time></trkpt><trkpt lat="44.8968455" lon="7.2798211"><ele>808.0</ele><time>2026-04-07T12:12:00.72Z</time></trkpt><trkpt lat="44.8967823" lon="7.2798614"><ele>808.0</ele><time>2026-04-07T12:12:01.719Z</time></trkpt><trkpt lat="44.8967225" lon="7.2798951"><ele>808.0</ele><time>2026-04-07T12:12:02.72Z</time></trkpt><trkpt lat="44.8966575" lon="7.2799255"><ele>808.0</ele><time>2026-04-07T12:12:03.72Z</time></trkpt><trkpt lat="44.8965886" lon="7.2799533"><ele>805.6666666666666</ele><time>2026-04-07T12:12:04.719Z</time></trkpt><trkpt lat="44.8964743" lon="7.2799967"><ele>803.3333333333333</ele><time>2026-04-07T12:12:06.72Z</time></trkpt><trkpt lat="44.8964111" lon="7.280022"><ele>801.0</ele><time>2026-04-07T12:12:07.72Z</time></trkpt><trkpt lat="44.8963528" lon="7.2800608"><ele>798.6666666666667</ele><time>2026-04-07T12:12:08.72Z</time></trkpt><trkpt lat="44.896292" lon="7.2801088"><ele>796.3333333333334</ele><time>2026-04-07T12:12:09.72Z</time></trkpt><trkpt lat="44.8962366" lon="7.2801802"><ele>794.0</ele><time>2026-04-07T12:12:10.72Z</time></trkpt><trkpt lat="44.8961799" lon="7.2802452"><ele>794.0</ele><time>2026-04-07T12:12:11.719Z</time></trkpt><trkpt lat="44.8961267" lon="7.2803051"><ele>794.0</ele><time>2026-04-07T12:12:12.72Z</time></trkpt><trkpt lat="44.8960803" lon="7.2803704"><ele>794.0</ele><time>2026-04-07T12:12:13.72Z</time></trkpt><trkpt lat="44.8960355" lon="7.2804452"><ele>794.0</ele><time>2026-04-07T12:12:14.72Z</time></trkpt><trkpt lat="44.8959931" lon="7.2805277"><ele>794.0</ele><time>2026-04-07T12:12:15.72Z</time></trkpt><trkpt lat="44.895949" lon="7.280616"><ele>794.0</ele><time>2026-04-07T12:12:16.72Z</time></trkpt><trkpt lat="44.8959082" lon="7.2807079"><ele>794.0</ele><time>2026-04-07T12:12:17.719Z</time></trkpt><trkpt lat="44.8958663" lon="7.2807966"><ele>791.4000000000001</ele><time>2026-04-07T12:12:18.72Z</time></trkpt><trkpt lat="44.8958277" lon="7.2808812"><ele>788.8</ele><time>2026-04-07T12:12:19.72Z</time></trkpt><trkpt lat="44.8957925" lon="7.2809593"><ele>786.2</ele><time>2026-04-07T12:12:20.72Z</time></trkpt><trkpt lat="44.895736" lon="7.2811013"><ele>783.5999999999999</ele><time>2026-04-07T12:12:22.72Z</time></trkpt><trkpt lat="44.8956888" lon="7.2812432"><ele>781.0</ele><time>2026-04-07T12:12:24.72Z</time></trkpt><trkpt lat="44.8956654" lon="7.2813994"><ele>780.9999999999999</ele><time>2026-04-07T12:12:26.72Z</time></trkpt><trkpt lat="44.8956465" lon="7.2815418"><ele>781.0</ele><time>2026-04-07T12:12:28.72Z</time></trkpt><trkpt lat="44.8956379" lon="7.2816577"><ele>781.0</ele><time>2026-04-07T12:12:30.719Z</time></trkpt><trkpt lat="44.8955724" lon="7.2816928"><ele>781.0</ele><time>2026-04-07T12:12:33.72Z</time></trkpt><trkpt lat="44.8955418" lon="7.2816073"><ele>780.9999999999999</ele><time>2026-04-07T12:12:35.72Z</time></trkpt><trkpt lat="44.8955386" lon="7.2814818"><ele>781.0</ele><time>2026-04-07T12:12:37.72Z</time></trkpt><trkpt lat="44.8955474" lon="7.2813186"><ele>781.0</ele><time>2026-04-07T12:12:39.72Z</time></trkpt><trkpt lat="44.895552" lon="7.2811542"><ele>781.0</ele><time>2026-04-07T12:12:41.72Z</time></trkpt><trkpt lat="44.8955525" lon="7.2810155"><ele>781.0</ele><time>2026-04-07T12:12:43.72Z</time></trkpt><trkpt lat="44.8955487" lon="7.2808965"><ele>781.0</ele><time>2026-04-07T12:12:45.72Z</time></trkpt><trkpt lat="44.8955407" lon="7.2807762"><ele>781.0</ele><time>2026-04-07T12:12:48.72Z</time></trkpt><trkpt lat="44.8955089" lon="7.280673"><ele>779.5999999999999</ele><time>2026-04-07T12:12:50.72Z</time></trkpt><trkpt lat="44.8954598" lon="7.2805592"><ele>778.2</ele><time>2026-04-07T12:12:52.72Z</time></trkpt><trkpt lat="44.8954139" lon="7.280452"><ele>776.8</ele><time>2026-04-07T12:12:54.72Z</time></trkpt><trkpt lat="44.8953809" lon="7.2803371"><ele>775.4000000000001</ele><time>2026-04-07T12:12:56.72Z</time></trkpt><trkpt lat="44.8953587" lon="7.2801978"><ele>774.0</ele><time>2026-04-07T12:12:58.72Z</time></trkpt><trkpt lat="44.8953267" lon="7.2800416"><ele>774.0</ele><time>2026-04-07T12:13:00.72Z</time></trkpt><trkpt lat="44.8953104" lon="7.2799542"><ele>774.0</ele><time>2026-04-07T12:13:01.72Z</time></trkpt><trkpt lat="44.895284" lon="7.2797864"><ele>774.0</ele><time>2026-04-07T12:13:03.72Z</time></trkpt><trkpt lat="44.895263" lon="7.2797003"><ele>774.0</ele><time>2026-04-07T12:13:04.72Z</time></trkpt><trkpt lat="44.8952445" lon="7.2796142"><ele>774.0</ele><time>2026-04-07T12:13:05.72Z</time></trkpt><trkpt lat="44.8951891" lon="7.2794524"><ele>774.0</ele><time>2026-04-07T12:13:07.72Z</time></trkpt><trkpt lat="44.8951079" lon="7.2793174"><ele>770.6666666666666</ele><time>2026-04-07T12:13:09.72Z</time></trkpt><trkpt lat="44.8950579" lon="7.2792532"><ele>767.3333333333334</ele><time>2026-04-07T12:13:10.72Z</time></trkpt><trkpt lat="44.8950071" lon="7.279189"><ele>764.0</ele><time>2026-04-07T12:13:11.72Z</time></trkpt><trkpt lat="44.8949592" lon="7.2791259"><ele>760.6666666666667</ele><time>2026-04-07T12:13:12.72Z</time></trkpt><trkpt lat="44.8948644" lon="7.279009"><ele>757.3333333333334</ele><time>2026-04-07T12:13:14.72Z</time></trkpt><trkpt lat="44.8948125" lon="7.2789583"><ele>754.0</ele><time>2026-04-07T12:13:15.72Z</time></trkpt><trkpt lat="44.894742" lon="7.2788635"><ele>753.6666666666667</ele><time>2026-04-07T12:13:17.72Z</time></trkpt><trkpt lat="44.8946885" lon="7.2787762"><ele>753.3333333333334</ele><time>2026-04-07T12:13:19.72Z</time></trkpt><trkpt lat="44.8946475" lon="7.2787004"><ele>753.0</ele><time>2026-04-07T12:13:21.72Z</time></trkpt><trkpt lat="44.8946105" lon="7.2786016"><ele>752.6666666666666</ele><time>2026-04-07T12:13:24.72Z</time></trkpt><trkpt lat="44.894507" lon="7.2784962"><ele>752.3333333333333</ele><time>2026-04-07T12:14:17.719Z</time></trkpt><trkpt lat="44.8944531" lon="7.2783919"><ele>752.0</ele><time>2026-04-07T12:17:29.72Z</time></trkpt><trkpt lat="44.8944053" lon="7.2783277"><ele>752.0</ele><time>2026-04-07T12:29:47.719Z</time></trkpt><trkpt lat="44.8944585" lon="7.2782601"><ele>752.0</ele><time>2026-04-07T12:29:52.719Z</time></trkpt><trkpt lat="44.8945252" lon="7.2782877"><ele>752.0</ele><time>2026-04-07T12:29:54.719Z</time></trkpt><trkpt lat="44.8946153" lon="7.2783502"><ele>752.0</ele><time>2026-04-07T12:29:56.719Z</time></trkpt><trkpt lat="44.8946977" lon="7.2784094"><ele>752.0</ele><time>2026-04-07T12:29:58.719Z</time></trkpt><trkpt lat="44.8947651" lon="7.2783987"><ele>752.0</ele><time>2026-04-07T12:30:00.719Z</time></trkpt><trkpt lat="44.8948157" lon="7.2783383"><ele>752.0</ele><time>2026-04-07T12:30:02.719Z</time></trkpt><trkpt lat="44.8948579" lon="7.2782406"><ele>752.0</ele><time>2026-04-07T12:30:04.719Z</time></trkpt><trkpt lat="44.8948858" lon="7.2781084"><ele>752.0</ele><time>2026-04-07T12:30:06.719Z</time></trkpt><trkpt lat="44.894933" lon="7.2779524"><ele>752.0</ele><time>2026-04-07T12:30:08.719Z</time></trkpt><trkpt lat="44.894989" lon="7.277822"><ele>752.0</ele><time>2026-04-07T12:30:10.719Z</time></trkpt><trkpt lat="44.8950519" lon="7.277737"><ele>752.1666666666666</ele><time>2026-04-07T12:30:12.719Z</time></trkpt><trkpt lat="44.8951287" lon="7.2776823"><ele>752.3333333333333</ele><time>2026-04-07T12:30:14.719Z</time></trkpt><trkpt lat="44.8951999" lon="7.2776631"><ele>752.5</ele><time>2026-04-07T12:30:16.719Z</time></trkpt><trkpt lat="44.8952647" lon="7.2776953"><ele>752.6666666666666</ele><time>2026-04-07T12:30:19.719Z</time></trkpt><trkpt lat="44.8951759" lon="7.2776608"><ele>752.8333333333334</ele><time>2026-04-07T12:30:27.719Z</time></trkpt><trkpt lat="44.8950593" lon="7.2776954"><ele>753.0</ele><time>2026-04-07T12:30:29.719Z</time></trkpt><trkpt lat="44.8949584" lon="7.2777761"><ele>752.8</ele><time>2026-04-07T12:30:31.719Z</time></trkpt><trkpt lat="44.8948982" lon="7.2778758"><ele>752.5999999999999</ele><time>2026-04-07T12:30:33.719Z</time></trkpt><trkpt lat="44.8948671" lon="7.2779919"><ele>752.4000000000001</ele><time>2026-04-07T12:30:35.719Z</time></trkpt><trkpt lat="44.8948464" lon="7.27813"><ele>752.2</ele><time>2026-04-07T12:30:37.719Z</time></trkpt><trkpt lat="44.8948391" lon="7.2782613"><ele>752.0</ele><time>2026-04-07T12:30:39.719Z</time></trkpt><trkpt lat="44.8948297" lon="7.2783688"><ele>752.0</ele><time>2026-04-07T12:30:41.719Z</time></trkpt><trkpt lat="44.8947424" lon="7.2783879"><ele>752.0</ele><time>2026-04-07T12:30:45.719Z</time></trkpt><trkpt lat="44.8946664" lon="7.2783245"><ele>752.0</ele><time>2026-04-07T12:30:47.718Z</time></trkpt><trkpt lat="44.8946612" lon="7.2782354"><ele>752.0</ele><time>2026-04-07T12:30:58.719Z</time></trkpt><trkpt lat="44.8946493" lon="7.2781151"><ele>752.0</ele><time>2026-04-07T12:31:01.719Z</time></trkpt><trkpt lat="44.8946079" lon="7.2780138"><ele>752.0</ele><time>2026-04-07T12:31:04.719Z</time></trkpt><trkpt lat="44.8945742" lon="7.2779362"><ele>750.5</ele><time>2026-04-07T12:31:08.719Z</time></trkpt><trkpt lat="44.8945113" lon="7.2778247"><ele>749.0</ele><time>2026-04-07T12:31:53.719Z</time></trkpt><trkpt lat="44.8944879" lon="7.2777371"><ele>747.5</ele><time>2026-04-07T12:31:55.719Z</time></trkpt><trkpt lat="44.8944632" lon="7.2776553"><ele>746.0</ele><time>2026-04-07T12:31:58.719Z</time></trkpt><trkpt lat="44.8943993" lon="7.2775143"><ele>744.5</ele><time>2026-04-07T12:32:08.719Z</time></trkpt><trkpt lat="44.8943729" lon="7.2774328"><ele>743.0</ele><time>2026-04-07T12:32:12.719Z</time></trkpt><trkpt lat="44.8943384" lon="7.2773458"><ele>739.6666666666666</ele><time>2026-04-07T12:32:31.719Z</time></trkpt><trkpt lat="44.8942929" lon="7.2772434"><ele>736.3333333333333</ele><time>2026-04-07T12:32:33.719Z</time></trkpt><trkpt lat="44.8942496" lon="7.2771342"><ele>733.0</ele><time>2026-04-07T12:32:36.719Z</time></trkpt><trkpt lat="44.8942408" lon="7.2770434"><ele>729.6666666666666</ele><time>2026-04-07T12:32:40.719Z</time></trkpt><trkpt lat="44.8942146" lon="7.2769574"><ele>726.3333333333334</ele><time>2026-04-07T12:32:48.719Z</time></trkpt><trkpt lat="44.8941515" lon="7.2768653"><ele>723.0</ele><time>2026-04-07T12:32:54.719Z</time></trkpt><trkpt lat="44.8940762" lon="7.2768031"><ele>722.0000000000001</ele><time>2026-04-07T12:32:56.719Z</time></trkpt><trkpt lat="44.8940198" lon="7.2767434"><ele>721.0</ele><time>2026-04-07T12:32:58.719Z</time></trkpt><trkpt lat="44.8939471" lon="7.2767032"><ele>720.0</ele><time>2026-04-07T12:33:01.719Z</time></trkpt><trkpt lat="44.8938838" lon="7.2766948"><ele>719.0</ele><time>2026-04-07T12:33:04.719Z</time></trkpt><trkpt lat="44.893811" lon="7.2767248"><ele>718.0</ele><time>2026-04-07T12:33:07.719Z</time></trkpt><trkpt lat="44.8937307" lon="7.2767592"><ele>717.0000000000001</ele><time>2026-04-07T12:33:10.718Z</time></trkpt><trkpt lat="44.8936662" lon="7.2767789"><ele>716.0</ele><time>2026-04-07T12:33:28.719Z</time></trkpt><trkpt lat="44.8937374" lon="7.2767485"><ele>716.0000000000001</ele><time>2026-04-07T12:34:51.719Z</time></trkpt><trkpt lat="44.8938123" lon="7.276698"><ele>716.0</ele><time>2026-04-07T12:34:54.719Z</time></trkpt><trkpt lat="44.8938935" lon="7.2766916"><ele>716.0</ele><time>2026-04-07T12:34:58.719Z</time></trkpt><trkpt lat="44.8939503" lon="7.276752"><ele>716.0</ele><time>2026-04-07T12:35:01.719Z</time></trkpt><trkpt lat="44.8940164" lon="7.2768136"><ele>716.0</ele><time>2026-04-07T12:35:03.719Z</time></trkpt><trkpt lat="44.8940718" lon="7.2768579"><ele>716.0000000000001</ele><time>2026-04-07T12:35:05.719Z</time></trkpt><trkpt lat="44.8941021" lon="7.276939"><ele>716.0</ele><time>2026-04-07T12:35:20.719Z</time></trkpt><trkpt lat="44.8941286" lon="7.2770605"><ele>716.0</ele><time>2026-04-07T12:35:23.719Z</time></trkpt><trkpt lat="44.8941631" lon="7.2771449"><ele>716.0</ele><time>2026-04-07T12:35:25.719Z</time></trkpt><trkpt lat="44.8942046" lon="7.2772267"><ele>716.0</ele><time>2026-04-07T12:35:27.719Z</time></trkpt><trkpt lat="44.8942552" lon="7.277327"><ele>716.0</ele><time>2026-04-07T12:35:30.718Z</time></trkpt><trkpt lat="44.8943164" lon="7.2774558"><ele>716.0</ele><time>2026-04-07T12:38:55.718Z</time></trkpt><trkpt lat="44.8944153" lon="7.2776629"><ele>720.5</ele><time>2026-04-07T12:40:05.718Z</time></trkpt><trkpt lat="44.8944484" lon="7.2777449"><ele>725.0</ele><time>2026-04-07T12:40:08.718Z</time></trkpt><trkpt lat="44.8945081" lon="7.2778461"><ele>729.5</ele><time>2026-04-07T12:40:24.718Z</time></trkpt><trkpt lat="44.8945456" lon="7.2779264"><ele>734.0</ele><time>2026-04-07T12:40:26.718Z</time></trkpt><trkpt lat="44.8945914" lon="7.2780251"><ele>738.5</ele><time>2026-04-07T12:40:28.718Z</time></trkpt><trkpt lat="44.8946259" lon="7.2781092"><ele>743.0</ele><time>2026-04-07T12:40:30.718Z</time></trkpt><trkpt lat="44.8946268" lon="7.2782085"><ele>742.8571428571429</ele><time>2026-04-07T12:40:33.718Z</time></trkpt><trkpt lat="44.8945614" lon="7.2781804"><ele>742.7142857142857</ele><time>2026-04-07T12:40:39.718Z</time></trkpt><trkpt lat="44.8944733" lon="7.2781648"><ele>742.5714285714286</ele><time>2026-04-07T12:40:41.718Z</time></trkpt><trkpt lat="44.8944084" lon="7.2782039"><ele>742.4285714285714</ele><time>2026-04-07T12:40:42.718Z</time></trkpt><trkpt lat="44.8943263" lon="7.2782403"><ele>742.2857142857142</ele><time>2026-04-07T12:40:44.718Z</time></trkpt><trkpt lat="44.8942749" lon="7.2782917"><ele>742.1428571428571</ele><time>2026-04-07T12:40:50.717Z</time></trkpt><trkpt lat="44.8942235" lon="7.2783541"><ele>742.0</ele><time>2026-04-07T12:49:18.717Z</time></trkpt><trkpt lat="44.8941726" lon="7.2785197"><ele>742.0</ele><time>2026-04-07T12:49:20.717Z</time></trkpt><trkpt lat="44.8941465" lon="7.2786257"><ele>742.0</ele><time>2026-04-07T12:49:21.717Z</time></trkpt><trkpt lat="44.8941277" lon="7.2787213"><ele>742.0</ele><time>2026-04-07T12:49:22.717Z</time></trkpt><trkpt lat="44.894116" lon="7.2788802"><ele>742.0</ele><time>2026-04-07T12:49:24.717Z</time></trkpt><trkpt lat="44.8941227" lon="7.2790178"><ele>742.0</ele><time>2026-04-07T12:49:26.717Z</time></trkpt><trkpt lat="44.894124" lon="7.2791336"><ele>742.0</ele><time>2026-04-07T12:49:28.717Z</time></trkpt><trkpt lat="44.8941646" lon="7.2790498"><ele>742.0</ele><time>2026-04-07T12:49:43.717Z</time></trkpt><trkpt lat="44.8941752" lon="7.2789163"><ele>742.0</ele><time>2026-04-07T12:49:45.717Z</time></trkpt><trkpt lat="44.8941995" lon="7.278765"><ele>742.0</ele><time>2026-04-07T12:49:47.717Z</time></trkpt><trkpt lat="44.8942306" lon="7.2786244"><ele>742.0</ele><time>2026-04-07T12:49:49.717Z</time></trkpt><trkpt lat="44.8942796" lon="7.2785149"><ele>742.0</ele><time>2026-04-07T12:49:51.717Z</time></trkpt><trkpt lat="44.8943272" lon="7.2784327"><ele>743.4285714285714</ele><time>2026-04-07T12:49:54.717Z</time></trkpt><trkpt lat="44.8943782" lon="7.2783586"><ele>744.8571428571429</ele><time>2026-04-07T12:49:58.717Z</time></trkpt><trkpt lat="44.8944395" lon="7.2783343"><ele>746.2857142857142</ele><time>2026-04-07T12:50:00.717Z</time></trkpt><trkpt lat="44.8945172" lon="7.2783368"><ele>747.7142857142858</ele><time>2026-04-07T12:50:02.717Z</time></trkpt><trkpt lat="44.8945919" lon="7.2783662"><ele>749.1428571428571</ele><time>2026-04-07T12:50:05.717Z</time></trkpt><trkpt lat="44.8946688" lon="7.2784047"><ele>750.5714285714286</ele><time>2026-04-07T12:50:14.717Z</time></trkpt><trkpt lat="44.8947334" lon="7.2784183"><ele>752.0</ele><time>2026-04-07T12:50:16.717Z</time></trkpt><trkpt lat="44.8947983" lon="7.2783546"><ele>752.0</ele><time>2026-04-07T12:50:19.717Z</time></trkpt><trkpt lat="44.8948343" lon="7.2782704"><ele>752.0</ele><time>2026-04-07T12:50:21.717Z</time></trkpt><trkpt lat="44.8948609" lon="7.2781675"><ele>752.0</ele><time>2026-04-07T12:50:23.717Z</time></trkpt><trkpt lat="44.8948898" lon="7.2780568"><ele>752.0</ele><time>2026-04-07T12:50:25.717Z</time></trkpt><trkpt lat="44.8949196" lon="7.2779762"><ele>752.0</ele><time>2026-04-07T12:50:27.717Z</time></trkpt><trkpt lat="44.8949576" lon="7.2778699"><ele>752.0</ele><time>2026-04-07T12:50:30.717Z</time></trkpt><trkpt lat="44.8950269" lon="7.2777892"><ele>752.1666666666666</ele><time>2026-04-07T12:50:33.717Z</time></trkpt><trkpt lat="44.8950948" lon="7.2777444"><ele>752.3333333333333</ele><time>2026-04-07T12:50:35.717Z</time></trkpt><trkpt lat="44.8951651" lon="7.2777027"><ele>752.5</ele><time>2026-04-07T12:50:37.716Z</time></trkpt><trkpt lat="44.8952502" lon="7.2776855"><ele>752.6666666666666</ele><time>2026-04-07T12:50:39.717Z</time></trkpt><trkpt lat="44.8953404" lon="7.2776856"><ele>752.8333333333334</ele><time>2026-04-07T12:50:41.717Z</time></trkpt><trkpt lat="44.8954039" lon="7.2777103"><ele>753.0</ele><time>2026-04-07T12:50:43.717Z</time></trkpt><trkpt lat="44.8954691" lon="7.2777546"><ele>753.0</ele><time>2026-04-07T12:50:45.717Z</time></trkpt><trkpt lat="44.8955352" lon="7.2778091"><ele>753.0</ele><time>2026-04-07T12:50:47.717Z</time></trkpt><trkpt lat="44.8955974" lon="7.2778353"><ele>753.0</ele><time>2026-04-07T12:50:49.717Z</time></trkpt><trkpt lat="44.895682" lon="7.2778329"><ele>753.0</ele><time>2026-04-07T12:50:52.717Z</time></trkpt><trkpt lat="44.8957432" lon="7.2777883"><ele>753.0</ele><time>2026-04-07T12:50:54.717Z</time></trkpt><trkpt lat="44.8958022" lon="7.2777382"><ele>753.0</ele><time>2026-04-07T12:50:56.717Z</time></trkpt><trkpt lat="44.8958797" lon="7.2776714"><ele>753.3333333333334</ele><time>2026-04-07T12:50:58.717Z</time></trkpt><trkpt lat="44.8959636" lon="7.277602"><ele>753.6666666666666</ele><time>2026-04-07T12:51:00.717Z</time></trkpt><trkpt lat="44.8960815" lon="7.277514"><ele>754.0</ele><time>2026-04-07T12:51:02.717Z</time></trkpt><trkpt lat="44.8961483" lon="7.2774485"><ele>754.3333333333333</ele><time>2026-04-07T12:51:03.717Z</time></trkpt><trkpt lat="44.896203" lon="7.2773903"><ele>754.6666666666666</ele><time>2026-04-07T12:51:04.717Z</time></trkpt><trkpt lat="44.8962525" lon="7.2773301"><ele>755.0</ele><time>2026-04-07T12:51:05.717Z</time></trkpt><trkpt lat="44.89635" lon="7.2772406"><ele>755.0</ele><time>2026-04-07T12:51:07.717Z</time></trkpt><trkpt lat="44.8964225" lon="7.2771801"><ele>755.0</ele><time>2026-04-07T12:51:09.717Z</time></trkpt><trkpt lat="44.8964852" lon="7.2771112"><ele>755.0</ele><time>2026-04-07T12:51:12.717Z</time></trkpt><trkpt lat="44.896529" lon="7.2770355"><ele>755.0</ele><time>2026-04-07T12:51:14.717Z</time></trkpt><trkpt lat="44.8964561" lon="7.2769694"><ele>755.0</ele><time>2026-04-07T12:51:22.717Z</time></trkpt><trkpt lat="44.8963676" lon="7.2769518"><ele>755.0</ele><time>2026-04-07T12:51:25.717Z</time></trkpt><trkpt lat="44.8962839" lon="7.2769558"><ele>755.0</ele><time>2026-04-07T12:51:27.717Z</time></trkpt><trkpt lat="44.896196" lon="7.2769568"><ele>755.0</ele><time>2026-04-07T12:51:29.717Z</time></trkpt><trkpt lat="44.896119" lon="7.2769798"><ele>755.0</ele><time>2026-04-07T12:51:31.717Z</time></trkpt><trkpt lat="44.8960538" lon="7.2770093"><ele>755.0</ele><time>2026-04-07T12:51:33.717Z</time></trkpt><trkpt lat="44.8959734" lon="7.2769987"><ele>755.0</ele><time>2026-04-07T12:51:36.717Z</time></trkpt><trkpt lat="44.8958867" lon="7.2769716"><ele>755.0</ele><time>2026-04-07T12:51:39.717Z</time></trkpt><trkpt lat="44.8958404" lon="7.2768953"><ele>751.8333333333333</ele><time>2026-04-07T12:51:42.717Z</time></trkpt><trkpt lat="44.8958246" lon="7.276806"><ele>748.6666666666666</ele><time>2026-04-07T12:51:44.717Z</time></trkpt><trkpt lat="44.8957644" lon="7.276729"><ele>745.5</ele><time>2026-04-07T12:51:47.717Z</time></trkpt><trkpt lat="44.8956937" lon="7.2766779"><ele>742.3333333333334</ele><time>2026-04-07T12:51:50.717Z</time></trkpt><trkpt lat="44.8956171" lon="7.2766066"><ele>739.1666666666667</ele><time>2026-04-07T12:51:53.717Z</time></trkpt><trkpt lat="44.895553" lon="7.2765583"><ele>736.0</ele><time>2026-04-07T12:51:55.717Z</time></trkpt><trkpt lat="44.8954848" lon="7.2765228"><ele>736.0</ele><time>2026-04-07T12:51:57.717Z</time></trkpt><trkpt lat="44.8954195" lon="7.276508"><ele>736.0</ele><time>2026-04-07T12:51:59.717Z</time></trkpt><trkpt lat="44.8953394" lon="7.2765205"><ele>736.0</ele><time>2026-04-07T12:52:02.717Z</time></trkpt><trkpt lat="44.8952591" lon="7.2765243"><ele>736.0</ele><time>2026-04-07T12:52:05.717Z</time></trkpt><trkpt lat="44.8951823" lon="7.2765365"><ele>736.0</ele><time>2026-04-07T12:52:08.717Z</time></trkpt><trkpt lat="44.8951099" lon="7.2765291"><ele>736.0</ele><time>2026-04-07T12:52:11.717Z</time></trkpt><trkpt lat="44.8950255" lon="7.2765384"><ele>733.8333333333334</ele><time>2026-04-07T12:52:15.717Z</time></trkpt><trkpt lat="44.8949644" lon="7.2765071"><ele>731.6666666666667</ele><time>2026-04-07T12:52:19.717Z</time></trkpt><trkpt lat="44.8949055" lon="7.2764452"><ele>729.5</ele><time>2026-04-07T12:52:22.716Z</time></trkpt><trkpt lat="44.8948418" lon="7.2764029"><ele>727.3333333333334</ele><time>2026-04-07T12:52:26.716Z</time></trkpt><trkpt lat="44.8947974" lon="7.2763075"><ele>725.1666666666666</ele><time>2026-04-07T12:52:29.716Z</time></trkpt><trkpt lat="44.8947404" lon="7.2762196"><ele>723.0</ele><time>2026-04-07T12:52:32.716Z</time></trkpt><trkpt lat="44.894663" lon="7.2761981"><ele>720.5</ele><time>2026-04-07T12:52:35.716Z</time></trkpt><trkpt lat="44.894577" lon="7.2762268"><ele>718.0</ele><time>2026-04-07T12:52:38.716Z</time></trkpt><trkpt lat="44.8945122" lon="7.2762429"><ele>715.5</ele><time>2026-04-07T12:52:40.716Z</time></trkpt><trkpt lat="44.8944467" lon="7.2762561"><ele>713.0</ele><time>2026-04-07T12:52:42.716Z</time></trkpt><trkpt lat="44.8943696" lon="7.2762359"><ele>710.5</ele><time>2026-04-07T12:52:45.716Z</time></trkpt><trkpt lat="44.894313" lon="7.2761724"><ele>708.0</ele><time>2026-04-07T12:52:48.716Z</time></trkpt><trkpt lat="44.8942596" lon="7.2760794"><ele>703.5999999999999</ele><time>2026-04-07T12:52:51.716Z</time></trkpt><trkpt lat="44.8941814" lon="7.276005"><ele>699.1999999999999</ele><time>2026-04-07T12:52:54.716Z</time></trkpt><trkpt lat="44.8940885" lon="7.2759952"><ele>694.8</ele><time>2026-04-07T12:52:56.716Z</time></trkpt><trkpt lat="44.8939958" lon="7.2759914"><ele>690.4</ele><time>2026-04-07T12:52:58.716Z</time></trkpt><trkpt lat="44.8939079" lon="7.2759707"><ele>686.0</ele><time>2026-04-07T12:53:00.716Z</time></trkpt><trkpt lat="44.8938246" lon="7.2759498"><ele>686.0</ele><time>2026-04-07T12:53:02.716Z</time></trkpt><trkpt lat="44.8937411" lon="7.2759533"><ele>686.0</ele><time>2026-04-07T12:53:04.716Z</time></trkpt><trkpt lat="44.8936519" lon="7.2759769"><ele>686.0</ele><time>2026-04-07T12:53:06.716Z</time></trkpt><trkpt lat="44.8935569" lon="7.2760396"><ele>686.0</ele><time>2026-04-07T12:53:08.716Z</time></trkpt><trkpt lat="44.8934549" lon="7.2760929"><ele>686.0</ele><time>2026-04-07T12:53:10.716Z</time></trkpt><trkpt lat="44.8933407" lon="7.2761088"><ele>683.5999999999999</ele><time>2026-04-07T12:53:12.716Z</time></trkpt><trkpt lat="44.8932258" lon="7.2761292"><ele>681.2</ele><time>2026-04-07T12:53:14.716Z</time></trkpt><trkpt lat="44.8931158" lon="7.2761366"><ele>678.8</ele><time>2026-04-07T12:53:16.716Z</time></trkpt><trkpt lat="44.8930177" lon="7.2761355"><ele>676.4000000000001</ele><time>2026-04-07T12:53:18.716Z</time></trkpt><trkpt lat="44.8929276" lon="7.2761283"><ele>674.0</ele><time>2026-04-07T12:53:20.716Z</time></trkpt><trkpt lat="44.8928383" lon="7.2761269"><ele>674.0</ele><time>2026-04-07T12:53:22.716Z</time></trkpt><trkpt lat="44.8927536" lon="7.2761254"><ele>674.0</ele><time>2026-04-07T12:53:24.716Z</time></trkpt><trkpt lat="44.8926696" lon="7.2761049"><ele>674.0</ele><time>2026-04-07T12:53:26.716Z</time></trkpt><trkpt lat="44.8925898" lon="7.2760881"><ele>674.0</ele><time>2026-04-07T12:53:28.716Z</time></trkpt><trkpt lat="44.8925224" lon="7.2760669"><ele>674.0</ele><time>2026-04-07T12:53:30.716Z</time></trkpt><trkpt lat="44.8924653" lon="7.2761132"><ele>674.0</ele><time>2026-04-07T12:53:32.716Z</time></trkpt><trkpt lat="44.8924167" lon="7.2762018"><ele>674.8333333333333</ele><time>2026-04-07T12:53:34.716Z</time></trkpt><trkpt lat="44.8923804" lon="7.2762826"><ele>675.6666666666666</ele><time>2026-04-07T12:53:36.716Z</time></trkpt><trkpt lat="44.8923517" lon="7.2764117"><ele>676.5</ele><time>2026-04-07T12:53:39.716Z</time></trkpt><trkpt lat="44.8923532" lon="7.2765024"><ele>677.3333333333334</ele><time>2026-04-07T12:53:41.716Z</time></trkpt><trkpt lat="44.892404" lon="7.2764145"><ele>678.1666666666667</ele><time>2026-04-07T12:54:00.716Z</time></trkpt><trkpt lat="44.8924676" lon="7.2762955"><ele>679.0</ele><time>2026-04-07T12:54:02.716Z</time></trkpt><trkpt lat="44.8925276" lon="7.2761978"><ele>679.0</ele><time>2026-04-07T12:54:04.716Z</time></trkpt><trkpt lat="44.8925805" lon="7.2761323"><ele>679.0</ele><time>2026-04-07T12:54:07.716Z</time></trkpt><trkpt lat="44.8925164" lon="7.2761626"><ele>679.0</ele><time>2026-04-07T12:54:23.716Z</time></trkpt><trkpt lat="44.8924342" lon="7.2762116"><ele>679.0</ele><time>2026-04-07T12:54:25.716Z</time></trkpt><trkpt lat="44.892374" lon="7.2763698"><ele>679.0</ele><time>2026-04-07T12:54:27.716Z</time></trkpt><trkpt lat="44.8923535" lon="7.2764759"><ele>679.0</ele><time>2026-04-07T12:54:28.716Z</time></trkpt><trkpt lat="44.8923412" lon="7.2765911"><ele>679.0</ele><time>2026-04-07T12:54:29.716Z</time></trkpt><trkpt lat="44.8923303" lon="7.2767035"><ele>679.0</ele><time>2026-04-07T12:54:30.716Z</time></trkpt><trkpt lat="44.8923195" lon="7.2768135"><ele>679.0</ele><time>2026-04-07T12:54:31.716Z</time></trkpt><trkpt lat="44.8923059" lon="7.2769289"><ele>679.0</ele><time>2026-04-07T12:54:32.716Z</time></trkpt><trkpt lat="44.8922915" lon="7.2770422"><ele>679.0</ele><time>2026-04-07T12:54:33.716Z</time></trkpt><trkpt lat="44.8922791" lon="7.277152"><ele>679.0</ele><time>2026-04-07T12:54:34.716Z</time></trkpt><trkpt lat="44.8922723" lon="7.2772626"><ele>679.6666666666667</ele><time>2026-04-07T12:54:35.716Z</time></trkpt><trkpt lat="44.8922755" lon="7.2773813"><ele>680.3333333333334</ele><time>2026-04-07T12:54:36.716Z</time></trkpt><trkpt lat="44.8922856" lon="7.2775071"><ele>681.0</ele><time>2026-04-07T12:54:37.716Z</time></trkpt><trkpt lat="44.8923025" lon="7.2776342"><ele>681.6666666666666</ele><time>2026-04-07T12:54:38.716Z</time></trkpt><trkpt lat="44.8923208" lon="7.2777599"><ele>682.3333333333333</ele><time>2026-04-07T12:54:39.716Z</time></trkpt><trkpt lat="44.8923294" lon="7.2778836"><ele>683.0</ele><time>2026-04-07T12:54:40.716Z</time></trkpt><trkpt lat="44.8923333" lon="7.2779967"><ele>683.6666666666666</ele><time>2026-04-07T12:54:41.716Z</time></trkpt><trkpt lat="44.8923266" lon="7.2781021"><ele>684.3333333333333</ele><time>2026-04-07T12:54:42.716Z</time></trkpt><trkpt lat="44.8923056" lon="7.2782079"><ele>685.0</ele><time>2026-04-07T12:54:43.716Z</time></trkpt><trkpt lat="44.8922709" lon="7.2783163"><ele>685.6666666666666</ele><time>2026-04-07T12:54:44.716Z</time></trkpt><trkpt lat="44.8922378" lon="7.2784228"><ele>686.3333333333334</ele><time>2026-04-07T12:54:45.716Z</time></trkpt><trkpt lat="44.8922008" lon="7.2785227"><ele>687.0</ele><time>2026-04-07T12:54:46.715Z</time></trkpt><trkpt lat="44.8921662" lon="7.2786172"><ele>687.0</ele><time>2026-04-07T12:54:47.716Z</time></trkpt><trkpt lat="44.8921238" lon="7.2787105"><ele>687.0</ele><time>2026-04-07T12:54:48.716Z</time></trkpt><trkpt lat="44.8920732" lon="7.2788099"><ele>687.0</ele><time>2026-04-07T12:54:49.715Z</time></trkpt><trkpt lat="44.892017" lon="7.2789114"><ele>687.0</ele><time>2026-04-07T12:54:50.716Z</time></trkpt><trkpt lat="44.8919635" lon="7.2789867"><ele>687.0</ele><time>2026-04-07T12:54:51.716Z</time></trkpt><trkpt lat="44.8919072" lon="7.2790364"><ele>687.0</ele><time>2026-04-07T12:54:52.716Z</time></trkpt><trkpt lat="44.8917962" lon="7.279034"><ele>687.0</ele><time>2026-04-07T12:54:54.716Z</time></trkpt><trkpt lat="44.8917342" lon="7.2788619"><ele>687.0</ele><time>2026-04-07T12:54:56.716Z</time></trkpt><trkpt lat="44.8917449" lon="7.2787325"><ele>687.0</ele><time>2026-04-07T12:54:57.716Z</time></trkpt><trkpt lat="44.8917829" lon="7.2786056"><ele>687.0</ele><time>2026-04-07T12:54:58.716Z</time></trkpt><trkpt lat="44.8918349" lon="7.2784798"><ele>687.0</ele><time>2026-04-07T12:54:59.716Z</time></trkpt><trkpt lat="44.89189" lon="7.2783691"><ele>687.0</ele><time>2026-04-07T12:55:00.716Z</time></trkpt><trkpt lat="44.8919399" lon="7.2782523"><ele>687.0</ele><time>2026-04-07T12:55:01.715Z</time></trkpt><trkpt lat="44.8919745" lon="7.2781169"><ele>687.0</ele><time>2026-04-07T12:55:02.716Z</time></trkpt><trkpt lat="44.8919934" lon="7.2779771"><ele>687.0</ele><time>2026-04-07T12:55:03.716Z</time></trkpt><trkpt lat="44.8919982" lon="7.2778313"><ele>687.0</ele><time>2026-04-07T12:55:04.716Z</time></trkpt><trkpt lat="44.8919765" lon="7.277693"><ele>686.3333333333334</ele><time>2026-04-07T12:55:05.716Z</time></trkpt><trkpt lat="44.8919314" lon="7.2775692"><ele>685.6666666666666</ele><time>2026-04-07T12:55:06.716Z</time></trkpt><trkpt lat="44.8918741" lon="7.2774712"><ele>685.0</ele><time>2026-04-07T12:55:07.716Z</time></trkpt><trkpt lat="44.8918243" lon="7.2773778"><ele>684.3333333333333</ele><time>2026-04-07T12:55:08.716Z</time></trkpt><trkpt lat="44.8917893" lon="7.2772734"><ele>683.6666666666666</ele><time>2026-04-07T12:55:09.716Z</time></trkpt><trkpt lat="44.8917694" lon="7.2771566"><ele>683.0</ele><time>2026-04-07T12:55:10.715Z</time></trkpt><trkpt lat="44.8917647" lon="7.2770349"><ele>674.1666666666666</ele><time>2026-04-07T12:55:11.716Z</time></trkpt><trkpt lat="44.8917519" lon="7.2769141"><ele>665.3333333333333</ele><time>2026-04-07T12:55:12.716Z</time></trkpt><trkpt lat="44.8917285" lon="7.276793"><ele>656.5</ele><time>2026-04-07T12:55:13.716Z</time></trkpt><trkpt lat="44.8917055" lon="7.2766793"><ele>647.6666666666666</ele><time>2026-04-07T12:55:14.716Z</time></trkpt><trkpt lat="44.8916754" lon="7.276564"><ele>638.8333333333334</ele><time>2026-04-07T12:55:15.715Z</time></trkpt><trkpt lat="44.8916458" lon="7.2764618"><ele>630.0</ele><time>2026-04-07T12:55:16.716Z</time></trkpt><trkpt lat="44.8916112" lon="7.2763671"><ele>629.6666666666666</ele><time>2026-04-07T12:55:17.716Z</time></trkpt><trkpt lat="44.8915692" lon="7.2762657"><ele>629.3333333333334</ele><time>2026-04-07T12:55:18.716Z</time></trkpt><trkpt lat="44.8915372" lon="7.2761703"><ele>629.0</ele><time>2026-04-07T12:55:19.716Z</time></trkpt><trkpt lat="44.8914983" lon="7.2760571"><ele>628.6666666666667</ele><time>2026-04-07T12:55:20.716Z</time></trkpt><trkpt lat="44.8914688" lon="7.2759209"><ele>628.3333333333334</ele><time>2026-04-07T12:55:21.716Z</time></trkpt><trkpt lat="44.8914474" lon="7.2757812"><ele>628.0</ele><time>2026-04-07T12:55:22.716Z</time></trkpt><trkpt lat="44.891435" lon="7.2756441"><ele>624.5</ele><time>2026-04-07T12:55:23.716Z</time></trkpt><trkpt lat="44.8914277" lon="7.2755177"><ele>621.0</ele><time>2026-04-07T12:55:24.716Z</time></trkpt><trkpt lat="44.8914238" lon="7.2754023"><ele>617.5</ele><time>2026-04-07T12:55:25.716Z</time></trkpt><trkpt lat="44.8914284" lon="7.2753039"><ele>614.0</ele><time>2026-04-07T12:55:26.716Z</time></trkpt><trkpt lat="44.8914596" lon="7.27515"><ele>610.5</ele><time>2026-04-07T12:55:28.716Z</time></trkpt><trkpt lat="44.8914606" lon="7.2750546"><ele>607.0</ele><time>2026-04-07T12:55:30.716Z</time></trkpt><trkpt lat="44.8913867" lon="7.2750572"><ele>607.0</ele><time>2026-04-07T12:55:32.716Z</time></trkpt><trkpt lat="44.8913359" lon="7.2751158"><ele>607.0</ele><time>2026-04-07T12:55:33.716Z</time></trkpt><trkpt lat="44.8912829" lon="7.2752078"><ele>607.0</ele><time>2026-04-07T12:55:34.716Z</time></trkpt><trkpt lat="44.8912332" lon="7.2753349"><ele>607.0</ele><time>2026-04-07T12:55:35.716Z</time></trkpt><trkpt lat="44.8911985" lon="7.2754928"><ele>607.0</ele><time>2026-04-07T12:55:36.716Z</time></trkpt><trkpt lat="44.891175" lon="7.2756423"><ele>610.5</ele><time>2026-04-07T12:55:37.716Z</time></trkpt><trkpt lat="44.8911613" lon="7.275768"><ele>614.0</ele><time>2026-04-07T12:55:38.716Z</time></trkpt><trkpt lat="44.891154" lon="7.2758667"><ele>617.5</ele><time>2026-04-07T12:55:39.716Z</time></trkpt><trkpt lat="44.8911306" lon="7.2759878"><ele>621.0</ele><time>2026-04-07T12:55:41.716Z</time></trkpt><trkpt lat="44.8910799" lon="7.2758996"><ele>624.5</ele><time>2026-04-07T12:55:44.716Z</time></trkpt><trkpt lat="44.8910791" lon="7.2757752"><ele>628.0</ele><time>2026-04-07T12:55:45.716Z</time></trkpt><trkpt lat="44.891081" lon="7.2756251"><ele>623.8</ele><time>2026-04-07T12:55:46.716Z</time></trkpt><trkpt lat="44.8910815" lon="7.2754812"><ele>619.5999999999999</ele><time>2026-04-07T12:55:47.715Z</time></trkpt><trkpt lat="44.8910814" lon="7.2753566"><ele>615.4000000000001</ele><time>2026-04-07T12:55:48.716Z</time></trkpt><trkpt lat="44.8910814" lon="7.2752415"><ele>611.2</ele><time>2026-04-07T12:55:49.716Z</time></trkpt><trkpt lat="44.8910742" lon="7.2751371"><ele>607.0</ele><time>2026-04-07T12:55:50.716Z</time></trkpt><trkpt lat="44.8910495" lon="7.2749941"><ele>607.0</ele><time>2026-04-07T12:55:52.716Z</time></trkpt><trkpt lat="44.8910113" lon="7.2749032"><ele>607.0</ele><time>2026-04-07T12:55:54.716Z</time></trkpt><trkpt lat="44.8909452" lon="7.27492"><ele>607.0</ele><time>2026-04-07T12:55:57.716Z</time></trkpt><trkpt lat="44.8909278" lon="7.2750521"><ele>607.0</ele><time>2026-04-07T12:55:59.716Z</time></trkpt><trkpt lat="44.8909281" lon="7.275149"><ele>607.0</ele><time>2026-04-07T12:56:00.716Z</time></trkpt><trkpt lat="44.8909211" lon="7.2752634"><ele>607.0</ele><time>2026-04-07T12:56:01.716Z</time></trkpt><trkpt lat="44.8909073" lon="7.2753872"><ele>603.0</ele><time>2026-04-07T12:56:02.716Z</time></trkpt><trkpt lat="44.8908885" lon="7.2755171"><ele>599.0</ele><time>2026-04-07T12:56:03.716Z</time></trkpt><trkpt lat="44.890856" lon="7.2756505"><ele>595.0</ele><time>2026-04-07T12:56:04.716Z</time></trkpt><trkpt lat="44.8908228" lon="7.275784"><ele>591.0</ele><time>2026-04-07T12:56:05.716Z</time></trkpt><trkpt lat="44.8907851" lon="7.2759166"><ele>587.0</ele><time>2026-04-07T12:56:06.715Z</time></trkpt><trkpt lat="44.8907493" lon="7.276049"><ele>587.0</ele><time>2026-04-07T12:56:07.716Z</time></trkpt><trkpt lat="44.8907207" lon="7.2761903"><ele>587.0</ele><time>2026-04-07T12:56:08.716Z</time></trkpt><trkpt lat="44.8907035" lon="7.276335"><ele>587.0</ele><time>2026-04-07T12:56:09.716Z</time></trkpt><trkpt lat="44.8906897" lon="7.27647"><ele>587.0</ele><time>2026-04-07T12:56:10.716Z</time></trkpt><trkpt lat="44.8906693" lon="7.2766045"><ele>587.0</ele><time>2026-04-07T12:56:11.716Z</time></trkpt><trkpt lat="44.8906439" lon="7.2767309"><ele>587.2</ele><time>2026-04-07T12:56:12.716Z</time></trkpt><trkpt lat="44.8906028" lon="7.2768619"><ele>587.4000000000001</ele><time>2026-04-07T12:56:13.716Z</time></trkpt><trkpt lat="44.8905528" lon="7.27699"><ele>587.5999999999999</ele><time>2026-04-07T12:56:14.716Z</time></trkpt><trkpt lat="44.8904987" lon="7.2771116"><ele>587.8</ele><time>2026-04-07T12:56:15.716Z</time></trkpt><trkpt lat="44.8904431" lon="7.2772288"><ele>588.0</ele><time>2026-04-07T12:56:16.716Z</time></trkpt><trkpt lat="44.8903982" lon="7.2773526"><ele>588.3333333333334</ele><time>2026-04-07T12:56:17.716Z</time></trkpt><trkpt lat="44.8903698" lon="7.2774844"><ele>588.6666666666666</ele><time>2026-04-07T12:56:18.716Z</time></trkpt><trkpt lat="44.8903588" lon="7.2776188"><ele>589.0</ele><time>2026-04-07T12:56:19.716Z</time></trkpt><trkpt lat="44.8903508" lon="7.277745"><ele>589.3333333333333</ele><time>2026-04-07T12:56:20.716Z</time></trkpt><trkpt lat="44.8903435" lon="7.2778583"><ele>589.6666666666666</ele><time>2026-04-07T12:56:21.716Z</time></trkpt><trkpt lat="44.8903306" lon="7.2779581"><ele>590.0</ele><time>2026-04-07T12:56:22.716Z</time></trkpt><trkpt lat="44.890303" lon="7.2780519"><ele>591.0</ele><time>2026-04-07T12:56:23.716Z</time></trkpt><trkpt lat="44.8902709" lon="7.2781441"><ele>592.0</ele><time>2026-04-07T12:56:24.716Z</time></trkpt><trkpt lat="44.8902312" lon="7.2782384"><ele>593.0</ele><time>2026-04-07T12:56:25.716Z</time></trkpt><trkpt lat="44.8901822" lon="7.2783486"><ele>594.0</ele><time>2026-04-07T12:56:26.716Z</time></trkpt><trkpt lat="44.890137" lon="7.2784708"><ele>595.0</ele><time>2026-04-07T12:56:27.716Z</time></trkpt><trkpt lat="44.8900949" lon="7.2786049"><ele>596.0</ele><time>2026-04-07T12:56:28.716Z</time></trkpt><trkpt lat="44.8900674" lon="7.2787367"><ele>589.5</ele><time>2026-04-07T12:56:29.716Z</time></trkpt><trkpt lat="44.890043" lon="7.2788605"><ele>583.0</ele><time>2026-04-07T12:56:30.716Z</time></trkpt><trkpt lat="44.8900206" lon="7.2789674"><ele>576.5</ele><time>2026-04-07T12:56:31.716Z</time></trkpt><trkpt lat="44.8900059" lon="7.279063"><ele>570.0</ele><time>2026-04-07T12:56:32.716Z</time></trkpt><trkpt lat="44.8899936" lon="7.279208"><ele>563.5</ele><time>2026-04-07T12:56:34.716Z</time></trkpt><trkpt lat="44.8899604" lon="7.2793015"><ele>557.0</ele><time>2026-04-07T12:56:36.716Z</time></trkpt><trkpt lat="44.8898977" lon="7.279199"><ele>557.0</ele><time>2026-04-07T12:56:39.716Z</time></trkpt><trkpt lat="44.8898973" lon="7.279087"><ele>557.0</ele><time>2026-04-07T12:56:40.716Z</time></trkpt><trkpt lat="44.8899018" lon="7.2789442"><ele>557.0</ele><time>2026-04-07T12:56:41.716Z</time></trkpt><trkpt lat="44.8899036" lon="7.2787749"><ele>557.0</ele><time>2026-04-07T12:56:42.716Z</time></trkpt><trkpt lat="44.8898949" lon="7.2786067"><ele>557.0</ele><time>2026-04-07T12:56:43.716Z</time></trkpt><trkpt lat="44.889881" lon="7.2784394"><ele>556.0</ele><time>2026-04-07T12:56:44.716Z</time></trkpt><trkpt lat="44.8898632" lon="7.278279"><ele>555.0</ele><time>2026-04-07T12:56:45.716Z</time></trkpt><trkpt lat="44.8898321" lon="7.2781198"><ele>554.0</ele><time>2026-04-07T12:56:46.716Z</time></trkpt><trkpt lat="44.8897987" lon="7.277956"><ele>553.0</ele><time>2026-04-07T12:56:47.716Z</time></trkpt><trkpt lat="44.8897578" lon="7.2778002"><ele>552.6</ele><time>2026-04-07T12:56:48.716Z</time></trkpt><trkpt lat="44.8897203" lon="7.2776501"><ele>552.1999999999999</ele><time>2026-04-07T12:56:49.716Z</time></trkpt><trkpt lat="44.8896943" lon="7.2775099"><ele>551.8</ele><time>2026-04-07T12:56:50.716Z</time></trkpt><trkpt lat="44.8896735" lon="7.2773665"><ele>551.4</ele><time>2026-04-07T12:56:51.716Z</time></trkpt><trkpt lat="44.8896468" lon="7.2772248"><ele>551.0</ele><time>2026-04-07T12:56:52.716Z</time></trkpt><trkpt lat="44.8896205" lon="7.2770808"><ele>550.0</ele><time>2026-04-07T12:56:53.716Z</time></trkpt><trkpt lat="44.8895942" lon="7.2769388"><ele>549.0</ele><time>2026-04-07T12:56:54.716Z</time></trkpt><trkpt lat="44.8895655" lon="7.2767932"><ele>548.0</ele><time>2026-04-07T12:56:55.716Z</time></trkpt><trkpt lat="44.8895418" lon="7.2766468"><ele>547.0</ele><time>2026-04-07T12:56:56.716Z</time></trkpt><trkpt lat="44.8895163" lon="7.2765147"><ele>546.0</ele><time>2026-04-07T12:56:57.716Z</time></trkpt><trkpt lat="44.8894843" lon="7.2763948"><ele>545.8333333333334</ele><time>2026-04-07T12:56:58.716Z</time></trkpt><trkpt lat="44.8894655" lon="7.2762831"><ele>545.6666666666666</ele><time>2026-04-07T12:56:59.716Z</time></trkpt><trkpt lat="44.8894564" lon="7.2761697"><ele>545.5</ele><time>2026-04-07T12:57:00.716Z</time></trkpt><trkpt lat="44.8894721" lon="7.2760473"><ele>545.3333333333333</ele><time>2026-04-07T12:57:01.716Z</time></trkpt><trkpt lat="44.8894941" lon="7.2759241"><ele>545.1666666666666</ele><time>2026-04-07T12:57:02.716Z</time></trkpt><trkpt lat="44.8895086" lon="7.2758053"><ele>545.0</ele><time>2026-04-07T12:57:03.716Z</time></trkpt><trkpt lat="44.8895106" lon="7.2756919"><ele>544.4</ele><time>2026-04-07T12:57:04.716Z</time></trkpt><trkpt lat="44.8895002" lon="7.2755605"><ele>543.8</ele><time>2026-04-07T12:57:05.716Z</time></trkpt><trkpt lat="44.8894724" lon="7.2754214"><ele>543.2</ele><time>2026-04-07T12:57:06.716Z</time></trkpt><trkpt lat="44.8894407" lon="7.2752814"><ele>542.6</ele><time>2026-04-07T12:57:07.716Z</time></trkpt><trkpt lat="44.8894065" lon="7.2751366"><ele>542.0</ele><time>2026-04-07T12:57:08.716Z</time></trkpt><trkpt lat="44.8893722" lon="7.2749873"><ele>542.0</ele><time>2026-04-07T12:57:09.716Z</time></trkpt><trkpt lat="44.8893372" lon="7.2748462"><ele>542.0</ele><time>2026-04-07T12:57:10.716Z</time></trkpt><trkpt lat="44.8893059" lon="7.2747114"><ele>542.0</ele><time>2026-04-07T12:57:11.716Z</time></trkpt><trkpt lat="44.8892767" lon="7.2745783"><ele>542.0</ele><time>2026-04-07T12:57:12.716Z</time></trkpt><trkpt lat="44.8892435" lon="7.2744552"><ele>542.0</ele><time>2026-04-07T12:57:13.716Z</time></trkpt><trkpt lat="44.8892154" lon="7.2743409"><ele>536.1666666666666</ele><time>2026-04-07T12:57:14.716Z</time></trkpt><trkpt lat="44.8891899" lon="7.2742477"><ele>530.3333333333333</ele><time>2026-04-07T12:57:15.716Z</time></trkpt><trkpt lat="44.8891684" lon="7.2741619"><ele>524.5</ele><time>2026-04-07T12:57:16.716Z</time></trkpt><trkpt lat="44.8891208" lon="7.2740096"><ele>518.6666666666666</ele><time>2026-04-07T12:57:18.716Z</time></trkpt><trkpt lat="44.8890458" lon="7.2739034"><ele>512.8333333333334</ele><time>2026-04-07T12:57:20.716Z</time></trkpt><trkpt lat="44.888986" lon="7.2738498"><ele>507.0</ele><time>2026-04-07T12:57:21.716Z</time></trkpt><trkpt lat="44.8889129" lon="7.273795"><ele>505.57142857142856</ele><time>2026-04-07T12:57:22.716Z</time></trkpt><trkpt lat="44.8888424" lon="7.2737499"><ele>504.14285714285717</ele><time>2026-04-07T12:57:23.716Z</time></trkpt><trkpt lat="44.8887704" lon="7.2737054"><ele>502.7142857142857</ele><time>2026-04-07T12:57:24.716Z</time></trkpt><trkpt lat="44.8887021" lon="7.2736692"><ele>501.2857142857143</ele><time>2026-04-07T12:57:25.716Z</time></trkpt><trkpt lat="44.8886389" lon="7.2736373"><ele>499.8571428571429</ele><time>2026-04-07T12:57:26.716Z</time></trkpt><trkpt lat="44.8885775" lon="7.2736039"><ele>498.42857142857144</ele><time>2026-04-07T12:57:27.716Z</time></trkpt><trkpt lat="44.8885215" lon="7.2735588"><ele>497.0</ele><time>2026-04-07T12:57:28.716Z</time></trkpt><trkpt lat="44.8884173" lon="7.2734758"><ele>496.99999999999994</ele><time>2026-04-07T12:57:30.716Z</time></trkpt><trkpt lat="44.8883585" lon="7.2733784"><ele>497.0</ele><time>2026-04-07T12:57:32.716Z</time></trkpt><trkpt lat="44.8883795" lon="7.2732886"><ele>497.0</ele><time>2026-04-07T12:57:34.716Z</time></trkpt><trkpt lat="44.8884662" lon="7.2732182"><ele>497.0</ele><time>2026-04-07T12:57:36.716Z</time></trkpt><trkpt lat="44.8885353" lon="7.2731764"><ele>496.99999999999994</ele><time>2026-04-07T12:57:37.716Z</time></trkpt><trkpt lat="44.8886204" lon="7.2731262"><ele>497.0</ele><time>2026-04-07T12:57:38.716Z</time></trkpt><trkpt lat="44.8887132" lon="7.2730531"><ele>494.6</ele><time>2026-04-07T12:57:39.716Z</time></trkpt><trkpt lat="44.8888066" lon="7.2729561"><ele>492.20000000000005</ele><time>2026-04-07T12:57:40.716Z</time></trkpt><trkpt lat="44.8888936" lon="7.2728554"><ele>489.8</ele><time>2026-04-07T12:57:41.716Z</time></trkpt><trkpt lat="44.8889707" lon="7.272767"><ele>487.4</ele><time>2026-04-07T12:57:42.716Z</time></trkpt><trkpt lat="44.88904" lon="7.2726956"><ele>485.0</ele><time>2026-04-07T12:57:43.716Z</time></trkpt><trkpt lat="44.8891021" lon="7.2726428"><ele>485.00000000000006</ele><time>2026-04-07T12:57:44.716Z</time></trkpt><trkpt lat="44.8891634" lon="7.2726036"><ele>485.0</ele><time>2026-04-07T12:57:45.716Z</time></trkpt><trkpt lat="44.8892193" lon="7.2725568"><ele>485.00000000000006</ele><time>2026-04-07T12:57:46.716Z</time></trkpt><trkpt lat="44.889261" lon="7.2724889"><ele>485.00000000000006</ele><time>2026-04-07T12:57:47.716Z</time></trkpt><trkpt lat="44.8892662" lon="7.2723459"><ele>485.0</ele><time>2026-04-07T12:57:49.716Z</time></trkpt><trkpt lat="44.8892363" lon="7.2722664"><ele>485.00000000000006</ele><time>2026-04-07T12:57:50.716Z</time></trkpt><trkpt lat="44.8891768" lon="7.2721975"><ele>485.00000000000006</ele><time>2026-04-07T12:57:51.716Z</time></trkpt><trkpt lat="44.8890943" lon="7.2721381"><ele>487.4</ele><time>2026-04-07T12:57:52.716Z</time></trkpt><trkpt lat="44.888991" lon="7.2720924"><ele>489.8</ele><time>2026-04-07T12:57:53.716Z</time></trkpt><trkpt lat="44.8888856" lon="7.2720668"><ele>492.20000000000005</ele><time>2026-04-07T12:57:54.716Z</time></trkpt><trkpt lat="44.8887754" lon="7.2720581"><ele>494.6</ele><time>2026-04-07T12:57:55.715Z</time></trkpt><trkpt lat="44.8886688" lon="7.2720538"><ele>497.0</ele><time>2026-04-07T12:57:56.716Z</time></trkpt><trkpt lat="44.8885684" lon="7.2720523"><ele>496.99999999999994</ele><time>2026-04-07T12:57:57.716Z</time></trkpt><trkpt lat="44.8884815" lon="7.2720462"><ele>497.0</ele><time>2026-04-07T12:57:58.715Z</time></trkpt><trkpt lat="44.8884098" lon="7.2720336"><ele>497.0</ele><time>2026-04-07T12:57:59.716Z</time></trkpt><trkpt lat="44.8883451" lon="7.2720152"><ele>497.0</ele><time>2026-04-07T12:58:00.716Z</time></trkpt><trkpt lat="44.8882857" lon="7.2719795"><ele>496.99999999999994</ele><time>2026-04-07T12:58:01.716Z</time></trkpt><trkpt lat="44.8882298" lon="7.2719125"><ele>497.0</ele><time>2026-04-07T12:58:02.716Z</time></trkpt><trkpt lat="44.8881802" lon="7.2718076"><ele>494.0</ele><time>2026-04-07T12:58:03.716Z</time></trkpt><trkpt lat="44.888134" lon="7.2716743"><ele>491.00000000000006</ele><time>2026-04-07T12:58:04.716Z</time></trkpt><trkpt lat="44.888082" lon="7.2715327"><ele>488.00000000000006</ele><time>2026-04-07T12:58:05.716Z</time></trkpt><trkpt lat="44.8880316" lon="7.2713972"><ele>485.0</ele><time>2026-04-07T12:58:06.716Z</time></trkpt><trkpt lat="44.8879726" lon="7.2712657"><ele>482.0</ele><time>2026-04-07T12:58:07.716Z</time></trkpt><trkpt lat="44.8879225" lon="7.2711483"><ele>481.99999999999994</ele><time>2026-04-07T12:58:08.716Z</time></trkpt><trkpt lat="44.8878701" lon="7.2710417"><ele>482.0</ele><time>2026-04-07T12:58:09.716Z</time></trkpt><trkpt lat="44.8878231" lon="7.2709443"><ele>482.0</ele><time>2026-04-07T12:58:10.716Z</time></trkpt><trkpt lat="44.8877727" lon="7.2708558"><ele>482.0</ele><time>2026-04-07T12:58:11.716Z</time></trkpt><trkpt lat="44.8877258" lon="7.2707795"><ele>481.99999999999994</ele><time>2026-04-07T12:58:12.716Z</time></trkpt><trkpt lat="44.8876811" lon="7.2707107"><ele>482.0</ele><time>2026-04-07T12:58:13.716Z</time></trkpt><trkpt lat="44.8876148" lon="7.2705819"><ele>481.99999999999994</ele><time>2026-04-07T12:58:15.716Z</time></trkpt><trkpt lat="44.8876097" lon="7.2704863"><ele>482.0</ele><time>2026-04-07T12:58:16.716Z</time></trkpt><trkpt lat="44.8876147" lon="7.270372"><ele>482.0</ele><time>2026-04-07T12:58:17.716Z</time></trkpt><trkpt lat="44.8876373" lon="7.2702408"><ele>482.0</ele><time>2026-04-07T12:58:18.716Z</time></trkpt><trkpt lat="44.8876617" lon="7.2701123"><ele>481.99999999999994</ele><time>2026-04-07T12:58:19.716Z</time></trkpt><trkpt lat="44.8876858" lon="7.26998"><ele>482.0</ele><time>2026-04-07T12:58:20.716Z</time></trkpt><trkpt lat="44.8877044" lon="7.2698597"><ele>480.16666666666663</ele><time>2026-04-07T12:58:21.715Z</time></trkpt><trkpt lat="44.8877285" lon="7.2697401"><ele>478.3333333333333</ele><time>2026-04-07T12:58:22.716Z</time></trkpt><trkpt lat="44.8877578" lon="7.2696222"><ele>476.5</ele><time>2026-04-07T12:58:23.716Z</time></trkpt><trkpt lat="44.887786" lon="7.2694974"><ele>474.66666666666663</ele><time>2026-04-07T12:58:24.716Z</time></trkpt><trkpt lat="44.8878135" lon="7.2693774"><ele>472.8333333333333</ele><time>2026-04-07T12:58:25.716Z</time></trkpt><trkpt lat="44.8878441" lon="7.2692613"><ele>471.0</ele><time>2026-04-07T12:58:26.716Z</time></trkpt><trkpt lat="44.8878753" lon="7.269149"><ele>471.00000000000006</ele><time>2026-04-07T12:58:27.715Z</time></trkpt><trkpt lat="44.8879002" lon="7.2690404"><ele>471.0</ele><time>2026-04-07T12:58:28.716Z</time></trkpt><trkpt lat="44.8879261" lon="7.2689378"><ele>471.00000000000006</ele><time>2026-04-07T12:58:29.716Z</time></trkpt><trkpt lat="44.8879498" lon="7.268838"><ele>471.00000000000006</ele><time>2026-04-07T12:58:30.716Z</time></trkpt><trkpt lat="44.8879778" lon="7.2687448"><ele>471.0</ele><time>2026-04-07T12:58:31.716Z</time></trkpt><trkpt lat="44.8880049" lon="7.2686544"><ele>471.00000000000006</ele><time>2026-04-07T12:58:32.716Z</time></trkpt><trkpt lat="44.8880301" lon="7.2685625"><ele>471.00000000000006</ele><time>2026-04-07T12:58:33.715Z</time></trkpt><trkpt lat="44.8880293" lon="7.2684069"><ele>469.5</ele><time>2026-04-07T12:58:35.716Z</time></trkpt><trkpt lat="44.8879646" lon="7.2683117"><ele>468.0</ele><time>2026-04-07T12:58:37.716Z</time></trkpt><trkpt lat="44.8878888" lon="7.268266"><ele>466.5</ele><time>2026-04-07T12:58:39.716Z</time></trkpt><trkpt lat="44.887861" lon="7.2681718"><ele>465.0</ele><time>2026-04-07T12:58:42.716Z</time></trkpt><trkpt lat="44.8879028" lon="7.2680347"><ele>463.5</ele><time>2026-04-07T12:58:44.716Z</time></trkpt><trkpt lat="44.8879254" lon="7.2679454"><ele>462.0</ele><time>2026-04-07T12:58:45.716Z</time></trkpt><trkpt lat="44.8879509" lon="7.2678499"><ele>460.6666666666667</ele><time>2026-04-07T12:58:46.715Z</time></trkpt><trkpt lat="44.8879782" lon="7.2677519"><ele>459.33333333333337</ele><time>2026-04-07T12:58:47.716Z</time></trkpt><trkpt lat="44.8879968" lon="7.2676337"><ele>458.0</ele><time>2026-04-07T12:58:48.716Z</time></trkpt><trkpt lat="44.88801" lon="7.2675188"><ele>456.6666666666667</ele><time>2026-04-07T12:58:49.716Z</time></trkpt><trkpt lat="44.8880202" lon="7.2674065"><ele>455.33333333333337</ele><time>2026-04-07T12:58:50.716Z</time></trkpt><trkpt lat="44.8880368" lon="7.2672988"><ele>454.0</ele><time>2026-04-07T12:58:51.716Z</time></trkpt><trkpt lat="44.8880455" lon="7.2671967"><ele>453.83333333333337</ele><time>2026-04-07T12:58:52.716Z</time></trkpt><trkpt lat="44.8880533" lon="7.2671016"><ele>453.6666666666667</ele><time>2026-04-07T12:58:53.716Z</time></trkpt><trkpt lat="44.8880513" lon="7.2669482"><ele>453.5</ele><time>2026-04-07T12:58:55.716Z</time></trkpt><trkpt lat="44.8880657" lon="7.2668175"><ele>453.33333333333337</ele><time>2026-04-07T12:58:57.716Z</time></trkpt><trkpt lat="44.8880817" lon="7.2666633"><ele>453.1666666666667</ele><time>2026-04-07T12:58:59.716Z</time></trkpt><trkpt lat="44.8880873" lon="7.266567"><ele>453.0</ele><time>2026-04-07T12:59:00.716Z</time></trkpt><trkpt lat="44.8880886" lon="7.2664712"><ele>452.5</ele><time>2026-04-07T12:59:01.716Z</time></trkpt><trkpt lat="44.8880816" lon="7.2663085"><ele>452.0</ele><time>2026-04-07T12:59:03.716Z</time></trkpt><trkpt lat="44.8880555" lon="7.2662261"><ele>451.5</ele><time>2026-04-07T12:59:04.716Z</time></trkpt><trkpt lat="44.8880183" lon="7.2661421"><ele>451.0</ele><time>2026-04-07T12:59:05.716Z</time></trkpt><trkpt lat="44.8879816" lon="7.2660575"><ele>450.5</ele><time>2026-04-07T12:59:06.716Z</time></trkpt><trkpt lat="44.8879492" lon="7.2659019"><ele>450.0</ele><time>2026-04-07T12:59:08.716Z</time></trkpt><trkpt lat="44.8879571" lon="7.2657126"><ele>449.7142857142858</ele><time>2026-04-07T12:59:10.716Z</time></trkpt><trkpt lat="44.8879673" lon="7.2656061"><ele>449.42857142857144</ele><time>2026-04-07T12:59:11.716Z</time></trkpt><trkpt lat="44.8879859" lon="7.2655049"><ele>449.14285714285717</ele><time>2026-04-07T12:59:12.716Z</time></trkpt><trkpt lat="44.8880064" lon="7.2654059"><ele>448.8571428571429</ele><time>2026-04-07T12:59:13.716Z</time></trkpt><trkpt lat="44.8880353" lon="7.2653178"><ele>448.57142857142856</ele><time>2026-04-07T12:59:14.716Z</time></trkpt><trkpt lat="44.888069" lon="7.2652272"><ele>448.2857142857143</ele><time>2026-04-07T12:59:15.716Z</time></trkpt><trkpt lat="44.8880911" lon="7.2651283"><ele>448.0</ele><time>2026-04-07T12:59:16.716Z</time></trkpt><trkpt lat="44.8881058" lon="7.2650286"><ele>448.00000000000006</ele><time>2026-04-07T12:59:17.716Z</time></trkpt><trkpt lat="44.8881192" lon="7.2649311"><ele>448.0</ele><time>2026-04-07T12:59:18.716Z</time></trkpt><trkpt lat="44.8881298" lon="7.2648348"><ele>448.0</ele><time>2026-04-07T12:59:19.716Z</time></trkpt><trkpt lat="44.8881394" lon="7.2646778"><ele>448.0</ele><time>2026-04-07T12:59:21.715Z</time></trkpt><trkpt lat="44.8881077" lon="7.2645914"><ele>448.00000000000006</ele><time>2026-04-07T12:59:23.716Z</time></trkpt><trkpt lat="44.888109" lon="7.264465"><ele>448.0</ele><time>2026-04-07T12:59:26.716Z</time></trkpt><trkpt lat="44.8881493" lon="7.2643874"><ele>446.0</ele><time>2026-04-07T12:59:27.716Z</time></trkpt><trkpt lat="44.8882073" lon="7.264293"><ele>443.99999999999994</ele><time>2026-04-07T12:59:28.716Z</time></trkpt><trkpt lat="44.8882759" lon="7.2641825"><ele>441.99999999999994</ele><time>2026-04-07T12:59:29.716Z</time></trkpt><trkpt lat="44.8883519" lon="7.2640628"><ele>440.0</ele><time>2026-04-07T12:59:30.716Z</time></trkpt><trkpt lat="44.8884294" lon="7.2639319"><ele>438.0</ele><time>2026-04-07T12:59:31.716Z</time></trkpt><trkpt lat="44.8885067" lon="7.2637954"><ele>444.0</ele><time>2026-04-07T12:59:32.716Z</time></trkpt><trkpt lat="44.888577" lon="7.2636454"><ele>450.0</ele><time>2026-04-07T12:59:33.716Z</time></trkpt><trkpt lat="44.8886459" lon="7.2634932"><ele>456.0</ele><time>2026-04-07T12:59:34.716Z</time></trkpt><trkpt lat="44.8887166" lon="7.2633448"><ele>462.0</ele><time>2026-04-07T12:59:35.716Z</time></trkpt><trkpt lat="44.8887795" lon="7.2631935"><ele>457.25</ele><time>2026-04-07T12:59:36.716Z</time></trkpt><trkpt lat="44.8888511" lon="7.2630509"><ele>452.5</ele><time>2026-04-07T12:59:37.716Z</time></trkpt><trkpt lat="44.8889252" lon="7.2629092"><ele>447.75</ele><time>2026-04-07T12:59:38.716Z</time></trkpt><trkpt lat="44.8889914" lon="7.2627704"><ele>443.0</ele><time>2026-04-07T12:59:39.716Z</time></trkpt><trkpt lat="44.889058" lon="7.2626301"><ele>443.0</ele><time>2026-04-07T12:59:40.716Z</time></trkpt><trkpt lat="44.8891232" lon="7.2624909"><ele>443.0</ele><time>2026-04-07T12:59:41.715Z</time></trkpt><trkpt lat="44.8891857" lon="7.2623503"><ele>443.0</ele><time>2026-04-07T12:59:42.716Z</time></trkpt><trkpt lat="44.8892401" lon="7.2622065"><ele>443.0</ele><time>2026-04-07T12:59:43.716Z</time></trkpt><trkpt lat="44.8892945" lon="7.2620657"><ele>448.75</ele><time>2026-04-07T12:59:44.716Z</time></trkpt><trkpt lat="44.8893525" lon="7.2619256"><ele>454.5</ele><time>2026-04-07T12:59:45.716Z</time></trkpt><trkpt lat="44.8894118" lon="7.2617873"><ele>460.25</ele><time>2026-04-07T12:59:46.716Z</time></trkpt><trkpt lat="44.8894761" lon="7.2616565"><ele>466.0</ele><time>2026-04-07T12:59:47.716Z</time></trkpt><trkpt lat="44.8895335" lon="7.261525"><ele>462.0</ele><time>2026-04-07T12:59:48.716Z</time></trkpt><trkpt lat="44.8895964" lon="7.2613985"><ele>458.0</ele><time>2026-04-07T12:59:49.716Z</time></trkpt><trkpt lat="44.8896645" lon="7.2612748"><ele>454.0</ele><time>2026-04-07T12:59:50.716Z</time></trkpt><trkpt lat="44.8897278" lon="7.2611485"><ele>450.0</ele><time>2026-04-07T12:59:51.716Z</time></trkpt><trkpt lat="44.889785" lon="7.2610212"><ele>446.0</ele><time>2026-04-07T12:59:52.716Z</time></trkpt><trkpt lat="44.889843" lon="7.2609025"><ele>445.99999999999994</ele><time>2026-04-07T12:59:53.716Z</time></trkpt><trkpt lat="44.8898907" lon="7.2607842"><ele>446.0</ele><time>2026-04-07T12:59:54.716Z</time></trkpt><trkpt lat="44.8899328" lon="7.2606775"><ele>446.0</ele><time>2026-04-07T12:59:55.716Z</time></trkpt><trkpt lat="44.8899683" lon="7.2605843"><ele>446.0</ele><time>2026-04-07T12:59:56.716Z</time></trkpt><trkpt lat="44.8900163" lon="7.2604481"><ele>445.99999999999994</ele><time>2026-04-07T12:59:58.716Z</time></trkpt><trkpt lat="44.8900571" lon="7.260345"><ele>446.0</ele><time>2026-04-07T13:00:00.715Z</time></trkpt><trkpt lat="44.8900443" lon="7.2602417"><ele>444.0</ele><time>2026-04-07T13:00:02.716Z</time></trkpt><trkpt lat="44.8899421" lon="7.2601647"><ele>442.0</ele><time>2026-04-07T13:00:04.716Z</time></trkpt><trkpt lat="44.889865" lon="7.2601249"><ele>440.0</ele><time>2026-04-07T13:00:05.716Z</time></trkpt><trkpt lat="44.8897918" lon="7.2600742"><ele>438.0</ele><time>2026-04-07T13:00:06.716Z</time></trkpt><trkpt lat="44.8897155" lon="7.2600069"><ele>436.0</ele><time>2026-04-07T13:00:07.716Z</time></trkpt><trkpt lat="44.8896349" lon="7.2599353"><ele>436.0</ele><time>2026-04-07T13:00:08.716Z</time></trkpt><trkpt lat="44.8895538" lon="7.2598647"><ele>436.0</ele><time>2026-04-07T13:00:09.716Z</time></trkpt><trkpt lat="44.8894755" lon="7.2597882"><ele>436.0</ele><time>2026-04-07T13:00:10.716Z</time></trkpt><trkpt lat="44.8893959" lon="7.2597178"><ele>436.0</ele><time>2026-04-07T13:00:11.716Z</time></trkpt><trkpt lat="44.889321" lon="7.2596475"><ele>436.0</ele><time>2026-04-07T13:00:12.716Z</time></trkpt><trkpt lat="44.8892474" lon="7.2595759"><ele>436.57142857142856</ele><time>2026-04-07T13:00:13.716Z</time></trkpt><trkpt lat="44.889172" lon="7.2595078"><ele>437.14285714285717</ele><time>2026-04-07T13:00:14.716Z</time></trkpt><trkpt lat="44.8891022" lon="7.2594466"><ele>437.71428571428567</ele><time>2026-04-07T13:00:15.716Z</time></trkpt><trkpt lat="44.8890393" lon="7.2593883"><ele>438.2857142857143</ele><time>2026-04-07T13:00:16.716Z</time></trkpt><trkpt lat="44.8889877" lon="7.2593351"><ele>438.85714285714283</ele><time>2026-04-07T13:00:17.716Z</time></trkpt><trkpt lat="44.8889497" lon="7.2592634"><ele>439.4285714285714</ele><time>2026-04-07T13:00:19.716Z</time></trkpt><trkpt lat="44.8889617" lon="7.2591611"><ele>440.0</ele><time>2026-04-07T13:00:21.716Z</time></trkpt><trkpt lat="44.8889845" lon="7.259075"><ele>440.0</ele><time>2026-04-07T13:00:22.716Z</time></trkpt><trkpt lat="44.8890188" lon="7.2589584"><ele>440.0</ele><time>2026-04-07T13:00:23.716Z</time></trkpt><trkpt lat="44.8890789" lon="7.2588237"><ele>440.0</ele><time>2026-04-07T13:00:24.716Z</time></trkpt><trkpt lat="44.8891444" lon="7.2586706"><ele>440.0</ele><time>2026-04-07T13:00:25.716Z</time></trkpt><trkpt lat="44.8891984" lon="7.2585091"><ele>438.5</ele><time>2026-04-07T13:00:26.716Z</time></trkpt><trkpt lat="44.8892545" lon="7.2583434"><ele>437.0</ele><time>2026-04-07T13:00:27.716Z</time></trkpt><trkpt lat="44.8893095" lon="7.2581736"><ele>435.5</ele><time>2026-04-07T13:00:28.716Z</time></trkpt><trkpt lat="44.8893611" lon="7.2580072"><ele>434.0</ele><time>2026-04-07T13:00:29.716Z</time></trkpt><trkpt lat="44.8894086" lon="7.2578476"><ele>433.8333333333333</ele><time>2026-04-07T13:00:30.716Z</time></trkpt><trkpt lat="44.8894486" lon="7.2577085"><ele>433.66666666666663</ele><time>2026-04-07T13:00:31.716Z</time></trkpt><trkpt lat="44.8894877" lon="7.257598"><ele>433.5</ele><time>2026-04-07T13:00:32.716Z</time></trkpt><trkpt lat="44.8895146" lon="7.2575147"><ele>433.33333333333337</ele><time>2026-04-07T13:00:33.716Z</time></trkpt><trkpt lat="44.8895114" lon="7.2573697"><ele>433.1666666666667</ele><time>2026-04-07T13:00:35.716Z</time></trkpt><trkpt lat="44.8894458" lon="7.2572985"><ele>433.0</ele><time>2026-04-07T13:00:37.716Z</time></trkpt><trkpt lat="44.8893388" lon="7.2573136"><ele>433.0</ele><time>2026-04-07T13:00:39.716Z</time></trkpt><trkpt lat="44.8892683" lon="7.2573656"><ele>432.99999999999994</ele><time>2026-04-07T13:00:40.716Z</time></trkpt><trkpt lat="44.8891893" lon="7.2574416"><ele>432.99999999999994</ele><time>2026-04-07T13:00:41.716Z</time></trkpt><trkpt lat="44.8891177" lon="7.2575288"><ele>433.0</ele><time>2026-04-07T13:00:42.716Z</time></trkpt><trkpt lat="44.8890555" lon="7.2576283"><ele>433.0</ele><time>2026-04-07T13:00:43.716Z</time></trkpt><trkpt lat="44.8890033" lon="7.2577481"><ele>436.5</ele><time>2026-04-07T13:00:44.716Z</time></trkpt><trkpt lat="44.8889454" lon="7.2578743"><ele>440.0</ele><time>2026-04-07T13:00:45.716Z</time></trkpt><trkpt lat="44.8888835" lon="7.2580047"><ele>443.5</ele><time>2026-04-07T13:00:46.716Z</time></trkpt><trkpt lat="44.8888146" lon="7.2581385"><ele>447.0</ele><time>2026-04-07T13:00:47.716Z</time></trkpt><trkpt lat="44.8887418" lon="7.2582724"><ele>447.0</ele><time>2026-04-07T13:00:48.716Z</time></trkpt><trkpt lat="44.8886783" lon="7.2584023"><ele>447.0</ele><time>2026-04-07T13:00:49.716Z</time></trkpt><trkpt lat="44.8886315" lon="7.258512"><ele>447.0</ele><time>2026-04-07T13:00:50.716Z</time></trkpt><trkpt lat="44.8886077" lon="7.2586009"><ele>447.0</ele><time>2026-04-07T13:00:51.716Z</time></trkpt><trkpt lat="44.8885604" lon="7.2586921"><ele>447.0</ele><time>2026-04-07T13:00:53.716Z</time></trkpt><trkpt lat="44.8884971" lon="7.2585851"><ele>447.0</ele><time>2026-04-07T13:00:56.716Z</time></trkpt><trkpt lat="44.8885212" lon="7.258484"><ele>447.0</ele><time>2026-04-07T13:00:57.716Z</time></trkpt><trkpt lat="44.8885658" lon="7.2583682"><ele>447.00000000000006</ele><time>2026-04-07T13:00:58.716Z</time></trkpt><trkpt lat="44.8886211" lon="7.2582571"><ele>447.00000000000006</ele><time>2026-04-07T13:00:59.716Z</time></trkpt><trkpt lat="44.8886674" lon="7.2581425"><ele>447.0</ele><time>2026-04-07T13:01:00.716Z</time></trkpt><trkpt lat="44.8887071" lon="7.2580096"><ele>447.0</ele><time>2026-04-07T13:01:01.716Z</time></trkpt><trkpt lat="44.8887383" lon="7.2578625"><ele>449.8</ele><time>2026-04-07T13:01:02.716Z</time></trkpt><trkpt lat="44.8887737" lon="7.25771"><ele>452.6</ele><time>2026-04-07T13:01:03.716Z</time></trkpt><trkpt lat="44.8888091" lon="7.2575601"><ele>455.40000000000003</ele><time>2026-04-07T13:01:04.716Z</time></trkpt><trkpt lat="44.8888398" lon="7.2574192"><ele>458.20000000000005</ele><time>2026-04-07T13:01:05.716Z</time></trkpt><trkpt lat="44.8888699" lon="7.2572753"><ele>461.0</ele><time>2026-04-07T13:01:06.716Z</time></trkpt><trkpt lat="44.888892" lon="7.2571455"><ele>463.8333333333333</ele><time>2026-04-07T13:01:07.716Z</time></trkpt><trkpt lat="44.8889037" lon="7.2570217"><ele>466.66666666666663</ele><time>2026-04-07T13:01:08.716Z</time></trkpt><trkpt lat="44.8889091" lon="7.256896"><ele>469.5</ele><time>2026-04-07T13:01:09.716Z</time></trkpt><trkpt lat="44.8889169" lon="7.2567638"><ele>472.33333333333337</ele><time>2026-04-07T13:01:10.716Z</time></trkpt><trkpt lat="44.8889358" lon="7.256635"><ele>475.1666666666667</ele><time>2026-04-07T13:01:11.716Z</time></trkpt><trkpt lat="44.88896" lon="7.2565304"><ele>478.0</ele><time>2026-04-07T13:01:12.716Z</time></trkpt><trkpt lat="44.8889865" lon="7.2564328"><ele>478.0</ele><time>2026-04-07T13:01:13.716Z</time></trkpt><trkpt lat="44.8890108" lon="7.2563422"><ele>477.99999999999994</ele><time>2026-04-07T13:01:14.716Z</time></trkpt><trkpt lat="44.8890443" lon="7.2562194"><ele>477.99999999999994</ele><time>2026-04-07T13:01:16.716Z</time></trkpt><trkpt lat="44.8889679" lon="7.256327"><ele>478.0</ele><time>2026-04-07T13:01:28.716Z</time></trkpt><trkpt lat="44.8889256" lon="7.2564787"><ele>478.0</ele><time>2026-04-07T13:01:30.716Z</time></trkpt><trkpt lat="44.8888947" lon="7.2566558"><ele>478.00000000000006</ele><time>2026-04-07T13:01:32.716Z</time></trkpt><trkpt lat="44.8888855" lon="7.2567587"><ele>478.0</ele><time>2026-04-07T13:01:33.716Z</time></trkpt><trkpt lat="44.8888836" lon="7.2568624"><ele>478.0</ele><time>2026-04-07T13:01:34.716Z</time></trkpt><trkpt lat="44.8888752" lon="7.2569617"><ele>478.0</ele><time>2026-04-07T13:01:35.716Z</time></trkpt><trkpt lat="44.8888468" lon="7.2571383"><ele>478.00000000000006</ele><time>2026-04-07T13:01:37.716Z</time></trkpt><trkpt lat="44.8888325" lon="7.2572326"><ele>478.0</ele><time>2026-04-07T13:01:38.716Z</time></trkpt><trkpt lat="44.8888171" lon="7.2573215"><ele>475.1666666666667</ele><time>2026-04-07T13:01:39.716Z</time></trkpt><trkpt lat="44.8887982" lon="7.2574097"><ele>472.33333333333337</ele><time>2026-04-07T13:01:40.716Z</time></trkpt><trkpt lat="44.8887732" lon="7.2574974"><ele>469.5</ele><time>2026-04-07T13:01:41.716Z</time></trkpt><trkpt lat="44.8887228" lon="7.2576369"><ele>466.66666666666663</ele><time>2026-04-07T13:01:43.716Z</time></trkpt><trkpt lat="44.8886838" lon="7.2577663"><ele>463.8333333333333</ele><time>2026-04-07T13:01:45.716Z</time></trkpt><trkpt lat="44.8886602" lon="7.2578569"><ele>461.0</ele><time>2026-04-07T13:01:47.716Z</time></trkpt><trkpt lat="44.8886032" lon="7.2578011"><ele>460.99999999999994</ele><time>2026-04-07T13:01:52.716Z</time></trkpt><trkpt lat="44.8885433" lon="7.2576948"><ele>461.0</ele><time>2026-04-07T13:01:55.716Z</time></trkpt><trkpt lat="44.8884866" lon="7.2576342"><ele>461.0</ele><time>2026-04-07T13:01:57.716Z</time></trkpt><trkpt lat="44.8884376" lon="7.2575778"><ele>461.0</ele><time>2026-04-07T13:01:59.716Z</time></trkpt><trkpt lat="44.8883791" lon="7.2574824"><ele>460.99999999999994</ele><time>2026-04-07T13:02:02.716Z</time></trkpt><trkpt lat="44.8883207" lon="7.2573748"><ele>461.0</ele><time>2026-04-07T13:02:04.715Z</time></trkpt><trkpt lat="44.8882946" lon="7.2572604"><ele>465.16666666666663</ele><time>2026-04-07T13:02:06.716Z</time></trkpt><trkpt lat="44.8882809" lon="7.2571391"><ele>469.3333333333333</ele><time>2026-04-07T13:02:08.716Z</time></trkpt><trkpt lat="44.8882701" lon="7.2570354"><ele>473.5</ele><time>2026-04-07T13:02:10.716Z</time></trkpt><trkpt lat="44.8882652" lon="7.2569155"><ele>477.66666666666663</ele><time>2026-04-07T13:02:13.716Z</time></trkpt><trkpt lat="44.8883338" lon="7.2569267"><ele>481.8333333333333</ele><time>2026-04-07T13:02:25.716Z</time></trkpt><trkpt lat="44.8883163" lon="7.2568087"><ele>486.0</ele><time>2026-04-07T13:02:46.715Z</time></trkpt><trkpt lat="44.8882991" lon="7.2567228"><ele>486.0</ele><time>2026-04-07T13:02:48.715Z</time></trkpt><trkpt lat="44.8882727" lon="7.2566065"><ele>486.0</ele><time>2026-04-07T13:02:50.715Z</time></trkpt><trkpt lat="44.8882334" lon="7.2564793"><ele>486.0</ele><time>2026-04-07T13:02:52.715Z</time></trkpt><trkpt lat="44.8881769" lon="7.2563532"><ele>486.0</ele><time>2026-04-07T13:02:54.715Z</time></trkpt><trkpt lat="44.8881097" lon="7.2562094"><ele>486.0</ele><time>2026-04-07T13:02:56.715Z</time></trkpt><trkpt lat="44.8880452" lon="7.2560587"><ele>489.6</ele><time>2026-04-07T13:02:58.714Z</time></trkpt><trkpt lat="44.8880095" lon="7.2559798"><ele>493.20000000000005</ele><time>2026-04-07T13:02:59.715Z</time></trkpt><trkpt lat="44.88793" lon="7.2558635"><ele>496.79999999999995</ele><time>2026-04-07T13:03:01.715Z</time></trkpt><trkpt lat="44.8878457" lon="7.2557793"><ele>500.4</ele><time>2026-04-07T13:03:03.715Z</time></trkpt><trkpt lat="44.8877713" lon="7.2556927"><ele>504.0</ele><time>2026-04-07T13:03:05.715Z</time></trkpt><trkpt lat="44.8877386" lon="7.2555742"><ele>504.0</ele><time>2026-04-07T13:03:07.715Z</time></trkpt><trkpt lat="44.8877526" lon="7.2554554"><ele>504.0</ele><time>2026-04-07T13:03:09.715Z</time></trkpt><trkpt lat="44.8877807" lon="7.2553539"><ele>504.0</ele><time>2026-04-07T13:03:11.715Z</time></trkpt><trkpt lat="44.8877218" lon="7.2552917"><ele>504.0</ele><time>2026-04-07T13:03:14.715Z</time></trkpt><trkpt lat="44.8876351" lon="7.2552613"><ele>504.0</ele><time>2026-04-07T13:03:16.715Z</time></trkpt><trkpt lat="44.8875272" lon="7.2552208"><ele>504.0</ele><time>2026-04-07T13:03:18.715Z</time></trkpt><trkpt lat="44.8874124" lon="7.2551602"><ele>505.5</ele><time>2026-04-07T13:03:20.715Z</time></trkpt><trkpt lat="44.887311" lon="7.2550646"><ele>507.0</ele><time>2026-04-07T13:03:22.715Z</time></trkpt><trkpt lat="44.8872652" lon="7.2549987"><ele>508.5</ele><time>2026-04-07T13:03:23.715Z</time></trkpt><trkpt lat="44.8872176" lon="7.2549247"><ele>510.0</ele><time>2026-04-07T13:03:24.714Z</time></trkpt><trkpt lat="44.8871704" lon="7.2548452"><ele>511.5</ele><time>2026-04-07T13:03:25.715Z</time></trkpt><trkpt lat="44.8871259" lon="7.2547625"><ele>513.0</ele><time>2026-04-07T13:03:26.715Z</time></trkpt><trkpt lat="44.8870836" lon="7.2546886"><ele>513.0000000000001</ele><time>2026-04-07T13:03:27.715Z</time></trkpt><trkpt lat="44.8870367" lon="7.2546192"><ele>513.0</ele><time>2026-04-07T13:03:28.714Z</time></trkpt><trkpt lat="44.8869817" lon="7.2545563"><ele>513.0</ele><time>2026-04-07T13:03:29.715Z</time></trkpt><trkpt lat="44.8869257" lon="7.2544962"><ele>513.0</ele><time>2026-04-07T13:03:30.715Z</time></trkpt><trkpt lat="44.8868764" lon="7.2544375"><ele>513.0</ele><time>2026-04-07T13:03:31.715Z</time></trkpt><trkpt lat="44.8867944" lon="7.2543579"><ele>513.0000000000001</ele><time>2026-04-07T13:03:33.715Z</time></trkpt><trkpt lat="44.8867275" lon="7.2543067"><ele>513.0</ele><time>2026-04-07T13:03:35.715Z</time></trkpt><trkpt lat="44.8867012" lon="7.2542152"><ele>515.8</ele><time>2026-04-07T13:03:37.714Z</time></trkpt><trkpt lat="44.8866312" lon="7.2541365"><ele>518.5999999999999</ele><time>2026-04-07T13:03:40.715Z</time></trkpt><trkpt lat="44.8865305" lon="7.2541268"><ele>521.4000000000001</ele><time>2026-04-07T13:03:42.715Z</time></trkpt><trkpt lat="44.8864564" lon="7.2540584"><ele>524.2</ele><time>2026-04-07T13:03:44.715Z</time></trkpt><trkpt lat="44.8864068" lon="7.2538963"><ele>527.0</ele><time>2026-04-07T13:03:46.715Z</time></trkpt><trkpt lat="44.8863805" lon="7.2538062"><ele>527.0</ele><time>2026-04-07T13:03:47.714Z</time></trkpt><trkpt lat="44.8863522" lon="7.2537219"><ele>527.0</ele><time>2026-04-07T13:03:48.715Z</time></trkpt><trkpt lat="44.8862536" lon="7.2536029"><ele>527.0</ele><time>2026-04-07T13:03:50.715Z</time></trkpt><trkpt lat="44.8861785" lon="7.2535751"><ele>527.0</ele><time>2026-04-07T13:03:51.715Z</time></trkpt><trkpt lat="44.886102" lon="7.2535317"><ele>527.0</ele><time>2026-04-07T13:03:52.715Z</time></trkpt><trkpt lat="44.8860346" lon="7.2534516"><ele>527.0</ele><time>2026-04-07T13:03:53.715Z</time></trkpt><trkpt lat="44.8859908" lon="7.253333"><ele>527.0</ele><time>2026-04-07T13:03:54.715Z</time></trkpt><trkpt lat="44.885955" lon="7.2532016"><ele>527.0</ele><time>2026-04-07T13:03:55.715Z</time></trkpt><trkpt lat="44.8859221" lon="7.2530607"><ele>527.0</ele><time>2026-04-07T13:03:56.715Z</time></trkpt><trkpt lat="44.8858845" lon="7.2529307"><ele>527.0</ele><time>2026-04-07T13:03:57.715Z</time></trkpt><trkpt lat="44.8858583" lon="7.2528035"><ele>527.0</ele><time>2026-04-07T13:03:58.715Z</time></trkpt><trkpt lat="44.8858314" lon="7.2526839"><ele>532.2</ele><time>2026-04-07T13:03:59.715Z</time></trkpt><trkpt lat="44.8858105" lon="7.2525518"><ele>537.4000000000001</ele><time>2026-04-07T13:04:00.715Z</time></trkpt><trkpt lat="44.8857893" lon="7.2524082"><ele>542.5999999999999</ele><time>2026-04-07T13:04:01.715Z</time></trkpt><trkpt lat="44.8857714" lon="7.2522528"><ele>547.8</ele><time>2026-04-07T13:04:02.714Z</time></trkpt><trkpt lat="44.8857585" lon="7.2521062"><ele>553.0</ele><time>2026-04-07T13:04:03.715Z</time></trkpt><trkpt lat="44.8857554" lon="7.2519618"><ele>554.1999999999999</ele><time>2026-04-07T13:04:04.715Z</time></trkpt><trkpt lat="44.8857557" lon="7.2518152"><ele>555.4</ele><time>2026-04-07T13:04:05.715Z</time></trkpt><trkpt lat="44.8857628" lon="7.2516773"><ele>556.5999999999999</ele><time>2026-04-07T13:04:06.715Z</time></trkpt><trkpt lat="44.8857642" lon="7.251553"><ele>557.8</ele><time>2026-04-07T13:04:07.715Z</time></trkpt><trkpt lat="44.8857644" lon="7.2514541"><ele>559.0</ele><time>2026-04-07T13:04:08.715Z</time></trkpt><trkpt lat="44.885746" lon="7.2513175"><ele>559.0</ele><time>2026-04-07T13:04:10.715Z</time></trkpt><trkpt lat="44.8856487" lon="7.2513253"><ele>559.0</ele><time>2026-04-07T13:04:13.715Z</time></trkpt><trkpt lat="44.8856015" lon="7.2513843"><ele>559.0</ele><time>2026-04-07T13:04:14.715Z</time></trkpt><trkpt lat="44.8855561" lon="7.2514543"><ele>559.0</ele><time>2026-04-07T13:04:15.715Z</time></trkpt><trkpt lat="44.8855114" lon="7.2515255"><ele>559.0</ele><time>2026-04-07T13:04:16.715Z</time></trkpt><trkpt lat="44.8854619" lon="7.2516022"><ele>559.0</ele><time>2026-04-07T13:04:17.715Z</time></trkpt><trkpt lat="44.8854125" lon="7.2516892"><ele>559.0</ele><time>2026-04-07T13:04:18.715Z</time></trkpt><trkpt lat="44.8853659" lon="7.2517806"><ele>559.0</ele><time>2026-04-07T13:04:19.715Z</time></trkpt><trkpt lat="44.8853149" lon="7.2518711"><ele>559.0</ele><time>2026-04-07T13:04:20.715Z</time></trkpt><trkpt lat="44.885259" lon="7.2519709"><ele>559.0</ele><time>2026-04-07T13:04:21.715Z</time></trkpt><trkpt lat="44.8852002" lon="7.2520748"><ele>559.0</ele><time>2026-04-07T13:04:22.715Z</time></trkpt><trkpt lat="44.8851325" lon="7.2521754"><ele>559.0</ele><time>2026-04-07T13:04:23.715Z</time></trkpt><trkpt lat="44.8850695" lon="7.2522775"><ele>562.6</ele><time>2026-04-07T13:04:24.715Z</time></trkpt><trkpt lat="44.8850114" lon="7.2523684"><ele>566.2</ele><time>2026-04-07T13:04:25.715Z</time></trkpt><trkpt lat="44.8849569" lon="7.2524452"><ele>569.8000000000001</ele><time>2026-04-07T13:04:26.715Z</time></trkpt><trkpt lat="44.8849015" lon="7.2525589"><ele>573.4</ele><time>2026-04-07T13:04:28.715Z</time></trkpt><trkpt lat="44.8848277" lon="7.252544"><ele>577.0</ele><time>2026-04-07T13:04:31.715Z</time></trkpt><trkpt lat="44.884759" lon="7.252388"><ele>580.0</ele><time>2026-04-07T13:04:33.715Z</time></trkpt><trkpt lat="44.8847184" lon="7.2522881"><ele>583.0</ele><time>2026-04-07T13:04:34.715Z</time></trkpt><trkpt lat="44.88469" lon="7.252186"><ele>586.0</ele><time>2026-04-07T13:04:35.715Z</time></trkpt><trkpt lat="44.8846659" lon="7.2520711"><ele>589.0</ele><time>2026-04-07T13:04:36.715Z</time></trkpt><trkpt lat="44.8846434" lon="7.2519579"><ele>592.0</ele><time>2026-04-07T13:04:37.715Z</time></trkpt><trkpt lat="44.8846141" lon="7.251835"><ele>595.0</ele><time>2026-04-07T13:04:38.715Z</time></trkpt><trkpt lat="44.8845789" lon="7.2516982"><ele>595.0</ele><time>2026-04-07T13:04:39.715Z</time></trkpt><trkpt lat="44.8845343" lon="7.2515533"><ele>595.0</ele><time>2026-04-07T13:04:40.715Z</time></trkpt><trkpt lat="44.8844802" lon="7.2514159"><ele>595.0</ele><time>2026-04-07T13:04:41.715Z</time></trkpt><trkpt lat="44.8844346" lon="7.2512939"><ele>595.0</ele><time>2026-04-07T13:04:42.715Z</time></trkpt><trkpt lat="44.8843948" lon="7.2511806"><ele>595.0</ele><time>2026-04-07T13:04:43.715Z</time></trkpt><trkpt lat="44.8843602" lon="7.2510799"><ele>597.0</ele><time>2026-04-07T13:04:44.715Z</time></trkpt><trkpt lat="44.8843231" lon="7.2509931"><ele>599.0</ele><time>2026-04-07T13:04:45.715Z</time></trkpt><trkpt lat="44.8842701" lon="7.2509234"><ele>601.0</ele><time>2026-04-07T13:04:46.715Z</time></trkpt><trkpt lat="44.884195" lon="7.2508621"><ele>603.0</ele><time>2026-04-07T13:04:47.715Z</time></trkpt><trkpt lat="44.8841111" lon="7.2508246"><ele>605.0</ele><time>2026-04-07T13:04:48.715Z</time></trkpt><trkpt lat="44.8840167" lon="7.2507939"><ele>607.0</ele><time>2026-04-07T13:04:49.715Z</time></trkpt><trkpt lat="44.8839228" lon="7.2507789"><ele>608.8333333333334</ele><time>2026-04-07T13:04:50.715Z</time></trkpt><trkpt lat="44.8838271" lon="7.2507914"><ele>610.6666666666667</ele><time>2026-04-07T13:04:51.715Z</time></trkpt><trkpt lat="44.8837373" lon="7.2508327"><ele>612.5</ele><time>2026-04-07T13:04:52.715Z</time></trkpt><trkpt lat="44.883653" lon="7.2508869"><ele>614.3333333333334</ele><time>2026-04-07T13:04:53.715Z</time></trkpt><trkpt lat="44.8835895" lon="7.250944"><ele>616.1666666666666</ele><time>2026-04-07T13:04:54.715Z</time></trkpt><trkpt lat="44.8835246" lon="7.2509826"><ele>618.0</ele><time>2026-04-07T13:04:55.715Z</time></trkpt><trkpt lat="44.8834094" lon="7.2509971"><ele>618.0</ele><time>2026-04-07T13:04:57.715Z</time></trkpt><trkpt lat="44.8833458" lon="7.2509683"><ele>618.0</ele><time>2026-04-07T13:04:58.715Z</time></trkpt><trkpt lat="44.8832836" lon="7.2509065"><ele>618.0</ele><time>2026-04-07T13:04:59.715Z</time></trkpt><trkpt lat="44.8832196" lon="7.2508391"><ele>618.0</ele><time>2026-04-07T13:05:00.715Z</time></trkpt><trkpt lat="44.8831537" lon="7.2507917"><ele>618.0</ele><time>2026-04-07T13:05:01.715Z</time></trkpt><trkpt lat="44.8830842" lon="7.2507449"><ele>618.0</ele><time>2026-04-07T13:05:02.715Z</time></trkpt><trkpt lat="44.8830177" lon="7.2506906"><ele>625.4</ele><time>2026-04-07T13:05:03.715Z</time></trkpt><trkpt lat="44.8829588" lon="7.2506069"><ele>632.8</ele><time>2026-04-07T13:05:04.714Z</time></trkpt><trkpt lat="44.8828985" lon="7.2505172"><ele>640.2</ele><time>2026-04-07T13:05:05.715Z</time></trkpt><trkpt lat="44.8828288" lon="7.2504144"><ele>647.6</ele><time>2026-04-07T13:05:06.715Z</time></trkpt><trkpt lat="44.8827559" lon="7.2503135"><ele>655.0</ele><time>2026-04-07T13:05:07.715Z</time></trkpt><trkpt lat="44.8826782" lon="7.2502291"><ele>655.0</ele><time>2026-04-07T13:05:08.715Z</time></trkpt><trkpt lat="44.8826068" lon="7.250173"><ele>655.0</ele><time>2026-04-07T13:05:09.715Z</time></trkpt><trkpt lat="44.8825189" lon="7.2501501"><ele>655.0</ele><time>2026-04-07T13:05:10.715Z</time></trkpt><trkpt lat="44.8824374" lon="7.2501543"><ele>655.0</ele><time>2026-04-07T13:05:11.715Z</time></trkpt><trkpt lat="44.8823514" lon="7.2501891"><ele>655.0</ele><time>2026-04-07T13:05:12.715Z</time></trkpt><trkpt lat="44.8822517" lon="7.2502576"><ele>653.0</ele><time>2026-04-07T13:05:13.715Z</time></trkpt><trkpt lat="44.8821654" lon="7.2503468"><ele>651.0</ele><time>2026-04-07T13:05:14.715Z</time></trkpt><trkpt lat="44.8820881" lon="7.2504389"><ele>649.0</ele><time>2026-04-07T13:05:15.715Z</time></trkpt><trkpt lat="44.8820234" lon="7.2505096"><ele>647.0</ele><time>2026-04-07T13:05:16.715Z</time></trkpt><trkpt lat="44.8819717" lon="7.2505698"><ele>645.0</ele><time>2026-04-07T13:05:17.715Z</time></trkpt><trkpt lat="44.8818596" lon="7.2506254"><ele>646.3333333333334</ele><time>2026-04-07T13:05:19.715Z</time></trkpt><trkpt lat="44.8817483" lon="7.2505806"><ele>647.6666666666666</ele><time>2026-04-07T13:05:21.715Z</time></trkpt><trkpt lat="44.8816922" lon="7.2505263"><ele>649.0</ele><time>2026-04-07T13:05:22.715Z</time></trkpt><trkpt lat="44.881641" lon="7.250439"><ele>650.3333333333333</ele><time>2026-04-07T13:05:23.715Z</time></trkpt><trkpt lat="44.8815899" lon="7.2503449"><ele>651.6666666666666</ele><time>2026-04-07T13:05:24.715Z</time></trkpt><trkpt lat="44.8815309" lon="7.25025"><ele>653.0</ele><time>2026-04-07T13:05:25.715Z</time></trkpt><trkpt lat="44.8814595" lon="7.2501517"><ele>653.0</ele><time>2026-04-07T13:05:26.715Z</time></trkpt><trkpt lat="44.8813646" lon="7.2500558"><ele>653.0</ele><time>2026-04-07T13:05:27.715Z</time></trkpt><trkpt lat="44.8812684" lon="7.2499751"><ele>653.0</ele><time>2026-04-07T13:05:28.715Z</time></trkpt><trkpt lat="44.8811835" lon="7.2499215"><ele>653.0</ele><time>2026-04-07T13:05:29.715Z</time></trkpt><trkpt lat="44.8811119" lon="7.2498946"><ele>653.0</ele><time>2026-04-07T13:05:30.715Z</time></trkpt><trkpt lat="44.8810339" lon="7.2499085"><ele>653.0</ele><time>2026-04-07T13:05:31.715Z</time></trkpt><trkpt lat="44.8809579" lon="7.249945"><ele>653.0</ele><time>2026-04-07T13:05:32.715Z</time></trkpt><trkpt lat="44.8808913" lon="7.2500121"><ele>653.0</ele><time>2026-04-07T13:05:33.715Z</time></trkpt><trkpt lat="44.8808223" lon="7.2501122"><ele>653.0</ele><time>2026-04-07T13:05:34.715Z</time></trkpt><trkpt lat="44.8807578" lon="7.2502135"><ele>653.0</ele><time>2026-04-07T13:05:35.715Z</time></trkpt><trkpt lat="44.8806998" lon="7.2503113"><ele>653.0</ele><time>2026-04-07T13:05:36.715Z</time></trkpt><trkpt lat="44.8806547" lon="7.2503823"><ele>654.0000000000001</ele><time>2026-04-07T13:05:37.715Z</time></trkpt><trkpt lat="44.8806159" lon="7.2504576"><ele>655.0</ele><time>2026-04-07T13:05:39.715Z</time></trkpt><trkpt lat="44.8805083" lon="7.2504769"><ele>656.0</ele><time>2026-04-07T13:06:10.715Z</time></trkpt><trkpt lat="44.8804415" lon="7.25046"><ele>657.0</ele><time>2026-04-07T13:06:11.715Z</time></trkpt><trkpt lat="44.8803797" lon="7.2504288"><ele>658.0</ele><time>2026-04-07T13:06:12.715Z</time></trkpt><trkpt lat="44.8803192" lon="7.2503825"><ele>659.0000000000001</ele><time>2026-04-07T13:06:13.715Z</time></trkpt><trkpt lat="44.880266" lon="7.2503227"><ele>660.0</ele><time>2026-04-07T13:06:14.715Z</time></trkpt><trkpt lat="44.8802232" lon="7.2502417"><ele>660.0</ele><time>2026-04-07T13:06:15.715Z</time></trkpt><trkpt lat="44.8801952" lon="7.2501489"><ele>660.0</ele><time>2026-04-07T13:06:16.715Z</time></trkpt><trkpt lat="44.8801773" lon="7.2500491"><ele>660.0</ele><time>2026-04-07T13:06:17.715Z</time></trkpt><trkpt lat="44.8801697" lon="7.2499403"><ele>660.0</ele><time>2026-04-07T13:06:18.715Z</time></trkpt><trkpt lat="44.8801673" lon="7.249829"><ele>660.0</ele><time>2026-04-07T13:06:19.715Z</time></trkpt><trkpt lat="44.8801671" lon="7.2497048"><ele>660.0</ele><time>2026-04-07T13:06:20.715Z</time></trkpt><trkpt lat="44.8801615" lon="7.249571"><ele>662.0</ele><time>2026-04-07T13:06:21.715Z</time></trkpt><trkpt lat="44.8801588" lon="7.2494352"><ele>664.0</ele><time>2026-04-07T13:06:22.715Z</time></trkpt><trkpt lat="44.8801509" lon="7.2492989"><ele>666.0</ele><time>2026-04-07T13:06:23.715Z</time></trkpt><trkpt lat="44.880145" lon="7.2491652"><ele>668.0</ele><time>2026-04-07T13:06:24.715Z</time></trkpt><trkpt lat="44.8801427" lon="7.2490413"><ele>670.0</ele><time>2026-04-07T13:06:25.715Z</time></trkpt><trkpt lat="44.8801421" lon="7.2489222"><ele>670.0</ele><time>2026-04-07T13:06:26.715Z</time></trkpt><trkpt lat="44.8801516" lon="7.2487992"><ele>670.0</ele><time>2026-04-07T13:06:27.715Z</time></trkpt><trkpt lat="44.880165" lon="7.2486851"><ele>670.0</ele><time>2026-04-07T13:06:28.715Z</time></trkpt><trkpt lat="44.8801833" lon="7.2485732"><ele>670.0</ele><time>2026-04-07T13:06:29.715Z</time></trkpt><trkpt lat="44.8802004" lon="7.2484573"><ele>670.0</ele><time>2026-04-07T13:06:30.715Z</time></trkpt><trkpt lat="44.8802128" lon="7.2483385"><ele>670.0</ele><time>2026-04-07T13:06:31.715Z</time></trkpt><trkpt lat="44.8802179" lon="7.24821"><ele>666.1666666666667</ele><time>2026-04-07T13:06:32.715Z</time></trkpt><trkpt lat="44.8802174" lon="7.2480759"><ele>662.3333333333334</ele><time>2026-04-07T13:06:33.715Z</time></trkpt><trkpt lat="44.8802074" lon="7.2479464"><ele>658.5</ele><time>2026-04-07T13:06:34.715Z</time></trkpt><trkpt lat="44.880198" lon="7.247825"><ele>654.6666666666666</ele><time>2026-04-07T13:06:35.715Z</time></trkpt><trkpt lat="44.8801849" lon="7.2477072"><ele>650.8333333333333</ele><time>2026-04-07T13:06:36.715Z</time></trkpt><trkpt lat="44.8801618" lon="7.2475913"><ele>647.0</ele><time>2026-04-07T13:06:37.715Z</time></trkpt><trkpt lat="44.880122" lon="7.2474824"><ele>647.0</ele><time>2026-04-07T13:06:38.715Z</time></trkpt><trkpt lat="44.8800796" lon="7.2473764"><ele>647.0</ele><time>2026-04-07T13:06:39.715Z</time></trkpt><trkpt lat="44.880022" lon="7.2472783"><ele>647.0</ele><time>2026-04-07T13:06:40.715Z</time></trkpt><trkpt lat="44.8799539" lon="7.247196"><ele>647.0</ele><time>2026-04-07T13:06:41.715Z</time></trkpt><trkpt lat="44.8798814" lon="7.2471279"><ele>647.0</ele><time>2026-04-07T13:06:42.715Z</time></trkpt><trkpt lat="44.8798087" lon="7.2470652"><ele>647.0</ele><time>2026-04-07T13:06:43.715Z</time></trkpt><trkpt lat="44.8797413" lon="7.246995"><ele>647.0</ele><time>2026-04-07T13:06:44.715Z</time></trkpt><trkpt lat="44.8796705" lon="7.2469115"><ele>647.0</ele><time>2026-04-07T13:06:45.715Z</time></trkpt><trkpt lat="44.8795958" lon="7.2468316"><ele>647.0</ele><time>2026-04-07T13:06:46.715Z</time></trkpt><trkpt lat="44.8795189" lon="7.246765"><ele>647.0</ele><time>2026-04-07T13:06:47.715Z</time></trkpt><trkpt lat="44.8794302" lon="7.2467097"><ele>647.0</ele><time>2026-04-07T13:06:48.715Z</time></trkpt><trkpt lat="44.8793346" lon="7.2466628"><ele>649.3333333333333</ele><time>2026-04-07T13:06:49.715Z</time></trkpt><trkpt lat="44.8792382" lon="7.2466152"><ele>651.6666666666666</ele><time>2026-04-07T13:06:50.715Z</time></trkpt><trkpt lat="44.879146" lon="7.2465689"><ele>654.0</ele><time>2026-04-07T13:06:51.715Z</time></trkpt><trkpt lat="44.8790585" lon="7.2465272"><ele>656.3333333333334</ele><time>2026-04-07T13:06:52.715Z</time></trkpt><trkpt lat="44.8789823" lon="7.2464893"><ele>658.6666666666667</ele><time>2026-04-07T13:06:53.715Z</time></trkpt><trkpt lat="44.8789145" lon="7.2464502"><ele>661.0</ele><time>2026-04-07T13:06:54.715Z</time></trkpt><trkpt lat="44.8788513" lon="7.2464072"><ele>663.8</ele><time>2026-04-07T13:06:55.715Z</time></trkpt><trkpt lat="44.8787956" lon="7.246346"><ele>666.5999999999999</ele><time>2026-04-07T13:06:56.714Z</time></trkpt><trkpt lat="44.8787407" lon="7.2462597"><ele>669.4</ele><time>2026-04-07T13:06:57.715Z</time></trkpt><trkpt lat="44.878684" lon="7.2461606"><ele>672.2</ele><time>2026-04-07T13:06:58.715Z</time></trkpt><trkpt lat="44.8786191" lon="7.2460494"><ele>675.0</ele><time>2026-04-07T13:06:59.715Z</time></trkpt><trkpt lat="44.8785512" lon="7.245933"><ele>675.0</ele><time>2026-04-07T13:07:00.715Z</time></trkpt><trkpt lat="44.8784826" lon="7.245817"><ele>675.0</ele><time>2026-04-07T13:07:01.714Z</time></trkpt><trkpt lat="44.8784166" lon="7.2457018"><ele>675.0</ele><time>2026-04-07T13:07:02.715Z</time></trkpt><trkpt lat="44.878351" lon="7.2455912"><ele>675.0</ele><time>2026-04-07T13:07:03.715Z</time></trkpt><trkpt lat="44.8782782" lon="7.2454964"><ele>675.0</ele><time>2026-04-07T13:07:04.715Z</time></trkpt><trkpt lat="44.878205" lon="7.2454163"><ele>676.2</ele><time>2026-04-07T13:07:05.715Z</time></trkpt><trkpt lat="44.8781277" lon="7.2453382"><ele>677.4</ele><time>2026-04-07T13:07:06.715Z</time></trkpt><trkpt lat="44.878056" lon="7.2452478"><ele>678.5999999999999</ele><time>2026-04-07T13:07:07.715Z</time></trkpt><trkpt lat="44.8779861" lon="7.2451542"><ele>679.8</ele><time>2026-04-07T13:07:08.715Z</time></trkpt><trkpt lat="44.8779208" lon="7.2450558"><ele>681.0</ele><time>2026-04-07T13:07:09.715Z</time></trkpt><trkpt lat="44.8778478" lon="7.2449492"><ele>681.0</ele><time>2026-04-07T13:07:10.714Z</time></trkpt><trkpt lat="44.8777784" lon="7.244845"><ele>681.0</ele><time>2026-04-07T13:07:11.715Z</time></trkpt><trkpt lat="44.8777112" lon="7.2447571"><ele>681.0</ele><time>2026-04-07T13:07:12.715Z</time></trkpt><trkpt lat="44.8776478" lon="7.2446899"><ele>681.0</ele><time>2026-04-07T13:07:13.715Z</time></trkpt><trkpt lat="44.8775804" lon="7.2446367"><ele>681.0</ele><time>2026-04-07T13:07:14.715Z</time></trkpt><trkpt lat="44.8775168" lon="7.2445895"><ele>681.0</ele><time>2026-04-07T13:07:15.714Z</time></trkpt><trkpt lat="44.8774567" lon="7.2445314"><ele>685.0</ele><time>2026-04-07T13:07:16.715Z</time></trkpt><trkpt lat="44.8773876" lon="7.2444545"><ele>689.0</ele><time>2026-04-07T13:07:17.715Z</time></trkpt><trkpt lat="44.8773155" lon="7.2443677"><ele>693.0</ele><time>2026-04-07T13:07:18.715Z</time></trkpt><trkpt lat="44.8772472" lon="7.244265"><ele>697.0</ele><time>2026-04-07T13:07:19.715Z</time></trkpt><trkpt lat="44.87718" lon="7.2441576"><ele>701.0</ele><time>2026-04-07T13:07:20.715Z</time></trkpt><trkpt lat="44.877124" lon="7.2440535"><ele>701.0</ele><time>2026-04-07T13:07:21.715Z</time></trkpt><trkpt lat="44.8770753" lon="7.2439783"><ele>701.0</ele><time>2026-04-07T13:07:22.715Z</time></trkpt><trkpt lat="44.8769625" lon="7.2439026"><ele>701.0</ele><time>2026-04-07T13:07:24.715Z</time></trkpt><trkpt lat="44.8768892" lon="7.2439052"><ele>701.0</ele><time>2026-04-07T13:07:25.715Z</time></trkpt><trkpt lat="44.8767964" lon="7.2439282"><ele>701.0</ele><time>2026-04-07T13:07:26.715Z</time></trkpt><trkpt lat="44.8766984" lon="7.2439558"><ele>702.1999999999999</ele><time>2026-04-07T13:07:27.715Z</time></trkpt><trkpt lat="44.8765988" lon="7.2439651"><ele>703.4</ele><time>2026-04-07T13:07:28.715Z</time></trkpt><trkpt lat="44.8765045" lon="7.2439519"><ele>704.6</ele><time>2026-04-07T13:07:29.715Z</time></trkpt><trkpt lat="44.8764269" lon="7.2439242"><ele>705.8</ele><time>2026-04-07T13:07:30.715Z</time></trkpt><trkpt lat="44.8763593" lon="7.243904"><ele>707.0</ele><time>2026-04-07T13:07:31.715Z</time></trkpt><trkpt lat="44.87624" lon="7.2438842"><ele>708.5</ele><time>2026-04-07T13:07:33.715Z</time></trkpt><trkpt lat="44.8761417" lon="7.2438617"><ele>710.0</ele><time>2026-04-07T13:07:35.715Z</time></trkpt><trkpt lat="44.8760525" lon="7.2438365"><ele>711.5</ele><time>2026-04-07T13:07:38.715Z</time></trkpt><trkpt lat="44.8759925" lon="7.2437646"><ele>713.0</ele><time>2026-04-07T13:07:40.715Z</time></trkpt><trkpt lat="44.8759079" lon="7.2437228"><ele>714.5</ele><time>2026-04-07T13:07:42.715Z</time></trkpt><trkpt lat="44.8758408" lon="7.2437656"><ele>716.0</ele><time>2026-04-07T13:07:44.715Z</time></trkpt><trkpt lat="44.8758499" lon="7.2438865"><ele>714.1999999999999</ele><time>2026-04-07T13:07:46.715Z</time></trkpt><trkpt lat="44.875903" lon="7.2440073"><ele>712.4</ele><time>2026-04-07T13:07:48.715Z</time></trkpt><trkpt lat="44.8759405" lon="7.244156"><ele>710.6</ele><time>2026-04-07T13:07:50.715Z</time></trkpt><trkpt lat="44.8759331" lon="7.2443218"><ele>708.8</ele><time>2026-04-07T13:07:52.715Z</time></trkpt><trkpt lat="44.8759011" lon="7.244429"><ele>707.0</ele><time>2026-04-07T13:07:53.715Z</time></trkpt><trkpt lat="44.8758563" lon="7.2445505"><ele>709.8333333333333</ele><time>2026-04-07T13:07:54.715Z</time></trkpt><trkpt lat="44.8758081" lon="7.2446663"><ele>712.6666666666666</ele><time>2026-04-07T13:07:55.715Z</time></trkpt><trkpt lat="44.8757554" lon="7.2447758"><ele>715.5</ele><time>2026-04-07T13:07:56.715Z</time></trkpt><trkpt lat="44.8756969" lon="7.2448706"><ele>718.3333333333334</ele><time>2026-04-07T13:07:57.715Z</time></trkpt><trkpt lat="44.8756372" lon="7.2449464"><ele>721.1666666666667</ele><time>2026-04-07T13:07:58.715Z</time></trkpt><trkpt lat="44.8755803" lon="7.2450071"><ele>724.0</ele><time>2026-04-07T13:07:59.715Z</time></trkpt><trkpt lat="44.8754795" lon="7.2450808"><ele>724.0</ele><time>2026-04-07T13:08:01.715Z</time></trkpt><trkpt lat="44.8753905" lon="7.2450432"><ele>724.0</ele><time>2026-04-07T13:08:03.715Z</time></trkpt><trkpt lat="44.8753135" lon="7.2449"><ele>724.0</ele><time>2026-04-07T13:08:05.715Z</time></trkpt><trkpt lat="44.8752648" lon="7.2448088"><ele>724.0</ele><time>2026-04-07T13:08:06.715Z</time></trkpt><trkpt lat="44.8752021" lon="7.2447135"><ele>724.0</ele><time>2026-04-07T13:08:07.715Z</time></trkpt><trkpt lat="44.8751484" lon="7.24463"><ele>727.5</ele><time>2026-04-07T13:08:08.715Z</time></trkpt><trkpt lat="44.8750876" lon="7.2445647"><ele>731.0</ele><time>2026-04-07T13:08:09.715Z</time></trkpt><trkpt lat="44.8750376" lon="7.2445009"><ele>734.5</ele><time>2026-04-07T13:08:10.715Z</time></trkpt><trkpt lat="44.8749904" lon="7.2444289"><ele>738.0</ele><time>2026-04-07T13:08:11.715Z</time></trkpt><trkpt lat="44.8749495" lon="7.2443394"><ele>741.5</ele><time>2026-04-07T13:08:12.714Z</time></trkpt><trkpt lat="44.8749143" lon="7.2442389"><ele>745.0</ele><time>2026-04-07T13:08:13.715Z</time></trkpt><trkpt lat="44.8748591" lon="7.2441422"><ele>745.0</ele><time>2026-04-07T13:08:14.715Z</time></trkpt><trkpt lat="44.8747958" lon="7.2440799"><ele>745.0</ele><time>2026-04-07T13:08:15.715Z</time></trkpt><trkpt lat="44.8747121" lon="7.2440622"><ele>745.0</ele><time>2026-04-07T13:08:16.714Z</time></trkpt><trkpt lat="44.8746118" lon="7.2440836"><ele>745.0</ele><time>2026-04-07T13:08:17.715Z</time></trkpt><trkpt lat="44.8745009" lon="7.2441404"><ele>745.0</ele><time>2026-04-07T13:08:18.715Z</time></trkpt><trkpt lat="44.8743866" lon="7.2442057"><ele>745.0</ele><time>2026-04-07T13:08:19.715Z</time></trkpt><trkpt lat="44.8742754" lon="7.2442685"><ele>745.0</ele><time>2026-04-07T13:08:20.715Z</time></trkpt><trkpt lat="44.8741676" lon="7.2443278"><ele>745.0</ele><time>2026-04-07T13:08:21.715Z</time></trkpt><trkpt lat="44.8740692" lon="7.2443906"><ele>745.0</ele><time>2026-04-07T13:08:22.715Z</time></trkpt><trkpt lat="44.8739728" lon="7.2444634"><ele>748.0</ele><time>2026-04-07T13:08:23.715Z</time></trkpt><trkpt lat="44.8738766" lon="7.2445372"><ele>751.0</ele><time>2026-04-07T13:08:24.715Z</time></trkpt><trkpt lat="44.8737815" lon="7.2445964"><ele>754.0</ele><time>2026-04-07T13:08:25.715Z</time></trkpt><trkpt lat="44.8736859" lon="7.2446446"><ele>757.0</ele><time>2026-04-07T13:08:26.715Z</time></trkpt><trkpt lat="44.8735942" lon="7.2446836"><ele>760.0</ele><time>2026-04-07T13:08:27.715Z</time></trkpt><trkpt lat="44.8735152" lon="7.2447136"><ele>760.0</ele><time>2026-04-07T13:08:28.715Z</time></trkpt><trkpt lat="44.8734521" lon="7.2447328"><ele>760.0</ele><time>2026-04-07T13:08:29.715Z</time></trkpt><trkpt lat="44.8733798" lon="7.2447217"><ele>760.0</ele><time>2026-04-07T13:08:31.715Z</time></trkpt><trkpt lat="44.8734655" lon="7.2446439"><ele>760.0</ele><time>2026-04-07T13:08:34.715Z</time></trkpt><trkpt lat="44.8735231" lon="7.244606"><ele>760.0</ele><time>2026-04-07T13:08:35.715Z</time></trkpt><trkpt lat="44.8735832" lon="7.2445531"><ele>760.0</ele><time>2026-04-07T13:08:36.715Z</time></trkpt><trkpt lat="44.8736481" lon="7.2444734"><ele>760.0</ele><time>2026-04-07T13:08:37.715Z</time></trkpt><trkpt lat="44.873728" lon="7.2443567"><ele>760.0</ele><time>2026-04-07T13:08:38.715Z</time></trkpt><trkpt lat="44.8738015" lon="7.2442215"><ele>760.0</ele><time>2026-04-07T13:08:39.715Z</time></trkpt><trkpt lat="44.873865" lon="7.2440816"><ele>760.0</ele><time>2026-04-07T13:08:40.715Z</time></trkpt><trkpt lat="44.8739236" lon="7.2439485"><ele>763.2</ele><time>2026-04-07T13:08:41.715Z</time></trkpt><trkpt lat="44.8739739" lon="7.2438266"><ele>766.4</ele><time>2026-04-07T13:08:42.715Z</time></trkpt><trkpt lat="44.8740196" lon="7.2437135"><ele>769.5999999999999</ele><time>2026-04-07T13:08:43.715Z</time></trkpt><trkpt lat="44.8740615" lon="7.2435905"><ele>772.8</ele><time>2026-04-07T13:08:44.715Z</time></trkpt><trkpt lat="44.8741012" lon="7.2434567"><ele>776.0</ele><time>2026-04-07T13:08:45.715Z</time></trkpt><trkpt lat="44.8741347" lon="7.2433175"><ele>776.0</ele><time>2026-04-07T13:08:46.715Z</time></trkpt><trkpt lat="44.8741547" lon="7.2431789"><ele>776.0</ele><time>2026-04-07T13:08:47.715Z</time></trkpt><trkpt lat="44.8741607" lon="7.2430371"><ele>776.0</ele><time>2026-04-07T13:08:48.715Z</time></trkpt><trkpt lat="44.87415" lon="7.2428929"><ele>776.0</ele><time>2026-04-07T13:08:49.715Z</time></trkpt><trkpt lat="44.874135" lon="7.2427441"><ele>776.0</ele><time>2026-04-07T13:08:50.714Z</time></trkpt><trkpt lat="44.8741272" lon="7.2425846"><ele>779.0</ele><time>2026-04-07T13:08:51.715Z</time></trkpt><trkpt lat="44.8741414" lon="7.2424257"><ele>782.0</ele><time>2026-04-07T13:08:52.715Z</time></trkpt><trkpt lat="44.8741778" lon="7.2422853"><ele>785.0</ele><time>2026-04-07T13:08:53.715Z</time></trkpt><trkpt lat="44.8742271" lon="7.2421679"><ele>788.0</ele><time>2026-04-07T13:08:54.715Z</time></trkpt><trkpt lat="44.8742921" lon="7.2420773"><ele>791.0</ele><time>2026-04-07T13:08:55.715Z</time></trkpt><trkpt lat="44.8743587" lon="7.2420185"><ele>791.0</ele><time>2026-04-07T13:08:56.714Z</time></trkpt><trkpt lat="44.8744456" lon="7.2419344"><ele>791.0</ele><time>2026-04-07T13:08:58.715Z</time></trkpt><trkpt lat="44.8744031" lon="7.241859"><ele>791.0</ele><time>2026-04-07T13:09:01.715Z</time></trkpt><trkpt lat="44.8742857" lon="7.2419455"><ele>791.0</ele><time>2026-04-07T13:09:03.715Z</time></trkpt><trkpt lat="44.8742037" lon="7.2420233"><ele>791.0</ele><time>2026-04-07T13:09:04.715Z</time></trkpt><trkpt lat="44.8741175" lon="7.2420926"><ele>791.0</ele><time>2026-04-07T13:09:05.715Z</time></trkpt><trkpt lat="44.8740326" lon="7.2421641"><ele>791.0</ele><time>2026-04-07T13:09:06.715Z</time></trkpt><trkpt lat="44.8739454" lon="7.2422477"><ele>791.0</ele><time>2026-04-07T13:09:07.715Z</time></trkpt><trkpt lat="44.8738669" lon="7.2423468"><ele>791.0</ele><time>2026-04-07T13:09:08.715Z</time></trkpt><trkpt lat="44.8737887" lon="7.2424566"><ele>791.0</ele><time>2026-04-07T13:09:09.715Z</time></trkpt><trkpt lat="44.8737141" lon="7.2425654"><ele>791.0000000000001</ele><time>2026-04-07T13:09:10.715Z</time></trkpt><trkpt lat="44.8736376" lon="7.2426641"><ele>791.0</ele><time>2026-04-07T13:09:11.715Z</time></trkpt><trkpt lat="44.8735744" lon="7.2427602"><ele>791.0</ele><time>2026-04-07T13:09:12.715Z</time></trkpt><trkpt lat="44.873528" lon="7.2428435"><ele>791.0</ele><time>2026-04-07T13:09:13.715Z</time></trkpt><trkpt lat="44.8734595" lon="7.2429545"><ele>791.0000000000001</ele><time>2026-04-07T13:09:15.715Z</time></trkpt><trkpt lat="44.8733973" lon="7.24294"><ele>791.0</ele><time>2026-04-07T13:09:17.715Z</time></trkpt><trkpt lat="44.8733747" lon="7.2427895"><ele>791.0</ele><time>2026-04-07T13:09:19.715Z</time></trkpt><trkpt lat="44.8733955" lon="7.2426752"><ele>791.0</ele><time>2026-04-07T13:09:20.715Z</time></trkpt><trkpt lat="44.8734205" lon="7.2425339"><ele>791.0</ele><time>2026-04-07T13:09:21.715Z</time></trkpt><trkpt lat="44.8734449" lon="7.2423872"><ele>791.0</ele><time>2026-04-07T13:09:22.715Z</time></trkpt><trkpt lat="44.8734658" lon="7.2422388"><ele>791.0</ele><time>2026-04-07T13:09:23.714Z</time></trkpt><trkpt lat="44.8734897" lon="7.2420864"><ele>795.0</ele><time>2026-04-07T13:09:24.715Z</time></trkpt><trkpt lat="44.8735199" lon="7.2419314"><ele>799.0</ele><time>2026-04-07T13:09:25.715Z</time></trkpt><trkpt lat="44.8735551" lon="7.2417763"><ele>803.0</ele><time>2026-04-07T13:09:26.715Z</time></trkpt><trkpt lat="44.8735939" lon="7.2416248"><ele>807.0</ele><time>2026-04-07T13:09:27.715Z</time></trkpt><trkpt lat="44.8736414" lon="7.2414847"><ele>809.5</ele><time>2026-04-07T13:09:28.715Z</time></trkpt><trkpt lat="44.8736898" lon="7.2413577"><ele>812.0</ele><time>2026-04-07T13:09:29.715Z</time></trkpt><trkpt lat="44.8737386" lon="7.2412368"><ele>814.5</ele><time>2026-04-07T13:09:30.715Z</time></trkpt><trkpt lat="44.8737839" lon="7.2411234"><ele>817.0</ele><time>2026-04-07T13:09:31.715Z</time></trkpt><trkpt lat="44.8738182" lon="7.2410168"><ele>819.5</ele><time>2026-04-07T13:09:32.715Z</time></trkpt><trkpt lat="44.8738472" lon="7.2409274"><ele>822.0</ele><time>2026-04-07T13:09:33.715Z</time></trkpt><trkpt lat="44.8738913" lon="7.2407669"><ele>822.0</ele><time>2026-04-07T13:09:35.715Z</time></trkpt><trkpt lat="44.8738842" lon="7.240673"><ele>822.0</ele><time>2026-04-07T13:09:36.715Z</time></trkpt><trkpt lat="44.8738514" lon="7.240583"><ele>822.0</ele><time>2026-04-07T13:09:37.715Z</time></trkpt><trkpt lat="44.8738063" lon="7.2405053"><ele>822.0</ele><time>2026-04-07T13:09:38.715Z</time></trkpt><trkpt lat="44.8737477" lon="7.2404526"><ele>822.0</ele><time>2026-04-07T13:09:39.715Z</time></trkpt><trkpt lat="44.8736743" lon="7.2404125"><ele>822.0</ele><time>2026-04-07T13:09:40.715Z</time></trkpt><trkpt lat="44.8735881" lon="7.2403784"><ele>822.0</ele><time>2026-04-07T13:09:41.715Z</time></trkpt><trkpt lat="44.8734952" lon="7.2403506"><ele>825.4000000000001</ele><time>2026-04-07T13:09:42.715Z</time></trkpt><trkpt lat="44.8734003" lon="7.2403339"><ele>828.8000000000001</ele><time>2026-04-07T13:09:43.715Z</time></trkpt><trkpt lat="44.8732988" lon="7.2403301"><ele>832.2</ele><time>2026-04-07T13:09:44.715Z</time></trkpt><trkpt lat="44.8731895" lon="7.2403264"><ele>835.6</ele><time>2026-04-07T13:09:45.715Z</time></trkpt><trkpt lat="44.873084" lon="7.2403255"><ele>839.0</ele><time>2026-04-07T13:09:46.715Z</time></trkpt><trkpt lat="44.8729766" lon="7.2403243"><ele>839.0</ele><time>2026-04-07T13:09:47.715Z</time></trkpt><trkpt lat="44.8728762" lon="7.2403177"><ele>839.0</ele><time>2026-04-07T13:09:48.715Z</time></trkpt><trkpt lat="44.872779" lon="7.2403264"><ele>839.0</ele><time>2026-04-07T13:09:49.715Z</time></trkpt><trkpt lat="44.8726853" lon="7.2403492"><ele>839.0</ele><time>2026-04-07T13:09:50.715Z</time></trkpt><trkpt lat="44.8725911" lon="7.2403854"><ele>839.0</ele><time>2026-04-07T13:09:51.715Z</time></trkpt><trkpt lat="44.8724939" lon="7.2404274"><ele>842.0</ele><time>2026-04-07T13:09:52.714Z</time></trkpt><trkpt lat="44.8723957" lon="7.2404663"><ele>845.0</ele><time>2026-04-07T13:09:53.714Z</time></trkpt><trkpt lat="44.8722973" lon="7.2404883"><ele>848.0000000000001</ele><time>2026-04-07T13:09:54.715Z</time></trkpt><trkpt lat="44.8721986" lon="7.2405009"><ele>851.0</ele><time>2026-04-07T13:09:55.715Z</time></trkpt><trkpt lat="44.8721068" lon="7.240511"><ele>854.0</ele><time>2026-04-07T13:09:56.714Z</time></trkpt><trkpt lat="44.8720182" lon="7.2405122"><ele>854.0</ele><time>2026-04-07T13:09:57.715Z</time></trkpt><trkpt lat="44.8719333" lon="7.2404954"><ele>854.0000000000001</ele><time>2026-04-07T13:09:58.715Z</time></trkpt><trkpt lat="44.8718572" lon="7.2404526"><ele>854.0000000000001</ele><time>2026-04-07T13:09:59.715Z</time></trkpt><trkpt lat="44.8717799" lon="7.2403811"><ele>854.0</ele><time>2026-04-07T13:10:00.715Z</time></trkpt><trkpt lat="44.8717031" lon="7.2402807"><ele>854.0</ele><time>2026-04-07T13:10:01.715Z</time></trkpt><trkpt lat="44.8716225" lon="7.2401726"><ele>856.6</ele><time>2026-04-07T13:10:02.715Z</time></trkpt><trkpt lat="44.8715498" lon="7.2400732"><ele>859.2</ele><time>2026-04-07T13:10:03.715Z</time></trkpt><trkpt lat="44.8714801" lon="7.2399675"><ele>861.8000000000001</ele><time>2026-04-07T13:10:04.715Z</time></trkpt><trkpt lat="44.8714132" lon="7.2398571"><ele>864.4000000000001</ele><time>2026-04-07T13:10:05.715Z</time></trkpt><trkpt lat="44.8713503" lon="7.2397299"><ele>867.0</ele><time>2026-04-07T13:10:06.715Z</time></trkpt><trkpt lat="44.8712915" lon="7.2395938"><ele>869.5</ele><time>2026-04-07T13:10:07.715Z</time></trkpt><trkpt lat="44.8712344" lon="7.2394642"><ele>872.0</ele><time>2026-04-07T13:10:08.715Z</time></trkpt><trkpt lat="44.8711914" lon="7.239354"><ele>874.5</ele><time>2026-04-07T13:10:09.715Z</time></trkpt><trkpt lat="44.8711501" lon="7.2392546"><ele>877.0</ele><time>2026-04-07T13:10:10.715Z</time></trkpt><trkpt lat="44.8711215" lon="7.2391671"><ele>879.5</ele><time>2026-04-07T13:10:11.715Z</time></trkpt><trkpt lat="44.8711118" lon="7.2390655"><ele>882.0</ele><time>2026-04-07T13:10:12.715Z</time></trkpt><trkpt lat="44.8711184" lon="7.2389524"><ele>883.8</ele><time>2026-04-07T13:10:13.715Z</time></trkpt><trkpt lat="44.8711328" lon="7.2388238"><ele>885.6</ele><time>2026-04-07T13:10:14.715Z</time></trkpt><trkpt lat="44.8711466" lon="7.2386931"><ele>887.3999999999999</ele><time>2026-04-07T13:10:15.715Z</time></trkpt><trkpt lat="44.8711652" lon="7.2385582"><ele>889.1999999999999</ele><time>2026-04-07T13:10:16.715Z</time></trkpt><trkpt lat="44.871179" lon="7.238423"><ele>891.0</ele><time>2026-04-07T13:10:17.715Z</time></trkpt><trkpt lat="44.8711768" lon="7.2382788"><ele>892.3333333333334</ele><time>2026-04-07T13:10:18.715Z</time></trkpt><trkpt lat="44.8711618" lon="7.2381286"><ele>893.6666666666667</ele><time>2026-04-07T13:10:19.715Z</time></trkpt><trkpt lat="44.8711436" lon="7.2379786"><ele>895.0</ele><time>2026-04-07T13:10:20.715Z</time></trkpt><trkpt lat="44.8711274" lon="7.2378524"><ele>896.3333333333334</ele><time>2026-04-07T13:10:21.715Z</time></trkpt><trkpt lat="44.8711265" lon="7.2377409"><ele>897.6666666666667</ele><time>2026-04-07T13:10:22.715Z</time></trkpt><trkpt lat="44.8711244" lon="7.237652"><ele>899.0</ele><time>2026-04-07T13:10:23.715Z</time></trkpt><trkpt lat="44.8711047" lon="7.237524"><ele>899.0000000000001</ele><time>2026-04-07T13:10:25.715Z</time></trkpt><trkpt lat="44.8710811" lon="7.2374063"><ele>899.0</ele><time>2026-04-07T13:10:27.715Z</time></trkpt><trkpt lat="44.8710593" lon="7.2372345"><ele>899.0</ele><time>2026-04-07T13:10:29.715Z</time></trkpt><trkpt lat="44.8710425" lon="7.2371253"><ele>899.0</ele><time>2026-04-07T13:10:30.714Z</time></trkpt><trkpt lat="44.8710237" lon="7.2370162"><ele>899.0000000000001</ele><time>2026-04-07T13:10:31.715Z</time></trkpt><trkpt lat="44.8709955" lon="7.2369169"><ele>899.0</ele><time>2026-04-07T13:10:32.715Z</time></trkpt><trkpt lat="44.8709587" lon="7.2368291"><ele>899.8571428571427</ele><time>2026-04-07T13:10:33.714Z</time></trkpt><trkpt lat="44.8709131" lon="7.2367527"><ele>900.7142857142857</ele><time>2026-04-07T13:10:34.714Z</time></trkpt><trkpt lat="44.8708569" lon="7.2366993"><ele>901.5714285714284</ele><time>2026-04-07T13:10:35.715Z</time></trkpt><trkpt lat="44.8707913" lon="7.2366721"><ele>902.4285714285713</ele><time>2026-04-07T13:10:36.715Z</time></trkpt><trkpt lat="44.8707205" lon="7.2366801"><ele>903.2857142857142</ele><time>2026-04-07T13:10:37.715Z</time></trkpt><trkpt lat="44.8706548" lon="7.2367179"><ele>904.1428571428571</ele><time>2026-04-07T13:10:38.715Z</time></trkpt><trkpt lat="44.8705952" lon="7.2367627"><ele>905.0</ele><time>2026-04-07T13:10:39.715Z</time></trkpt><trkpt lat="44.8705321" lon="7.2367906"><ele>905.0</ele><time>2026-04-07T13:10:40.715Z</time></trkpt><trkpt lat="44.8704208" lon="7.2367685"><ele>905.0</ele><time>2026-04-07T13:10:42.715Z</time></trkpt><trkpt lat="44.8703275" lon="7.2367475"><ele>905.0</ele><time>2026-04-07T13:10:44.715Z</time></trkpt><trkpt lat="44.8702339" lon="7.2368349"><ele>905.0</ele><time>2026-04-07T13:10:46.715Z</time></trkpt><trkpt lat="44.8701881" lon="7.2369017"><ele>905.0</ele><time>2026-04-07T13:10:47.715Z</time></trkpt><trkpt lat="44.8701379" lon="7.2369812"><ele>906.4</ele><time>2026-04-07T13:10:48.715Z</time></trkpt><trkpt lat="44.8700801" lon="7.2370672"><ele>907.8</ele><time>2026-04-07T13:10:49.715Z</time></trkpt><trkpt lat="44.8700129" lon="7.2371556"><ele>909.2</ele><time>2026-04-07T13:10:50.715Z</time></trkpt><trkpt lat="44.8699421" lon="7.2372488"><ele>910.6</ele><time>2026-04-07T13:10:51.715Z</time></trkpt><trkpt lat="44.8698635" lon="7.237345"><ele>912.0</ele><time>2026-04-07T13:10:52.715Z</time></trkpt><trkpt lat="44.8697874" lon="7.2374443"><ele>912.0</ele><time>2026-04-07T13:10:53.715Z</time></trkpt><trkpt lat="44.8697168" lon="7.237536"><ele>912.0</ele><time>2026-04-07T13:10:54.715Z</time></trkpt><trkpt lat="44.8696436" lon="7.2376148"><ele>912.0</ele><time>2026-04-07T13:10:55.715Z</time></trkpt><trkpt lat="44.8695669" lon="7.2376888"><ele>912.0</ele><time>2026-04-07T13:10:56.715Z</time></trkpt><trkpt lat="44.8694904" lon="7.2377457"><ele>912.0</ele><time>2026-04-07T13:10:57.715Z</time></trkpt><trkpt lat="44.8694228" lon="7.2377895"><ele>912.0</ele><time>2026-04-07T13:10:58.715Z</time></trkpt><trkpt lat="44.8693585" lon="7.2378177"><ele>912.0</ele><time>2026-04-07T13:10:59.715Z</time></trkpt><trkpt lat="44.8692899" lon="7.2378384"><ele>912.0</ele><time>2026-04-07T13:11:00.715Z</time></trkpt><trkpt lat="44.8692147" lon="7.2378641"><ele>912.0</ele><time>2026-04-07T13:11:01.715Z</time></trkpt><trkpt lat="44.8691351" lon="7.2378818"><ele>912.0</ele><time>2026-04-07T13:11:02.715Z</time></trkpt><trkpt lat="44.8690546" lon="7.2379097"><ele>912.0</ele><time>2026-04-07T13:11:03.715Z</time></trkpt><trkpt lat="44.8689781" lon="7.2379527"><ele>912.0</ele><time>2026-04-07T13:11:04.715Z</time></trkpt><trkpt lat="44.8689018" lon="7.2380214"><ele>911.6</ele><time>2026-04-07T13:11:05.715Z</time></trkpt><trkpt lat="44.8688282" lon="7.2381132"><ele>911.2</ele><time>2026-04-07T13:11:06.715Z</time></trkpt><trkpt lat="44.8687551" lon="7.2382146"><ele>910.8</ele><time>2026-04-07T13:11:07.715Z</time></trkpt><trkpt lat="44.868681" lon="7.2383175"><ele>910.4</ele><time>2026-04-07T13:11:08.715Z</time></trkpt><trkpt lat="44.8686096" lon="7.238418"><ele>910.0</ele><time>2026-04-07T13:11:09.715Z</time></trkpt><trkpt lat="44.8685485" lon="7.2385073"><ele>909.9999999999999</ele><time>2026-04-07T13:11:10.715Z</time></trkpt><trkpt lat="44.8684913" lon="7.2385793"><ele>910.0</ele><time>2026-04-07T13:11:11.715Z</time></trkpt><trkpt lat="44.8684374" lon="7.2386384"><ele>910.0</ele><time>2026-04-07T13:11:12.715Z</time></trkpt><trkpt lat="44.8683341" lon="7.2387163"><ele>910.0</ele><time>2026-04-07T13:11:14.715Z</time></trkpt><trkpt lat="44.8682688" lon="7.2387328"><ele>909.9999999999999</ele><time>2026-04-07T13:11:15.715Z</time></trkpt><trkpt lat="44.8681994" lon="7.2387367"><ele>910.0</ele><time>2026-04-07T13:11:16.715Z</time></trkpt><trkpt lat="44.8681291" lon="7.2387213"><ele>915.4</ele><time>2026-04-07T13:11:17.715Z</time></trkpt><trkpt lat="44.8680642" lon="7.238692"><ele>920.8</ele><time>2026-04-07T13:11:18.715Z</time></trkpt><trkpt lat="44.8679517" lon="7.2386535"><ele>926.2</ele><time>2026-04-07T13:11:20.715Z</time></trkpt><trkpt lat="44.8678337" lon="7.2387111"><ele>931.6</ele><time>2026-04-07T13:11:22.715Z</time></trkpt><trkpt lat="44.8677756" lon="7.2387562"><ele>937.0</ele><time>2026-04-07T13:11:23.715Z</time></trkpt><trkpt lat="44.8677161" lon="7.2388194"><ele>936.9999999999999</ele><time>2026-04-07T13:11:24.715Z</time></trkpt><trkpt lat="44.8676601" lon="7.2388829"><ele>937.0</ele><time>2026-04-07T13:11:25.715Z</time></trkpt><trkpt lat="44.8675537" lon="7.2389805"><ele>937.0</ele><time>2026-04-07T13:11:27.715Z</time></trkpt><trkpt lat="44.867492" lon="7.2390031"><ele>937.0</ele><time>2026-04-07T13:11:28.715Z</time></trkpt><trkpt lat="44.86742" lon="7.2390077"><ele>936.9999999999999</ele><time>2026-04-07T13:11:29.715Z</time></trkpt><trkpt lat="44.8673475" lon="7.2389946"><ele>937.0</ele><time>2026-04-07T13:11:30.715Z</time></trkpt><trkpt lat="44.8672751" lon="7.2389659"><ele>939.8333333333333</ele><time>2026-04-07T13:11:31.715Z</time></trkpt><trkpt lat="44.8672075" lon="7.2389284"><ele>942.6666666666666</ele><time>2026-04-07T13:11:32.715Z</time></trkpt><trkpt lat="44.8671416" lon="7.2388817"><ele>945.5</ele><time>2026-04-07T13:11:33.715Z</time></trkpt><trkpt lat="44.8670766" lon="7.2388235"><ele>948.3333333333333</ele><time>2026-04-07T13:11:34.715Z</time></trkpt><trkpt lat="44.8670068" lon="7.2387651"><ele>951.1666666666666</ele><time>2026-04-07T13:11:35.715Z</time></trkpt><trkpt lat="44.8669405" lon="7.2387015"><ele>954.0</ele><time>2026-04-07T13:11:36.715Z</time></trkpt><trkpt lat="44.8668729" lon="7.2386313"><ele>954.0</ele><time>2026-04-07T13:11:37.715Z</time></trkpt><trkpt lat="44.8668114" lon="7.2385513"><ele>954.0</ele><time>2026-04-07T13:11:38.715Z</time></trkpt><trkpt lat="44.8667501" lon="7.2384652"><ele>954.0</ele><time>2026-04-07T13:11:39.715Z</time></trkpt><trkpt lat="44.8666826" lon="7.2383835"><ele>954.0</ele><time>2026-04-07T13:11:40.715Z</time></trkpt><trkpt lat="44.8666093" lon="7.2383078"><ele>954.0</ele><time>2026-04-07T13:11:41.715Z</time></trkpt><trkpt lat="44.8665279" lon="7.2382406"><ele>954.0</ele><time>2026-04-07T13:11:42.715Z</time></trkpt><trkpt lat="44.8664428" lon="7.2381716"><ele>959.2</ele><time>2026-04-07T13:11:43.715Z</time></trkpt><trkpt lat="44.8663596" lon="7.2380908"><ele>964.4000000000001</ele><time>2026-04-07T13:11:44.715Z</time></trkpt><trkpt lat="44.8662784" lon="7.2380155"><ele>969.6</ele><time>2026-04-07T13:11:45.715Z</time></trkpt><trkpt lat="44.8662004" lon="7.2379525"><ele>974.8</ele><time>2026-04-07T13:11:46.715Z</time></trkpt><trkpt lat="44.866125" lon="7.2378972"><ele>980.0</ele><time>2026-04-07T13:11:47.715Z</time></trkpt><trkpt lat="44.8660529" lon="7.2378455"><ele>980.0000000000001</ele><time>2026-04-07T13:11:48.715Z</time></trkpt><trkpt lat="44.8659916" lon="7.2377788"><ele>980.0</ele><time>2026-04-07T13:11:49.715Z</time></trkpt><trkpt lat="44.8659309" lon="7.2377055"><ele>980.0</ele><time>2026-04-07T13:11:50.715Z</time></trkpt><trkpt lat="44.8658739" lon="7.237618"><ele>980.0</ele><time>2026-04-07T13:11:51.715Z</time></trkpt><trkpt lat="44.8658216" lon="7.2375268"><ele>980.0000000000001</ele><time>2026-04-07T13:11:52.715Z</time></trkpt><trkpt lat="44.8657714" lon="7.237432"><ele>980.0</ele><time>2026-04-07T13:11:53.715Z</time></trkpt><trkpt lat="44.8657214" lon="7.2373519"><ele>982.6666666666667</ele><time>2026-04-07T13:11:54.715Z</time></trkpt><trkpt lat="44.8656637" lon="7.237287"><ele>985.3333333333334</ele><time>2026-04-07T13:11:55.715Z</time></trkpt><trkpt lat="44.8655887" lon="7.2372412"><ele>988.0</ele><time>2026-04-07T13:11:56.715Z</time></trkpt><trkpt lat="44.8654807" lon="7.2372138"><ele>990.6666666666667</ele><time>2026-04-07T13:11:57.715Z</time></trkpt><trkpt lat="44.8653905" lon="7.237209"><ele>993.3333333333334</ele><time>2026-04-07T13:11:58.715Z</time></trkpt><trkpt lat="44.8653009" lon="7.2372147"><ele>996.0</ele><time>2026-04-07T13:11:59.715Z</time></trkpt><trkpt lat="44.8652186" lon="7.2372197"><ele>996.0</ele><time>2026-04-07T13:12:00.715Z</time></trkpt><trkpt lat="44.8651334" lon="7.2372265"><ele>996.0</ele><time>2026-04-07T13:12:01.715Z</time></trkpt><trkpt lat="44.865051" lon="7.2372165"><ele>996.0</ele><time>2026-04-07T13:12:02.715Z</time></trkpt><trkpt lat="44.8649841" lon="7.2371838"><ele>996.0</ele><time>2026-04-07T13:12:03.715Z</time></trkpt><trkpt lat="44.8649201" lon="7.2371285"><ele>996.0</ele><time>2026-04-07T13:12:04.715Z</time></trkpt><trkpt lat="44.8648521" lon="7.2370306"><ele>996.0</ele><time>2026-04-07T13:12:05.715Z</time></trkpt><trkpt lat="44.8647766" lon="7.2368963"><ele>993.5</ele><time>2026-04-07T13:12:06.714Z</time></trkpt><trkpt lat="44.8646909" lon="7.2367458"><ele>991.0</ele><time>2026-04-07T13:12:07.715Z</time></trkpt><trkpt lat="44.8646096" lon="7.2366063"><ele>988.5</ele><time>2026-04-07T13:12:08.715Z</time></trkpt><trkpt lat="44.8645225" lon="7.2364777"><ele>986.0</ele><time>2026-04-07T13:12:09.715Z</time></trkpt><trkpt lat="44.8644405" lon="7.2363651"><ele>985.4</ele><time>2026-04-07T13:12:10.715Z</time></trkpt><trkpt lat="44.8643636" lon="7.2362689"><ele>984.8</ele><time>2026-04-07T13:12:11.715Z</time></trkpt><trkpt lat="44.8642923" lon="7.2361811"><ele>984.1999999999999</ele><time>2026-04-07T13:12:12.715Z</time></trkpt><trkpt lat="44.8642229" lon="7.2360889"><ele>983.5999999999999</ele><time>2026-04-07T13:12:13.715Z</time></trkpt><trkpt lat="44.8641619" lon="7.2359862"><ele>983.0</ele><time>2026-04-07T13:12:14.715Z</time></trkpt><trkpt lat="44.8641108" lon="7.235876"><ele>983.0000000000001</ele><time>2026-04-07T13:12:15.715Z</time></trkpt><trkpt lat="44.8640682" lon="7.235761"><ele>983.0</ele><time>2026-04-07T13:12:16.715Z</time></trkpt><trkpt lat="44.8640383" lon="7.2356325"><ele>983.0</ele><time>2026-04-07T13:12:17.715Z</time></trkpt><trkpt lat="44.8640126" lon="7.2355162"><ele>983.0</ele><time>2026-04-07T13:12:18.715Z</time></trkpt><trkpt lat="44.863991" lon="7.2354216"><ele>983.0000000000001</ele><time>2026-04-07T13:12:19.715Z</time></trkpt><trkpt lat="44.8639462" lon="7.2353241"><ele>983.0</ele><time>2026-04-07T13:12:21.714Z</time></trkpt><trkpt lat="44.8638584" lon="7.2353843"><ele>986.6666666666667</ele><time>2026-04-07T13:12:24.715Z</time></trkpt><trkpt lat="44.8637472" lon="7.2354623"><ele>990.3333333333334</ele><time>2026-04-07T13:12:26.715Z</time></trkpt><trkpt lat="44.8636449" lon="7.2354671"><ele>994.0</ele><time>2026-04-07T13:12:28.715Z</time></trkpt><trkpt lat="44.8635574" lon="7.2354429"><ele>997.6666666666667</ele><time>2026-04-07T13:12:30.715Z</time></trkpt><trkpt lat="44.8634962" lon="7.2354084"><ele>1001.3333333333334</ele><time>2026-04-07T13:12:32.715Z</time></trkpt><trkpt lat="44.863481" lon="7.2353197"><ele>1005.0</ele><time>2026-04-07T13:12:34.715Z</time></trkpt><trkpt lat="44.8634642" lon="7.2351944"><ele>1004.4</ele><time>2026-04-07T13:12:36.715Z</time></trkpt><trkpt lat="44.8634112" lon="7.2351117"><ele>1003.8</ele><time>2026-04-07T13:12:38.715Z</time></trkpt><trkpt lat="44.8633307" lon="7.2350443"><ele>1003.2</ele><time>2026-04-07T13:12:40.715Z</time></trkpt><trkpt lat="44.8632459" lon="7.2350378"><ele>1002.6</ele><time>2026-04-07T13:12:42.715Z</time></trkpt><trkpt lat="44.8631475" lon="7.2350513"><ele>1002.0</ele><time>2026-04-07T13:12:44.715Z</time></trkpt><trkpt lat="44.8630477" lon="7.2350653"><ele>1002.0</ele><time>2026-04-07T13:12:46.715Z</time></trkpt><trkpt lat="44.8629508" lon="7.2350878"><ele>1002.0</ele><time>2026-04-07T13:12:48.715Z</time></trkpt><trkpt lat="44.8628461" lon="7.2351119"><ele>1002.0</ele><time>2026-04-07T13:12:50.715Z</time></trkpt><trkpt lat="44.8627475" lon="7.2351605"><ele>1002.0</ele><time>2026-04-07T13:12:52.714Z</time></trkpt><trkpt lat="44.8626519" lon="7.2351937"><ele>1002.0</ele><time>2026-04-07T13:12:54.715Z</time></trkpt><trkpt lat="44.8625631" lon="7.2352232"><ele>1001.8333333333334</ele><time>2026-04-07T13:12:56.715Z</time></trkpt><trkpt lat="44.8624726" lon="7.2352606"><ele>1001.6666666666667</ele><time>2026-04-07T13:12:58.715Z</time></trkpt><trkpt lat="44.8623934" lon="7.2352779"><ele>1001.5</ele><time>2026-04-07T13:13:00.715Z</time></trkpt><trkpt lat="44.8623157" lon="7.2352463"><ele>1001.3333333333334</ele><time>2026-04-07T13:13:02.715Z</time></trkpt><trkpt lat="44.8622287" lon="7.2351838"><ele>1001.1666666666667</ele><time>2026-04-07T13:13:04.715Z</time></trkpt><trkpt lat="44.8621643" lon="7.235127"><ele>1001.0</ele><time>2026-04-07T13:13:06.715Z</time></trkpt><trkpt lat="44.8620985" lon="7.2351038"><ele>1001.0</ele><time>2026-04-07T13:13:08.715Z</time></trkpt><trkpt lat="44.8620148" lon="7.2351365"><ele>1000.9999999999999</ele><time>2026-04-07T13:13:10.715Z</time></trkpt><trkpt lat="44.8619323" lon="7.2352417"><ele>1000.9999999999999</ele><time>2026-04-07T13:13:12.715Z</time></trkpt><trkpt lat="44.8618646" lon="7.2353691"><ele>1001.0</ele><time>2026-04-07T13:13:14.715Z</time></trkpt><trkpt lat="44.8617922" lon="7.2354944"><ele>1001.0</ele><time>2026-04-07T13:13:16.715Z</time></trkpt><trkpt lat="44.8617503" lon="7.2355645"><ele>998.3333333333334</ele><time>2026-04-07T13:13:17.715Z</time></trkpt><trkpt lat="44.8617069" lon="7.2356397"><ele>995.6666666666667</ele><time>2026-04-07T13:13:18.715Z</time></trkpt><trkpt lat="44.8616669" lon="7.2357118"><ele>993.0</ele><time>2026-04-07T13:13:19.715Z</time></trkpt><trkpt lat="44.8616278" lon="7.2357839"><ele>990.3333333333333</ele><time>2026-04-07T13:13:20.715Z</time></trkpt><trkpt lat="44.8615652" lon="7.2359474"><ele>987.6666666666666</ele><time>2026-04-07T13:13:22.715Z</time></trkpt><trkpt lat="44.8615372" lon="7.236042"><ele>985.0</ele><time>2026-04-07T13:13:23.715Z</time></trkpt><trkpt lat="44.8615169" lon="7.2361423"><ele>984.9999999999999</ele><time>2026-04-07T13:13:24.715Z</time></trkpt><trkpt lat="44.8614988" lon="7.2362471"><ele>985.0</ele><time>2026-04-07T13:13:25.715Z</time></trkpt><trkpt lat="44.86148" lon="7.2363529"><ele>985.0</ele><time>2026-04-07T13:13:26.715Z</time></trkpt><trkpt lat="44.8614592" lon="7.2364585"><ele>985.0</ele><time>2026-04-07T13:13:27.715Z</time></trkpt><trkpt lat="44.8614324" lon="7.2365592"><ele>984.9999999999999</ele><time>2026-04-07T13:13:28.715Z</time></trkpt><trkpt lat="44.8614016" lon="7.236666"><ele>985.0</ele><time>2026-04-07T13:13:29.714Z</time></trkpt><trkpt lat="44.861366" lon="7.2367832"><ele>982.0</ele><time>2026-04-07T13:13:30.715Z</time></trkpt><trkpt lat="44.8613165" lon="7.2368929"><ele>979.0</ele><time>2026-04-07T13:13:31.715Z</time></trkpt><trkpt lat="44.8612657" lon="7.2370018"><ele>976.0</ele><time>2026-04-07T13:13:32.715Z</time></trkpt><trkpt lat="44.861202" lon="7.237117"><ele>973.0</ele><time>2026-04-07T13:13:33.715Z</time></trkpt><trkpt lat="44.8611422" lon="7.2372435"><ele>970.0</ele><time>2026-04-07T13:13:34.715Z</time></trkpt><trkpt lat="44.8610866" lon="7.2373742"><ele>968.2</ele><time>2026-04-07T13:13:35.715Z</time></trkpt><trkpt lat="44.8610368" lon="7.2374972"><ele>966.4</ele><time>2026-04-07T13:13:36.715Z</time></trkpt><trkpt lat="44.8609838" lon="7.2376156"><ele>964.5999999999999</ele><time>2026-04-07T13:13:37.715Z</time></trkpt><trkpt lat="44.8609296" lon="7.2377263"><ele>962.8</ele><time>2026-04-07T13:13:38.715Z</time></trkpt><trkpt lat="44.860877" lon="7.2378374"><ele>961.0</ele><time>2026-04-07T13:13:39.715Z</time></trkpt><trkpt lat="44.8608287" lon="7.2379418"><ele>964.8</ele><time>2026-04-07T13:13:40.715Z</time></trkpt><trkpt lat="44.860786" lon="7.2380321"><ele>968.5999999999999</ele><time>2026-04-07T13:13:41.715Z</time></trkpt><trkpt lat="44.8607206" lon="7.2381387"><ele>972.4</ele><time>2026-04-07T13:13:43.715Z</time></trkpt><trkpt lat="44.860652" lon="7.2380874"><ele>976.2</ele><time>2026-04-07T13:13:48.715Z</time></trkpt><trkpt lat="44.8606161" lon="7.2379403"><ele>980.0</ele><time>2026-04-07T13:13:50.715Z</time></trkpt><trkpt lat="44.8605524" lon="7.2378045"><ele>983.3333333333334</ele><time>2026-04-07T13:13:52.715Z</time></trkpt><trkpt lat="44.8604949" lon="7.2376566"><ele>986.6666666666667</ele><time>2026-04-07T13:13:54.715Z</time></trkpt><trkpt lat="44.8604603" lon="7.2375822"><ele>990.0</ele><time>2026-04-07T13:13:55.715Z</time></trkpt><trkpt lat="44.860416" lon="7.237504"><ele>993.3333333333333</ele><time>2026-04-07T13:13:56.714Z</time></trkpt><trkpt lat="44.8603664" lon="7.2374296"><ele>996.6666666666666</ele><time>2026-04-07T13:13:57.715Z</time></trkpt><trkpt lat="44.8603168" lon="7.2373667"><ele>1000.0</ele><time>2026-04-07T13:13:58.715Z</time></trkpt><trkpt lat="44.8602318" lon="7.2372568"><ele>1005.5</ele><time>2026-04-07T13:14:00.715Z</time></trkpt><trkpt lat="44.8601575" lon="7.2371408"><ele>1011.0</ele><time>2026-04-07T13:14:02.715Z</time></trkpt><trkpt lat="44.8600669" lon="7.2370052"><ele>1016.5</ele><time>2026-04-07T13:14:04.715Z</time></trkpt><trkpt lat="44.8599563" lon="7.2368972"><ele>1022.0</ele><time>2026-04-07T13:14:06.715Z</time></trkpt><trkpt lat="44.8598844" lon="7.2368509"><ele>1023.0000000000001</ele><time>2026-04-07T13:14:07.715Z</time></trkpt><trkpt lat="44.8598099" lon="7.2368077"><ele>1024.0</ele><time>2026-04-07T13:14:08.715Z</time></trkpt><trkpt lat="44.8597418" lon="7.2367818"><ele>1025.0</ele><time>2026-04-07T13:14:09.715Z</time></trkpt><trkpt lat="44.8596801" lon="7.2367593"><ele>1026.0</ele><time>2026-04-07T13:14:10.714Z</time></trkpt><trkpt lat="44.8595692" lon="7.2367063"><ele>1027.0</ele><time>2026-04-07T13:14:12.715Z</time></trkpt><trkpt lat="44.8595103" lon="7.2366723"><ele>1028.0</ele><time>2026-04-07T13:14:13.715Z</time></trkpt><trkpt lat="44.8594477" lon="7.2366214"><ele>1028.0</ele><time>2026-04-07T13:14:14.715Z</time></trkpt><trkpt lat="44.8593715" lon="7.2365573"><ele>1028.0</ele><time>2026-04-07T13:14:15.715Z</time></trkpt><trkpt lat="44.8592892" lon="7.2364937"><ele>1028.0</ele><time>2026-04-07T13:14:16.715Z</time></trkpt><trkpt lat="44.859223" lon="7.236431"><ele>1028.0</ele><time>2026-04-07T13:14:17.715Z</time></trkpt><trkpt lat="44.8591592" lon="7.2363813"><ele>1028.0</ele><time>2026-04-07T13:14:18.715Z</time></trkpt><trkpt lat="44.8591011" lon="7.2363283"><ele>1028.0</ele><time>2026-04-07T13:14:19.715Z</time></trkpt><trkpt lat="44.858996" lon="7.2362428"><ele>1033.6</ele><time>2026-04-07T13:14:21.715Z</time></trkpt><trkpt lat="44.858897" lon="7.2362039"><ele>1039.1999999999998</ele><time>2026-04-07T13:14:23.715Z</time></trkpt><trkpt lat="44.8588008" lon="7.2362485"><ele>1044.8</ele><time>2026-04-07T13:14:25.715Z</time></trkpt><trkpt lat="44.8587494" lon="7.236324"><ele>1050.3999999999999</ele><time>2026-04-07T13:14:26.715Z</time></trkpt><trkpt lat="44.858675" lon="7.2363941"><ele>1056.0</ele><time>2026-04-07T13:14:27.715Z</time></trkpt><trkpt lat="44.8585955" lon="7.2364451"><ele>1050.8333333333333</ele><time>2026-04-07T13:14:28.715Z</time></trkpt><trkpt lat="44.858521" lon="7.2364906"><ele>1045.6666666666667</ele><time>2026-04-07T13:14:29.715Z</time></trkpt><trkpt lat="44.8584518" lon="7.2365472"><ele>1040.5</ele><time>2026-04-07T13:14:30.715Z</time></trkpt><trkpt lat="44.8583833" lon="7.2366258"><ele>1035.3333333333335</ele><time>2026-04-07T13:14:31.715Z</time></trkpt><trkpt lat="44.8583196" lon="7.2367154"><ele>1030.1666666666667</ele><time>2026-04-07T13:14:32.714Z</time></trkpt><trkpt lat="44.8582643" lon="7.2368091"><ele>1025.0</ele><time>2026-04-07T13:14:33.715Z</time></trkpt><trkpt lat="44.8582035" lon="7.2369065"><ele>1025.0</ele><time>2026-04-07T13:14:34.715Z</time></trkpt><trkpt lat="44.8581379" lon="7.2370056"><ele>1025.0</ele><time>2026-04-07T13:14:35.715Z</time></trkpt><trkpt lat="44.8580672" lon="7.2371024"><ele>1025.0</ele><time>2026-04-07T13:14:36.715Z</time></trkpt><trkpt lat="44.85799" lon="7.237188"><ele>1025.0</ele><time>2026-04-07T13:14:37.715Z</time></trkpt><trkpt lat="44.85792" lon="7.2372698"><ele>1025.0</ele><time>2026-04-07T13:14:38.715Z</time></trkpt><trkpt lat="44.8578513" lon="7.2373523"><ele>1022.4285714285713</ele><time>2026-04-07T13:14:39.715Z</time></trkpt><trkpt lat="44.8577957" lon="7.2374182"><ele>1019.8571428571429</ele><time>2026-04-07T13:14:40.714Z</time></trkpt><trkpt lat="44.857735" lon="7.2374718"><ele>1017.2857142857142</ele><time>2026-04-07T13:14:41.715Z</time></trkpt><trkpt lat="44.8576775" lon="7.2375196"><ele>1014.7142857142857</ele><time>2026-04-07T13:14:42.715Z</time></trkpt><trkpt lat="44.8576208" lon="7.2375815"><ele>1012.1428571428571</ele><time>2026-04-07T13:14:43.714Z</time></trkpt><trkpt lat="44.8575709" lon="7.2376677"><ele>1009.5714285714286</ele><time>2026-04-07T13:14:44.715Z</time></trkpt><trkpt lat="44.8575269" lon="7.2377681"><ele>1007.0</ele><time>2026-04-07T13:14:45.714Z</time></trkpt><trkpt lat="44.857492" lon="7.2378716"><ele>1009.3333333333334</ele><time>2026-04-07T13:14:46.715Z</time></trkpt><trkpt lat="44.857458" lon="7.2379617"><ele>1011.6666666666667</ele><time>2026-04-07T13:14:47.715Z</time></trkpt><trkpt lat="44.8573988" lon="7.2380919"><ele>1014.0</ele><time>2026-04-07T13:14:49.715Z</time></trkpt><trkpt lat="44.8573598" lon="7.2381961"><ele>1016.3333333333333</ele><time>2026-04-07T13:14:51.715Z</time></trkpt><trkpt lat="44.8573155" lon="7.2383253"><ele>1018.6666666666666</ele><time>2026-04-07T13:14:53.715Z</time></trkpt><trkpt lat="44.8572582" lon="7.238396"><ele>1021.0</ele><time>2026-04-07T13:14:55.715Z</time></trkpt><trkpt lat="44.8571665" lon="7.2383937"><ele>1021.0</ele><time>2026-04-07T13:14:58.715Z</time></trkpt><trkpt lat="44.8571093" lon="7.2383198"><ele>1020.9999999999999</ele><time>2026-04-07T13:15:00.715Z</time></trkpt><trkpt lat="44.8570289" lon="7.2381949"><ele>1020.9999999999999</ele><time>2026-04-07T13:15:02.715Z</time></trkpt><trkpt lat="44.8569282" lon="7.2381086"><ele>1021.0</ele><time>2026-04-07T13:15:04.715Z</time></trkpt><trkpt lat="44.8568291" lon="7.2380493"><ele>1021.0</ele><time>2026-04-07T13:15:06.715Z</time></trkpt><trkpt lat="44.8567446" lon="7.2379718"><ele>1029.0</ele><time>2026-04-07T13:15:08.715Z</time></trkpt><trkpt lat="44.8566409" lon="7.2379121"><ele>1037.0</ele><time>2026-04-07T13:15:10.715Z</time></trkpt><trkpt lat="44.8565273" lon="7.2378987"><ele>1045.0</ele><time>2026-04-07T13:15:12.715Z</time></trkpt><trkpt lat="44.856426" lon="7.2379066"><ele>1053.0</ele><time>2026-04-07T13:15:14.715Z</time></trkpt><trkpt lat="44.8563308" lon="7.237893"><ele>1061.0</ele><time>2026-04-07T13:15:16.715Z</time></trkpt><trkpt lat="44.8562404" lon="7.2378791"><ele>1061.0</ele><time>2026-04-07T13:15:18.715Z</time></trkpt><trkpt lat="44.8561513" lon="7.2378954"><ele>1061.0</ele><time>2026-04-07T13:15:20.715Z</time></trkpt><trkpt lat="44.8560609" lon="7.2379834"><ele>1061.0</ele><time>2026-04-07T13:15:22.715Z</time></trkpt><trkpt lat="44.8559591" lon="7.2380815"><ele>1061.0</ele><time>2026-04-07T13:15:24.715Z</time></trkpt><trkpt lat="44.8558591" lon="7.2381145"><ele>1061.0</ele><time>2026-04-07T13:15:26.715Z</time></trkpt><trkpt lat="44.855783" lon="7.2381265"><ele>1054.0</ele><time>2026-04-07T13:15:28.715Z</time></trkpt><trkpt lat="44.8557238" lon="7.238169"><ele>1047.0</ele><time>2026-04-07T13:15:30.715Z</time></trkpt><trkpt lat="44.8556502" lon="7.238295"><ele>1040.0</ele><time>2026-04-07T13:15:32.715Z</time></trkpt><trkpt lat="44.8555938" lon="7.2383827"><ele>1033.0</ele><time>2026-04-07T13:15:33.715Z</time></trkpt><trkpt lat="44.8555373" lon="7.2384757"><ele>1026.0</ele><time>2026-04-07T13:15:34.715Z</time></trkpt><trkpt lat="44.8554879" lon="7.2385685"><ele>1019.0</ele><time>2026-04-07T13:15:35.714Z</time></trkpt><trkpt lat="44.8554458" lon="7.238667"><ele>1019.0000000000001</ele><time>2026-04-07T13:15:36.715Z</time></trkpt><trkpt lat="44.8553999" lon="7.2387673"><ele>1019.0</ele><time>2026-04-07T13:15:37.715Z</time></trkpt><trkpt lat="44.8553601" lon="7.2388515"><ele>1019.0</ele><time>2026-04-07T13:15:38.715Z</time></trkpt><trkpt lat="44.8552904" lon="7.2389652"><ele>1019.0</ele><time>2026-04-07T13:15:40.715Z</time></trkpt><trkpt lat="44.8552313" lon="7.2389974"><ele>1019.0000000000001</ele><time>2026-04-07T13:15:42.714Z</time></trkpt><trkpt lat="44.8551475" lon="7.2389609"><ele>1019.0</ele><time>2026-04-07T13:15:45.715Z</time></trkpt><trkpt lat="44.8550808" lon="7.2389408"><ele>1019.1666666666667</ele><time>2026-04-07T13:15:47.715Z</time></trkpt><trkpt lat="44.8549644" lon="7.2389776"><ele>1019.3333333333334</ele><time>2026-04-07T13:15:49.715Z</time></trkpt><trkpt lat="44.8548951" lon="7.2390181"><ele>1019.5</ele><time>2026-04-07T13:15:50.715Z</time></trkpt><trkpt lat="44.8548228" lon="7.2390809"><ele>1019.6666666666667</ele><time>2026-04-07T13:15:51.715Z</time></trkpt><trkpt lat="44.8547528" lon="7.2391442"><ele>1019.8333333333334</ele><time>2026-04-07T13:15:52.715Z</time></trkpt><trkpt lat="44.8546886" lon="7.2392065"><ele>1020.0</ele><time>2026-04-07T13:15:53.715Z</time></trkpt><trkpt lat="44.8546225" lon="7.2392703"><ele>1020.0</ele><time>2026-04-07T13:15:54.715Z</time></trkpt><trkpt lat="44.8545607" lon="7.239336"><ele>1020.0</ele><time>2026-04-07T13:15:55.715Z</time></trkpt><trkpt lat="44.8545042" lon="7.2393947"><ele>1020.0</ele><time>2026-04-07T13:15:56.715Z</time></trkpt><trkpt lat="44.8544228" lon="7.2395186"><ele>1020.0</ele><time>2026-04-07T13:15:58.715Z</time></trkpt><trkpt lat="44.8543761" lon="7.2396662"><ele>1020.0</ele><time>2026-04-07T13:16:00.715Z</time></trkpt><trkpt lat="44.8543292" lon="7.2397641"><ele>1019.1666666666666</ele><time>2026-04-07T13:16:02.715Z</time></trkpt><trkpt lat="44.8542661" lon="7.2398127"><ele>1018.3333333333333</ele><time>2026-04-07T13:16:04.714Z</time></trkpt><trkpt lat="44.8541755" lon="7.2398308"><ele>1017.5</ele><time>2026-04-07T13:16:06.714Z</time></trkpt><trkpt lat="44.8540866" lon="7.2398371"><ele>1016.6666666666666</ele><time>2026-04-07T13:16:08.715Z</time></trkpt><trkpt lat="44.8539816" lon="7.2398755"><ele>1015.8333333333333</ele><time>2026-04-07T13:16:10.715Z</time></trkpt><trkpt lat="44.8539252" lon="7.2399176"><ele>1015.0</ele><time>2026-04-07T13:16:11.715Z</time></trkpt><trkpt lat="44.8538144" lon="7.2399809"><ele>1015.0</ele><time>2026-04-07T13:16:13.715Z</time></trkpt><trkpt lat="44.8537106" lon="7.2400404"><ele>1015.0</ele><time>2026-04-07T13:16:15.715Z</time></trkpt><trkpt lat="44.8536137" lon="7.2401381"><ele>1015.0</ele><time>2026-04-07T13:16:17.715Z</time></trkpt><trkpt lat="44.8535052" lon="7.240217"><ele>1015.0</ele><time>2026-04-07T13:16:19.715Z</time></trkpt><trkpt lat="44.8534422" lon="7.2402454"><ele>1015.0</ele><time>2026-04-07T13:16:20.715Z</time></trkpt><trkpt lat="44.8533244" lon="7.2402995"><ele>1013.1666666666666</ele><time>2026-04-07T13:16:22.714Z</time></trkpt><trkpt lat="44.8532662" lon="7.240336"><ele>1011.3333333333333</ele><time>2026-04-07T13:16:23.715Z</time></trkpt><trkpt lat="44.8531769" lon="7.2404549"><ele>1009.5</ele><time>2026-04-07T13:16:25.715Z</time></trkpt><trkpt lat="44.8531466" lon="7.2405418"><ele>1007.6666666666667</ele><time>2026-04-07T13:16:26.715Z</time></trkpt><trkpt lat="44.8531234" lon="7.2406482"><ele>1005.8333333333334</ele><time>2026-04-07T13:16:27.715Z</time></trkpt><trkpt lat="44.8530987" lon="7.2407605"><ele>1004.0</ele><time>2026-04-07T13:16:28.715Z</time></trkpt><trkpt lat="44.8530849" lon="7.2408784"><ele>1004.0000000000001</ele><time>2026-04-07T13:16:29.715Z</time></trkpt><trkpt lat="44.8530751" lon="7.2410057"><ele>1004.0</ele><time>2026-04-07T13:16:30.714Z</time></trkpt><trkpt lat="44.8530775" lon="7.2411365"><ele>1004.0</ele><time>2026-04-07T13:16:31.715Z</time></trkpt><trkpt lat="44.8530763" lon="7.2412707"><ele>1004.0</ele><time>2026-04-07T13:16:32.715Z</time></trkpt><trkpt lat="44.8530841" lon="7.2413963"><ele>1004.0000000000001</ele><time>2026-04-07T13:16:33.715Z</time></trkpt><trkpt lat="44.8530908" lon="7.2415106"><ele>1004.0</ele><time>2026-04-07T13:16:34.715Z</time></trkpt><trkpt lat="44.8530875" lon="7.2416181"><ele>1003.3333333333334</ele><time>2026-04-07T13:16:35.715Z</time></trkpt><trkpt lat="44.8530706" lon="7.2417249"><ele>1002.6666666666667</ele><time>2026-04-07T13:16:36.715Z</time></trkpt><trkpt lat="44.853045" lon="7.2418275"><ele>1002.0</ele><time>2026-04-07T13:16:37.715Z</time></trkpt><trkpt lat="44.8530174" lon="7.2419255"><ele>1001.3333333333333</ele><time>2026-04-07T13:16:38.715Z</time></trkpt><trkpt lat="44.8529794" lon="7.2420265"><ele>1000.6666666666666</ele><time>2026-04-07T13:16:39.715Z</time></trkpt><trkpt lat="44.8529361" lon="7.2421346"><ele>1000.0</ele><time>2026-04-07T13:16:40.715Z</time></trkpt><trkpt lat="44.8528912" lon="7.2422481"><ele>998.9999999999999</ele><time>2026-04-07T13:16:41.715Z</time></trkpt><trkpt lat="44.8528427" lon="7.2423582"><ele>998.0</ele><time>2026-04-07T13:16:42.715Z</time></trkpt><trkpt lat="44.8527965" lon="7.2424699"><ele>997.0</ele><time>2026-04-07T13:16:43.715Z</time></trkpt><trkpt lat="44.8527561" lon="7.242578"><ele>996.0</ele><time>2026-04-07T13:16:44.715Z</time></trkpt><trkpt lat="44.8527204" lon="7.2426834"><ele>994.9999999999999</ele><time>2026-04-07T13:16:45.715Z</time></trkpt><trkpt lat="44.852691" lon="7.2427827"><ele>994.0</ele><time>2026-04-07T13:16:46.715Z</time></trkpt><trkpt lat="44.8526657" lon="7.2428688"><ele>993.9999999999999</ele><time>2026-04-07T13:16:47.715Z</time></trkpt><trkpt lat="44.8526386" lon="7.2429804"><ele>994.0</ele><time>2026-04-07T13:16:49.715Z</time></trkpt><trkpt lat="44.8525737" lon="7.2430367"><ele>994.0</ele><time>2026-04-07T13:16:53.715Z</time></trkpt><trkpt lat="44.8524839" lon="7.2430138"><ele>994.0</ele><time>2026-04-07T13:16:56.715Z</time></trkpt><trkpt lat="44.8524012" lon="7.2429567"><ele>993.9999999999999</ele><time>2026-04-07T13:16:58.715Z</time></trkpt><trkpt lat="44.8523282" lon="7.2428812"><ele>994.0</ele><time>2026-04-07T13:17:00.715Z</time></trkpt><trkpt lat="44.8522643" lon="7.2427784"><ele>998.4000000000001</ele><time>2026-04-07T13:17:02.715Z</time></trkpt><trkpt lat="44.8522259" lon="7.2426631"><ele>1002.8000000000001</ele><time>2026-04-07T13:17:04.715Z</time></trkpt><trkpt lat="44.8522009" lon="7.2425127"><ele>1007.1999999999999</ele><time>2026-04-07T13:17:06.715Z</time></trkpt><trkpt lat="44.85218" lon="7.2423818"><ele>1011.5999999999999</ele><time>2026-04-07T13:17:08.715Z</time></trkpt><trkpt lat="44.8520907" lon="7.2422499"><ele>1016.0</ele><time>2026-04-07T13:17:10.715Z</time></trkpt><trkpt lat="44.852021" lon="7.2421907"><ele>1017.0000000000001</ele><time>2026-04-07T13:17:11.715Z</time></trkpt><trkpt lat="44.8519538" lon="7.2421369"><ele>1018.0</ele><time>2026-04-07T13:17:12.715Z</time></trkpt><trkpt lat="44.851892" lon="7.2420889"><ele>1019.0</ele><time>2026-04-07T13:17:13.715Z</time></trkpt><trkpt lat="44.851836" lon="7.2420393"><ele>1020.0</ele><time>2026-04-07T13:17:14.715Z</time></trkpt><trkpt lat="44.8517407" lon="7.2419136"><ele>1021.0000000000001</ele><time>2026-04-07T13:17:16.715Z</time></trkpt><trkpt lat="44.8516898" lon="7.2418426"><ele>1022.0</ele><time>2026-04-07T13:17:17.715Z</time></trkpt><trkpt lat="44.8516011" lon="7.2417678"><ele>1022.0000000000001</ele><time>2026-04-07T13:17:18.715Z</time></trkpt><trkpt lat="44.8515287" lon="7.2417097"><ele>1022.0</ele><time>2026-04-07T13:17:19.715Z</time></trkpt><trkpt lat="44.8514601" lon="7.241663"><ele>1022.0</ele><time>2026-04-07T13:17:20.715Z</time></trkpt><trkpt lat="44.8513968" lon="7.2416233"><ele>1022.0</ele><time>2026-04-07T13:17:21.715Z</time></trkpt><trkpt lat="44.8513089" lon="7.2415331"><ele>1022.0000000000001</ele><time>2026-04-07T13:17:23.715Z</time></trkpt><trkpt lat="44.8512617" lon="7.2414089"><ele>1022.0</ele><time>2026-04-07T13:17:25.715Z</time></trkpt><trkpt lat="44.8512314" lon="7.2412332"><ele>1025.8333333333335</ele><time>2026-04-07T13:17:27.715Z</time></trkpt><trkpt lat="44.8512178" lon="7.2411311"><ele>1029.6666666666667</ele><time>2026-04-07T13:17:28.715Z</time></trkpt><trkpt lat="44.8511981" lon="7.2410276"><ele>1033.5</ele><time>2026-04-07T13:17:29.715Z</time></trkpt><trkpt lat="44.8511793" lon="7.2409293"><ele>1037.3333333333333</ele><time>2026-04-07T13:17:30.715Z</time></trkpt><trkpt lat="44.8511594" lon="7.2408331"><ele>1041.1666666666665</ele><time>2026-04-07T13:17:31.715Z</time></trkpt><trkpt lat="44.8511141" lon="7.2406924"><ele>1045.0</ele><time>2026-04-07T13:17:33.715Z</time></trkpt><trkpt lat="44.8510311" lon="7.2406028"><ele>1047.3333333333333</ele><time>2026-04-07T13:17:35.715Z</time></trkpt><trkpt lat="44.8509171" lon="7.240557"><ele>1049.6666666666665</ele><time>2026-04-07T13:17:37.715Z</time></trkpt><trkpt lat="44.8508535" lon="7.2405552"><ele>1052.0</ele><time>2026-04-07T13:17:38.715Z</time></trkpt><trkpt lat="44.8507757" lon="7.2405613"><ele>1054.3333333333333</ele><time>2026-04-07T13:17:39.714Z</time></trkpt><trkpt lat="44.8507006" lon="7.2405735"><ele>1056.6666666666667</ele><time>2026-04-07T13:17:40.715Z</time></trkpt><trkpt lat="44.850625" lon="7.2405875"><ele>1059.0</ele><time>2026-04-07T13:17:41.715Z</time></trkpt><trkpt lat="44.8505417" lon="7.240597"><ele>1059.0</ele><time>2026-04-07T13:17:42.715Z</time></trkpt><trkpt lat="44.8504552" lon="7.2406203"><ele>1059.0</ele><time>2026-04-07T13:17:43.714Z</time></trkpt><trkpt lat="44.8503656" lon="7.2406539"><ele>1059.0</ele><time>2026-04-07T13:17:44.715Z</time></trkpt><trkpt lat="44.850274" lon="7.2406896"><ele>1059.0</ele><time>2026-04-07T13:17:45.715Z</time></trkpt><trkpt lat="44.850196" lon="7.2407294"><ele>1059.0</ele><time>2026-04-07T13:17:46.715Z</time></trkpt><trkpt lat="44.8501286" lon="7.2407532"><ele>1059.0</ele><time>2026-04-07T13:17:47.715Z</time></trkpt><trkpt lat="44.8500216" lon="7.240744"><ele>1057.6000000000001</ele><time>2026-04-07T13:17:49.715Z</time></trkpt><trkpt lat="44.8499277" lon="7.2406848"><ele>1056.2</ele><time>2026-04-07T13:17:51.715Z</time></trkpt><trkpt lat="44.8498534" lon="7.2406027"><ele>1054.8000000000002</ele><time>2026-04-07T13:17:53.715Z</time></trkpt><trkpt lat="44.8497966" lon="7.2405127"><ele>1053.4</ele><time>2026-04-07T13:17:55.715Z</time></trkpt><trkpt lat="44.8497355" lon="7.240437"><ele>1052.0</ele><time>2026-04-07T13:17:57.715Z</time></trkpt><trkpt lat="44.849631" lon="7.2403793"><ele>1052.0</ele><time>2026-04-07T13:17:59.715Z</time></trkpt><trkpt lat="44.8494976" lon="7.2403733"><ele>1052.0</ele><time>2026-04-07T13:18:01.715Z</time></trkpt><trkpt lat="44.8494296" lon="7.2403736"><ele>1052.0</ele><time>2026-04-07T13:18:02.714Z</time></trkpt><trkpt lat="44.8493579" lon="7.2403815"><ele>1052.0</ele><time>2026-04-07T13:18:03.715Z</time></trkpt><trkpt lat="44.8492827" lon="7.2403846"><ele>1052.0</ele><time>2026-04-07T13:18:04.715Z</time></trkpt><trkpt lat="44.8491872" lon="7.2403625"><ele>1052.0</ele><time>2026-04-07T13:18:05.715Z</time></trkpt><trkpt lat="44.849111" lon="7.2403455"><ele>1050.2857142857142</ele><time>2026-04-07T13:18:06.715Z</time></trkpt><trkpt lat="44.8490416" lon="7.240328"><ele>1048.5714285714284</ele><time>2026-04-07T13:18:07.715Z</time></trkpt><trkpt lat="44.8489667" lon="7.2403129"><ele>1046.857142857143</ele><time>2026-04-07T13:18:08.715Z</time></trkpt><trkpt lat="44.8488952" lon="7.240318"><ele>1045.142857142857</ele><time>2026-04-07T13:18:09.715Z</time></trkpt><trkpt lat="44.8488187" lon="7.2403369"><ele>1043.4285714285716</ele><time>2026-04-07T13:18:10.715Z</time></trkpt><trkpt lat="44.8487472" lon="7.2403496"><ele>1041.7142857142858</ele><time>2026-04-07T13:18:11.715Z</time></trkpt><trkpt lat="44.8486808" lon="7.2403551"><ele>1040.0</ele><time>2026-04-07T13:18:12.715Z</time></trkpt><trkpt lat="44.8486168" lon="7.2403558"><ele>1040.0</ele><time>2026-04-07T13:18:13.715Z</time></trkpt><trkpt lat="44.848542" lon="7.2403497"><ele>1040.0</ele><time>2026-04-07T13:18:14.715Z</time></trkpt><trkpt lat="44.848468" lon="7.2403362"><ele>1040.0</ele><time>2026-04-07T13:18:15.715Z</time></trkpt><trkpt lat="44.8483624" lon="7.2402831"><ele>1040.0</ele><time>2026-04-07T13:18:17.715Z</time></trkpt><trkpt lat="44.848293" lon="7.2402121"><ele>1040.0</ele><time>2026-04-07T13:18:19.715Z</time></trkpt><trkpt lat="44.8482453" lon="7.2401435"><ele>1040.0</ele><time>2026-04-07T13:18:21.715Z</time></trkpt><trkpt lat="44.8481582" lon="7.2400887"><ele>1039.6666666666667</ele><time>2026-04-07T13:18:23.715Z</time></trkpt><trkpt lat="44.8480858" lon="7.2400465"><ele>1039.3333333333335</ele><time>2026-04-07T13:18:25.715Z</time></trkpt><trkpt lat="44.8480042" lon="7.2400217"><ele>1039.0</ele><time>2026-04-07T13:18:28.715Z</time></trkpt><trkpt lat="44.8479228" lon="7.2400449"><ele>1038.6666666666667</ele><time>2026-04-07T13:18:30.715Z</time></trkpt><trkpt lat="44.8478043" lon="7.240058"><ele>1038.3333333333333</ele><time>2026-04-07T13:18:32.715Z</time></trkpt><trkpt lat="44.8477351" lon="7.2400541"><ele>1038.0</ele><time>2026-04-07T13:18:33.715Z</time></trkpt><trkpt lat="44.8476631" lon="7.2400432"><ele>1038.4285714285713</ele><time>2026-04-07T13:18:34.715Z</time></trkpt><trkpt lat="44.8475893" lon="7.2400317"><ele>1038.8571428571427</ele><time>2026-04-07T13:18:35.715Z</time></trkpt><trkpt lat="44.8475138" lon="7.240022"><ele>1039.2857142857142</ele><time>2026-04-07T13:18:36.715Z</time></trkpt><trkpt lat="44.8474432" lon="7.2400019"><ele>1039.7142857142858</ele><time>2026-04-07T13:18:37.715Z</time></trkpt><trkpt lat="44.8473829" lon="7.2399589"><ele>1040.1428571428573</ele><time>2026-04-07T13:18:38.715Z</time></trkpt><trkpt lat="44.8473296" lon="7.2398859"><ele>1040.5714285714287</ele><time>2026-04-07T13:18:39.715Z</time></trkpt><trkpt lat="44.8472795" lon="7.2398028"><ele>1041.0</ele><time>2026-04-07T13:18:40.715Z</time></trkpt><trkpt lat="44.8472224" lon="7.239713"><ele>1041.0</ele><time>2026-04-07T13:18:41.715Z</time></trkpt><trkpt lat="44.8471658" lon="7.2396205"><ele>1041.0</ele><time>2026-04-07T13:18:42.715Z</time></trkpt><trkpt lat="44.8471184" lon="7.2395303"><ele>1041.0</ele><time>2026-04-07T13:18:43.715Z</time></trkpt><trkpt lat="44.8470823" lon="7.2394375"><ele>1041.0</ele><time>2026-04-07T13:18:44.715Z</time></trkpt><trkpt lat="44.847055" lon="7.2393331"><ele>1041.0</ele><time>2026-04-07T13:18:45.715Z</time></trkpt><trkpt lat="44.8470354" lon="7.2392201"><ele>1041.0</ele><time>2026-04-07T13:18:46.715Z</time></trkpt><trkpt lat="44.847021" lon="7.2391007"><ele>1041.0</ele><time>2026-04-07T13:18:47.715Z</time></trkpt><trkpt lat="44.8470198" lon="7.2389796"><ele>1041.0</ele><time>2026-04-07T13:18:48.715Z</time></trkpt><trkpt lat="44.847033" lon="7.2388663"><ele>1041.0</ele><time>2026-04-07T13:18:49.715Z</time></trkpt><trkpt lat="44.8470498" lon="7.2387525"><ele>1041.0</ele><time>2026-04-07T13:18:50.714Z</time></trkpt><trkpt lat="44.8470716" lon="7.2386427"><ele>1041.0</ele><time>2026-04-07T13:18:51.715Z</time></trkpt><trkpt lat="44.8471107" lon="7.2385395"><ele>1041.0</ele><time>2026-04-07T13:18:52.715Z</time></trkpt><trkpt lat="44.8471661" lon="7.2384451"><ele>1041.0</ele><time>2026-04-07T13:18:53.715Z</time></trkpt><trkpt lat="44.8472365" lon="7.2383497"><ele>1041.0</ele><time>2026-04-07T13:18:54.715Z</time></trkpt><trkpt lat="44.8473173" lon="7.2382466"><ele>1041.0</ele><time>2026-04-07T13:18:55.715Z</time></trkpt><trkpt lat="44.8473973" lon="7.2381369"><ele>1041.0</ele><time>2026-04-07T13:18:56.715Z</time></trkpt><trkpt lat="44.8474755" lon="7.2380318"><ele>1041.0</ele><time>2026-04-07T13:18:57.715Z</time></trkpt><trkpt lat="44.8475454" lon="7.2379201"><ele>1039.8</ele><time>2026-04-07T13:18:58.715Z</time></trkpt><trkpt lat="44.8476163" lon="7.2378112"><ele>1038.6</ele><time>2026-04-07T13:18:59.715Z</time></trkpt><trkpt lat="44.8476943" lon="7.2377087"><ele>1037.4</ele><time>2026-04-07T13:19:00.715Z</time></trkpt><trkpt lat="44.8477766" lon="7.2376107"><ele>1036.2</ele><time>2026-04-07T13:19:01.715Z</time></trkpt><trkpt lat="44.8478554" lon="7.2375019"><ele>1035.0</ele><time>2026-04-07T13:19:02.715Z</time></trkpt><trkpt lat="44.8479221" lon="7.2373894"><ele>1038.1666666666667</ele><time>2026-04-07T13:19:03.715Z</time></trkpt><trkpt lat="44.8479834" lon="7.2372913"><ele>1041.3333333333333</ele><time>2026-04-07T13:19:04.715Z</time></trkpt><trkpt lat="44.8480438" lon="7.2372079"><ele>1044.5</ele><time>2026-04-07T13:19:05.715Z</time></trkpt><trkpt lat="44.8481068" lon="7.2371376"><ele>1047.6666666666665</ele><time>2026-04-07T13:19:06.715Z</time></trkpt><trkpt lat="44.848174" lon="7.2370807"><ele>1050.8333333333333</ele><time>2026-04-07T13:19:07.715Z</time></trkpt><trkpt lat="44.8482524" lon="7.2370295"><ele>1054.0</ele><time>2026-04-07T13:19:08.715Z</time></trkpt><trkpt lat="44.8483264" lon="7.2369903"><ele>1054.0</ele><time>2026-04-07T13:19:09.715Z</time></trkpt><trkpt lat="44.8484052" lon="7.2369484"><ele>1054.0</ele><time>2026-04-07T13:19:10.715Z</time></trkpt><trkpt lat="44.8484837" lon="7.236884"><ele>1054.0</ele><time>2026-04-07T13:19:11.714Z</time></trkpt><trkpt lat="44.8485509" lon="7.2368037"><ele>1054.0</ele><time>2026-04-07T13:19:12.715Z</time></trkpt><trkpt lat="44.8485995" lon="7.2367052"><ele>1054.0</ele><time>2026-04-07T13:19:13.715Z</time></trkpt><trkpt lat="44.8486209" lon="7.2365859"><ele>1054.0</ele><time>2026-04-07T13:19:14.715Z</time></trkpt><trkpt lat="44.848629" lon="7.2364642"><ele>1057.1666666666665</ele><time>2026-04-07T13:19:15.715Z</time></trkpt><trkpt lat="44.848635" lon="7.2363595"><ele>1060.3333333333333</ele><time>2026-04-07T13:19:16.715Z</time></trkpt><trkpt lat="44.8486481" lon="7.2362138"><ele>1063.5</ele><time>2026-04-07T13:19:18.715Z</time></trkpt><trkpt lat="44.8486755" lon="7.236083"><ele>1066.6666666666667</ele><time>2026-04-07T13:19:20.715Z</time></trkpt><trkpt lat="44.8487185" lon="7.2359759"><ele>1069.8333333333335</ele><time>2026-04-07T13:19:22.715Z</time></trkpt><trkpt lat="44.8487818" lon="7.2359119"><ele>1073.0</ele><time>2026-04-07T13:19:25.715Z</time></trkpt><trkpt lat="44.8488222" lon="7.2359824"><ele>1073.0</ele><time>2026-04-07T13:19:28.715Z</time></trkpt><trkpt lat="44.8487926" lon="7.236099"><ele>1073.0</ele><time>2026-04-07T13:19:30.715Z</time></trkpt><trkpt lat="44.848759" lon="7.2362515"><ele>1073.0</ele><time>2026-04-07T13:19:32.715Z</time></trkpt><trkpt lat="44.848747" lon="7.2363515"><ele>1073.0</ele><time>2026-04-07T13:19:33.715Z</time></trkpt><trkpt lat="44.8487467" lon="7.2364549"><ele>1073.0</ele><time>2026-04-07T13:19:34.715Z</time></trkpt><trkpt lat="44.8487566" lon="7.2365534"><ele>1073.0</ele><time>2026-04-07T13:19:35.715Z</time></trkpt><trkpt lat="44.8487767" lon="7.2366444"><ele>1075.0</ele><time>2026-04-07T13:19:36.715Z</time></trkpt><trkpt lat="44.8487953" lon="7.2367307"><ele>1077.0</ele><time>2026-04-07T13:19:37.715Z</time></trkpt><trkpt lat="44.8488114" lon="7.2368203"><ele>1079.0</ele><time>2026-04-07T13:19:38.715Z</time></trkpt><trkpt lat="44.8488228" lon="7.2369215"><ele>1081.0</ele><time>2026-04-07T13:19:39.715Z</time></trkpt><trkpt lat="44.8488317" lon="7.2370277"><ele>1083.0</ele><time>2026-04-07T13:19:40.715Z</time></trkpt><trkpt lat="44.8488386" lon="7.2371329"><ele>1085.0</ele><time>2026-04-07T13:19:41.715Z</time></trkpt><trkpt lat="44.8488435" lon="7.2372353"><ele>1087.0</ele><time>2026-04-07T13:19:42.715Z</time></trkpt><trkpt lat="44.8488426" lon="7.23733"><ele>1088.2</ele><time>2026-04-07T13:19:43.715Z</time></trkpt><trkpt lat="44.8488308" lon="7.2375022"><ele>1089.4</ele><time>2026-04-07T13:19:45.715Z</time></trkpt><trkpt lat="44.8487932" lon="7.2376375"><ele>1090.6</ele><time>2026-04-07T13:19:47.715Z</time></trkpt><trkpt lat="44.8487132" lon="7.2377515"><ele>1091.8</ele><time>2026-04-07T13:19:49.715Z</time></trkpt><trkpt lat="44.848647" lon="7.2378603"><ele>1093.0</ele><time>2026-04-07T13:19:51.715Z</time></trkpt><trkpt lat="44.8486547" lon="7.2379505"><ele>1093.0</ele><time>2026-04-07T13:20:13.715Z</time></trkpt><trkpt lat="44.8486192" lon="7.2380688"><ele>1093.0</ele><time>2026-04-07T13:20:40.715Z</time></trkpt><trkpt lat="44.8485896" lon="7.2381585"><ele>1093.0</ele><time>2026-04-07T13:20:42.715Z</time></trkpt><trkpt lat="44.848591" lon="7.2382553"><ele>1093.0</ele><time>2026-04-07T13:20:45.715Z</time></trkpt><trkpt lat="44.8485898" lon="7.238142"><ele>1093.0</ele><time>2026-04-07T13:20:54.715Z</time></trkpt><trkpt lat="44.8486194" lon="7.2380282"><ele>1093.0</ele><time>2026-04-07T13:20:56.715Z</time></trkpt><trkpt lat="44.8486343" lon="7.2378917"><ele>1093.0</ele><time>2026-04-07T13:20:58.714Z</time></trkpt><trkpt lat="44.8486578" lon="7.2377687"><ele>1093.0</ele><time>2026-04-07T13:21:00.715Z</time></trkpt><trkpt lat="44.8486994" lon="7.2376806"><ele>1093.0</ele><time>2026-04-07T13:21:02.714Z</time></trkpt><trkpt lat="44.8487415" lon="7.2376136"><ele>1093.0</ele><time>2026-04-07T13:21:05.715Z</time></trkpt><trkpt lat="44.8487647" lon="7.2375307"><ele>1093.0</ele><time>2026-04-07T13:21:09.715Z</time></trkpt><trkpt lat="44.8487954" lon="7.2373728"><ele>1093.0</ele><time>2026-04-07T13:21:11.715Z</time></trkpt><trkpt lat="44.8488049" lon="7.2372758"><ele>1091.8</ele><time>2026-04-07T13:21:12.715Z</time></trkpt><trkpt lat="44.8488004" lon="7.2371791"><ele>1090.6</ele><time>2026-04-07T13:21:13.715Z</time></trkpt><trkpt lat="44.8487944" lon="7.2370064"><ele>1089.4</ele><time>2026-04-07T13:21:15.714Z</time></trkpt><trkpt lat="44.8487926" lon="7.2368424"><ele>1088.2</ele><time>2026-04-07T13:21:17.715Z</time></trkpt><trkpt lat="44.8487945" lon="7.2367057"><ele>1087.0</ele><time>2026-04-07T13:21:19.715Z</time></trkpt><trkpt lat="44.8487839" lon="7.2365677"><ele>1084.2</ele><time>2026-04-07T13:21:21.715Z</time></trkpt><trkpt lat="44.8487737" lon="7.2364262"><ele>1081.4</ele><time>2026-04-07T13:21:23.715Z</time></trkpt><trkpt lat="44.8487824" lon="7.2362775"><ele>1078.6</ele><time>2026-04-07T13:21:25.715Z</time></trkpt><trkpt lat="44.8488111" lon="7.2361359"><ele>1075.8</ele><time>2026-04-07T13:21:27.715Z</time></trkpt><trkpt lat="44.8488706" lon="7.236001"><ele>1073.0</ele><time>2026-04-07T13:21:29.715Z</time></trkpt><trkpt lat="44.8489338" lon="7.2359191"><ele>1073.0</ele><time>2026-04-07T13:21:31.715Z</time></trkpt><trkpt lat="44.8490266" lon="7.2358154"><ele>1073.0</ele><time>2026-04-07T13:21:33.715Z</time></trkpt><trkpt lat="44.8490853" lon="7.2357512"><ele>1073.0</ele><time>2026-04-07T13:21:34.714Z</time></trkpt><trkpt lat="44.84915" lon="7.2356908"><ele>1073.0</ele><time>2026-04-07T13:21:35.715Z</time></trkpt><trkpt lat="44.8492114" lon="7.235631"><ele>1073.0</ele><time>2026-04-07T13:21:36.715Z</time></trkpt><trkpt lat="44.8492489" lon="7.2355477"><ele>1073.0</ele><time>2026-04-07T13:21:37.715Z</time></trkpt><trkpt lat="44.849267" lon="7.2354568"><ele>1073.4285714285713</ele><time>2026-04-07T13:21:38.715Z</time></trkpt><trkpt lat="44.8492689" lon="7.2353654"><ele>1073.8571428571427</ele><time>2026-04-07T13:21:39.715Z</time></trkpt><trkpt lat="44.8492562" lon="7.2352753"><ele>1074.2857142857142</ele><time>2026-04-07T13:21:40.715Z</time></trkpt><trkpt lat="44.849223" lon="7.235186"><ele>1074.7142857142858</ele><time>2026-04-07T13:21:41.715Z</time></trkpt><trkpt lat="44.849186" lon="7.2351033"><ele>1075.1428571428573</ele><time>2026-04-07T13:21:42.715Z</time></trkpt><trkpt lat="44.8491383" lon="7.2350127"><ele>1075.5714285714287</ele><time>2026-04-07T13:21:43.714Z</time></trkpt><trkpt lat="44.8491007" lon="7.2349371"><ele>1076.0</ele><time>2026-04-07T13:21:44.715Z</time></trkpt><trkpt lat="44.8490746" lon="7.2348526"><ele>1075.8333333333335</ele><time>2026-04-07T13:21:45.715Z</time></trkpt><trkpt lat="44.8490674" lon="7.2347566"><ele>1075.6666666666667</ele><time>2026-04-07T13:21:46.715Z</time></trkpt><trkpt lat="44.8490694" lon="7.234652"><ele>1075.5</ele><time>2026-04-07T13:21:47.715Z</time></trkpt><trkpt lat="44.8490811" lon="7.2345239"><ele>1075.3333333333333</ele><time>2026-04-07T13:21:48.715Z</time></trkpt><trkpt lat="44.8490988" lon="7.2343864"><ele>1075.1666666666665</ele><time>2026-04-07T13:21:49.715Z</time></trkpt><trkpt lat="44.8491216" lon="7.2342519"><ele>1075.0</ele><time>2026-04-07T13:21:50.715Z</time></trkpt><trkpt lat="44.8491549" lon="7.2341257"><ele>1075.0</ele><time>2026-04-07T13:21:51.715Z</time></trkpt><trkpt lat="44.8491949" lon="7.2339971"><ele>1075.0</ele><time>2026-04-07T13:21:52.715Z</time></trkpt><trkpt lat="44.8492271" lon="7.2338597"><ele>1075.0</ele><time>2026-04-07T13:21:53.715Z</time></trkpt><trkpt lat="44.8492424" lon="7.2337184"><ele>1075.0</ele><time>2026-04-07T13:21:54.715Z</time></trkpt><trkpt lat="44.8492504" lon="7.2335785"><ele>1075.0</ele><time>2026-04-07T13:21:55.715Z</time></trkpt><trkpt lat="44.8492451" lon="7.2334406"><ele>1074.0</ele><time>2026-04-07T13:21:56.715Z</time></trkpt><trkpt lat="44.8492439" lon="7.2333057"><ele>1073.0</ele><time>2026-04-07T13:21:57.715Z</time></trkpt><trkpt lat="44.8492433" lon="7.2331809"><ele>1072.0</ele><time>2026-04-07T13:21:58.715Z</time></trkpt><trkpt lat="44.8492491" lon="7.2330631"><ele>1071.0</ele><time>2026-04-07T13:21:59.715Z</time></trkpt><trkpt lat="44.8492573" lon="7.2329437"><ele>1070.0</ele><time>2026-04-07T13:22:00.715Z</time></trkpt><trkpt lat="44.849271" lon="7.2328251"><ele>1069.0</ele><time>2026-04-07T13:22:01.715Z</time></trkpt><trkpt lat="44.8492858" lon="7.2326988"><ele>1068.2</ele><time>2026-04-07T13:22:02.715Z</time></trkpt><trkpt lat="44.8492975" lon="7.2325716"><ele>1067.4</ele><time>2026-04-07T13:22:03.715Z</time></trkpt><trkpt lat="44.8493005" lon="7.2324477"><ele>1066.6</ele><time>2026-04-07T13:22:04.714Z</time></trkpt><trkpt lat="44.8492943" lon="7.2323227"><ele>1065.8</ele><time>2026-04-07T13:22:05.715Z</time></trkpt><trkpt lat="44.849288" lon="7.2321883"><ele>1065.0</ele><time>2026-04-07T13:22:06.715Z</time></trkpt><trkpt lat="44.8492804" lon="7.2320572"><ele>1065.0</ele><time>2026-04-07T13:22:07.715Z</time></trkpt><trkpt lat="44.849284" lon="7.2319374"><ele>1065.0</ele><time>2026-04-07T13:22:08.715Z</time></trkpt><trkpt lat="44.8493064" lon="7.2318249"><ele>1065.0</ele><time>2026-04-07T13:22:09.715Z</time></trkpt><trkpt lat="44.8493491" lon="7.2317254"><ele>1065.0</ele><time>2026-04-07T13:22:10.715Z</time></trkpt><trkpt lat="44.8494003" lon="7.2316402"><ele>1065.0</ele><time>2026-04-07T13:22:11.715Z</time></trkpt><trkpt lat="44.849461" lon="7.2315744"><ele>1065.0</ele><time>2026-04-07T13:22:12.715Z</time></trkpt><trkpt lat="44.8495206" lon="7.2315293"><ele>1063.8333333333333</ele><time>2026-04-07T13:22:13.715Z</time></trkpt><trkpt lat="44.8495896" lon="7.2314993"><ele>1062.6666666666667</ele><time>2026-04-07T13:22:14.715Z</time></trkpt><trkpt lat="44.8496648" lon="7.2314831"><ele>1061.5</ele><time>2026-04-07T13:22:15.715Z</time></trkpt><trkpt lat="44.8497406" lon="7.2314714"><ele>1060.3333333333335</ele><time>2026-04-07T13:22:16.715Z</time></trkpt><trkpt lat="44.8498159" lon="7.2314707"><ele>1059.1666666666667</ele><time>2026-04-07T13:22:17.715Z</time></trkpt><trkpt lat="44.8498934" lon="7.2314742"><ele>1058.0</ele><time>2026-04-07T13:22:18.715Z</time></trkpt><trkpt lat="44.8499694" lon="7.2314666"><ele>1058.0</ele><time>2026-04-07T13:22:19.715Z</time></trkpt><trkpt lat="44.8500955" lon="7.2314664"><ele>1058.0</ele><time>2026-04-07T13:22:21.715Z</time></trkpt><trkpt lat="44.8501927" lon="7.2314721"><ele>1058.0</ele><time>2026-04-07T13:22:23.715Z</time></trkpt><trkpt lat="44.8502686" lon="7.23149"><ele>1058.0</ele><time>2026-04-07T13:22:25.715Z</time></trkpt><trkpt lat="44.8503487" lon="7.2315014"><ele>1058.0</ele><time>2026-04-07T13:22:27.715Z</time></trkpt><trkpt lat="44.8504275" lon="7.2315227"><ele>1061.0</ele><time>2026-04-07T13:22:29.715Z</time></trkpt><trkpt lat="44.8504938" lon="7.2315668"><ele>1064.0</ele><time>2026-04-07T13:22:31.715Z</time></trkpt><trkpt lat="44.850575" lon="7.2316545"><ele>1067.0</ele><time>2026-04-07T13:22:33.715Z</time></trkpt><trkpt lat="44.8506516" lon="7.2317739"><ele>1070.0</ele><time>2026-04-07T13:22:35.715Z</time></trkpt><trkpt lat="44.8507046" lon="7.2319218"><ele>1073.0</ele><time>2026-04-07T13:22:37.715Z</time></trkpt><trkpt lat="44.8507386" lon="7.2319986"><ele>1073.0</ele><time>2026-04-07T13:22:38.714Z</time></trkpt><trkpt lat="44.8507782" lon="7.2320735"><ele>1073.0</ele><time>2026-04-07T13:22:39.715Z</time></trkpt><trkpt lat="44.8508233" lon="7.2321411"><ele>1073.0</ele><time>2026-04-07T13:22:40.715Z</time></trkpt><trkpt lat="44.8508754" lon="7.232213"><ele>1073.0</ele><time>2026-04-07T13:22:41.715Z</time></trkpt><trkpt lat="44.8509345" lon="7.2322866"><ele>1073.0</ele><time>2026-04-07T13:22:42.715Z</time></trkpt><trkpt lat="44.8509992" lon="7.2323769"><ele>1073.0</ele><time>2026-04-07T13:22:43.715Z</time></trkpt><trkpt lat="44.8510645" lon="7.2324638"><ele>1077.0</ele><time>2026-04-07T13:22:44.715Z</time></trkpt><trkpt lat="44.8511252" lon="7.2325601"><ele>1081.0</ele><time>2026-04-07T13:22:45.715Z</time></trkpt><trkpt lat="44.8511829" lon="7.2326632"><ele>1085.0</ele><time>2026-04-07T13:22:46.715Z</time></trkpt><trkpt lat="44.851236" lon="7.2327625"><ele>1089.0</ele><time>2026-04-07T13:22:47.715Z</time></trkpt><trkpt lat="44.8512869" lon="7.2328588"><ele>1093.0</ele><time>2026-04-07T13:22:48.715Z</time></trkpt><trkpt lat="44.851343" lon="7.2329541"><ele>1097.0</ele><time>2026-04-07T13:22:49.715Z</time></trkpt><trkpt lat="44.8514003" lon="7.2330568"><ele>1099.6666666666667</ele><time>2026-04-07T13:22:50.715Z</time></trkpt><trkpt lat="44.8514596" lon="7.2331519"><ele>1102.3333333333335</ele><time>2026-04-07T13:22:51.715Z</time></trkpt><trkpt lat="44.8515112" lon="7.2332529"><ele>1105.0</ele><time>2026-04-07T13:22:52.715Z</time></trkpt><trkpt lat="44.8515529" lon="7.23334"><ele>1107.6666666666667</ele><time>2026-04-07T13:22:53.715Z</time></trkpt><trkpt lat="44.8516274" lon="7.2334205"><ele>1110.3333333333333</ele><time>2026-04-07T13:22:55.715Z</time></trkpt><trkpt lat="44.8517166" lon="7.2334366"><ele>1113.0</ele><time>2026-04-07T13:22:57.715Z</time></trkpt><trkpt lat="44.8518195" lon="7.2333686"><ele>1114.4</ele><time>2026-04-07T13:22:59.715Z</time></trkpt><trkpt lat="44.8519149" lon="7.2333227"><ele>1115.8</ele><time>2026-04-07T13:23:01.715Z</time></trkpt><trkpt lat="44.8520167" lon="7.2333396"><ele>1117.2</ele><time>2026-04-07T13:23:03.715Z</time></trkpt><trkpt lat="44.8520687" lon="7.2334319"><ele>1118.6</ele><time>2026-04-07T13:23:05.715Z</time></trkpt><trkpt lat="44.8521125" lon="7.2335458"><ele>1120.0</ele><time>2026-04-07T13:23:07.715Z</time></trkpt><trkpt lat="44.8522156" lon="7.2336265"><ele>1120.0</ele><time>2026-04-07T13:23:09.715Z</time></trkpt><trkpt lat="44.852277" lon="7.2336633"><ele>1120.0</ele><time>2026-04-07T13:23:10.715Z</time></trkpt><trkpt lat="44.8523435" lon="7.2336972"><ele>1120.0</ele><time>2026-04-07T13:23:11.715Z</time></trkpt><trkpt lat="44.8524144" lon="7.2337316"><ele>1120.0</ele><time>2026-04-07T13:23:12.715Z</time></trkpt><trkpt lat="44.8524801" lon="7.233773"><ele>1120.0</ele><time>2026-04-07T13:23:13.715Z</time></trkpt><trkpt lat="44.8525444" lon="7.2338066"><ele>1120.0</ele><time>2026-04-07T13:23:14.715Z</time></trkpt><trkpt lat="44.8526048" lon="7.233848"><ele>1120.0</ele><time>2026-04-07T13:23:15.715Z</time></trkpt><trkpt lat="44.8526698" lon="7.2338979"><ele>1120.3333333333333</ele><time>2026-04-07T13:23:16.715Z</time></trkpt><trkpt lat="44.8527414" lon="7.2339562"><ele>1120.6666666666665</ele><time>2026-04-07T13:23:17.715Z</time></trkpt><trkpt lat="44.8528145" lon="7.234007"><ele>1121.0</ele><time>2026-04-07T13:23:18.715Z</time></trkpt><trkpt lat="44.8528887" lon="7.2340373"><ele>1121.3333333333333</ele><time>2026-04-07T13:23:19.715Z</time></trkpt><trkpt lat="44.8529919" lon="7.234081"><ele>1121.6666666666667</ele><time>2026-04-07T13:23:21.715Z</time></trkpt><trkpt lat="44.8530461" lon="7.2341588"><ele>1122.0</ele><time>2026-04-07T13:23:23.715Z</time></trkpt><trkpt lat="44.8530312" lon="7.2342579"><ele>1125.6</ele><time>2026-04-07T13:23:25.715Z</time></trkpt><trkpt lat="44.8529706" lon="7.2343698"><ele>1129.2</ele><time>2026-04-07T13:23:27.715Z</time></trkpt><trkpt lat="44.8529407" lon="7.2344903"><ele>1132.8</ele><time>2026-04-07T13:23:29.715Z</time></trkpt><trkpt lat="44.8529156" lon="7.2346336"><ele>1136.4</ele><time>2026-04-07T13:23:31.715Z</time></trkpt><trkpt lat="44.8528816" lon="7.2347885"><ele>1140.0</ele><time>2026-04-07T13:23:33.715Z</time></trkpt><trkpt lat="44.8528601" lon="7.2349477"><ele>1142.0</ele><time>2026-04-07T13:23:35.715Z</time></trkpt><trkpt lat="44.8528474" lon="7.2351099"><ele>1144.0</ele><time>2026-04-07T13:23:37.715Z</time></trkpt><trkpt lat="44.8528297" lon="7.2352906"><ele>1146.0</ele><time>2026-04-07T13:23:39.715Z</time></trkpt><trkpt lat="44.8528175" lon="7.2353889"><ele>1148.0</ele><time>2026-04-07T13:23:40.715Z</time></trkpt><trkpt lat="44.852807" lon="7.2354996"><ele>1150.0</ele><time>2026-04-07T13:23:41.715Z</time></trkpt><trkpt lat="44.8528032" lon="7.2356267"><ele>1152.0</ele><time>2026-04-07T13:23:42.715Z</time></trkpt><trkpt lat="44.8528" lon="7.2357475"><ele>1154.0</ele><time>2026-04-07T13:23:43.715Z</time></trkpt><trkpt lat="44.8527928" lon="7.2358609"><ele>1156.0</ele><time>2026-04-07T13:23:44.715Z</time></trkpt><trkpt lat="44.852782" lon="7.2359716"><ele>1158.0</ele><time>2026-04-07T13:23:45.715Z</time></trkpt><trkpt lat="44.8527721" lon="7.2360736"><ele>1160.0</ele><time>2026-04-07T13:23:46.715Z</time></trkpt><trkpt lat="44.8527739" lon="7.2361657"><ele>1162.0</ele><time>2026-04-07T13:23:47.715Z</time></trkpt><trkpt lat="44.8528258" lon="7.2362993"><ele>1162.0</ele><time>2026-04-07T13:23:49.715Z</time></trkpt><trkpt lat="44.8529201" lon="7.2363337"><ele>1162.0</ele><time>2026-04-07T13:23:51.715Z</time></trkpt><trkpt lat="44.8529883" lon="7.2363245"><ele>1162.0</ele><time>2026-04-07T13:23:52.715Z</time></trkpt><trkpt lat="44.8530617" lon="7.236317"><ele>1162.0</ele><time>2026-04-07T13:23:53.715Z</time></trkpt><trkpt lat="44.85315" lon="7.2363136"><ele>1162.0</ele><time>2026-04-07T13:23:54.715Z</time></trkpt><trkpt lat="44.8532421" lon="7.2363091"><ele>1162.0</ele><time>2026-04-07T13:23:55.715Z</time></trkpt><trkpt lat="44.8533293" lon="7.2363042"><ele>1162.0</ele><time>2026-04-07T13:23:56.715Z</time></trkpt><trkpt lat="44.8534162" lon="7.2362995"><ele>1162.0</ele><time>2026-04-07T13:23:57.715Z</time></trkpt><trkpt lat="44.8535079" lon="7.2362942"><ele>1162.0</ele><time>2026-04-07T13:23:58.715Z</time></trkpt><trkpt lat="44.8536041" lon="7.2362854"><ele>1162.0</ele><time>2026-04-07T13:23:59.715Z</time></trkpt><trkpt lat="44.8536912" lon="7.2362714"><ele>1162.0</ele><time>2026-04-07T13:24:00.715Z</time></trkpt><trkpt lat="44.8537693" lon="7.23625"><ele>1162.0</ele><time>2026-04-07T13:24:01.715Z</time></trkpt><trkpt lat="44.8538396" lon="7.2362102"><ele>1163.2857142857142</ele><time>2026-04-07T13:24:02.715Z</time></trkpt><trkpt lat="44.8539066" lon="7.2361631"><ele>1164.5714285714284</ele><time>2026-04-07T13:24:03.715Z</time></trkpt><trkpt lat="44.8539756" lon="7.2361123"><ele>1165.857142857143</ele><time>2026-04-07T13:24:04.715Z</time></trkpt><trkpt lat="44.8540427" lon="7.2360677"><ele>1167.142857142857</ele><time>2026-04-07T13:24:05.715Z</time></trkpt><trkpt lat="44.8541066" lon="7.2360269"><ele>1168.4285714285713</ele><time>2026-04-07T13:24:06.715Z</time></trkpt><trkpt lat="44.8541696" lon="7.2359973"><ele>1169.7142857142858</ele><time>2026-04-07T13:24:07.715Z</time></trkpt><trkpt lat="44.8542354" lon="7.2359629"><ele>1171.0</ele><time>2026-04-07T13:24:08.715Z</time></trkpt><trkpt lat="44.8542968" lon="7.2359256"><ele>1171.0</ele><time>2026-04-07T13:24:09.715Z</time></trkpt><trkpt lat="44.8543593" lon="7.2358887"><ele>1171.0</ele><time>2026-04-07T13:24:10.714Z</time></trkpt><trkpt lat="44.8544225" lon="7.2358544"><ele>1171.0</ele><time>2026-04-07T13:24:11.715Z</time></trkpt><trkpt lat="44.8545026" lon="7.2358093"><ele>1171.0</ele><time>2026-04-07T13:24:12.715Z</time></trkpt><trkpt lat="44.8545811" lon="7.2357514"><ele>1171.0</ele><time>2026-04-07T13:24:13.715Z</time></trkpt><trkpt lat="44.8546683" lon="7.2356592"><ele>1171.0</ele><time>2026-04-07T13:24:14.715Z</time></trkpt><trkpt lat="44.8547466" lon="7.2355769"><ele>1171.6666666666665</ele><time>2026-04-07T13:24:15.715Z</time></trkpt><trkpt lat="44.8548133" lon="7.235485"><ele>1172.3333333333333</ele><time>2026-04-07T13:24:16.714Z</time></trkpt><trkpt lat="44.8548693" lon="7.23541"><ele>1173.0</ele><time>2026-04-07T13:24:17.715Z</time></trkpt><trkpt lat="44.8549265" lon="7.2353446"><ele>1173.6666666666667</ele><time>2026-04-07T13:24:18.715Z</time></trkpt><trkpt lat="44.8549832" lon="7.2352974"><ele>1174.3333333333335</ele><time>2026-04-07T13:24:19.715Z</time></trkpt><trkpt lat="44.8550877" lon="7.2352454"><ele>1175.0</ele><time>2026-04-07T13:24:21.715Z</time></trkpt><trkpt lat="44.8552057" lon="7.2352289"><ele>1176.6</ele><time>2026-04-07T13:24:23.715Z</time></trkpt><trkpt lat="44.855281" lon="7.2352215"><ele>1178.2</ele><time>2026-04-07T13:24:24.715Z</time></trkpt><trkpt lat="44.8553729" lon="7.2352122"><ele>1179.8</ele><time>2026-04-07T13:24:25.715Z</time></trkpt><trkpt lat="44.8554777" lon="7.2351941"><ele>1181.4</ele><time>2026-04-07T13:24:26.715Z</time></trkpt><trkpt lat="44.8555722" lon="7.2351684"><ele>1183.0</ele><time>2026-04-07T13:24:27.715Z</time></trkpt><trkpt lat="44.8556765" lon="7.2351456"><ele>1183.0</ele><time>2026-04-07T13:24:28.715Z</time></trkpt><trkpt lat="44.855781" lon="7.2351118"><ele>1183.0</ele><time>2026-04-07T13:24:29.715Z</time></trkpt><trkpt lat="44.8558815" lon="7.2350725"><ele>1183.0</ele><time>2026-04-07T13:24:30.715Z</time></trkpt><trkpt lat="44.8559869" lon="7.2350402"><ele>1183.0</ele><time>2026-04-07T13:24:31.715Z</time></trkpt><trkpt lat="44.8560961" lon="7.2350047"><ele>1183.0</ele><time>2026-04-07T13:24:32.715Z</time></trkpt><trkpt lat="44.8561919" lon="7.2349711"><ele>1183.5</ele><time>2026-04-07T13:24:33.715Z</time></trkpt><trkpt lat="44.8562794" lon="7.2349428"><ele>1184.0</ele><time>2026-04-07T13:24:34.715Z</time></trkpt><trkpt lat="44.8563447" lon="7.2349079"><ele>1184.5</ele><time>2026-04-07T13:24:35.715Z</time></trkpt><trkpt lat="44.8564305" lon="7.234824"><ele>1185.0</ele><time>2026-04-07T13:24:37.715Z</time></trkpt><trkpt lat="44.8564852" lon="7.2347488"><ele>1185.5</ele><time>2026-04-07T13:24:39.715Z</time></trkpt><trkpt lat="44.8565698" lon="7.2346588"><ele>1186.0</ele><time>2026-04-07T13:24:41.715Z</time></trkpt><trkpt lat="44.856622" lon="7.2346006"><ele>1186.1666666666665</ele><time>2026-04-07T13:24:42.715Z</time></trkpt><trkpt lat="44.85668" lon="7.2345316"><ele>1186.3333333333333</ele><time>2026-04-07T13:24:43.715Z</time></trkpt><trkpt lat="44.8567387" lon="7.2344605"><ele>1186.5</ele><time>2026-04-07T13:24:44.714Z</time></trkpt><trkpt lat="44.8567929" lon="7.2343868"><ele>1186.6666666666667</ele><time>2026-04-07T13:24:45.715Z</time></trkpt><trkpt lat="44.8568557" lon="7.2343059"><ele>1186.8333333333335</ele><time>2026-04-07T13:24:46.715Z</time></trkpt><trkpt lat="44.8569159" lon="7.2342283"><ele>1187.0</ele><time>2026-04-07T13:24:47.714Z</time></trkpt><trkpt lat="44.8569712" lon="7.2341459"><ele>1187.0</ele><time>2026-04-07T13:24:48.714Z</time></trkpt><trkpt lat="44.8570233" lon="7.2340633"><ele>1187.0</ele><time>2026-04-07T13:24:49.714Z</time></trkpt><trkpt lat="44.8570754" lon="7.2339783"><ele>1187.0</ele><time>2026-04-07T13:24:50.714Z</time></trkpt><trkpt lat="44.8571285" lon="7.2338956"><ele>1187.0</ele><time>2026-04-07T13:24:51.715Z</time></trkpt><trkpt lat="44.8571774" lon="7.2338117"><ele>1187.0</ele><time>2026-04-07T13:24:52.715Z</time></trkpt><trkpt lat="44.8572193" lon="7.2337261"><ele>1187.0</ele><time>2026-04-07T13:24:53.715Z</time></trkpt><trkpt lat="44.8572576" lon="7.2336298"><ele>1191.5</ele><time>2026-04-07T13:24:54.715Z</time></trkpt><trkpt lat="44.8572979" lon="7.2335337"><ele>1196.0</ele><time>2026-04-07T13:24:55.715Z</time></trkpt><trkpt lat="44.8573434" lon="7.2334439"><ele>1200.5</ele><time>2026-04-07T13:24:56.715Z</time></trkpt><trkpt lat="44.8573932" lon="7.2333617"><ele>1205.0</ele><time>2026-04-07T13:24:57.715Z</time></trkpt><trkpt lat="44.8574517" lon="7.2332957"><ele>1209.5</ele><time>2026-04-07T13:24:58.715Z</time></trkpt><trkpt lat="44.8575121" lon="7.2332379"><ele>1214.0</ele><time>2026-04-07T13:24:59.715Z</time></trkpt><trkpt lat="44.8575735" lon="7.2331625"><ele>1217.6666666666667</ele><time>2026-04-07T13:25:00.715Z</time></trkpt><trkpt lat="44.8576289" lon="7.2330774"><ele>1221.3333333333335</ele><time>2026-04-07T13:25:01.715Z</time></trkpt><trkpt lat="44.8576773" lon="7.2329853"><ele>1225.0</ele><time>2026-04-07T13:25:02.715Z</time></trkpt><trkpt lat="44.857725" lon="7.2328837"><ele>1228.6666666666667</ele><time>2026-04-07T13:25:03.715Z</time></trkpt><trkpt lat="44.8577619" lon="7.2327893"><ele>1232.3333333333333</ele><time>2026-04-07T13:25:04.715Z</time></trkpt><trkpt lat="44.857808" lon="7.2327091"><ele>1236.0</ele><time>2026-04-07T13:25:05.715Z</time></trkpt><trkpt lat="44.8578584" lon="7.2326446"><ele>1236.0</ele><time>2026-04-07T13:25:06.715Z</time></trkpt><trkpt lat="44.8579154" lon="7.2325879"><ele>1236.0</ele><time>2026-04-07T13:25:07.715Z</time></trkpt><trkpt lat="44.8580116" lon="7.2324832"><ele>1236.0</ele><time>2026-04-07T13:25:09.715Z</time></trkpt><trkpt lat="44.8580978" lon="7.2324008"><ele>1236.0</ele><time>2026-04-07T13:25:11.715Z</time></trkpt><trkpt lat="44.8581952" lon="7.2322857"><ele>1236.0</ele><time>2026-04-07T13:25:13.715Z</time></trkpt><trkpt lat="44.8582345" lon="7.2322122"><ele>1237.6</ele><time>2026-04-07T13:25:14.715Z</time></trkpt><trkpt lat="44.8582609" lon="7.232041"><ele>1239.1999999999998</ele><time>2026-04-07T13:25:16.715Z</time></trkpt><trkpt lat="44.8582677" lon="7.2319526"><ele>1240.8000000000002</ele><time>2026-04-07T13:25:17.715Z</time></trkpt><trkpt lat="44.8582921" lon="7.2318121"><ele>1242.4</ele><time>2026-04-07T13:25:19.715Z</time></trkpt><trkpt lat="44.8583333" lon="7.2316949"><ele>1244.0</ele><time>2026-04-07T13:25:22.715Z</time></trkpt><trkpt lat="44.8583703" lon="7.2315764"><ele>1243.1666666666667</ele><time>2026-04-07T13:25:24.715Z</time></trkpt><trkpt lat="44.8584272" lon="7.2314208"><ele>1242.3333333333335</ele><time>2026-04-07T13:25:26.715Z</time></trkpt><trkpt lat="44.8584622" lon="7.2313336"><ele>1241.5</ele><time>2026-04-07T13:25:27.715Z</time></trkpt><trkpt lat="44.8585012" lon="7.2312362"><ele>1240.6666666666667</ele><time>2026-04-07T13:25:28.715Z</time></trkpt><trkpt lat="44.8585338" lon="7.2311428"><ele>1239.8333333333333</ele><time>2026-04-07T13:25:29.715Z</time></trkpt><trkpt lat="44.8585744" lon="7.2310626"><ele>1239.0</ele><time>2026-04-07T13:25:30.715Z</time></trkpt><trkpt lat="44.8586218" lon="7.2309941"><ele>1242.0</ele><time>2026-04-07T13:25:31.714Z</time></trkpt><trkpt lat="44.858675" lon="7.2309347"><ele>1245.0</ele><time>2026-04-07T13:25:32.715Z</time></trkpt><trkpt lat="44.8587451" lon="7.2308699"><ele>1248.0</ele><time>2026-04-07T13:25:33.715Z</time></trkpt><trkpt lat="44.8588157" lon="7.2307943"><ele>1251.0</ele><time>2026-04-07T13:25:34.715Z</time></trkpt><trkpt lat="44.8588821" lon="7.2307195"><ele>1254.0</ele><time>2026-04-07T13:25:35.714Z</time></trkpt><trkpt lat="44.8589571" lon="7.2306406"><ele>1257.0</ele><time>2026-04-07T13:25:36.715Z</time></trkpt><trkpt lat="44.8590468" lon="7.230581"><ele>1257.0</ele><time>2026-04-07T13:25:37.715Z</time></trkpt><trkpt lat="44.8591369" lon="7.2305185"><ele>1257.0</ele><time>2026-04-07T13:25:38.715Z</time></trkpt><trkpt lat="44.8592263" lon="7.2304701"><ele>1257.0</ele><time>2026-04-07T13:25:39.715Z</time></trkpt><trkpt lat="44.8593113" lon="7.2304258"><ele>1257.0</ele><time>2026-04-07T13:25:40.715Z</time></trkpt><trkpt lat="44.8593926" lon="7.2303837"><ele>1257.0</ele><time>2026-04-07T13:25:41.715Z</time></trkpt><trkpt lat="44.8594781" lon="7.2303487"><ele>1258.3333333333333</ele><time>2026-04-07T13:25:42.715Z</time></trkpt><trkpt lat="44.8595648" lon="7.2303125"><ele>1259.6666666666667</ele><time>2026-04-07T13:25:43.715Z</time></trkpt><trkpt lat="44.8596493" lon="7.2302696"><ele>1261.0</ele><time>2026-04-07T13:25:44.715Z</time></trkpt><trkpt lat="44.8597342" lon="7.2302158"><ele>1262.3333333333335</ele><time>2026-04-07T13:25:45.715Z</time></trkpt><trkpt lat="44.8598143" lon="7.2301528"><ele>1263.6666666666667</ele><time>2026-04-07T13:25:46.715Z</time></trkpt><trkpt lat="44.8598804" lon="7.2300903"><ele>1265.0</ele><time>2026-04-07T13:25:47.715Z</time></trkpt><trkpt lat="44.8599477" lon="7.2300133"><ele>1265.0</ele><time>2026-04-07T13:25:48.715Z</time></trkpt><trkpt lat="44.8600171" lon="7.2299125"><ele>1265.0</ele><time>2026-04-07T13:25:49.715Z</time></trkpt><trkpt lat="44.8600868" lon="7.2297969"><ele>1265.0</ele><time>2026-04-07T13:25:50.715Z</time></trkpt><trkpt lat="44.8601573" lon="7.2296818"><ele>1265.0</ele><time>2026-04-07T13:25:51.715Z</time></trkpt><trkpt lat="44.8602212" lon="7.2295668"><ele>1265.0</ele><time>2026-04-07T13:25:52.715Z</time></trkpt><trkpt lat="44.8602869" lon="7.2294653"><ele>1267.1666666666667</ele><time>2026-04-07T13:25:53.715Z</time></trkpt><trkpt lat="44.8603457" lon="7.2293783"><ele>1269.3333333333335</ele><time>2026-04-07T13:25:54.715Z</time></trkpt><trkpt lat="44.8604062" lon="7.2292936"><ele>1271.5</ele><time>2026-04-07T13:25:55.715Z</time></trkpt><trkpt lat="44.8604623" lon="7.2292145"><ele>1273.6666666666667</ele><time>2026-04-07T13:25:56.715Z</time></trkpt><trkpt lat="44.8605231" lon="7.2291337"><ele>1275.8333333333333</ele><time>2026-04-07T13:25:57.715Z</time></trkpt><trkpt lat="44.8605668" lon="7.2290523"><ele>1278.0</ele><time>2026-04-07T13:25:58.715Z</time></trkpt><trkpt lat="44.8606058" lon="7.2289713"><ele>1278.0</ele><time>2026-04-07T13:25:59.715Z</time></trkpt><trkpt lat="44.8606553" lon="7.2288994"><ele>1278.0</ele><time>2026-04-07T13:26:00.715Z</time></trkpt><trkpt lat="44.8607231" lon="7.2288339"><ele>1278.0</ele><time>2026-04-07T13:26:01.715Z</time></trkpt><trkpt lat="44.8608046" lon="7.2287688"><ele>1278.0</ele><time>2026-04-07T13:26:02.715Z</time></trkpt><trkpt lat="44.8608912" lon="7.2287045"><ele>1278.0</ele><time>2026-04-07T13:26:03.715Z</time></trkpt><trkpt lat="44.860983" lon="7.228639"><ele>1278.0</ele><time>2026-04-07T13:26:04.715Z</time></trkpt><trkpt lat="44.861072" lon="7.2285851"><ele>1281.1666666666667</ele><time>2026-04-07T13:26:05.715Z</time></trkpt><trkpt lat="44.8611626" lon="7.2285224"><ele>1284.3333333333333</ele><time>2026-04-07T13:26:06.715Z</time></trkpt><trkpt lat="44.8612468" lon="7.2284678"><ele>1287.5</ele><time>2026-04-07T13:26:07.715Z</time></trkpt><trkpt lat="44.8613278" lon="7.2284215"><ele>1290.6666666666665</ele><time>2026-04-07T13:26:08.715Z</time></trkpt><trkpt lat="44.8614003" lon="7.2283693"><ele>1293.8333333333333</ele><time>2026-04-07T13:26:09.715Z</time></trkpt><trkpt lat="44.8614637" lon="7.2283241"><ele>1297.0</ele><time>2026-04-07T13:26:10.715Z</time></trkpt><trkpt lat="44.8615193" lon="7.2282785"><ele>1297.0</ele><time>2026-04-07T13:26:11.715Z</time></trkpt><trkpt lat="44.8616279" lon="7.2281731"><ele>1297.0</ele><time>2026-04-07T13:26:13.715Z</time></trkpt><trkpt lat="44.8616853" lon="7.2281028"><ele>1297.0</ele><time>2026-04-07T13:26:14.715Z</time></trkpt><trkpt lat="44.8617378" lon="7.2280257"><ele>1297.0</ele><time>2026-04-07T13:26:15.715Z</time></trkpt><trkpt lat="44.8617921" lon="7.2279382"><ele>1297.0</ele><time>2026-04-07T13:26:16.715Z</time></trkpt><trkpt lat="44.8618531" lon="7.2278517"><ele>1298.8333333333333</ele><time>2026-04-07T13:26:17.715Z</time></trkpt><trkpt lat="44.8619147" lon="7.2277743"><ele>1300.6666666666665</ele><time>2026-04-07T13:26:18.715Z</time></trkpt><trkpt lat="44.861978" lon="7.2277034"><ele>1302.5</ele><time>2026-04-07T13:26:19.715Z</time></trkpt><trkpt lat="44.8620471" lon="7.2276345"><ele>1304.3333333333333</ele><time>2026-04-07T13:26:20.715Z</time></trkpt><trkpt lat="44.8621052" lon="7.2275646"><ele>1306.1666666666667</ele><time>2026-04-07T13:26:21.715Z</time></trkpt><trkpt lat="44.8621684" lon="7.2274934"><ele>1308.0</ele><time>2026-04-07T13:26:22.715Z</time></trkpt><trkpt lat="44.8622283" lon="7.2274272"><ele>1308.0</ele><time>2026-04-07T13:26:23.715Z</time></trkpt><trkpt lat="44.8622988" lon="7.2273639"><ele>1308.0</ele><time>2026-04-07T13:26:24.715Z</time></trkpt><trkpt lat="44.8623672" lon="7.2273024"><ele>1308.0</ele><time>2026-04-07T13:26:25.715Z</time></trkpt><trkpt lat="44.8624347" lon="7.2272412"><ele>1308.0</ele><time>2026-04-07T13:26:26.715Z</time></trkpt><trkpt lat="44.8625068" lon="7.2271801"><ele>1308.0</ele><time>2026-04-07T13:26:27.715Z</time></trkpt><trkpt lat="44.8625774" lon="7.2271245"><ele>1308.0</ele><time>2026-04-07T13:26:28.715Z</time></trkpt><trkpt lat="44.8626456" lon="7.227066"><ele>1308.142857142857</ele><time>2026-04-07T13:26:29.715Z</time></trkpt><trkpt lat="44.8627066" lon="7.2270131"><ele>1308.2857142857142</ele><time>2026-04-07T13:26:30.714Z</time></trkpt><trkpt lat="44.8627595" lon="7.2269646"><ele>1308.4285714285716</ele><time>2026-04-07T13:26:31.715Z</time></trkpt><trkpt lat="44.8628571" lon="7.2269052"><ele>1308.5714285714284</ele><time>2026-04-07T13:26:33.715Z</time></trkpt><trkpt lat="44.8629186" lon="7.2268759"><ele>1308.7142857142858</ele><time>2026-04-07T13:26:34.715Z</time></trkpt><trkpt lat="44.8629848" lon="7.2268533"><ele>1308.857142857143</ele><time>2026-04-07T13:26:35.715Z</time></trkpt><trkpt lat="44.8630546" lon="7.2268365"><ele>1309.0</ele><time>2026-04-07T13:26:36.715Z</time></trkpt><trkpt lat="44.8631288" lon="7.2268223"><ele>1309.0</ele><time>2026-04-07T13:26:37.715Z</time></trkpt><trkpt lat="44.8632007" lon="7.226808"><ele>1309.0</ele><time>2026-04-07T13:26:38.714Z</time></trkpt><trkpt lat="44.8632701" lon="7.2267944"><ele>1309.0</ele><time>2026-04-07T13:26:39.714Z</time></trkpt><trkpt lat="44.8633386" lon="7.2267781"><ele>1309.0</ele><time>2026-04-07T13:26:40.715Z</time></trkpt><trkpt lat="44.8634579" lon="7.2267155"><ele>1309.0</ele><time>2026-04-07T13:26:42.715Z</time></trkpt><trkpt lat="44.8635204" lon="7.2266576"><ele>1309.0</ele><time>2026-04-07T13:26:43.715Z</time></trkpt><trkpt lat="44.8635746" lon="7.226583"><ele>1308.8333333333333</ele><time>2026-04-07T13:26:44.715Z</time></trkpt><trkpt lat="44.8636209" lon="7.2265007"><ele>1308.6666666666665</ele><time>2026-04-07T13:26:45.715Z</time></trkpt><trkpt lat="44.8636549" lon="7.2264227"><ele>1308.5</ele><time>2026-04-07T13:26:46.715Z</time></trkpt><trkpt lat="44.8636982" lon="7.2262945"><ele>1308.3333333333333</ele><time>2026-04-07T13:26:48.715Z</time></trkpt><trkpt lat="44.8637396" lon="7.2261902"><ele>1308.1666666666667</ele><time>2026-04-07T13:26:50.715Z</time></trkpt><trkpt lat="44.8637927" lon="7.2260678"><ele>1308.0</ele><time>2026-04-07T13:26:52.715Z</time></trkpt><trkpt lat="44.863824" lon="7.2259848"><ele>1308.0</ele><time>2026-04-07T13:26:53.715Z</time></trkpt><trkpt lat="44.8638517" lon="7.2258958"><ele>1308.0</ele><time>2026-04-07T13:26:54.715Z</time></trkpt><trkpt lat="44.8638784" lon="7.2257989"><ele>1308.0</ele><time>2026-04-07T13:26:55.715Z</time></trkpt><trkpt lat="44.8638979" lon="7.2257035"><ele>1308.0</ele><time>2026-04-07T13:26:56.715Z</time></trkpt><trkpt lat="44.8639191" lon="7.2256167"><ele>1308.0</ele><time>2026-04-07T13:26:57.715Z</time></trkpt><trkpt lat="44.8639476" lon="7.2254733"><ele>1308.0</ele><time>2026-04-07T13:26:59.714Z</time></trkpt><trkpt lat="44.864003" lon="7.2253197"><ele>1307.6666666666667</ele><time>2026-04-07T13:27:01.715Z</time></trkpt><trkpt lat="44.8640407" lon="7.2252308"><ele>1307.3333333333333</ele><time>2026-04-07T13:27:02.715Z</time></trkpt><trkpt lat="44.8640861" lon="7.2251309"><ele>1307.0</ele><time>2026-04-07T13:27:03.715Z</time></trkpt><trkpt lat="44.8641372" lon="7.2250219"><ele>1306.6666666666665</ele><time>2026-04-07T13:27:04.714Z</time></trkpt><trkpt lat="44.8641888" lon="7.2249184"><ele>1306.3333333333333</ele><time>2026-04-07T13:27:05.715Z</time></trkpt><trkpt lat="44.8642436" lon="7.2248149"><ele>1306.0</ele><time>2026-04-07T13:27:06.715Z</time></trkpt><trkpt lat="44.8642962" lon="7.224714"><ele>1304.0</ele><time>2026-04-07T13:27:07.715Z</time></trkpt><trkpt lat="44.8643522" lon="7.2246139"><ele>1302.0</ele><time>2026-04-07T13:27:08.715Z</time></trkpt><trkpt lat="44.864413" lon="7.2245123"><ele>1300.0</ele><time>2026-04-07T13:27:09.715Z</time></trkpt><trkpt lat="44.8644719" lon="7.2243998"><ele>1298.0</ele><time>2026-04-07T13:27:10.715Z</time></trkpt><trkpt lat="44.864525" lon="7.2242814"><ele>1296.0</ele><time>2026-04-07T13:27:11.715Z</time></trkpt><trkpt lat="44.8645683" lon="7.2241566"><ele>1296.0</ele><time>2026-04-07T13:27:12.715Z</time></trkpt><trkpt lat="44.8645924" lon="7.2240387"><ele>1296.0</ele><time>2026-04-07T13:27:13.715Z</time></trkpt><trkpt lat="44.8646184" lon="7.223928"><ele>1296.0</ele><time>2026-04-07T13:27:14.715Z</time></trkpt><trkpt lat="44.8646461" lon="7.2238369"><ele>1296.0</ele><time>2026-04-07T13:27:15.715Z</time></trkpt><trkpt lat="44.8647038" lon="7.2237145"><ele>1296.0</ele><time>2026-04-07T13:27:17.715Z</time></trkpt><trkpt lat="44.8647756" lon="7.2235659"><ele>1298.5</ele><time>2026-04-07T13:27:19.715Z</time></trkpt><trkpt lat="44.8648037" lon="7.2234802"><ele>1301.0</ele><time>2026-04-07T13:27:20.714Z</time></trkpt><trkpt lat="44.8648469" lon="7.223386"><ele>1303.5</ele><time>2026-04-07T13:27:21.715Z</time></trkpt><trkpt lat="44.8648933" lon="7.2232771"><ele>1306.0</ele><time>2026-04-07T13:27:22.715Z</time></trkpt><trkpt lat="44.8649455" lon="7.2231537"><ele>1308.5</ele><time>2026-04-07T13:27:23.715Z</time></trkpt><trkpt lat="44.8649996" lon="7.2230412"><ele>1311.0</ele><time>2026-04-07T13:27:24.715Z</time></trkpt><trkpt lat="44.8650496" lon="7.2229424"><ele>1311.0</ele><time>2026-04-07T13:27:25.715Z</time></trkpt><trkpt lat="44.8650858" lon="7.2228563"><ele>1311.0</ele><time>2026-04-07T13:27:26.715Z</time></trkpt><trkpt lat="44.8651139" lon="7.222775"><ele>1311.0</ele><time>2026-04-07T13:27:27.714Z</time></trkpt><trkpt lat="44.8651608" lon="7.222606"><ele>1311.0</ele><time>2026-04-07T13:27:29.715Z</time></trkpt><trkpt lat="44.8651921" lon="7.2225163"><ele>1311.0</ele><time>2026-04-07T13:27:30.715Z</time></trkpt><trkpt lat="44.8652223" lon="7.2224275"><ele>1311.0</ele><time>2026-04-07T13:27:31.715Z</time></trkpt><trkpt lat="44.8652543" lon="7.2223418"><ele>1312.3333333333333</ele><time>2026-04-07T13:27:32.715Z</time></trkpt><trkpt lat="44.8652817" lon="7.2222579"><ele>1313.6666666666667</ele><time>2026-04-07T13:27:33.715Z</time></trkpt><trkpt lat="44.8653167" lon="7.2221773"><ele>1315.0</ele><time>2026-04-07T13:27:34.714Z</time></trkpt><trkpt lat="44.8653679" lon="7.2220886"><ele>1316.3333333333335</ele><time>2026-04-07T13:27:35.715Z</time></trkpt><trkpt lat="44.8654296" lon="7.2219946"><ele>1317.6666666666667</ele><time>2026-04-07T13:27:36.715Z</time></trkpt><trkpt lat="44.8654874" lon="7.2218897"><ele>1319.0</ele><time>2026-04-07T13:27:37.715Z</time></trkpt><trkpt lat="44.8655472" lon="7.2217723"><ele>1319.0</ele><time>2026-04-07T13:27:38.715Z</time></trkpt><trkpt lat="44.865601" lon="7.2216559"><ele>1319.0</ele><time>2026-04-07T13:27:39.715Z</time></trkpt><trkpt lat="44.8656456" lon="7.2215442"><ele>1319.0</ele><time>2026-04-07T13:27:40.715Z</time></trkpt><trkpt lat="44.8656915" lon="7.221439"><ele>1319.0</ele><time>2026-04-07T13:27:41.715Z</time></trkpt><trkpt lat="44.8657364" lon="7.2213381"><ele>1319.0</ele><time>2026-04-07T13:27:42.715Z</time></trkpt><trkpt lat="44.8657743" lon="7.2212335"><ele>1319.0</ele><time>2026-04-07T13:27:43.715Z</time></trkpt><trkpt lat="44.8657973" lon="7.2211269"><ele>1318.8000000000002</ele><time>2026-04-07T13:27:44.715Z</time></trkpt><trkpt lat="44.865811" lon="7.221028"><ele>1318.6000000000001</ele><time>2026-04-07T13:27:45.714Z</time></trkpt><trkpt lat="44.8658032" lon="7.2208584"><ele>1318.4</ele><time>2026-04-07T13:27:47.715Z</time></trkpt><trkpt lat="44.8658175" lon="7.2207314"><ele>1318.2</ele><time>2026-04-07T13:27:49.715Z</time></trkpt><trkpt lat="44.8658799" lon="7.2206568"><ele>1318.0</ele><time>2026-04-07T13:27:51.715Z</time></trkpt><trkpt lat="44.8659794" lon="7.2206037"><ele>1319.0</ele><time>2026-04-07T13:27:53.715Z</time></trkpt><trkpt lat="44.8660401" lon="7.2205644"><ele>1320.0</ele><time>2026-04-07T13:27:54.715Z</time></trkpt><trkpt lat="44.866099" lon="7.2205218"><ele>1321.0</ele><time>2026-04-07T13:27:55.715Z</time></trkpt><trkpt lat="44.8661578" lon="7.2204833"><ele>1322.0</ele><time>2026-04-07T13:27:56.715Z</time></trkpt><trkpt lat="44.8662141" lon="7.2204395"><ele>1323.0</ele><time>2026-04-07T13:27:57.715Z</time></trkpt><trkpt lat="44.8663161" lon="7.2203233"><ele>1324.0</ele><time>2026-04-07T13:27:59.715Z</time></trkpt><trkpt lat="44.8663784" lon="7.2202544"><ele>1324.0</ele><time>2026-04-07T13:28:00.715Z</time></trkpt><trkpt lat="44.866446" lon="7.2201786"><ele>1324.0</ele><time>2026-04-07T13:28:01.715Z</time></trkpt><trkpt lat="44.8665141" lon="7.2201013"><ele>1324.0</ele><time>2026-04-07T13:28:02.715Z</time></trkpt><trkpt lat="44.8665834" lon="7.2200204"><ele>1324.0</ele><time>2026-04-07T13:28:03.715Z</time></trkpt><trkpt lat="44.8666662" lon="7.2199453"><ele>1324.0</ele><time>2026-04-07T13:28:04.715Z</time></trkpt><trkpt lat="44.8667553" lon="7.2198896"><ele>1325.0</ele><time>2026-04-07T13:28:05.715Z</time></trkpt><trkpt lat="44.8668502" lon="7.2198342"><ele>1326.0</ele><time>2026-04-07T13:28:06.714Z</time></trkpt><trkpt lat="44.8669513" lon="7.2197844"><ele>1327.0</ele><time>2026-04-07T13:28:07.715Z</time></trkpt><trkpt lat="44.8670558" lon="7.2197185"><ele>1328.0</ele><time>2026-04-07T13:28:08.715Z</time></trkpt><trkpt lat="44.8671488" lon="7.2196547"><ele>1329.0</ele><time>2026-04-07T13:28:09.715Z</time></trkpt><trkpt lat="44.8672274" lon="7.2195928"><ele>1329.0</ele><time>2026-04-07T13:28:10.715Z</time></trkpt><trkpt lat="44.867289" lon="7.2195235"><ele>1329.0</ele><time>2026-04-07T13:28:11.715Z</time></trkpt><trkpt lat="44.867338" lon="7.2193931"><ele>1329.0</ele><time>2026-04-07T13:28:13.715Z</time></trkpt><trkpt lat="44.8673299" lon="7.2192709"><ele>1329.0</ele><time>2026-04-07T13:28:16.715Z</time></trkpt><trkpt lat="44.8673466" lon="7.2191737"><ele>1329.0</ele><time>2026-04-07T13:28:18.715Z</time></trkpt><trkpt lat="44.8673816" lon="7.2190533"><ele>1329.0</ele><time>2026-04-07T13:28:20.715Z</time></trkpt><trkpt lat="44.8674385" lon="7.2189426"><ele>1330.8333333333333</ele><time>2026-04-07T13:28:22.715Z</time></trkpt><trkpt lat="44.8674803" lon="7.2188305"><ele>1332.6666666666667</ele><time>2026-04-07T13:28:24.715Z</time></trkpt><trkpt lat="44.8675404" lon="7.2187214"><ele>1334.5</ele><time>2026-04-07T13:28:26.714Z</time></trkpt><trkpt lat="44.8675903" lon="7.2186669"><ele>1336.3333333333335</ele><time>2026-04-07T13:28:27.715Z</time></trkpt><trkpt lat="44.8676457" lon="7.2186138"><ele>1338.1666666666667</ele><time>2026-04-07T13:28:28.715Z</time></trkpt><trkpt lat="44.8676945" lon="7.2185526"><ele>1340.0</ele><time>2026-04-07T13:28:29.715Z</time></trkpt><trkpt lat="44.867756" lon="7.2184839"><ele>1339.9999999999998</ele><time>2026-04-07T13:28:30.715Z</time></trkpt><trkpt lat="44.8678184" lon="7.218411"><ele>1340.0</ele><time>2026-04-07T13:28:31.715Z</time></trkpt><trkpt lat="44.8678844" lon="7.2183374"><ele>1340.0</ele><time>2026-04-07T13:28:32.715Z</time></trkpt><trkpt lat="44.8679316" lon="7.2182701"><ele>1340.0</ele><time>2026-04-07T13:28:33.715Z</time></trkpt><trkpt lat="44.8679833" lon="7.2182124"><ele>1340.0</ele><time>2026-04-07T13:28:34.715Z</time></trkpt><trkpt lat="44.8680451" lon="7.2181521"><ele>1339.9999999999998</ele><time>2026-04-07T13:28:35.715Z</time></trkpt><trkpt lat="44.8681038" lon="7.2180869"><ele>1340.0</ele><time>2026-04-07T13:28:36.715Z</time></trkpt><trkpt lat="44.8681717" lon="7.2180189"><ele>1341.8333333333335</ele><time>2026-04-07T13:28:37.715Z</time></trkpt><trkpt lat="44.8682354" lon="7.2179516"><ele>1343.6666666666667</ele><time>2026-04-07T13:28:38.715Z</time></trkpt><trkpt lat="44.8682901" lon="7.2178871"><ele>1345.5</ele><time>2026-04-07T13:28:39.715Z</time></trkpt><trkpt lat="44.8683436" lon="7.2178192"><ele>1347.3333333333333</ele><time>2026-04-07T13:28:40.715Z</time></trkpt><trkpt lat="44.8684011" lon="7.2177375"><ele>1349.1666666666665</ele><time>2026-04-07T13:28:41.714Z</time></trkpt><trkpt lat="44.8684659" lon="7.2176496"><ele>1351.0</ele><time>2026-04-07T13:28:42.715Z</time></trkpt><trkpt lat="44.8685277" lon="7.2175656"><ele>1351.0</ele><time>2026-04-07T13:28:43.715Z</time></trkpt><trkpt lat="44.8685857" lon="7.2174858"><ele>1351.0</ele><time>2026-04-07T13:28:44.715Z</time></trkpt><trkpt lat="44.8686459" lon="7.217413"><ele>1351.0</ele><time>2026-04-07T13:28:45.715Z</time></trkpt><trkpt lat="44.8686948" lon="7.217347"><ele>1351.0</ele><time>2026-04-07T13:28:46.715Z</time></trkpt><trkpt lat="44.8687417" lon="7.217287"><ele>1351.0</ele><time>2026-04-07T13:28:47.715Z</time></trkpt><trkpt lat="44.8687889" lon="7.217213"><ele>1351.0</ele><time>2026-04-07T13:28:48.715Z</time></trkpt><trkpt lat="44.8688289" lon="7.2171184"><ele>1351.0</ele><time>2026-04-07T13:28:49.715Z</time></trkpt><trkpt lat="44.8688708" lon="7.2170142"><ele>1347.8</ele><time>2026-04-07T13:28:50.715Z</time></trkpt><trkpt lat="44.8689111" lon="7.216911"><ele>1344.6</ele><time>2026-04-07T13:28:51.715Z</time></trkpt><trkpt lat="44.8689367" lon="7.2168193"><ele>1341.4</ele><time>2026-04-07T13:28:52.715Z</time></trkpt><trkpt lat="44.8689575" lon="7.2166663"><ele>1338.2</ele><time>2026-04-07T13:28:54.715Z</time></trkpt><trkpt lat="44.8689499" lon="7.2165051"><ele>1335.0</ele><time>2026-04-07T13:28:56.715Z</time></trkpt><trkpt lat="44.8689536" lon="7.2163388"><ele>1332.6</ele><time>2026-04-07T13:28:58.715Z</time></trkpt><trkpt lat="44.8689466" lon="7.2161714"><ele>1330.2</ele><time>2026-04-07T13:29:00.715Z</time></trkpt><trkpt lat="44.868959" lon="7.2160056"><ele>1327.8000000000002</ele><time>2026-04-07T13:29:02.715Z</time></trkpt><trkpt lat="44.8689913" lon="7.2158616"><ele>1325.4</ele><time>2026-04-07T13:29:04.715Z</time></trkpt><trkpt lat="44.8690402" lon="7.2157603"><ele>1323.0</ele><time>2026-04-07T13:29:06.715Z</time></trkpt><trkpt lat="44.8691354" lon="7.2156715"><ele>1320.8333333333333</ele><time>2026-04-07T13:29:08.715Z</time></trkpt><trkpt lat="44.8691946" lon="7.2156237"><ele>1318.6666666666667</ele><time>2026-04-07T13:29:09.715Z</time></trkpt><trkpt lat="44.869258" lon="7.2155672"><ele>1316.5</ele><time>2026-04-07T13:29:10.715Z</time></trkpt><trkpt lat="44.8693161" lon="7.2154911"><ele>1314.3333333333335</ele><time>2026-04-07T13:29:11.715Z</time></trkpt><trkpt lat="44.8693736" lon="7.2154036"><ele>1312.1666666666667</ele><time>2026-04-07T13:29:12.715Z</time></trkpt><trkpt lat="44.8694318" lon="7.2153059"><ele>1310.0</ele><time>2026-04-07T13:29:13.715Z</time></trkpt><trkpt lat="44.8694839" lon="7.215206"><ele>1313.1666666666667</ele><time>2026-04-07T13:29:14.715Z</time></trkpt><trkpt lat="44.8695276" lon="7.2150998"><ele>1316.3333333333335</ele><time>2026-04-07T13:29:15.715Z</time></trkpt><trkpt lat="44.8695564" lon="7.2149898"><ele>1319.5</ele><time>2026-04-07T13:29:16.715Z</time></trkpt><trkpt lat="44.8695812" lon="7.2148916"><ele>1322.6666666666667</ele><time>2026-04-07T13:29:17.715Z</time></trkpt><trkpt lat="44.8696021" lon="7.2147958"><ele>1325.8333333333333</ele><time>2026-04-07T13:29:18.715Z</time></trkpt><trkpt lat="44.8696191" lon="7.2147061"><ele>1329.0</ele><time>2026-04-07T13:29:19.715Z</time></trkpt><trkpt lat="44.8696284" lon="7.2145688"><ele>1329.0</ele><time>2026-04-07T13:29:21.715Z</time></trkpt><trkpt lat="44.869649" lon="7.2144322"><ele>1329.0</ele><time>2026-04-07T13:29:23.715Z</time></trkpt><trkpt lat="44.8696617" lon="7.2143388"><ele>1329.0</ele><time>2026-04-07T13:29:24.715Z</time></trkpt><trkpt lat="44.8696853" lon="7.214225"><ele>1329.0</ele><time>2026-04-07T13:29:25.715Z</time></trkpt><trkpt lat="44.8697121" lon="7.2141034"><ele>1329.0</ele><time>2026-04-07T13:29:26.715Z</time></trkpt><trkpt lat="44.8697497" lon="7.2139814"><ele>1329.0</ele><time>2026-04-07T13:29:27.715Z</time></trkpt><trkpt lat="44.8697851" lon="7.2138657"><ele>1328.6</ele><time>2026-04-07T13:29:28.715Z</time></trkpt><trkpt lat="44.8698235" lon="7.2137767"><ele>1328.2</ele><time>2026-04-07T13:29:29.715Z</time></trkpt><trkpt lat="44.8699052" lon="7.2136641"><ele>1327.8</ele><time>2026-04-07T13:29:31.715Z</time></trkpt><trkpt lat="44.8700074" lon="7.2135747"><ele>1327.3999999999999</ele><time>2026-04-07T13:29:33.715Z</time></trkpt><trkpt lat="44.8701167" lon="7.2134957"><ele>1327.0</ele><time>2026-04-07T13:29:35.715Z</time></trkpt><trkpt lat="44.8702115" lon="7.2134547"><ele>1327.0</ele><time>2026-04-07T13:29:37.715Z</time></trkpt><trkpt lat="44.8703148" lon="7.2134672"><ele>1327.0</ele><time>2026-04-07T13:29:39.715Z</time></trkpt><trkpt lat="44.8704155" lon="7.2134952"><ele>1327.0</ele><time>2026-04-07T13:29:41.715Z</time></trkpt><trkpt lat="44.8705394" lon="7.2134898"><ele>1327.0</ele><time>2026-04-07T13:29:43.715Z</time></trkpt><trkpt lat="44.8706124" lon="7.2134523"><ele>1327.0</ele><time>2026-04-07T13:29:44.715Z</time></trkpt><trkpt lat="44.8706797" lon="7.2134083"><ele>1327.0</ele><time>2026-04-07T13:29:45.715Z</time></trkpt><trkpt lat="44.8707359" lon="7.2133561"><ele>1327.0</ele><time>2026-04-07T13:29:46.715Z</time></trkpt><trkpt lat="44.8707969" lon="7.2132696"><ele>1327.0</ele><time>2026-04-07T13:29:48.715Z</time></trkpt><trkpt lat="44.8708516" lon="7.2132177"><ele>1327.0</ele><time>2026-04-07T13:29:50.715Z</time></trkpt><trkpt lat="44.8709025" lon="7.2131019"><ele>1327.0</ele><time>2026-04-07T13:29:53.715Z</time></trkpt><trkpt lat="44.870878" lon="7.2130172"><ele>1327.0</ele><time>2026-04-07T13:29:55.715Z</time></trkpt><trkpt lat="44.8708095" lon="7.2129397"><ele>1328.6666666666665</ele><time>2026-04-07T13:29:57.715Z</time></trkpt><trkpt lat="44.8707649" lon="7.2128543"><ele>1330.3333333333333</ele><time>2026-04-07T13:29:59.715Z</time></trkpt><trkpt lat="44.8707774" lon="7.2127545"><ele>1332.0</ele><time>2026-04-07T13:30:02.715Z</time></trkpt><trkpt lat="44.8708488" lon="7.2127724"><ele>1333.6666666666667</ele><time>2026-04-07T13:30:04.715Z</time></trkpt><trkpt lat="44.8709521" lon="7.2128383"><ele>1335.3333333333335</ele><time>2026-04-07T13:30:06.715Z</time></trkpt><trkpt lat="44.8710603" lon="7.2128075"><ele>1337.0</ele><time>2026-04-07T13:30:08.715Z</time></trkpt><trkpt lat="44.8711279" lon="7.2127325"><ele>1337.0</ele><time>2026-04-07T13:30:09.715Z</time></trkpt><trkpt lat="44.8711919" lon="7.2126315"><ele>1337.0</ele><time>2026-04-07T13:30:10.715Z</time></trkpt><trkpt lat="44.8712596" lon="7.2125121"><ele>1337.0</ele><time>2026-04-07T13:30:11.715Z</time></trkpt><trkpt lat="44.8713208" lon="7.2123793"><ele>1337.0</ele><time>2026-04-07T13:30:12.715Z</time></trkpt><trkpt lat="44.8713829" lon="7.2122438"><ele>1337.0</ele><time>2026-04-07T13:30:13.715Z</time></trkpt><trkpt lat="44.871446" lon="7.2121095"><ele>1333.25</ele><time>2026-04-07T13:30:14.715Z</time></trkpt><trkpt lat="44.8715147" lon="7.2119763"><ele>1329.5</ele><time>2026-04-07T13:30:15.715Z</time></trkpt><trkpt lat="44.8715755" lon="7.2118331"><ele>1325.75</ele><time>2026-04-07T13:30:16.715Z</time></trkpt><trkpt lat="44.8716097" lon="7.2116718"><ele>1322.0</ele><time>2026-04-07T13:30:17.715Z</time></trkpt><trkpt lat="44.8716181" lon="7.2115087"><ele>1321.0</ele><time>2026-04-07T13:30:18.715Z</time></trkpt><trkpt lat="44.871626" lon="7.2113574"><ele>1320.0</ele><time>2026-04-07T13:30:19.715Z</time></trkpt><trkpt lat="44.8716336" lon="7.2112031"><ele>1319.0</ele><time>2026-04-07T13:30:20.714Z</time></trkpt><trkpt lat="44.871661" lon="7.2110496"><ele>1318.0</ele><time>2026-04-07T13:30:21.715Z</time></trkpt><trkpt lat="44.8717048" lon="7.2108946"><ele>1317.0</ele><time>2026-04-07T13:30:22.715Z</time></trkpt><trkpt lat="44.8717565" lon="7.210726"><ele>1322.1999999999998</ele><time>2026-04-07T13:30:23.715Z</time></trkpt><trkpt lat="44.8717978" lon="7.2105588"><ele>1327.4</ele><time>2026-04-07T13:30:24.715Z</time></trkpt><trkpt lat="44.8718205" lon="7.2104059"><ele>1332.6</ele><time>2026-04-07T13:30:25.715Z</time></trkpt><trkpt lat="44.8718401" lon="7.2102694"><ele>1337.8000000000002</ele><time>2026-04-07T13:30:26.715Z</time></trkpt><trkpt lat="44.8718592" lon="7.2101552"><ele>1343.0</ele><time>2026-04-07T13:30:27.715Z</time></trkpt><trkpt lat="44.8718892" lon="7.2100637"><ele>1343.0</ele><time>2026-04-07T13:30:28.715Z</time></trkpt><trkpt lat="44.8719331" lon="7.2099872"><ele>1343.0</ele><time>2026-04-07T13:30:29.715Z</time></trkpt><trkpt lat="44.8719892" lon="7.2099209"><ele>1343.0</ele><time>2026-04-07T13:30:30.715Z</time></trkpt><trkpt lat="44.8720785" lon="7.2098792"><ele>1343.0</ele><time>2026-04-07T13:30:31.715Z</time></trkpt><trkpt lat="44.872172" lon="7.2098538"><ele>1343.0</ele><time>2026-04-07T13:30:32.714Z</time></trkpt><trkpt lat="44.8722763" lon="7.2098088"><ele>1343.0</ele><time>2026-04-07T13:30:33.715Z</time></trkpt><trkpt lat="44.8723751" lon="7.2097311"><ele>1340.0</ele><time>2026-04-07T13:30:34.715Z</time></trkpt><trkpt lat="44.8724513" lon="7.2096384"><ele>1337.0</ele><time>2026-04-07T13:30:35.715Z</time></trkpt><trkpt lat="44.8725189" lon="7.2095246"><ele>1334.0</ele><time>2026-04-07T13:30:36.715Z</time></trkpt><trkpt lat="44.872566" lon="7.2093902"><ele>1331.0</ele><time>2026-04-07T13:30:37.714Z</time></trkpt><trkpt lat="44.8725968" lon="7.2092495"><ele>1328.0</ele><time>2026-04-07T13:30:38.715Z</time></trkpt><trkpt lat="44.87261" lon="7.2090937"><ele>1336.6000000000001</ele><time>2026-04-07T13:30:39.715Z</time></trkpt><trkpt lat="44.8726088" lon="7.208941"><ele>1345.2</ele><time>2026-04-07T13:30:40.715Z</time></trkpt><trkpt lat="44.8726083" lon="7.2088095"><ele>1353.8</ele><time>2026-04-07T13:30:41.715Z</time></trkpt><trkpt lat="44.8726158" lon="7.2086888"><ele>1362.4</ele><time>2026-04-07T13:30:42.715Z</time></trkpt><trkpt lat="44.8726452" lon="7.2085672"><ele>1371.0</ele><time>2026-04-07T13:30:43.715Z</time></trkpt><trkpt lat="44.8726896" lon="7.2084537"><ele>1371.0</ele><time>2026-04-07T13:30:44.714Z</time></trkpt><trkpt lat="44.8727418" lon="7.2083395"><ele>1371.0</ele><time>2026-04-07T13:30:45.715Z</time></trkpt><trkpt lat="44.8727909" lon="7.2082248"><ele>1371.0</ele><time>2026-04-07T13:30:46.715Z</time></trkpt><trkpt lat="44.8728417" lon="7.208107"><ele>1371.0</ele><time>2026-04-07T13:30:47.715Z</time></trkpt><trkpt lat="44.872896" lon="7.207981"><ele>1371.0</ele><time>2026-04-07T13:30:48.715Z</time></trkpt><trkpt lat="44.8729487" lon="7.2078584"><ele>1370.5</ele><time>2026-04-07T13:30:49.715Z</time></trkpt><trkpt lat="44.8729988" lon="7.2077307"><ele>1370.0</ele><time>2026-04-07T13:30:50.715Z</time></trkpt><trkpt lat="44.8730352" lon="7.2076063"><ele>1369.5</ele><time>2026-04-07T13:30:51.715Z</time></trkpt><trkpt lat="44.873071" lon="7.2074953"><ele>1369.0</ele><time>2026-04-07T13:30:52.715Z</time></trkpt><trkpt lat="44.87308" lon="7.2073848"><ele>1368.5</ele><time>2026-04-07T13:30:53.715Z</time></trkpt><trkpt lat="44.873069" lon="7.2072802"><ele>1368.0</ele><time>2026-04-07T13:30:54.715Z</time></trkpt><trkpt lat="44.8730145" lon="7.2071822"><ele>1371.8000000000002</ele><time>2026-04-07T13:30:55.715Z</time></trkpt><trkpt lat="44.8729288" lon="7.207092"><ele>1375.6</ele><time>2026-04-07T13:30:56.715Z</time></trkpt><trkpt lat="44.8728292" lon="7.2069949"><ele>1379.4</ele><time>2026-04-07T13:30:57.715Z</time></trkpt><trkpt lat="44.8727361" lon="7.206904"><ele>1383.1999999999998</ele><time>2026-04-07T13:30:58.715Z</time></trkpt><trkpt lat="44.872656" lon="7.2068015"><ele>1387.0</ele><time>2026-04-07T13:30:59.715Z</time></trkpt><trkpt lat="44.8725727" lon="7.2067077"><ele>1380.6666666666665</ele><time>2026-04-07T13:31:00.715Z</time></trkpt><trkpt lat="44.8724943" lon="7.2066168"><ele>1374.3333333333333</ele><time>2026-04-07T13:31:01.715Z</time></trkpt><trkpt lat="44.8724344" lon="7.2065226"><ele>1368.0</ele><time>2026-04-07T13:31:02.715Z</time></trkpt><trkpt lat="44.8724009" lon="7.2064284"><ele>1361.6666666666667</ele><time>2026-04-07T13:31:03.715Z</time></trkpt><trkpt lat="44.8723791" lon="7.2063335"><ele>1355.3333333333335</ele><time>2026-04-07T13:31:04.715Z</time></trkpt><trkpt lat="44.8723773" lon="7.2062366"><ele>1349.0</ele><time>2026-04-07T13:31:05.715Z</time></trkpt><trkpt lat="44.8723947" lon="7.2061342"><ele>1349.0</ele><time>2026-04-07T13:31:06.715Z</time></trkpt><trkpt lat="44.8724289" lon="7.2060334"><ele>1349.0</ele><time>2026-04-07T13:31:07.715Z</time></trkpt><trkpt lat="44.8724694" lon="7.2059184"><ele>1349.0</ele><time>2026-04-07T13:31:08.715Z</time></trkpt><trkpt lat="44.8725184" lon="7.2058063"><ele>1349.0</ele><time>2026-04-07T13:31:09.715Z</time></trkpt><trkpt lat="44.8725763" lon="7.2056971"><ele>1349.0</ele><time>2026-04-07T13:31:10.715Z</time></trkpt><trkpt lat="44.8726329" lon="7.2055987"><ele>1353.0</ele><time>2026-04-07T13:31:11.715Z</time></trkpt><trkpt lat="44.8726978" lon="7.2055097"><ele>1357.0</ele><time>2026-04-07T13:31:12.715Z</time></trkpt><trkpt lat="44.872775" lon="7.2054364"><ele>1361.0</ele><time>2026-04-07T13:31:13.715Z</time></trkpt><trkpt lat="44.87286" lon="7.2053684"><ele>1365.0</ele><time>2026-04-07T13:31:14.715Z</time></trkpt><trkpt lat="44.8729466" lon="7.2053192"><ele>1369.0</ele><time>2026-04-07T13:31:15.715Z</time></trkpt><trkpt lat="44.8730301" lon="7.2052604"><ele>1369.0</ele><time>2026-04-07T13:31:16.715Z</time></trkpt><trkpt lat="44.8731036" lon="7.2051764"><ele>1369.0</ele><time>2026-04-07T13:31:17.715Z</time></trkpt><trkpt lat="44.8731492" lon="7.2050622"><ele>1369.0</ele><time>2026-04-07T13:31:18.715Z</time></trkpt><trkpt lat="44.8731746" lon="7.2049387"><ele>1369.0</ele><time>2026-04-07T13:31:19.715Z</time></trkpt><trkpt lat="44.87318" lon="7.2048265"><ele>1369.0</ele><time>2026-04-07T13:31:20.714Z</time></trkpt><trkpt lat="44.8731884" lon="7.2047089"><ele>1369.0</ele><time>2026-04-07T13:31:22.715Z</time></trkpt><trkpt lat="44.8732368" lon="7.2047981"><ele>1369.0</ele><time>2026-04-07T13:31:25.715Z</time></trkpt><trkpt lat="44.8732403" lon="7.2049066"><ele>1369.0</ele><time>2026-04-07T13:31:26.715Z</time></trkpt><trkpt lat="44.8732404" lon="7.205055"><ele>1369.0</ele><time>2026-04-07T13:31:27.715Z</time></trkpt><trkpt lat="44.8732415" lon="7.2052039"><ele>1369.0</ele><time>2026-04-07T13:31:28.715Z</time></trkpt><trkpt lat="44.873239" lon="7.2053321"><ele>1369.0</ele><time>2026-04-07T13:31:29.715Z</time></trkpt><trkpt lat="44.8732179" lon="7.2054374"><ele>1369.0</ele><time>2026-04-07T13:31:30.715Z</time></trkpt><trkpt lat="44.8731676" lon="7.2055274"><ele>1369.0</ele><time>2026-04-07T13:31:31.715Z</time></trkpt><trkpt lat="44.8730928" lon="7.2056162"><ele>1369.0</ele><time>2026-04-07T13:31:32.715Z</time></trkpt><trkpt lat="44.8730155" lon="7.2057151"><ele>1369.0</ele><time>2026-04-07T13:31:33.715Z</time></trkpt><trkpt lat="44.8729446" lon="7.2058098"><ele>1369.0</ele><time>2026-04-07T13:31:34.715Z</time></trkpt><trkpt lat="44.8728882" lon="7.2059022"><ele>1372.0</ele><time>2026-04-07T13:31:35.715Z</time></trkpt><trkpt lat="44.8728512" lon="7.2059875"><ele>1375.0</ele><time>2026-04-07T13:31:36.714Z</time></trkpt><trkpt lat="44.8728631" lon="7.2061077"><ele>1378.0</ele><time>2026-04-07T13:31:38.715Z</time></trkpt><trkpt lat="44.8729576" lon="7.2060422"><ele>1381.0</ele><time>2026-04-07T13:31:40.715Z</time></trkpt><trkpt lat="44.8730008" lon="7.2059587"><ele>1384.0</ele><time>2026-04-07T13:31:41.715Z</time></trkpt><trkpt lat="44.873044" lon="7.2058598"><ele>1387.0</ele><time>2026-04-07T13:31:42.715Z</time></trkpt><trkpt lat="44.873098" lon="7.2057628"><ele>1387.0</ele><time>2026-04-07T13:31:43.715Z</time></trkpt><trkpt lat="44.8731601" lon="7.2056762"><ele>1387.0</ele><time>2026-04-07T13:31:44.715Z</time></trkpt><trkpt lat="44.8732274" lon="7.2056068"><ele>1387.0</ele><time>2026-04-07T13:31:45.715Z</time></trkpt><trkpt lat="44.8732923" lon="7.2055484"><ele>1387.0</ele><time>2026-04-07T13:31:46.715Z</time></trkpt><trkpt lat="44.8733557" lon="7.205492"><ele>1387.0</ele><time>2026-04-07T13:31:47.715Z</time></trkpt><trkpt lat="44.8734134" lon="7.2054195"><ele>1387.0</ele><time>2026-04-07T13:31:48.715Z</time></trkpt><trkpt lat="44.8734496" lon="7.2053231"><ele>1391.6</ele><time>2026-04-07T13:31:49.715Z</time></trkpt><trkpt lat="44.8734778" lon="7.2051994"><ele>1396.1999999999998</ele><time>2026-04-07T13:31:50.715Z</time></trkpt><trkpt lat="44.8734996" lon="7.2050643"><ele>1400.8</ele><time>2026-04-07T13:31:51.715Z</time></trkpt><trkpt lat="44.8735237" lon="7.2049206"><ele>1405.4</ele><time>2026-04-07T13:31:52.715Z</time></trkpt><trkpt lat="44.8735477" lon="7.2047683"><ele>1410.0</ele><time>2026-04-07T13:31:53.715Z</time></trkpt><trkpt lat="44.8735638" lon="7.2046132"><ele>1410.0</ele><time>2026-04-07T13:31:54.715Z</time></trkpt><trkpt lat="44.8735777" lon="7.20446"><ele>1410.0</ele><time>2026-04-07T13:31:55.715Z</time></trkpt><trkpt lat="44.8735931" lon="7.2043141"><ele>1410.0</ele><time>2026-04-07T13:31:56.715Z</time></trkpt><trkpt lat="44.8736146" lon="7.2041713"><ele>1410.0</ele><time>2026-04-07T13:31:57.715Z</time></trkpt><trkpt lat="44.8736333" lon="7.2040407"><ele>1410.0</ele><time>2026-04-07T13:31:58.715Z</time></trkpt><trkpt lat="44.873663" lon="7.2039129"><ele>1410.0</ele><time>2026-04-07T13:31:59.715Z</time></trkpt><trkpt lat="44.8736961" lon="7.2037796"><ele>1410.0</ele><time>2026-04-07T13:32:00.715Z</time></trkpt><trkpt lat="44.8737199" lon="7.2036375"><ele>1410.0</ele><time>2026-04-07T13:32:01.715Z</time></trkpt><trkpt lat="44.8737381" lon="7.2034915"><ele>1410.0</ele><time>2026-04-07T13:32:02.715Z</time></trkpt><trkpt lat="44.8737561" lon="7.2033515"><ele>1410.0</ele><time>2026-04-07T13:32:03.715Z</time></trkpt><trkpt lat="44.8737758" lon="7.2032115"><ele>1407.75</ele><time>2026-04-07T13:32:04.715Z</time></trkpt><trkpt lat="44.8738062" lon="7.2030684"><ele>1405.5</ele><time>2026-04-07T13:32:05.714Z</time></trkpt><trkpt lat="44.8738464" lon="7.2029165"><ele>1403.25</ele><time>2026-04-07T13:32:06.715Z</time></trkpt><trkpt lat="44.8738946" lon="7.2027562"><ele>1401.0</ele><time>2026-04-07T13:32:07.715Z</time></trkpt><trkpt lat="44.8739434" lon="7.2025978"><ele>1401.0</ele><time>2026-04-07T13:32:08.715Z</time></trkpt><trkpt lat="44.8739956" lon="7.2024522"><ele>1401.0</ele><time>2026-04-07T13:32:09.715Z</time></trkpt><trkpt lat="44.8740444" lon="7.2023111"><ele>1401.0</ele><time>2026-04-07T13:32:10.715Z</time></trkpt><trkpt lat="44.8740912" lon="7.2021809"><ele>1401.0</ele><time>2026-04-07T13:32:11.715Z</time></trkpt><trkpt lat="44.8741275" lon="7.2020625"><ele>1401.0</ele><time>2026-04-07T13:32:12.715Z</time></trkpt><trkpt lat="44.8741537" lon="7.2019348"><ele>1400.5</ele><time>2026-04-07T13:32:13.715Z</time></trkpt><trkpt lat="44.8741785" lon="7.2017942"><ele>1400.0</ele><time>2026-04-07T13:32:14.715Z</time></trkpt><trkpt lat="44.8742068" lon="7.2016441"><ele>1399.5</ele><time>2026-04-07T13:32:15.715Z</time></trkpt><trkpt lat="44.8742418" lon="7.2014892"><ele>1399.0</ele><time>2026-04-07T13:32:16.715Z</time></trkpt><trkpt lat="44.8742815" lon="7.2013267"><ele>1408.25</ele><time>2026-04-07T13:32:17.715Z</time></trkpt><trkpt lat="44.8743204" lon="7.2011607"><ele>1417.5</ele><time>2026-04-07T13:32:18.715Z</time></trkpt><trkpt lat="44.8743671" lon="7.2009898"><ele>1426.75</ele><time>2026-04-07T13:32:19.715Z</time></trkpt><trkpt lat="44.8744166" lon="7.2008372"><ele>1436.0</ele><time>2026-04-07T13:32:20.715Z</time></trkpt><trkpt lat="44.8744588" lon="7.2006913"><ele>1435.6</ele><time>2026-04-07T13:32:21.715Z</time></trkpt><trkpt lat="44.8744933" lon="7.2005409"><ele>1435.1999999999998</ele><time>2026-04-07T13:32:22.715Z</time></trkpt><trkpt lat="44.8745116" lon="7.2003912"><ele>1434.8000000000002</ele><time>2026-04-07T13:32:23.715Z</time></trkpt><trkpt lat="44.8745258" lon="7.2002411"><ele>1434.4</ele><time>2026-04-07T13:32:24.715Z</time></trkpt><trkpt lat="44.8745392" lon="7.2000815"><ele>1434.0</ele><time>2026-04-07T13:32:25.715Z</time></trkpt><trkpt lat="44.8745642" lon="7.1999181"><ele>1433.4</ele><time>2026-04-07T13:32:26.715Z</time></trkpt><trkpt lat="44.8745886" lon="7.1997511"><ele>1432.8000000000002</ele><time>2026-04-07T13:32:27.715Z</time></trkpt><trkpt lat="44.8746134" lon="7.199603"><ele>1432.1999999999998</ele><time>2026-04-07T13:32:28.715Z</time></trkpt><trkpt lat="44.8746446" lon="7.1994749"><ele>1431.6</ele><time>2026-04-07T13:32:29.715Z</time></trkpt><trkpt lat="44.8746734" lon="7.1993644"><ele>1431.0</ele><time>2026-04-07T13:32:30.715Z</time></trkpt><trkpt lat="44.8746938" lon="7.1992548"><ele>1431.0</ele><time>2026-04-07T13:32:31.715Z</time></trkpt><trkpt lat="44.8746996" lon="7.1991417"><ele>1431.0</ele><time>2026-04-07T13:32:32.715Z</time></trkpt><trkpt lat="44.874698" lon="7.1990158"><ele>1431.0</ele><time>2026-04-07T13:32:33.715Z</time></trkpt><trkpt lat="44.8747018" lon="7.1988848"><ele>1431.0</ele><time>2026-04-07T13:32:34.715Z</time></trkpt><trkpt lat="44.8747092" lon="7.1987468"><ele>1431.0</ele><time>2026-04-07T13:32:35.715Z</time></trkpt><trkpt lat="44.8747144" lon="7.1986019"><ele>1430.8</ele><time>2026-04-07T13:32:36.715Z</time></trkpt><trkpt lat="44.8747299" lon="7.19845"><ele>1430.6</ele><time>2026-04-07T13:32:37.715Z</time></trkpt><trkpt lat="44.8747478" lon="7.1983055"><ele>1430.4</ele><time>2026-04-07T13:32:38.715Z</time></trkpt><trkpt lat="44.8747593" lon="7.1981633"><ele>1430.2</ele><time>2026-04-07T13:32:39.715Z</time></trkpt><trkpt lat="44.874774" lon="7.198023"><ele>1430.0</ele><time>2026-04-07T13:32:40.715Z</time></trkpt><trkpt lat="44.8747686" lon="7.1978889"><ele>1430.6666666666667</ele><time>2026-04-07T13:32:41.715Z</time></trkpt><trkpt lat="44.8747458" lon="7.1977647"><ele>1431.3333333333335</ele><time>2026-04-07T13:32:42.715Z</time></trkpt><trkpt lat="44.8747189" lon="7.197661"><ele>1432.0</ele><time>2026-04-07T13:32:43.715Z</time></trkpt><trkpt lat="44.8746971" lon="7.1975555"><ele>1432.6666666666667</ele><time>2026-04-07T13:32:44.715Z</time></trkpt><trkpt lat="44.8746888" lon="7.197452"><ele>1433.3333333333333</ele><time>2026-04-07T13:32:45.715Z</time></trkpt><trkpt lat="44.8747006" lon="7.1973427"><ele>1434.0</ele><time>2026-04-07T13:32:46.715Z</time></trkpt><trkpt lat="44.8747244" lon="7.197229"><ele>1435.8333333333333</ele><time>2026-04-07T13:32:47.715Z</time></trkpt><trkpt lat="44.8747541" lon="7.1971149"><ele>1437.6666666666667</ele><time>2026-04-07T13:32:48.715Z</time></trkpt><trkpt lat="44.8747896" lon="7.1970036"><ele>1439.5</ele><time>2026-04-07T13:32:49.715Z</time></trkpt><trkpt lat="44.8748186" lon="7.1968932"><ele>1441.3333333333335</ele><time>2026-04-07T13:32:50.715Z</time></trkpt><trkpt lat="44.8748312" lon="7.1967687"><ele>1443.1666666666667</ele><time>2026-04-07T13:32:51.715Z</time></trkpt><trkpt lat="44.8748332" lon="7.1966348"><ele>1445.0</ele><time>2026-04-07T13:32:52.715Z</time></trkpt><trkpt lat="44.874827" lon="7.1964941"><ele>1445.8</ele><time>2026-04-07T13:32:53.715Z</time></trkpt><trkpt lat="44.874816" lon="7.1963475"><ele>1446.6</ele><time>2026-04-07T13:32:54.715Z</time></trkpt><trkpt lat="44.8748132" lon="7.1962046"><ele>1447.4</ele><time>2026-04-07T13:32:55.715Z</time></trkpt><trkpt lat="44.8748155" lon="7.1960678"><ele>1448.2</ele><time>2026-04-07T13:32:56.715Z</time></trkpt><trkpt lat="44.874815" lon="7.1959353"><ele>1449.0</ele><time>2026-04-07T13:32:57.715Z</time></trkpt><trkpt lat="44.8748147" lon="7.195814"><ele>1449.0</ele><time>2026-04-07T13:32:58.715Z</time></trkpt><trkpt lat="44.8748129" lon="7.1957116"><ele>1449.0</ele><time>2026-04-07T13:32:59.715Z</time></trkpt><trkpt lat="44.8748131" lon="7.1956149"><ele>1449.0</ele><time>2026-04-07T13:33:00.715Z</time></trkpt><trkpt lat="44.8748412" lon="7.195483"><ele>1449.0</ele><time>2026-04-07T13:33:02.715Z</time></trkpt><trkpt lat="44.8749158" lon="7.1955599"><ele>1449.0</ele><time>2026-04-07T13:33:04.715Z</time></trkpt><trkpt lat="44.8749433" lon="7.1956669"><ele>1449.0</ele><time>2026-04-07T13:33:05.715Z</time></trkpt><trkpt lat="44.8749666" lon="7.1957809"><ele>1449.0</ele><time>2026-04-07T13:33:06.715Z</time></trkpt><trkpt lat="44.8749946" lon="7.1959052"><ele>1449.0</ele><time>2026-04-07T13:33:07.714Z</time></trkpt><trkpt lat="44.8750309" lon="7.1960355"><ele>1449.0</ele><time>2026-04-07T13:33:08.715Z</time></trkpt><trkpt lat="44.8750733" lon="7.1961813"><ele>1449.0</ele><time>2026-04-07T13:33:09.715Z</time></trkpt><trkpt lat="44.8751192" lon="7.1963249"><ele>1449.0</ele><time>2026-04-07T13:33:10.715Z</time></trkpt><trkpt lat="44.8751667" lon="7.1964777"><ele>1458.0</ele><time>2026-04-07T13:33:11.715Z</time></trkpt><trkpt lat="44.8752212" lon="7.1966304"><ele>1467.0</ele><time>2026-04-07T13:33:12.715Z</time></trkpt><trkpt lat="44.8752725" lon="7.1967853"><ele>1476.0</ele><time>2026-04-07T13:33:13.715Z</time></trkpt><trkpt lat="44.8753157" lon="7.1969506"><ele>1485.0</ele><time>2026-04-07T13:33:14.715Z</time></trkpt><trkpt lat="44.8753402" lon="7.1971231"><ele>1485.0</ele><time>2026-04-07T13:33:15.715Z</time></trkpt><trkpt lat="44.8753493" lon="7.1973042"><ele>1485.0</ele><time>2026-04-07T13:33:16.715Z</time></trkpt><trkpt lat="44.8753529" lon="7.197488"><ele>1485.0</ele><time>2026-04-07T13:33:17.715Z</time></trkpt><trkpt lat="44.8753631" lon="7.197674"><ele>1485.0</ele><time>2026-04-07T13:33:18.715Z</time></trkpt><trkpt lat="44.8753798" lon="7.1978711"><ele>1481.0</ele><time>2026-04-07T13:33:19.715Z</time></trkpt><trkpt lat="44.8753967" lon="7.1980711"><ele>1477.0</ele><time>2026-04-07T13:33:20.715Z</time></trkpt><trkpt lat="44.875404" lon="7.1982602"><ele>1473.0</ele><time>2026-04-07T13:33:21.715Z</time></trkpt><trkpt lat="44.8753951" lon="7.1984416"><ele>1469.0</ele><time>2026-04-07T13:33:22.715Z</time></trkpt><trkpt lat="44.8753721" lon="7.1986173"><ele>1469.0</ele><time>2026-04-07T13:33:23.715Z</time></trkpt><trkpt lat="44.8753494" lon="7.1988084"><ele>1469.0</ele><time>2026-04-07T13:33:24.715Z</time></trkpt><trkpt lat="44.8753389" lon="7.1990131"><ele>1469.0</ele><time>2026-04-07T13:33:25.715Z</time></trkpt><trkpt lat="44.8753463" lon="7.1992328"><ele>1469.0</ele><time>2026-04-07T13:33:26.715Z</time></trkpt><trkpt lat="44.8753662" lon="7.1994615"><ele>1469.0</ele><time>2026-04-07T13:33:27.715Z</time></trkpt><trkpt lat="44.8753955" lon="7.199696"><ele>1469.0</ele><time>2026-04-07T13:33:28.715Z</time></trkpt><trkpt lat="44.8754258" lon="7.1999229"><ele>1469.0</ele><time>2026-04-07T13:33:29.715Z</time></trkpt><trkpt lat="44.875455" lon="7.2001538"><ele>1468.3333333333335</ele><time>2026-04-07T13:33:30.715Z</time></trkpt><trkpt lat="44.8754891" lon="7.2003847"><ele>1467.6666666666667</ele><time>2026-04-07T13:33:31.715Z</time></trkpt><trkpt lat="44.8755156" lon="7.2006106"><ele>1467.0</ele><time>2026-04-07T13:33:32.715Z</time></trkpt><trkpt lat="44.8755526" lon="7.2008268"><ele>1467.0</ele><time>2026-04-07T13:33:33.715Z</time></trkpt><trkpt lat="44.8755821" lon="7.2010304"><ele>1467.0</ele><time>2026-04-07T13:33:34.715Z</time></trkpt><trkpt lat="44.8756083" lon="7.201221"><ele>1467.0</ele><time>2026-04-07T13:33:35.715Z</time></trkpt><trkpt lat="44.8756345" lon="7.2014004"><ele>1467.0</ele><time>2026-04-07T13:33:36.715Z</time></trkpt><trkpt lat="44.8756622" lon="7.2015585"><ele>1466.3999999999999</ele><time>2026-04-07T13:33:37.715Z</time></trkpt><trkpt lat="44.8756836" lon="7.2017068"><ele>1465.8</ele><time>2026-04-07T13:33:38.715Z</time></trkpt><trkpt lat="44.8757003" lon="7.2018537"><ele>1465.2</ele><time>2026-04-07T13:33:39.715Z</time></trkpt><trkpt lat="44.8757103" lon="7.2019958"><ele>1464.6</ele><time>2026-04-07T13:33:40.715Z</time></trkpt><trkpt lat="44.8757094" lon="7.2021437"><ele>1464.0</ele><time>2026-04-07T13:33:41.715Z</time></trkpt><trkpt lat="44.875698" lon="7.2022855"><ele>1464.0</ele><time>2026-04-07T13:33:42.715Z</time></trkpt><trkpt lat="44.8756788" lon="7.202414"><ele>1464.0</ele><time>2026-04-07T13:33:43.715Z</time></trkpt><trkpt lat="44.8756618" lon="7.2025281"><ele>1464.0</ele><time>2026-04-07T13:33:44.714Z</time></trkpt><trkpt lat="44.8756408" lon="7.202617"><ele>1464.0</ele><time>2026-04-07T13:33:45.715Z</time></trkpt><trkpt lat="44.8756157" lon="7.2027627"><ele>1464.0</ele><time>2026-04-07T13:33:47.715Z</time></trkpt><trkpt lat="44.875615" lon="7.2028743"><ele>1464.0</ele><time>2026-04-07T13:33:49.715Z</time></trkpt><trkpt lat="44.8756276" lon="7.2029794"><ele>1464.0</ele><time>2026-04-07T13:33:51.715Z</time></trkpt><trkpt lat="44.8756369" lon="7.2030817"><ele>1464.0</ele><time>2026-04-07T13:33:53.715Z</time></trkpt><trkpt lat="44.8756548" lon="7.2031705"><ele>1462.0</ele><time>2026-04-07T13:33:55.715Z</time></trkpt><trkpt lat="44.8756986" lon="7.2032749"><ele>1462.0</ele><time>2026-04-07T13:33:58.715Z</time></trkpt><trkpt lat="44.8757659" lon="7.203347"><ele>1462.0</ele><time>2026-04-07T13:34:01.715Z</time></trkpt><trkpt lat="44.8758068" lon="7.2034569"><ele>1462.0</ele><time>2026-04-07T13:34:04.715Z</time></trkpt></trkseg></trk></gpx>